<?xml version='1.0' encoding='UTF-8'?><gpx version="1.1" creator="JPX - https://github.com/jenetics/jpx" xmlns="http://www.topografix.com/GPX/1/1"><trk><trkseg><trkpt lat="45.7717727" lon="11.7432235"><ele>135.0</ele><time>2026-04-06T12:26:20.68Z</time></trkpt><trkpt lat="45.771735" lon="11.7431448"><ele>135.0</ele><time>2026-04-06T12:26:24.616Z</time></trkpt><trkpt lat="45.7717972" lon="11.7431048"><ele>135.0</ele><time>2026-04-06T12:26:26.614Z</time></trkpt><trkpt lat="45.7717239" lon="11.7430696"><ele>135.0</ele><time>2026-04-06T12:26:32.617Z</time></trkpt><trkpt lat="45.7716495" lon="11.7427293"><ele>135.0</ele><time>2026-04-06T12:26:43.53Z</time></trkpt><trkpt lat="45.7716016" lon="11.7428028"><ele>135.0</ele><time>2026-04-06T12:26:47.531Z</time></trkpt><trkpt lat="45.7716439" lon="11.7429507"><ele>135.0</ele><time>2026-04-06T12:26:50.528Z</time></trkpt><trkpt lat="45.7715826" lon="11.7429275"><ele>135.0</ele><time>2026-04-06T12:26:55.527Z</time></trkpt><trkpt lat="45.7716469" lon="11.7429684"><ele>135.0</ele><time>2026-04-06T12:26:57.528Z</time></trkpt><trkpt lat="45.7717093" lon="11.7430362"><ele>135.0</ele><time>2026-04-06T12:26:59.532Z</time></trkpt><trkpt lat="45.7717492" lon="11.7431061"><ele>135.0</ele><time>2026-04-06T12:27:07.525Z</time></trkpt><trkpt lat="45.7716884" lon="11.7431534"><ele>135.0</ele><time>2026-04-06T12:31:06.535Z</time></trkpt><trkpt lat="45.7717405" lon="11.7432169"><ele>135.0</ele><time>2026-04-06T12:31:46.54Z</time></trkpt><trkpt lat="45.7717914" lon="11.7432815"><ele>135.0</ele><time>2026-04-06T12:32:31.695Z</time></trkpt><trkpt lat="45.7717806" lon="11.7431915"><ele>135.0</ele><time>2026-04-06T12:34:10.558Z</time></trkpt><trkpt lat="45.77174" lon="11.7429943"><ele>135.0</ele><time>2026-04-06T12:42:46.573Z</time></trkpt><trkpt lat="45.7717617" lon="11.7430873"><ele>135.0</ele><time>2026-04-06T12:44:54.604Z</time></trkpt><trkpt lat="45.7717158" lon="11.7431512"><ele>135.0</ele><time>2026-04-06T12:45:10.582Z</time></trkpt><trkpt lat="45.7716429" lon="11.7432339"><ele>135.0</ele><time>2026-04-06T12:46:41.577Z</time></trkpt><trkpt lat="45.7715719" lon="11.7432338"><ele>135.0</ele><time>2026-04-06T12:46:43.579Z</time></trkpt><trkpt lat="45.7714987" lon="11.7432169"><ele>135.0</ele><time>2026-04-06T12:46:45.579Z</time></trkpt><trkpt lat="45.7714578" lon="11.7430914"><ele>135.0</ele><time>2026-04-06T12:46:47.584Z</time></trkpt><trkpt lat="45.7714282" lon="11.7428891"><ele>135.0</ele><time>2026-04-06T12:46:49.565Z</time></trkpt><trkpt lat="45.7714047" lon="11.7427577"><ele>135.0</ele><time>2026-04-06T12:46:50.581Z</time></trkpt><trkpt lat="45.7713841" lon="11.742631"><ele>135.0</ele><time>2026-04-06T12:46:51.582Z</time></trkpt><trkpt lat="45.7713678" lon="11.7425275"><ele>135.0</ele><time>2026-04-06T12:46:52.586Z</time></trkpt><trkpt lat="45.7713456" lon="11.7424383"><ele>135.0</ele><time>2026-04-06T12:46:53.581Z</time></trkpt><trkpt lat="45.771319" lon="11.7423388"><ele>135.0</ele><time>2026-04-06T12:46:54.584Z</time></trkpt><trkpt lat="45.771287" lon="11.7422162"><ele>135.0</ele><time>2026-04-06T12:46:55.587Z</time></trkpt><trkpt lat="45.771263" lon="11.7420713"><ele>135.0</ele><time>2026-04-06T12:46:56.574Z</time></trkpt><trkpt lat="45.7712348" lon="11.7419006"><ele>135.0</ele><time>2026-04-06T12:46:57.574Z</time></trkpt><trkpt lat="45.7712026" lon="11.741708"><ele>135.0</ele><time>2026-04-06T12:46:58.578Z</time></trkpt><trkpt lat="45.7711786" lon="11.7415461"><ele>134.66666666666666</ele><time>2026-04-06T12:46:59.577Z</time></trkpt><trkpt lat="45.7711583" lon="11.7414233"><ele>134.33333333333334</ele><time>2026-04-06T12:47:00.577Z</time></trkpt><trkpt lat="45.7711776" lon="11.7413132"><ele>134.0</ele><time>2026-04-06T12:47:02.568Z</time></trkpt><trkpt lat="45.7712408" lon="11.7413364"><ele>133.66666666666669</ele><time>2026-04-06T12:48:08.586Z</time></trkpt><trkpt lat="45.771232" lon="11.7412143"><ele>133.33333333333334</ele><time>2026-04-06T12:49:42.573Z</time></trkpt><trkpt lat="45.7711526" lon="11.7411938"><ele>133.0</ele><time>2026-04-06T12:49:46.818Z</time></trkpt><trkpt lat="45.7711389" lon="11.741302"><ele>133.0</ele><time>2026-04-06T12:49:47.88Z</time></trkpt><trkpt lat="45.7711323" lon="11.7414465"><ele>133.0</ele><time>2026-04-06T12:49:48.891Z</time></trkpt><trkpt lat="45.7711353" lon="11.7417416"><ele>133.0</ele><time>2026-04-06T12:49:50.58Z</time></trkpt><trkpt lat="45.7711635" lon="11.7419346"><ele>133.0</ele><time>2026-04-06T12:49:51.741Z</time></trkpt><trkpt lat="45.7712063" lon="11.7422348"><ele>133.4</ele><time>2026-04-06T12:49:53.73Z</time></trkpt><trkpt lat="45.7712225" lon="11.7423566"><ele>133.8</ele><time>2026-04-06T12:49:54.731Z</time></trkpt><trkpt lat="45.7712491" lon="11.7424747"><ele>134.2</ele><time>2026-04-06T12:49:55.727Z</time></trkpt><trkpt lat="45.771348" lon="11.7426821"><ele>134.6</ele><time>2026-04-06T12:49:57.563Z</time></trkpt><trkpt lat="45.7714218" lon="11.7427399"><ele>135.0</ele><time>2026-04-06T12:49:58.568Z</time></trkpt><trkpt lat="45.7715227" lon="11.7427614"><ele>135.0</ele><time>2026-04-06T12:49:59.566Z</time></trkpt><trkpt lat="45.7716581" lon="11.7427362"><ele>135.0</ele><time>2026-04-06T12:50:00.564Z</time></trkpt><trkpt lat="45.7718218" lon="11.7426902"><ele>135.0</ele><time>2026-04-06T12:50:01.563Z</time></trkpt><trkpt lat="45.77202" lon="11.7426192"><ele>134.5</ele><time>2026-04-06T12:50:02.724Z</time></trkpt><trkpt lat="45.77239" lon="11.7424478"><ele>134.0</ele><time>2026-04-06T12:50:04.736Z</time></trkpt><trkpt lat="45.7725447" lon="11.7423538"><ele>134.0</ele><time>2026-04-06T12:50:05.89Z</time></trkpt><trkpt lat="45.7726679" lon="11.742289"><ele>134.0</ele><time>2026-04-06T12:50:06.888Z</time></trkpt><trkpt lat="45.7728861" lon="11.7423091"><ele>134.0</ele><time>2026-04-06T12:50:08.578Z</time></trkpt><trkpt lat="45.7729893" lon="11.7423635"><ele>134.0</ele><time>2026-04-06T12:50:09.736Z</time></trkpt><trkpt lat="45.7730439" lon="11.7424277"><ele>134.0</ele><time>2026-04-06T12:50:10.896Z</time></trkpt><trkpt lat="45.7730402" lon="11.7426404"><ele>134.0</ele><time>2026-04-06T12:50:12.728Z</time></trkpt><trkpt lat="45.7730818" lon="11.7428819"><ele>134.0</ele><time>2026-04-06T12:50:14.731Z</time></trkpt><trkpt lat="45.7732192" lon="11.742999"><ele>134.0</ele><time>2026-04-06T12:50:17.578Z</time></trkpt><trkpt lat="45.7733152" lon="11.7429836"><ele>134.0</ele><time>2026-04-06T12:50:18.736Z</time></trkpt><trkpt lat="45.773531" lon="11.7429446"><ele>134.0</ele><time>2026-04-06T12:50:20.569Z</time></trkpt><trkpt lat="45.7736725" lon="11.7429229"><ele>134.0</ele><time>2026-04-06T12:50:21.57Z</time></trkpt><trkpt lat="45.7738018" lon="11.7429046"><ele>134.0</ele><time>2026-04-06T12:50:22.574Z</time></trkpt><trkpt lat="45.7739751" lon="11.7429187"><ele>134.0</ele><time>2026-04-06T12:50:23.594Z</time></trkpt><trkpt lat="45.7741621" lon="11.7429235"><ele>134.0</ele><time>2026-04-06T12:50:24.596Z</time></trkpt><trkpt lat="45.7743733" lon="11.7429564"><ele>134.0</ele><time>2026-04-06T12:50:25.596Z</time></trkpt><trkpt lat="45.7745632" lon="11.7429916"><ele>134.0</ele><time>2026-04-06T12:50:26.606Z</time></trkpt><trkpt lat="45.7747099" lon="11.7430012"><ele>134.0</ele><time>2026-04-06T12:50:27.598Z</time></trkpt><trkpt lat="45.7748529" lon="11.7430398"><ele>134.0</ele><time>2026-04-06T12:50:28.593Z</time></trkpt><trkpt lat="45.77495" lon="11.7430686"><ele>134.0</ele><time>2026-04-06T12:50:29.597Z</time></trkpt><trkpt lat="45.7750166" lon="11.7431101"><ele>134.0</ele><time>2026-04-06T12:50:30.571Z</time></trkpt><trkpt lat="45.7750624" lon="11.7432025"><ele>134.0</ele><time>2026-04-06T12:50:33.573Z</time></trkpt><trkpt lat="45.7751239" lon="11.7432304"><ele>134.4</ele><time>2026-04-06T12:50:34.569Z</time></trkpt><trkpt lat="45.7751887" lon="11.743244"><ele>134.8</ele><time>2026-04-06T12:50:35.593Z</time></trkpt><trkpt lat="45.7752614" lon="11.7432182"><ele>135.2</ele><time>2026-04-06T12:50:36.578Z</time></trkpt><trkpt lat="45.7753707" lon="11.7432037"><ele>135.6</ele><time>2026-04-06T12:50:37.577Z</time></trkpt><trkpt lat="45.7755364" lon="11.7432385"><ele>136.0</ele><time>2026-04-06T12:50:38.737Z</time></trkpt><trkpt lat="45.7759099" lon="11.7433017"><ele>136.0</ele><time>2026-04-06T12:50:40.575Z</time></trkpt><trkpt lat="45.7761414" lon="11.7433156"><ele>136.0</ele><time>2026-04-06T12:50:41.578Z</time></trkpt><trkpt lat="45.776324" lon="11.7433058"><ele>136.0</ele><time>2026-04-06T12:50:42.734Z</time></trkpt><trkpt lat="45.7766338" lon="11.7433656"><ele>136.0</ele><time>2026-04-06T12:50:44.623Z</time></trkpt><trkpt lat="45.7767229" lon="11.7434051"><ele>136.0</ele><time>2026-04-06T12:50:45.582Z</time></trkpt><trkpt lat="45.7768268" lon="11.7433969"><ele>136.0</ele><time>2026-04-06T12:50:46.579Z</time></trkpt><trkpt lat="45.7768935" lon="11.7434273"><ele>136.0</ele><time>2026-04-06T12:50:47.581Z</time></trkpt><trkpt lat="45.7769694" lon="11.7434472"><ele>136.0</ele><time>2026-04-06T12:50:48.578Z</time></trkpt><trkpt lat="45.7770685" lon="11.7435907"><ele>136.25</ele><time>2026-04-06T12:50:50.575Z</time></trkpt><trkpt lat="45.7771135" lon="11.7437493"><ele>136.5</ele><time>2026-04-06T12:50:51.572Z</time></trkpt><trkpt lat="45.7771627" lon="11.7439228"><ele>136.75</ele><time>2026-04-06T12:50:52.575Z</time></trkpt><trkpt lat="45.7772202" lon="11.7440818"><ele>137.0</ele><time>2026-04-06T12:50:53.576Z</time></trkpt><trkpt lat="45.7772866" lon="11.7442281"><ele>137.0</ele><time>2026-04-06T12:50:54.576Z</time></trkpt><trkpt lat="45.7773505" lon="11.7443528"><ele>137.0</ele><time>2026-04-06T12:50:55.574Z</time></trkpt><trkpt lat="45.7774157" lon="11.7444628"><ele>137.0</ele><time>2026-04-06T12:50:56.581Z</time></trkpt><trkpt lat="45.777479" lon="11.744552"><ele>137.0</ele><time>2026-04-06T12:50:57.57Z</time></trkpt><trkpt lat="45.7775359" lon="11.7446309"><ele>137.0</ele><time>2026-04-06T12:50:58.578Z</time></trkpt><trkpt lat="45.7776088" lon="11.7447461"><ele>136.79999999999998</ele><time>2026-04-06T12:51:00.576Z</time></trkpt><trkpt lat="45.7776989" lon="11.7447417"><ele>136.6</ele><time>2026-04-06T12:51:03.569Z</time></trkpt><trkpt lat="45.7777738" lon="11.7446959"><ele>136.39999999999998</ele><time>2026-04-06T12:51:04.571Z</time></trkpt><trkpt lat="45.7778533" lon="11.7446338"><ele>136.2</ele><time>2026-04-06T12:51:05.575Z</time></trkpt><trkpt lat="45.7779544" lon="11.744533"><ele>136.0</ele><time>2026-04-06T12:51:06.579Z</time></trkpt><trkpt lat="45.7780744" lon="11.7444391"><ele>136.0</ele><time>2026-04-06T12:51:07.583Z</time></trkpt><trkpt lat="45.7782065" lon="11.7443394"><ele>136.0</ele><time>2026-04-06T12:51:08.59Z</time></trkpt><trkpt lat="45.7783334" lon="11.7442458"><ele>136.0</ele><time>2026-04-06T12:51:09.581Z</time></trkpt><trkpt lat="45.7784651" lon="11.7441575"><ele>136.0</ele><time>2026-04-06T12:51:10.583Z</time></trkpt><trkpt lat="45.7786096" lon="11.7440493"><ele>136.33333333333334</ele><time>2026-04-06T12:51:11.576Z</time></trkpt><trkpt lat="45.7787952" lon="11.7439098"><ele>136.66666666666666</ele><time>2026-04-06T12:51:12.573Z</time></trkpt><trkpt lat="45.7789528" lon="11.7438096"><ele>137.0</ele><time>2026-04-06T12:51:13.575Z</time></trkpt><trkpt lat="45.7791423" lon="11.7437165"><ele>137.0</ele><time>2026-04-06T12:51:14.575Z</time></trkpt><trkpt lat="45.7793153" lon="11.7436096"><ele>137.0</ele><time>2026-04-06T12:51:15.573Z</time></trkpt><trkpt lat="45.7794499" lon="11.7435417"><ele>137.0</ele><time>2026-04-06T12:51:16.58Z</time></trkpt><trkpt lat="45.7795759" lon="11.7434163"><ele>136.79999999999998</ele><time>2026-04-06T12:51:17.588Z</time></trkpt><trkpt lat="45.7796368" lon="11.7433393"><ele>136.6</ele><time>2026-04-06T12:51:18.576Z</time></trkpt><trkpt lat="45.7796899" lon="11.743284"><ele>136.39999999999998</ele><time>2026-04-06T12:51:19.598Z</time></trkpt><trkpt lat="45.77978" lon="11.7432054"><ele>136.2</ele><time>2026-04-06T12:51:27.57Z</time></trkpt><trkpt lat="45.7799046" lon="11.7431279"><ele>136.0</ele><time>2026-04-06T12:51:30.58Z</time></trkpt><trkpt lat="45.7800211" lon="11.7430465"><ele>136.0</ele><time>2026-04-06T12:51:31.579Z</time></trkpt><trkpt lat="45.7801346" lon="11.7429619"><ele>136.0</ele><time>2026-04-06T12:51:32.58Z</time></trkpt><trkpt lat="45.7802462" lon="11.7428718"><ele>136.0</ele><time>2026-04-06T12:51:33.57Z</time></trkpt><trkpt lat="45.7803901" lon="11.7427961"><ele>136.0</ele><time>2026-04-06T12:51:34.577Z</time></trkpt><trkpt lat="45.7805754" lon="11.7427249"><ele>136.5</ele><time>2026-04-06T12:51:35.574Z</time></trkpt><trkpt lat="45.7807323" lon="11.7426694"><ele>137.0</ele><time>2026-04-06T12:51:36.581Z</time></trkpt><trkpt lat="45.7808778" lon="11.742612"><ele>137.5</ele><time>2026-04-06T12:51:37.585Z</time></trkpt><trkpt lat="45.7810101" lon="11.7425704"><ele>138.0</ele><time>2026-04-06T12:51:38.595Z</time></trkpt><trkpt lat="45.7811283" lon="11.7425296"><ele>138.0</ele><time>2026-04-06T12:51:39.587Z</time></trkpt><trkpt lat="45.7812281" lon="11.7424908"><ele>138.0</ele><time>2026-04-06T12:51:40.58Z</time></trkpt><trkpt lat="45.7813361" lon="11.7424348"><ele>138.0</ele><time>2026-04-06T12:51:41.58Z</time></trkpt><trkpt lat="45.7814256" lon="11.7423795"><ele>138.0</ele><time>2026-04-06T12:51:42.585Z</time></trkpt><trkpt lat="45.781558" lon="11.7422998"><ele>138.0</ele><time>2026-04-06T12:51:43.579Z</time></trkpt><trkpt lat="45.7816652" lon="11.7422432"><ele>138.0</ele><time>2026-04-06T12:51:44.579Z</time></trkpt><trkpt lat="45.7817858" lon="11.7421624"><ele>138.0</ele><time>2026-04-06T12:51:45.579Z</time></trkpt><trkpt lat="45.7819095" lon="11.7420738"><ele>138.0</ele><time>2026-04-06T12:51:46.581Z</time></trkpt><trkpt lat="45.7820343" lon="11.7419932"><ele>138.0</ele><time>2026-04-06T12:51:47.583Z</time></trkpt><trkpt lat="45.7821467" lon="11.741916"><ele>138.0</ele><time>2026-04-06T12:51:48.578Z</time></trkpt><trkpt lat="45.7822226" lon="11.7418357"><ele>138.0</ele><time>2026-04-06T12:51:49.583Z</time></trkpt><trkpt lat="45.7823116" lon="11.7417746"><ele>138.0</ele><time>2026-04-06T12:51:50.583Z</time></trkpt><trkpt lat="45.7823918" lon="11.7417368"><ele>138.0</ele><time>2026-04-06T12:51:51.578Z</time></trkpt><trkpt lat="45.7824734" lon="11.741687"><ele>138.0</ele><time>2026-04-06T12:51:52.588Z</time></trkpt><trkpt lat="45.7825471" lon="11.7416289"><ele>138.0</ele><time>2026-04-06T12:51:53.578Z</time></trkpt><trkpt lat="45.782621" lon="11.741559"><ele>138.0</ele><time>2026-04-06T12:51:54.576Z</time></trkpt><trkpt lat="45.7826872" lon="11.7414972"><ele>138.0</ele><time>2026-04-06T12:51:55.584Z</time></trkpt><trkpt lat="45.7827418" lon="11.7414456"><ele>138.0</ele><time>2026-04-06T12:51:56.585Z</time></trkpt><trkpt lat="45.7827939" lon="11.7413929"><ele>138.0</ele><time>2026-04-06T12:51:57.583Z</time></trkpt><trkpt lat="45.7828988" lon="11.7413221"><ele>138.0</ele><time>2026-04-06T12:51:59.58Z</time></trkpt><trkpt lat="45.7829851" lon="11.7413541"><ele>138.0</ele><time>2026-04-06T12:52:01.577Z</time></trkpt><trkpt lat="45.7830719" lon="11.7414958"><ele>138.0</ele><time>2026-04-06T12:52:03.63Z</time></trkpt><trkpt lat="45.7831083" lon="11.7416014"><ele>138.0</ele><time>2026-04-06T12:52:04.573Z</time></trkpt><trkpt lat="45.7831573" lon="11.741719"><ele>138.0</ele><time>2026-04-06T12:52:05.575Z</time></trkpt><trkpt lat="45.7832046" lon="11.7418114"><ele>137.8</ele><time>2026-04-06T12:52:06.579Z</time></trkpt><trkpt lat="45.7832561" lon="11.7419093"><ele>137.60000000000002</ele><time>2026-04-06T12:52:07.577Z</time></trkpt><trkpt lat="45.7833404" lon="11.7420126"><ele>137.39999999999998</ele><time>2026-04-06T12:52:09.569Z</time></trkpt><trkpt lat="45.7834337" lon="11.7419679"><ele>137.2</ele><time>2026-04-06T12:52:11.583Z</time></trkpt><trkpt lat="45.7834961" lon="11.7418884"><ele>137.0</ele><time>2026-04-06T12:52:12.566Z</time></trkpt><trkpt lat="45.7835599" lon="11.7418014"><ele>137.0</ele><time>2026-04-06T12:52:13.574Z</time></trkpt><trkpt lat="45.7836258" lon="11.7417049"><ele>137.0</ele><time>2026-04-06T12:52:14.571Z</time></trkpt><trkpt lat="45.783678" lon="11.741626"><ele>137.0</ele><time>2026-04-06T12:52:15.573Z</time></trkpt><trkpt lat="45.783713" lon="11.741533"><ele>137.0</ele><time>2026-04-06T12:52:16.576Z</time></trkpt><trkpt lat="45.7837346" lon="11.7414447"><ele>137.0</ele><time>2026-04-06T12:52:17.575Z</time></trkpt><trkpt lat="45.7837673" lon="11.7413222"><ele>137.0</ele><time>2026-04-06T12:52:19.584Z</time></trkpt><trkpt lat="45.7838117" lon="11.7412432"><ele>137.0</ele><time>2026-04-06T12:52:21.603Z</time></trkpt><trkpt lat="45.7838599" lon="11.7410819"><ele>137.0</ele><time>2026-04-06T12:52:24.598Z</time></trkpt><trkpt lat="45.7839203" lon="11.740935"><ele>137.0</ele><time>2026-04-06T12:52:26.603Z</time></trkpt><trkpt lat="45.7840081" lon="11.7408509"><ele>137.0</ele><time>2026-04-06T12:52:28.591Z</time></trkpt><trkpt lat="45.784118" lon="11.7407492"><ele>137.0</ele><time>2026-04-06T12:52:30.584Z</time></trkpt><trkpt lat="45.784185" lon="11.740667"><ele>137.0</ele><time>2026-04-06T12:52:31.586Z</time></trkpt><trkpt lat="45.7842632" lon="11.7405662"><ele>137.0</ele><time>2026-04-06T12:52:32.584Z</time></trkpt><trkpt lat="45.7843524" lon="11.7404724"><ele>137.0</ele><time>2026-04-06T12:52:33.586Z</time></trkpt><trkpt lat="45.7844462" lon="11.7403789"><ele>137.0</ele><time>2026-04-06T12:52:34.585Z</time></trkpt><trkpt lat="45.7845306" lon="11.7402935"><ele>137.0</ele><time>2026-04-06T12:52:35.583Z</time></trkpt><trkpt lat="45.7846003" lon="11.7402157"><ele>137.0</ele><time>2026-04-06T12:52:36.581Z</time></trkpt><trkpt lat="45.784663" lon="11.7401601"><ele>137.0</ele><time>2026-04-06T12:52:37.583Z</time></trkpt><trkpt lat="45.7847215" lon="11.7401082"><ele>137.0</ele><time>2026-04-06T12:52:38.576Z</time></trkpt><trkpt lat="45.7848272" lon="11.7400685"><ele>137.0</ele><time>2026-04-06T12:52:40.584Z</time></trkpt><trkpt lat="45.7848896" lon="11.7402417"><ele>137.0</ele><time>2026-04-06T12:52:42.584Z</time></trkpt><trkpt lat="45.784937" lon="11.7403888"><ele>137.0</ele><time>2026-04-06T12:52:43.572Z</time></trkpt><trkpt lat="45.7850043" lon="11.7405386"><ele>137.0</ele><time>2026-04-06T12:52:44.6Z</time></trkpt><trkpt lat="45.785081" lon="11.7406808"><ele>137.0</ele><time>2026-04-06T12:52:45.584Z</time></trkpt><trkpt lat="45.7851661" lon="11.7408195"><ele>137.66666666666666</ele><time>2026-04-06T12:52:46.58Z</time></trkpt><trkpt lat="45.7852434" lon="11.7409492"><ele>138.33333333333334</ele><time>2026-04-06T12:52:47.738Z</time></trkpt><trkpt lat="45.7854004" lon="11.7412162"><ele>139.0</ele><time>2026-04-06T12:52:49.569Z</time></trkpt><trkpt lat="45.7854759" lon="11.7413386"><ele>139.0</ele><time>2026-04-06T12:52:50.569Z</time></trkpt><trkpt lat="45.7855465" lon="11.7414381"><ele>139.0</ele><time>2026-04-06T12:52:51.59Z</time></trkpt><trkpt lat="45.7855964" lon="11.7415166"><ele>139.0</ele><time>2026-04-06T12:52:53.569Z</time></trkpt><trkpt lat="45.7856882" lon="11.7414394"><ele>139.0</ele><time>2026-04-06T12:52:55.579Z</time></trkpt><trkpt lat="45.785734" lon="11.741364"><ele>139.0</ele><time>2026-04-06T12:52:56.57Z</time></trkpt><trkpt lat="45.7857971" lon="11.7412444"><ele>139.0</ele><time>2026-04-06T12:52:57.573Z</time></trkpt><trkpt lat="45.7858751" lon="11.7411197"><ele>139.0</ele><time>2026-04-06T12:52:58.568Z</time></trkpt><trkpt lat="45.785953" lon="11.7409604"><ele>139.0</ele><time>2026-04-06T12:52:59.569Z</time></trkpt><trkpt lat="45.7860482" lon="11.7408033"><ele>139.0</ele><time>2026-04-06T12:53:00.573Z</time></trkpt><trkpt lat="45.786161" lon="11.7405958"><ele>139.33333333333334</ele><time>2026-04-06T12:53:01.57Z</time></trkpt><trkpt lat="45.7862801" lon="11.7403581"><ele>139.66666666666666</ele><time>2026-04-06T12:53:02.577Z</time></trkpt><trkpt lat="45.7864097" lon="11.7401621"><ele>140.0</ele><time>2026-04-06T12:53:03.578Z</time></trkpt><trkpt lat="45.7865284" lon="11.7399566"><ele>140.0</ele><time>2026-04-06T12:53:04.582Z</time></trkpt><trkpt lat="45.7866466" lon="11.7397217"><ele>140.0</ele><time>2026-04-06T12:53:05.58Z</time></trkpt><trkpt lat="45.7867675" lon="11.7395211"><ele>140.0</ele><time>2026-04-06T12:53:06.601Z</time></trkpt><trkpt lat="45.7868986" lon="11.7393097"><ele>140.33333333333331</ele><time>2026-04-06T12:53:07.576Z</time></trkpt><trkpt lat="45.7870232" lon="11.739104"><ele>140.66666666666666</ele><time>2026-04-06T12:53:08.58Z</time></trkpt><trkpt lat="45.7871624" lon="11.7388964"><ele>141.0</ele><time>2026-04-06T12:53:09.586Z</time></trkpt><trkpt lat="45.7872925" lon="11.7386764"><ele>141.66666666666666</ele><time>2026-04-06T12:53:10.58Z</time></trkpt><trkpt lat="45.787436" lon="11.7384699"><ele>142.33333333333331</ele><time>2026-04-06T12:53:11.581Z</time></trkpt><trkpt lat="45.7875783" lon="11.7382502"><ele>143.0</ele><time>2026-04-06T12:53:12.582Z</time></trkpt><trkpt lat="45.787704" lon="11.7380047"><ele>143.0</ele><time>2026-04-06T12:53:13.58Z</time></trkpt><trkpt lat="45.7878233" lon="11.7377874"><ele>143.0</ele><time>2026-04-06T12:53:14.585Z</time></trkpt><trkpt lat="45.7879523" lon="11.7376108"><ele>143.0</ele><time>2026-04-06T12:53:15.58Z</time></trkpt><trkpt lat="45.788081" lon="11.7373936"><ele>143.0</ele><time>2026-04-06T12:53:16.576Z</time></trkpt><trkpt lat="45.7882" lon="11.7371631"><ele>143.0</ele><time>2026-04-06T12:53:17.587Z</time></trkpt><trkpt lat="45.7883047" lon="11.7369492"><ele>143.0</ele><time>2026-04-06T12:53:18.578Z</time></trkpt><trkpt lat="45.7884046" lon="11.7367473"><ele>143.0</ele><time>2026-04-06T12:53:19.576Z</time></trkpt><trkpt lat="45.7884776" lon="11.7365448"><ele>143.0</ele><time>2026-04-06T12:53:20.584Z</time></trkpt><trkpt lat="45.7885571" lon="11.7363348"><ele>143.0</ele><time>2026-04-06T12:53:21.579Z</time></trkpt><trkpt lat="45.7885894" lon="11.736085"><ele>144.33333333333331</ele><time>2026-04-06T12:53:22.579Z</time></trkpt><trkpt lat="45.7885956" lon="11.7358539"><ele>145.66666666666666</ele><time>2026-04-06T12:53:23.574Z</time></trkpt><trkpt lat="45.7885833" lon="11.7355642"><ele>147.0</ele><time>2026-04-06T12:53:24.589Z</time></trkpt><trkpt lat="45.7885643" lon="11.7353125"><ele>146.0</ele><time>2026-04-06T12:53:25.579Z</time></trkpt><trkpt lat="45.7885207" lon="11.7350505"><ele>145.0</ele><time>2026-04-06T12:53:26.578Z</time></trkpt><trkpt lat="45.7884513" lon="11.7348287"><ele>144.0</ele><time>2026-04-06T12:53:27.576Z</time></trkpt><trkpt lat="45.7883942" lon="11.7346441"><ele>143.75</ele><time>2026-04-06T12:53:28.578Z</time></trkpt><trkpt lat="45.7883184" lon="11.734444"><ele>143.5</ele><time>2026-04-06T12:53:29.581Z</time></trkpt><trkpt lat="45.7882698" lon="11.7342631"><ele>143.25</ele><time>2026-04-06T12:53:30.574Z</time></trkpt><trkpt lat="45.7882557" lon="11.7340777"><ele>143.0</ele><time>2026-04-06T12:53:31.572Z</time></trkpt><trkpt lat="45.7883138" lon="11.7338802"><ele>143.33333333333331</ele><time>2026-04-06T12:53:32.573Z</time></trkpt><trkpt lat="45.7884208" lon="11.7337165"><ele>143.66666666666666</ele><time>2026-04-06T12:53:33.574Z</time></trkpt><trkpt lat="45.788537" lon="11.7335106"><ele>144.0</ele><time>2026-04-06T12:53:34.572Z</time></trkpt><trkpt lat="45.7886409" lon="11.7333107"><ele>144.0</ele><time>2026-04-06T12:53:35.57Z</time></trkpt><trkpt lat="45.7887364" lon="11.7331335"><ele>144.0</ele><time>2026-04-06T12:53:36.577Z</time></trkpt><trkpt lat="45.7888312" lon="11.7329904"><ele>144.0</ele><time>2026-04-06T12:53:37.574Z</time></trkpt><trkpt lat="45.7889157" lon="11.7328545"><ele>144.0</ele><time>2026-04-06T12:53:38.577Z</time></trkpt><trkpt lat="45.789026" lon="11.7327594"><ele>144.0</ele><time>2026-04-06T12:53:39.572Z</time></trkpt><trkpt lat="45.7891617" lon="11.7327211"><ele>144.0</ele><time>2026-04-06T12:53:40.574Z</time></trkpt><trkpt lat="45.7892697" lon="11.732662"><ele>144.0</ele><time>2026-04-06T12:53:41.57Z</time></trkpt><trkpt lat="45.7894072" lon="11.7326747"><ele>144.0</ele><time>2026-04-06T12:53:42.649Z</time></trkpt><trkpt lat="45.7895637" lon="11.7326915"><ele>144.66666666666666</ele><time>2026-04-06T12:53:43.578Z</time></trkpt><trkpt lat="45.7897278" lon="11.7327652"><ele>145.33333333333331</ele><time>2026-04-06T12:53:44.573Z</time></trkpt><trkpt lat="45.7898879" lon="11.7328249"><ele>146.0</ele><time>2026-04-06T12:53:45.575Z</time></trkpt><trkpt lat="45.7900171" lon="11.7328797"><ele>146.0</ele><time>2026-04-06T12:53:46.603Z</time></trkpt><trkpt lat="45.7900929" lon="11.7328935"><ele>146.0</ele><time>2026-04-06T12:53:47.594Z</time></trkpt><trkpt lat="45.7901576" lon="11.7329005"><ele>146.0</ele><time>2026-04-06T12:53:48.574Z</time></trkpt><trkpt lat="45.7902286" lon="11.7328889"><ele>146.0</ele><time>2026-04-06T12:53:52.584Z</time></trkpt><trkpt lat="45.7903028" lon="11.7328566"><ele>146.0</ele><time>2026-04-06T12:53:53.579Z</time></trkpt><trkpt lat="45.7903889" lon="11.732806"><ele>146.0</ele><time>2026-04-06T12:53:54.58Z</time></trkpt><trkpt lat="45.7904758" lon="11.7327453"><ele>146.0</ele><time>2026-04-06T12:53:55.577Z</time></trkpt><trkpt lat="45.7905757" lon="11.7326772"><ele>146.0</ele><time>2026-04-06T12:53:56.584Z</time></trkpt><trkpt lat="45.7906718" lon="11.7325896"><ele>146.0</ele><time>2026-04-06T12:53:57.565Z</time></trkpt><trkpt lat="45.7907615" lon="11.7324749"><ele>146.0</ele><time>2026-04-06T12:53:58.571Z</time></trkpt><trkpt lat="45.7908605" lon="11.7323463"><ele>146.0</ele><time>2026-04-06T12:53:59.569Z</time></trkpt><trkpt lat="45.7909569" lon="11.7321923"><ele>146.0</ele><time>2026-04-06T12:54:00.57Z</time></trkpt><trkpt lat="45.7910469" lon="11.7320214"><ele>146.0</ele><time>2026-04-06T12:54:01.574Z</time></trkpt><trkpt lat="45.7911311" lon="11.7318337"><ele>146.0</ele><time>2026-04-06T12:54:02.566Z</time></trkpt><trkpt lat="45.7912192" lon="11.7316516"><ele>146.66666666666666</ele><time>2026-04-06T12:54:03.567Z</time></trkpt><trkpt lat="45.7912944" lon="11.731518"><ele>147.33333333333334</ele><time>2026-04-06T12:54:04.567Z</time></trkpt><trkpt lat="45.7914287" lon="11.7313305"><ele>148.0</ele><time>2026-04-06T12:54:05.576Z</time></trkpt><trkpt lat="45.7915629" lon="11.7311198"><ele>147.66666666666669</ele><time>2026-04-06T12:54:06.574Z</time></trkpt><trkpt lat="45.7917063" lon="11.7309076"><ele>147.33333333333334</ele><time>2026-04-06T12:54:07.573Z</time></trkpt><trkpt lat="45.7917989" lon="11.7306697"><ele>147.0</ele><time>2026-04-06T12:54:08.573Z</time></trkpt><trkpt lat="45.7919176" lon="11.7304571"><ele>147.33333333333334</ele><time>2026-04-06T12:54:09.567Z</time></trkpt><trkpt lat="45.7920585" lon="11.7302522"><ele>147.66666666666669</ele><time>2026-04-06T12:54:10.568Z</time></trkpt><trkpt lat="45.7921785" lon="11.7300892"><ele>148.0</ele><time>2026-04-06T12:54:11.571Z</time></trkpt><trkpt lat="45.7922533" lon="11.7299321"><ele>148.0</ele><time>2026-04-06T12:54:12.571Z</time></trkpt><trkpt lat="45.7923477" lon="11.7297786"><ele>148.0</ele><time>2026-04-06T12:54:13.565Z</time></trkpt><trkpt lat="45.792473" lon="11.7295597"><ele>148.0</ele><time>2026-04-06T12:54:14.572Z</time></trkpt><trkpt lat="45.7926277" lon="11.7293852"><ele>148.33333333333334</ele><time>2026-04-06T12:54:15.572Z</time></trkpt><trkpt lat="45.7927192" lon="11.729207"><ele>148.66666666666666</ele><time>2026-04-06T12:54:16.736Z</time></trkpt><trkpt lat="45.7928099" lon="11.729036"><ele>149.0</ele><time>2026-04-06T12:54:17.739Z</time></trkpt><trkpt lat="45.7930312" lon="11.7287092"><ele>149.0</ele><time>2026-04-06T12:54:19.732Z</time></trkpt><trkpt lat="45.7932929" lon="11.728323"><ele>149.0</ele><time>2026-04-06T12:54:21.571Z</time></trkpt><trkpt lat="45.793447" lon="11.728112"><ele>149.0</ele><time>2026-04-06T12:54:22.574Z</time></trkpt><trkpt lat="45.7935981" lon="11.7279009"><ele>149.0</ele><time>2026-04-06T12:54:23.733Z</time></trkpt><trkpt lat="45.7937464" lon="11.7277252"><ele>149.0</ele><time>2026-04-06T12:54:24.732Z</time></trkpt><trkpt lat="45.7940048" lon="11.7273948"><ele>149.0</ele><time>2026-04-06T12:54:26.574Z</time></trkpt><trkpt lat="45.7941259" lon="11.727216"><ele>149.0</ele><time>2026-04-06T12:54:27.566Z</time></trkpt><trkpt lat="45.794258" lon="11.7270754"><ele>149.0</ele><time>2026-04-06T12:54:28.729Z</time></trkpt><trkpt lat="45.7944202" lon="11.7269269"><ele>149.0</ele><time>2026-04-06T12:54:29.732Z</time></trkpt><trkpt lat="45.7946011" lon="11.7268159"><ele>149.0</ele><time>2026-04-06T12:54:30.654Z</time></trkpt><trkpt lat="45.7947735" lon="11.7267481"><ele>149.0</ele><time>2026-04-06T12:54:31.58Z</time></trkpt><trkpt lat="45.7949439" lon="11.7267125"><ele>149.0</ele><time>2026-04-06T12:54:32.672Z</time></trkpt><trkpt lat="45.7950956" lon="11.7266713"><ele>149.0</ele><time>2026-04-06T12:54:33.579Z</time></trkpt><trkpt lat="45.79524" lon="11.7266312"><ele>149.0</ele><time>2026-04-06T12:54:34.579Z</time></trkpt><trkpt lat="45.7953481" lon="11.7265952"><ele>149.0</ele><time>2026-04-06T12:54:35.66Z</time></trkpt><trkpt lat="45.795435" lon="11.7265743"><ele>150.2</ele><time>2026-04-06T12:54:36.602Z</time></trkpt><trkpt lat="45.7955098" lon="11.7265312"><ele>151.4</ele><time>2026-04-06T12:54:37.594Z</time></trkpt><trkpt lat="45.795583" lon="11.7264915"><ele>152.6</ele><time>2026-04-06T12:54:38.577Z</time></trkpt><trkpt lat="45.7956684" lon="11.7264065"><ele>153.8</ele><time>2026-04-06T12:54:39.576Z</time></trkpt><trkpt lat="45.7957848" lon="11.7263111"><ele>155.0</ele><time>2026-04-06T12:54:40.579Z</time></trkpt><trkpt lat="45.7959138" lon="11.7262148"><ele>155.6</ele><time>2026-04-06T12:54:41.567Z</time></trkpt><trkpt lat="45.7960197" lon="11.7261623"><ele>156.2</ele><time>2026-04-06T12:54:42.573Z</time></trkpt><trkpt lat="45.7961137" lon="11.7261063"><ele>156.8</ele><time>2026-04-06T12:54:43.565Z</time></trkpt><trkpt lat="45.7962003" lon="11.7260546"><ele>157.4</ele><time>2026-04-06T12:54:44.565Z</time></trkpt><trkpt lat="45.7962929" lon="11.7260022"><ele>158.0</ele><time>2026-04-06T12:54:45.588Z</time></trkpt><trkpt lat="45.7964007" lon="11.725942"><ele>157.25</ele><time>2026-04-06T12:54:46.592Z</time></trkpt><trkpt lat="45.7965136" lon="11.7258784"><ele>156.5</ele><time>2026-04-06T12:54:47.57Z</time></trkpt><trkpt lat="45.7966367" lon="11.7258047"><ele>155.75</ele><time>2026-04-06T12:54:48.566Z</time></trkpt><trkpt lat="45.7967576" lon="11.725727"><ele>155.0</ele><time>2026-04-06T12:54:49.568Z</time></trkpt><trkpt lat="45.796871" lon="11.7256399"><ele>155.0</ele><time>2026-04-06T12:54:50.57Z</time></trkpt><trkpt lat="45.7969785" lon="11.7255708"><ele>155.0</ele><time>2026-04-06T12:54:51.567Z</time></trkpt><trkpt lat="45.7970859" lon="11.7255183"><ele>155.0</ele><time>2026-04-06T12:54:52.574Z</time></trkpt><trkpt lat="45.7971823" lon="11.7254697"><ele>155.0</ele><time>2026-04-06T12:54:53.568Z</time></trkpt><trkpt lat="45.7972722" lon="11.7254064"><ele>155.0</ele><time>2026-04-06T12:54:54.571Z</time></trkpt><trkpt lat="45.7973698" lon="11.7253403"><ele>155.0</ele><time>2026-04-06T12:54:55.568Z</time></trkpt><trkpt lat="45.7974729" lon="11.7252799"><ele>155.0</ele><time>2026-04-06T12:54:56.578Z</time></trkpt><trkpt lat="45.7975738" lon="11.7252369"><ele>155.0</ele><time>2026-04-06T12:54:57.566Z</time></trkpt><trkpt lat="45.7976563" lon="11.7252013"><ele>155.0</ele><time>2026-04-06T12:54:58.569Z</time></trkpt><trkpt lat="45.7977228" lon="11.7251699"><ele>155.0</ele><time>2026-04-06T12:54:59.595Z</time></trkpt><trkpt lat="45.7978309" lon="11.7251149"><ele>154.33333333333331</ele><time>2026-04-06T12:55:01.575Z</time></trkpt><trkpt lat="45.7979033" lon="11.7250831"><ele>153.66666666666666</ele><time>2026-04-06T12:55:03.573Z</time></trkpt><trkpt lat="45.7979667" lon="11.7250556"><ele>153.0</ele><time>2026-04-06T12:55:05.569Z</time></trkpt><trkpt lat="45.7978897" lon="11.724991"><ele>152.33333333333334</ele><time>2026-04-06T12:55:12.599Z</time></trkpt><trkpt lat="45.7977893" lon="11.7250495"><ele>151.66666666666669</ele><time>2026-04-06T12:55:14.563Z</time></trkpt><trkpt lat="45.7977094" lon="11.7251178"><ele>151.0</ele><time>2026-04-06T12:55:15.57Z</time></trkpt><trkpt lat="45.797616" lon="11.7251735"><ele>152.0</ele><time>2026-04-06T12:55:16.578Z</time></trkpt><trkpt lat="45.79751" lon="11.725241"><ele>153.0</ele><time>2026-04-06T12:55:17.584Z</time></trkpt><trkpt lat="45.7973936" lon="11.7253149"><ele>154.0</ele><time>2026-04-06T12:55:18.576Z</time></trkpt><trkpt lat="45.7972801" lon="11.7253817"><ele>155.0</ele><time>2026-04-06T12:55:19.575Z</time></trkpt><trkpt lat="45.7971742" lon="11.7254469"><ele>155.0</ele><time>2026-04-06T12:55:20.575Z</time></trkpt><trkpt lat="45.797078" lon="11.7255086"><ele>155.0</ele><time>2026-04-06T12:55:21.57Z</time></trkpt><trkpt lat="45.7969851" lon="11.7255647"><ele>155.0</ele><time>2026-04-06T12:55:22.569Z</time></trkpt><trkpt lat="45.7968931" lon="11.7256224"><ele>155.0</ele><time>2026-04-06T12:55:23.575Z</time></trkpt><trkpt lat="45.7967987" lon="11.7256773"><ele>155.0</ele><time>2026-04-06T12:55:24.57Z</time></trkpt><trkpt lat="45.7967054" lon="11.7257392"><ele>154.0</ele><time>2026-04-06T12:55:25.568Z</time></trkpt><trkpt lat="45.7966012" lon="11.7257924"><ele>153.0</ele><time>2026-04-06T12:55:26.571Z</time></trkpt><trkpt lat="45.7965006" lon="11.7258404"><ele>152.0</ele><time>2026-04-06T12:55:27.575Z</time></trkpt><trkpt lat="45.7964131" lon="11.7258978"><ele>151.0</ele><time>2026-04-06T12:55:28.57Z</time></trkpt><trkpt lat="45.7963203" lon="11.7259488"><ele>150.0</ele><time>2026-04-06T12:55:29.568Z</time></trkpt><trkpt lat="45.7962339" lon="11.725995"><ele>150.0</ele><time>2026-04-06T12:55:30.579Z</time></trkpt><trkpt lat="45.796148" lon="11.7260457"><ele>150.0</ele><time>2026-04-06T12:55:31.577Z</time></trkpt><trkpt lat="45.7960657" lon="11.7260908"><ele>150.0</ele><time>2026-04-06T12:55:32.573Z</time></trkpt><trkpt lat="45.7959894" lon="11.7261495"><ele>150.0</ele><time>2026-04-06T12:55:33.576Z</time></trkpt><trkpt lat="45.7959108" lon="11.7261931"><ele>150.0</ele><time>2026-04-06T12:55:34.578Z</time></trkpt><trkpt lat="45.7958246" lon="11.7262351"><ele>150.0</ele><time>2026-04-06T12:55:35.572Z</time></trkpt><trkpt lat="45.7957458" lon="11.7262824"><ele>150.83333333333334</ele><time>2026-04-06T12:55:36.577Z</time></trkpt><trkpt lat="45.7956658" lon="11.7263311"><ele>151.66666666666666</ele><time>2026-04-06T12:55:37.57Z</time></trkpt><trkpt lat="45.79559" lon="11.7263751"><ele>152.5</ele><time>2026-04-06T12:55:38.57Z</time></trkpt><trkpt lat="45.7955126" lon="11.7264138"><ele>153.33333333333331</ele><time>2026-04-06T12:55:39.643Z</time></trkpt><trkpt lat="45.7954442" lon="11.7264426"><ele>154.16666666666666</ele><time>2026-04-06T12:55:40.568Z</time></trkpt><trkpt lat="45.7954042" lon="11.7265291"><ele>155.0</ele><time>2026-04-06T12:55:42.568Z</time></trkpt><trkpt lat="45.7954392" lon="11.7266323"><ele>155.0</ele><time>2026-04-06T12:55:43.595Z</time></trkpt><trkpt lat="45.7955664" lon="11.7268928"><ele>155.0</ele><time>2026-04-06T12:55:45.57Z</time></trkpt><trkpt lat="45.7956394" lon="11.7270049"><ele>155.0</ele><time>2026-04-06T12:55:46.592Z</time></trkpt><trkpt lat="45.795708" lon="11.7270665"><ele>155.0</ele><time>2026-04-06T12:55:47.569Z</time></trkpt><trkpt lat="45.7959642" lon="11.7270599"><ele>156.75</ele><time>2026-04-06T12:55:49.572Z</time></trkpt><trkpt lat="45.7960951" lon="11.727056"><ele>158.5</ele><time>2026-04-06T12:55:50.577Z</time></trkpt><trkpt lat="45.7962321" lon="11.727063"><ele>160.25</ele><time>2026-04-06T12:55:51.573Z</time></trkpt><trkpt lat="45.7963788" lon="11.7270914"><ele>162.0</ele><time>2026-04-06T12:55:52.887Z</time></trkpt><trkpt lat="45.796521" lon="11.7270872"><ele>162.0</ele><time>2026-04-06T12:55:54.125Z</time></trkpt><trkpt lat="45.796801" lon="11.7270533"><ele>162.0</ele><time>2026-04-06T12:55:55.573Z</time></trkpt><trkpt lat="45.7969454" lon="11.7270249"><ele>162.0</ele><time>2026-04-06T12:55:56.578Z</time></trkpt><trkpt lat="45.7971071" lon="11.7269207"><ele>161.66666666666666</ele><time>2026-04-06T12:55:57.578Z</time></trkpt><trkpt lat="45.7972955" lon="11.7267661"><ele>161.33333333333331</ele><time>2026-04-06T12:55:58.889Z</time></trkpt><trkpt lat="45.7974967" lon="11.7266285"><ele>161.0</ele><time>2026-04-06T12:55:59.891Z</time></trkpt><trkpt lat="45.7976794" lon="11.7265639"><ele>161.0</ele><time>2026-04-06T12:56:00.896Z</time></trkpt><trkpt lat="45.7979884" lon="11.7264563"><ele>161.0</ele><time>2026-04-06T12:56:02.731Z</time></trkpt><trkpt lat="45.7980987" lon="11.7264294"><ele>161.0</ele><time>2026-04-06T12:56:03.742Z</time></trkpt><trkpt lat="45.7982023" lon="11.7263855"><ele>161.0</ele><time>2026-04-06T12:56:04.646Z</time></trkpt><trkpt lat="45.7982968" lon="11.7263859"><ele>161.0</ele><time>2026-04-06T12:56:05.66Z</time></trkpt><trkpt lat="45.7983808" lon="11.7263628"><ele>161.0</ele><time>2026-04-06T12:56:06.58Z</time></trkpt><trkpt lat="45.7984793" lon="11.7263976"><ele>161.0</ele><time>2026-04-06T12:56:10.042Z</time></trkpt><trkpt lat="45.798526" lon="11.7263188"><ele>161.0</ele><time>2026-04-06T12:56:11.732Z</time></trkpt><trkpt lat="45.7985609" lon="11.7260256"><ele>161.5</ele><time>2026-04-06T12:56:13.719Z</time></trkpt><trkpt lat="45.7986415" lon="11.7255681"><ele>162.0</ele><time>2026-04-06T12:56:15.563Z</time></trkpt><trkpt lat="45.7986933" lon="11.7253304"><ele>160.66666666666666</ele><time>2026-04-06T12:56:16.572Z</time></trkpt><trkpt lat="45.7987302" lon="11.7250621"><ele>159.33333333333331</ele><time>2026-04-06T12:56:17.563Z</time></trkpt><trkpt lat="45.7987986" lon="11.7248893"><ele>158.0</ele><time>2026-04-06T12:56:18.563Z</time></trkpt><trkpt lat="45.7988677" lon="11.724645"><ele>158.0</ele><time>2026-04-06T12:56:19.729Z</time></trkpt><trkpt lat="45.7989693" lon="11.7244644"><ele>158.0</ele><time>2026-04-06T12:56:20.73Z</time></trkpt><trkpt lat="45.7992921" lon="11.7243535"><ele>157.5</ele><time>2026-04-06T12:56:22.877Z</time></trkpt><trkpt lat="45.7995955" lon="11.7241683"><ele>157.0</ele><time>2026-04-06T12:56:24.712Z</time></trkpt><trkpt lat="45.7997349" lon="11.724069"><ele>157.0</ele><time>2026-04-06T12:56:25.875Z</time></trkpt><trkpt lat="45.7998645" lon="11.7239651"><ele>157.0</ele><time>2026-04-06T12:56:27.041Z</time></trkpt><trkpt lat="45.8000942" lon="11.7237671"><ele>157.0</ele><time>2026-04-06T12:56:28.569Z</time></trkpt><trkpt lat="45.8001884" lon="11.7236678"><ele>155.5</ele><time>2026-04-06T12:56:29.732Z</time></trkpt><trkpt lat="45.8003552" lon="11.7234925"><ele>154.0</ele><time>2026-04-06T12:56:31.885Z</time></trkpt><trkpt lat="45.800441" lon="11.7233929"><ele>152.5</ele><time>2026-04-06T12:56:32.875Z</time></trkpt><trkpt lat="45.8005372" lon="11.7232893"><ele>151.0</ele><time>2026-04-06T12:56:34.036Z</time></trkpt><trkpt lat="45.8007403" lon="11.7230659"><ele>151.0</ele><time>2026-04-06T12:56:36.037Z</time></trkpt><trkpt lat="45.8009501" lon="11.7228179"><ele>151.0</ele><time>2026-04-06T12:56:37.874Z</time></trkpt><trkpt lat="45.80122" lon="11.7224079"><ele>150.66666666666669</ele><time>2026-04-06T12:56:40.051Z</time></trkpt><trkpt lat="45.801489" lon="11.722171"><ele>150.33333333333334</ele><time>2026-04-06T12:56:40.743Z</time></trkpt><trkpt lat="45.8015969" lon="11.7220809"><ele>150.0</ele><time>2026-04-06T12:56:41.578Z</time></trkpt><trkpt lat="45.8016722" lon="11.721941"><ele>150.75</ele><time>2026-04-06T12:56:42.897Z</time></trkpt><trkpt lat="45.8017485" lon="11.7217392"><ele>151.5</ele><time>2026-04-06T12:56:44.736Z</time></trkpt><trkpt lat="45.8018629" lon="11.7216802"><ele>152.25</ele><time>2026-04-06T12:56:47.733Z</time></trkpt><trkpt lat="45.8019669" lon="11.7217357"><ele>153.0</ele><time>2026-04-06T12:56:49.574Z</time></trkpt><trkpt lat="45.8020544" lon="11.721776"><ele>153.0</ele><time>2026-04-06T12:56:50.578Z</time></trkpt><trkpt lat="45.8021687" lon="11.7218083"><ele>153.0</ele><time>2026-04-06T12:56:51.58Z</time></trkpt><trkpt lat="45.8022991" lon="11.7218119"><ele>153.0</ele><time>2026-04-06T12:56:52.901Z</time></trkpt><trkpt lat="45.8024532" lon="11.7217916"><ele>153.0</ele><time>2026-04-06T12:56:53.891Z</time></trkpt><trkpt lat="45.8027449" lon="11.7215904"><ele>155.25</ele><time>2026-04-06T12:56:55.738Z</time></trkpt><trkpt lat="45.8028671" lon="11.7215091"><ele>157.5</ele><time>2026-04-06T12:56:56.891Z</time></trkpt><trkpt lat="45.8029642" lon="11.7214867"><ele>159.75</ele><time>2026-04-06T12:56:57.889Z</time></trkpt><trkpt lat="45.8031092" lon="11.7215903"><ele>162.0</ele><time>2026-04-06T12:57:04.904Z</time></trkpt><trkpt lat="45.8030092" lon="11.721445"><ele>162.0</ele><time>2026-04-06T12:57:07.557Z</time></trkpt><trkpt lat="45.8029882" lon="11.7213333"><ele>162.0</ele><time>2026-04-06T12:57:08.778Z</time></trkpt><trkpt lat="45.8028753" lon="11.7211703"><ele>162.0</ele><time>2026-04-06T12:57:10.605Z</time></trkpt><trkpt lat="45.8027843" lon="11.7212385"><ele>162.0</ele><time>2026-04-06T12:57:17.605Z</time></trkpt><trkpt lat="45.8026811" lon="11.7213213"><ele>159.75</ele><time>2026-04-06T12:57:18.583Z</time></trkpt><trkpt lat="45.8025848" lon="11.7213944"><ele>157.5</ele><time>2026-04-06T12:57:19.577Z</time></trkpt><trkpt lat="45.802473" lon="11.7214579"><ele>155.25</ele><time>2026-04-06T12:57:20.579Z</time></trkpt><trkpt lat="45.8023583" lon="11.7215115"><ele>153.0</ele><time>2026-04-06T12:57:21.576Z</time></trkpt><trkpt lat="45.8022492" lon="11.7215913"><ele>153.0</ele><time>2026-04-06T12:57:22.586Z</time></trkpt><trkpt lat="45.8021532" lon="11.7216448"><ele>153.0</ele><time>2026-04-06T12:57:23.572Z</time></trkpt><trkpt lat="45.8020604" lon="11.7216683"><ele>153.0</ele><time>2026-04-06T12:57:24.594Z</time></trkpt><trkpt lat="45.8019782" lon="11.7216787"><ele>153.0</ele><time>2026-04-06T12:57:25.573Z</time></trkpt><trkpt lat="45.8019107" lon="11.7216782"><ele>153.0</ele><time>2026-04-06T12:57:26.583Z</time></trkpt><trkpt lat="45.8018206" lon="11.7216964"><ele>153.0</ele><time>2026-04-06T12:57:28.581Z</time></trkpt><trkpt lat="45.801866" lon="11.7216005"><ele>153.0</ele><time>2026-04-06T12:57:34.584Z</time></trkpt><trkpt lat="45.8019183" lon="11.721529"><ele>153.0</ele><time>2026-04-06T12:57:35.653Z</time></trkpt><trkpt lat="45.8019669" lon="11.7214585"><ele>153.0</ele><time>2026-04-06T12:57:36.574Z</time></trkpt><trkpt lat="45.8020465" lon="11.721363"><ele>153.0</ele><time>2026-04-06T12:57:38.735Z</time></trkpt><trkpt lat="45.8021418" lon="11.7213205"><ele>153.0</ele><time>2026-04-06T12:57:40.613Z</time></trkpt><trkpt lat="45.8021954" lon="11.7212723"><ele>153.0</ele><time>2026-04-06T12:57:41.579Z</time></trkpt><trkpt lat="45.802255" lon="11.721205"><ele>153.0</ele><time>2026-04-06T12:57:42.578Z</time></trkpt><trkpt lat="45.8023277" lon="11.7211238"><ele>153.0</ele><time>2026-04-06T12:57:43.6Z</time></trkpt><trkpt lat="45.8024127" lon="11.7210227"><ele>153.0</ele><time>2026-04-06T12:57:44.581Z</time></trkpt><trkpt lat="45.8024933" lon="11.7209322"><ele>153.0</ele><time>2026-04-06T12:57:45.579Z</time></trkpt><trkpt lat="45.8025641" lon="11.7208429"><ele>153.0</ele><time>2026-04-06T12:57:46.577Z</time></trkpt><trkpt lat="45.8026272" lon="11.7207502"><ele>152.16666666666666</ele><time>2026-04-06T12:57:47.603Z</time></trkpt><trkpt lat="45.802682" lon="11.7206515"><ele>151.33333333333334</ele><time>2026-04-06T12:57:48.6Z</time></trkpt><trkpt lat="45.8027437" lon="11.7205685"><ele>150.5</ele><time>2026-04-06T12:57:49.575Z</time></trkpt><trkpt lat="45.8028076" lon="11.7204944"><ele>149.66666666666669</ele><time>2026-04-06T12:57:50.606Z</time></trkpt><trkpt lat="45.8028781" lon="11.7204446"><ele>148.83333333333334</ele><time>2026-04-06T12:57:51.606Z</time></trkpt><trkpt lat="45.8029496" lon="11.7203873"><ele>148.0</ele><time>2026-04-06T12:57:52.603Z</time></trkpt><trkpt lat="45.8030234" lon="11.7203233"><ele>145.6</ele><time>2026-04-06T12:57:53.897Z</time></trkpt><trkpt lat="45.8031547" lon="11.7202291"><ele>143.20000000000002</ele><time>2026-04-06T12:57:55.577Z</time></trkpt><trkpt lat="45.8032165" lon="11.7201795"><ele>140.8</ele><time>2026-04-06T12:57:56.581Z</time></trkpt><trkpt lat="45.8032774" lon="11.7201388"><ele>138.4</ele><time>2026-04-06T12:57:57.578Z</time></trkpt><trkpt lat="45.803339" lon="11.7200852"><ele>136.0</ele><time>2026-04-06T12:57:58.636Z</time></trkpt><trkpt lat="45.8034211" lon="11.7199742"><ele>136.0</ele><time>2026-04-06T12:58:00.602Z</time></trkpt><trkpt lat="45.8034916" lon="11.7199208"><ele>136.0</ele><time>2026-04-06T12:58:02.608Z</time></trkpt><trkpt lat="45.8035456" lon="11.7198737"><ele>136.0</ele><time>2026-04-06T12:58:05.576Z</time></trkpt><trkpt lat="45.8035108" lon="11.7199813"><ele>136.0</ele><time>2026-04-06T12:58:12.577Z</time></trkpt><trkpt lat="45.8034556" lon="11.7200304"><ele>136.0</ele><time>2026-04-06T12:58:13.58Z</time></trkpt><trkpt lat="45.8033812" lon="11.7201148"><ele>136.0</ele><time>2026-04-06T12:58:14.597Z</time></trkpt><trkpt lat="45.8032983" lon="11.7202096"><ele>139.0</ele><time>2026-04-06T12:58:15.581Z</time></trkpt><trkpt lat="45.8032137" lon="11.7203283"><ele>142.0</ele><time>2026-04-06T12:58:16.576Z</time></trkpt><trkpt lat="45.8031038" lon="11.7204316"><ele>145.0</ele><time>2026-04-06T12:58:17.582Z</time></trkpt><trkpt lat="45.8029846" lon="11.7205247"><ele>148.0</ele><time>2026-04-06T12:58:18.582Z</time></trkpt><trkpt lat="45.8028653" lon="11.7206109"><ele>148.0</ele><time>2026-04-06T12:58:19.576Z</time></trkpt><trkpt lat="45.8027621" lon="11.7206868"><ele>148.0</ele><time>2026-04-06T12:58:20.577Z</time></trkpt><trkpt lat="45.8026741" lon="11.7207546"><ele>148.0</ele><time>2026-04-06T12:58:21.584Z</time></trkpt><trkpt lat="45.8025918" lon="11.7208318"><ele>148.0</ele><time>2026-04-06T12:58:22.58Z</time></trkpt><trkpt lat="45.8025171" lon="11.720916"><ele>148.0</ele><time>2026-04-06T12:58:23.577Z</time></trkpt><trkpt lat="45.8024481" lon="11.7210028"><ele>148.83333333333334</ele><time>2026-04-06T12:58:24.582Z</time></trkpt><trkpt lat="45.8023816" lon="11.7210876"><ele>149.66666666666669</ele><time>2026-04-06T12:58:25.577Z</time></trkpt><trkpt lat="45.8023134" lon="11.7211757"><ele>150.5</ele><time>2026-04-06T12:58:26.581Z</time></trkpt><trkpt lat="45.8022486" lon="11.7212514"><ele>151.33333333333334</ele><time>2026-04-06T12:58:27.58Z</time></trkpt><trkpt lat="45.8021904" lon="11.7213264"><ele>152.16666666666666</ele><time>2026-04-06T12:58:28.582Z</time></trkpt><trkpt lat="45.8021349" lon="11.7213933"><ele>153.0</ele><time>2026-04-06T12:58:29.588Z</time></trkpt><trkpt lat="45.802076" lon="11.7214375"><ele>153.0</ele><time>2026-04-06T12:58:30.579Z</time></trkpt><trkpt lat="45.8019732" lon="11.7214326"><ele>153.0</ele><time>2026-04-06T12:58:32.581Z</time></trkpt><trkpt lat="45.8019679" lon="11.7210917"><ele>153.0</ele><time>2026-04-06T12:58:35.624Z</time></trkpt><trkpt lat="45.8020175" lon="11.7208937"><ele>149.75</ele><time>2026-04-06T12:58:36.575Z</time></trkpt><trkpt lat="45.8020671" lon="11.7207031"><ele>146.5</ele><time>2026-04-06T12:58:37.598Z</time></trkpt><trkpt lat="45.8021439" lon="11.720531"><ele>143.25</ele><time>2026-04-06T12:58:38.608Z</time></trkpt><trkpt lat="45.8022704" lon="11.7203837"><ele>140.0</ele><time>2026-04-06T12:58:39.575Z</time></trkpt><trkpt lat="45.8024924" lon="11.7202267"><ele>138.0</ele><time>2026-04-06T12:58:40.602Z</time></trkpt><trkpt lat="45.8027362" lon="11.7200631"><ele>136.0</ele><time>2026-04-06T12:58:41.586Z</time></trkpt><trkpt lat="45.8029384" lon="11.7199107"><ele>136.0</ele><time>2026-04-06T12:58:42.578Z</time></trkpt><trkpt lat="45.8030895" lon="11.7197718"><ele>136.0</ele><time>2026-04-06T12:58:43.584Z</time></trkpt><trkpt lat="45.8032485" lon="11.7196534"><ele>136.0</ele><time>2026-04-06T12:58:44.576Z</time></trkpt><trkpt lat="45.8034067" lon="11.7195733"><ele>136.33333333333334</ele><time>2026-04-06T12:58:45.577Z</time></trkpt><trkpt lat="45.8035774" lon="11.7195244"><ele>136.66666666666666</ele><time>2026-04-06T12:58:46.591Z</time></trkpt><trkpt lat="45.8037147" lon="11.7194488"><ele>137.0</ele><time>2026-04-06T12:58:47.601Z</time></trkpt><trkpt lat="45.8038403" lon="11.7193524"><ele>137.0</ele><time>2026-04-06T12:58:48.574Z</time></trkpt><trkpt lat="45.8039731" lon="11.7192576"><ele>137.0</ele><time>2026-04-06T12:58:49.584Z</time></trkpt><trkpt lat="45.8040971" lon="11.7191451"><ele>137.0</ele><time>2026-04-06T12:58:50.579Z</time></trkpt><trkpt lat="45.8041907" lon="11.7189837"><ele>137.0</ele><time>2026-04-06T12:58:51.574Z</time></trkpt><trkpt lat="45.8042871" lon="11.7188307"><ele>134.0</ele><time>2026-04-06T12:58:52.583Z</time></trkpt><trkpt lat="45.804412" lon="11.7186767"><ele>131.0</ele><time>2026-04-06T12:58:53.574Z</time></trkpt><trkpt lat="45.8045683" lon="11.718566"><ele>128.0</ele><time>2026-04-06T12:58:54.62Z</time></trkpt><trkpt lat="45.8047358" lon="11.7184889"><ele>127.99999999999999</ele><time>2026-04-06T12:58:55.599Z</time></trkpt><trkpt lat="45.8048237" lon="11.7184142"><ele>128.0</ele><time>2026-04-06T12:58:56.577Z</time></trkpt><trkpt lat="45.8048986" lon="11.7183442"><ele>128.0</ele><time>2026-04-06T12:58:57.575Z</time></trkpt><trkpt lat="45.8049774" lon="11.7183401"><ele>128.0</ele><time>2026-04-06T12:58:58.577Z</time></trkpt><trkpt lat="45.8050406" lon="11.7183021"><ele>127.99999999999999</ele><time>2026-04-06T12:58:59.579Z</time></trkpt><trkpt lat="45.8051277" lon="11.7182532"><ele>128.0</ele><time>2026-04-06T12:59:00.595Z</time></trkpt><trkpt lat="45.8052404" lon="11.7182167"><ele>129.66666666666666</ele><time>2026-04-06T12:59:01.576Z</time></trkpt><trkpt lat="45.8053732" lon="11.7182042"><ele>131.33333333333334</ele><time>2026-04-06T12:59:02.579Z</time></trkpt><trkpt lat="45.8055289" lon="11.7182038"><ele>133.0</ele><time>2026-04-06T12:59:03.576Z</time></trkpt><trkpt lat="45.8056951" lon="11.7182096"><ele>133.0</ele><time>2026-04-06T12:59:04.6Z</time></trkpt><trkpt lat="45.8058796" lon="11.7182247"><ele>133.0</ele><time>2026-04-06T12:59:05.738Z</time></trkpt><trkpt lat="45.8063348" lon="11.7182198"><ele>132.0</ele><time>2026-04-06T12:59:07.574Z</time></trkpt><trkpt lat="45.8065261" lon="11.7182531"><ele>131.0</ele><time>2026-04-06T12:59:08.577Z</time></trkpt><trkpt lat="45.8067221" lon="11.7182632"><ele>130.0</ele><time>2026-04-06T12:59:09.575Z</time></trkpt><trkpt lat="45.8068919" lon="11.7182747"><ele>128.0</ele><time>2026-04-06T12:59:10.571Z</time></trkpt><trkpt lat="45.8070945" lon="11.7182695"><ele>126.0</ele><time>2026-04-06T12:59:11.576Z</time></trkpt><trkpt lat="45.8073248" lon="11.7182422"><ele>124.0</ele><time>2026-04-06T12:59:12.61Z</time></trkpt><trkpt lat="45.8075768" lon="11.7182362"><ele>125.5</ele><time>2026-04-06T12:59:13.567Z</time></trkpt><trkpt lat="45.8078412" lon="11.7181812"><ele>127.0</ele><time>2026-04-06T12:59:14.574Z</time></trkpt><trkpt lat="45.8080941" lon="11.7181097"><ele>127.0</ele><time>2026-04-06T12:59:15.604Z</time></trkpt><trkpt lat="45.8083525" lon="11.7180174"><ele>127.0</ele><time>2026-04-06T12:59:16.574Z</time></trkpt><trkpt lat="45.8086247" lon="11.7179433"><ele>124.0</ele><time>2026-04-06T12:59:17.575Z</time></trkpt><trkpt lat="45.8088797" lon="11.7178971"><ele>121.0</ele><time>2026-04-06T12:59:18.575Z</time></trkpt><trkpt lat="45.8091349" lon="11.7178428"><ele>121.0</ele><time>2026-04-06T12:59:19.583Z</time></trkpt><trkpt lat="45.8094002" lon="11.7177712"><ele>121.0</ele><time>2026-04-06T12:59:20.576Z</time></trkpt><trkpt lat="45.8096314" lon="11.7177172"><ele>121.0</ele><time>2026-04-06T12:59:21.574Z</time></trkpt><trkpt lat="45.8098451" lon="11.7176721"><ele>121.0</ele><time>2026-04-06T12:59:22.583Z</time></trkpt><trkpt lat="45.8100416" lon="11.7176358"><ele>121.0</ele><time>2026-04-06T12:59:23.575Z</time></trkpt><trkpt lat="45.8102148" lon="11.7175959"><ele>121.33333333333334</ele><time>2026-04-06T12:59:24.579Z</time></trkpt><trkpt lat="45.8104032" lon="11.717556"><ele>121.66666666666666</ele><time>2026-04-06T12:59:25.586Z</time></trkpt><trkpt lat="45.8105795" lon="11.7175286"><ele>122.0</ele><time>2026-04-06T12:59:26.572Z</time></trkpt><trkpt lat="45.8107247" lon="11.7175391"><ele>122.0</ele><time>2026-04-06T12:59:27.577Z</time></trkpt><trkpt lat="45.8108523" lon="11.7175568"><ele>121.99999999999999</ele><time>2026-04-06T12:59:28.578Z</time></trkpt><trkpt lat="45.8109463" lon="11.717558"><ele>121.99999999999999</ele><time>2026-04-06T12:59:29.574Z</time></trkpt><trkpt lat="45.8110248" lon="11.7175662"><ele>122.0</ele><time>2026-04-06T12:59:30.58Z</time></trkpt><trkpt lat="45.8111026" lon="11.7176124"><ele>122.0</ele><time>2026-04-06T12:59:31.58Z</time></trkpt><trkpt lat="45.81119" lon="11.717604"><ele>122.16666666666666</ele><time>2026-04-06T12:59:32.569Z</time></trkpt><trkpt lat="45.8112691" lon="11.7176234"><ele>122.33333333333333</ele><time>2026-04-06T12:59:33.575Z</time></trkpt><trkpt lat="45.8113041" lon="11.7177115"><ele>122.5</ele><time>2026-04-06T12:59:34.596Z</time></trkpt><trkpt lat="45.8112923" lon="11.7178252"><ele>122.66666666666666</ele><time>2026-04-06T12:59:35.571Z</time></trkpt><trkpt lat="45.8112733" lon="11.7179238"><ele>122.83333333333333</ele><time>2026-04-06T12:59:36.572Z</time></trkpt><trkpt lat="45.8112174" lon="11.7179864"><ele>123.0</ele><time>2026-04-06T12:59:37.62Z</time></trkpt><trkpt lat="45.8111357" lon="11.7180195"><ele>122.25</ele><time>2026-04-06T12:59:38.572Z</time></trkpt><trkpt lat="45.8110225" lon="11.7180127"><ele>121.5</ele><time>2026-04-06T12:59:39.594Z</time></trkpt><trkpt lat="45.8109069" lon="11.7180074"><ele>120.75</ele><time>2026-04-06T12:59:40.571Z</time></trkpt><trkpt lat="45.8107641" lon="11.7179973"><ele>120.0</ele><time>2026-04-06T12:59:41.576Z</time></trkpt><trkpt lat="45.810614" lon="11.71796"><ele>120.0</ele><time>2026-04-06T12:59:42.573Z</time></trkpt><trkpt lat="45.810419" lon="11.7178711"><ele>120.0</ele><time>2026-04-06T12:59:43.572Z</time></trkpt><trkpt lat="45.8102103" lon="11.717756"><ele>120.0</ele><time>2026-04-06T12:59:44.578Z</time></trkpt><trkpt lat="45.8100488" lon="11.7176243"><ele>120.33333333333334</ele><time>2026-04-06T12:59:45.567Z</time></trkpt><trkpt lat="45.8098986" lon="11.7174841"><ele>120.66666666666667</ele><time>2026-04-06T12:59:46.564Z</time></trkpt><trkpt lat="45.8097602" lon="11.717348"><ele>121.0</ele><time>2026-04-06T12:59:47.563Z</time></trkpt><trkpt lat="45.8096208" lon="11.7171796"><ele>121.0</ele><time>2026-04-06T12:59:48.563Z</time></trkpt><trkpt lat="45.8095596" lon="11.7170089"><ele>121.0</ele><time>2026-04-06T12:59:49.566Z</time></trkpt><trkpt lat="45.8096572" lon="11.7168159"><ele>121.0</ele><time>2026-04-06T12:59:51.566Z</time></trkpt><trkpt lat="45.8098007" lon="11.7167956"><ele>121.0</ele><time>2026-04-06T12:59:52.57Z</time></trkpt><trkpt lat="45.8099934" lon="11.7168322"><ele>121.33333333333334</ele><time>2026-04-06T12:59:53.597Z</time></trkpt><trkpt lat="45.8101939" lon="11.7168543"><ele>121.66666666666666</ele><time>2026-04-06T12:59:54.581Z</time></trkpt><trkpt lat="45.8103395" lon="11.7168665"><ele>122.0</ele><time>2026-04-06T12:59:55.607Z</time></trkpt><trkpt lat="45.8104882" lon="11.716863"><ele>122.0</ele><time>2026-04-06T12:59:56.58Z</time></trkpt><trkpt lat="45.8106134" lon="11.7168511"><ele>122.0</ele><time>2026-04-06T12:59:57.577Z</time></trkpt><trkpt lat="45.8107372" lon="11.71688"><ele>122.0</ele><time>2026-04-06T12:59:58.577Z</time></trkpt><trkpt lat="45.8108171" lon="11.7169574"><ele>122.0</ele><time>2026-04-06T12:59:59.608Z</time></trkpt><trkpt lat="45.8109022" lon="11.7170695"><ele>121.99999999999999</ele><time>2026-04-06T13:00:00.597Z</time></trkpt><trkpt lat="45.8109747" lon="11.7171473"><ele>122.0</ele><time>2026-04-06T13:00:01.578Z</time></trkpt><trkpt lat="45.8110604" lon="11.7171617"><ele>122.0</ele><time>2026-04-06T13:00:02.575Z</time></trkpt><trkpt lat="45.8111347" lon="11.7171062"><ele>122.0</ele><time>2026-04-06T13:00:03.57Z</time></trkpt><trkpt lat="45.8111664" lon="11.7169934"><ele>121.99999999999999</ele><time>2026-04-06T13:00:04.571Z</time></trkpt><trkpt lat="45.8111655" lon="11.7168642"><ele>122.0</ele><time>2026-04-06T13:00:05.571Z</time></trkpt><trkpt lat="45.8111176" lon="11.7167352"><ele>122.0</ele><time>2026-04-06T13:00:06.567Z</time></trkpt><trkpt lat="45.8110211" lon="11.7165872"><ele>122.0</ele><time>2026-04-06T13:00:07.573Z</time></trkpt><trkpt lat="45.8109645" lon="11.7164161"><ele>122.0</ele><time>2026-04-06T13:00:08.569Z</time></trkpt><trkpt lat="45.8109378" lon="11.7162174"><ele>122.0</ele><time>2026-04-06T13:00:09.569Z</time></trkpt><trkpt lat="45.810917" lon="11.7160022"><ele>123.66666666666666</ele><time>2026-04-06T13:00:10.573Z</time></trkpt><trkpt lat="45.8108821" lon="11.7157142"><ele>125.33333333333334</ele><time>2026-04-06T13:00:11.57Z</time></trkpt><trkpt lat="45.8108783" lon="11.7153872"><ele>127.0</ele><time>2026-04-06T13:00:12.579Z</time></trkpt><trkpt lat="45.8109336" lon="11.7150664"><ele>128.0</ele><time>2026-04-06T13:00:13.574Z</time></trkpt><trkpt lat="45.8109812" lon="11.7147704"><ele>129.0</ele><time>2026-04-06T13:00:14.573Z</time></trkpt><trkpt lat="45.8110219" lon="11.7145039"><ele>130.0</ele><time>2026-04-06T13:00:15.572Z</time></trkpt><trkpt lat="45.811048" lon="11.7142529"><ele>130.25</ele><time>2026-04-06T13:00:16.579Z</time></trkpt><trkpt lat="45.8110989" lon="11.7140287"><ele>130.5</ele><time>2026-04-06T13:00:17.571Z</time></trkpt><trkpt lat="45.8111279" lon="11.7138381"><ele>130.75</ele><time>2026-04-06T13:00:18.572Z</time></trkpt><trkpt lat="45.8111541" lon="11.7136458"><ele>131.0</ele><time>2026-04-06T13:00:19.576Z</time></trkpt><trkpt lat="45.8111451" lon="11.7135174"><ele>131.6</ele><time>2026-04-06T13:00:20.579Z</time></trkpt><trkpt lat="45.8111278" lon="11.7134131"><ele>132.2</ele><time>2026-04-06T13:00:21.574Z</time></trkpt><trkpt lat="45.8111137" lon="11.7132703"><ele>132.8</ele><time>2026-04-06T13:00:23.573Z</time></trkpt><trkpt lat="45.811221" lon="11.7132097"><ele>133.4</ele><time>2026-04-06T13:00:26.583Z</time></trkpt><trkpt lat="45.8112967" lon="11.7131993"><ele>134.0</ele><time>2026-04-06T13:00:27.584Z</time></trkpt><trkpt lat="45.811382" lon="11.713219"><ele>134.0</ele><time>2026-04-06T13:00:28.582Z</time></trkpt><trkpt lat="45.8114664" lon="11.7132564"><ele>134.0</ele><time>2026-04-06T13:00:29.581Z</time></trkpt><trkpt lat="45.8115781" lon="11.7132915"><ele>134.0</ele><time>2026-04-06T13:00:30.579Z</time></trkpt><trkpt lat="45.8117246" lon="11.7133323"><ele>134.0</ele><time>2026-04-06T13:00:31.578Z</time></trkpt><trkpt lat="45.8118773" lon="11.7133841"><ele>136.0</ele><time>2026-04-06T13:00:32.58Z</time></trkpt><trkpt lat="45.8120299" lon="11.7134687"><ele>138.0</ele><time>2026-04-06T13:00:33.582Z</time></trkpt><trkpt lat="45.8122315" lon="11.7135106"><ele>140.0</ele><time>2026-04-06T13:00:34.583Z</time></trkpt><trkpt lat="45.8123907" lon="11.7135572"><ele>138.66666666666666</ele><time>2026-04-06T13:00:35.581Z</time></trkpt><trkpt lat="45.8125481" lon="11.7136046"><ele>137.33333333333334</ele><time>2026-04-06T13:00:36.58Z</time></trkpt><trkpt lat="45.8127677" lon="11.7136747"><ele>136.0</ele><time>2026-04-06T13:00:37.58Z</time></trkpt><trkpt lat="45.8129689" lon="11.7137154"><ele>136.0</ele><time>2026-04-06T13:00:38.579Z</time></trkpt><trkpt lat="45.8132052" lon="11.7137484"><ele>136.0</ele><time>2026-04-06T13:00:39.577Z</time></trkpt><trkpt lat="45.8134198" lon="11.7138101"><ele>138.0</ele><time>2026-04-06T13:00:40.581Z</time></trkpt><trkpt lat="45.8136144" lon="11.7138901"><ele>140.0</ele><time>2026-04-06T13:00:41.596Z</time></trkpt><trkpt lat="45.8138267" lon="11.7140188"><ele>142.0</ele><time>2026-04-06T13:00:42.597Z</time></trkpt><trkpt lat="45.8140373" lon="11.7140641"><ele>142.0</ele><time>2026-04-06T13:00:43.571Z</time></trkpt><trkpt lat="45.8142495" lon="11.7141183"><ele>142.0</ele><time>2026-04-06T13:00:44.571Z</time></trkpt><trkpt lat="45.8144538" lon="11.7141724"><ele>142.0</ele><time>2026-04-06T13:00:45.57Z</time></trkpt><trkpt lat="45.8146771" lon="11.7142166"><ele>145.33333333333334</ele><time>2026-04-06T13:00:46.573Z</time></trkpt><trkpt lat="45.8148845" lon="11.714276"><ele>148.66666666666666</ele><time>2026-04-06T13:00:47.572Z</time></trkpt><trkpt lat="45.8150871" lon="11.7143353"><ele>152.0</ele><time>2026-04-06T13:00:48.567Z</time></trkpt><trkpt lat="45.8152827" lon="11.7143788"><ele>143.66666666666666</ele><time>2026-04-06T13:00:49.567Z</time></trkpt><trkpt lat="45.8154533" lon="11.7144104"><ele>135.33333333333334</ele><time>2026-04-06T13:00:50.564Z</time></trkpt><trkpt lat="45.8156091" lon="11.7144507"><ele>127.0</ele><time>2026-04-06T13:00:51.565Z</time></trkpt><trkpt lat="45.8157682" lon="11.7144566"><ele>127.0</ele><time>2026-04-06T13:00:52.563Z</time></trkpt><trkpt lat="45.8159055" lon="11.7144149"><ele>127.0</ele><time>2026-04-06T13:00:53.569Z</time></trkpt><trkpt lat="45.8160334" lon="11.7143508"><ele>127.0</ele><time>2026-04-06T13:00:54.562Z</time></trkpt><trkpt lat="45.8161586" lon="11.7143034"><ele>127.0</ele><time>2026-04-06T13:00:55.583Z</time></trkpt><trkpt lat="45.816273" lon="11.7142659"><ele>134.33333333333334</ele><time>2026-04-06T13:00:56.562Z</time></trkpt><trkpt lat="45.8165329" lon="11.7142397"><ele>141.66666666666666</ele><time>2026-04-06T13:00:58.558Z</time></trkpt><trkpt lat="45.8166633" lon="11.71422"><ele>149.0</ele><time>2026-04-06T13:00:59.559Z</time></trkpt><trkpt lat="45.8167761" lon="11.714159"><ele>144.5</ele><time>2026-04-06T13:01:00.561Z</time></trkpt><trkpt lat="45.8168852" lon="11.7140822"><ele>140.0</ele><time>2026-04-06T13:01:01.563Z</time></trkpt><trkpt lat="45.817006" lon="11.7140059"><ele>135.5</ele><time>2026-04-06T13:01:02.564Z</time></trkpt><trkpt lat="45.8171183" lon="11.7139271"><ele>131.0</ele><time>2026-04-06T13:01:03.563Z</time></trkpt><trkpt lat="45.8172211" lon="11.7138682"><ele>131.0</ele><time>2026-04-06T13:01:04.564Z</time></trkpt><trkpt lat="45.8173309" lon="11.713804"><ele>131.0</ele><time>2026-04-06T13:01:05.562Z</time></trkpt><trkpt lat="45.817447" lon="11.7136959"><ele>131.0</ele><time>2026-04-06T13:01:06.563Z</time></trkpt><trkpt lat="45.8175868" lon="11.7135659"><ele>131.0</ele><time>2026-04-06T13:01:07.561Z</time></trkpt><trkpt lat="45.8177302" lon="11.7133964"><ele>130.66666666666666</ele><time>2026-04-06T13:01:08.559Z</time></trkpt><trkpt lat="45.8178898" lon="11.7132129"><ele>130.33333333333334</ele><time>2026-04-06T13:01:09.56Z</time></trkpt><trkpt lat="45.8180446" lon="11.7130681"><ele>130.0</ele><time>2026-04-06T13:01:10.561Z</time></trkpt><trkpt lat="45.8182355" lon="11.7129218"><ele>130.0</ele><time>2026-04-06T13:01:11.56Z</time></trkpt><trkpt lat="45.8184275" lon="11.7127587"><ele>130.0</ele><time>2026-04-06T13:01:12.558Z</time></trkpt><trkpt lat="45.8186007" lon="11.7125918"><ele>130.0</ele><time>2026-04-06T13:01:13.556Z</time></trkpt><trkpt lat="45.8187597" lon="11.7124125"><ele>130.0</ele><time>2026-04-06T13:01:14.638Z</time></trkpt><trkpt lat="45.8188987" lon="11.7122417"><ele>130.0</ele><time>2026-04-06T13:01:15.716Z</time></trkpt><trkpt lat="45.8191701" lon="11.7117933"><ele>128.0</ele><time>2026-04-06T13:01:17.56Z</time></trkpt><trkpt lat="45.8193043" lon="11.7115793"><ele>126.0</ele><time>2026-04-06T13:01:18.556Z</time></trkpt><trkpt lat="45.8194437" lon="11.7113852"><ele>124.0</ele><time>2026-04-06T13:01:19.603Z</time></trkpt><trkpt lat="45.8196309" lon="11.7112254"><ele>124.0</ele><time>2026-04-06T13:01:20.564Z</time></trkpt><trkpt lat="45.8197946" lon="11.7110757"><ele>124.0</ele><time>2026-04-06T13:01:21.561Z</time></trkpt><trkpt lat="45.8199297" lon="11.7109469"><ele>124.0</ele><time>2026-04-06T13:01:22.563Z</time></trkpt><trkpt lat="45.8200866" lon="11.7107934"><ele>123.33333333333334</ele><time>2026-04-06T13:01:23.564Z</time></trkpt><trkpt lat="45.8202599" lon="11.7106433"><ele>122.66666666666666</ele><time>2026-04-06T13:01:24.563Z</time></trkpt><trkpt lat="45.8204337" lon="11.7104781"><ele>122.0</ele><time>2026-04-06T13:01:25.563Z</time></trkpt><trkpt lat="45.8205823" lon="11.7103282"><ele>122.66666666666666</ele><time>2026-04-06T13:01:26.565Z</time></trkpt><trkpt lat="45.8207198" lon="11.7101607"><ele>123.33333333333334</ele><time>2026-04-06T13:01:27.565Z</time></trkpt><trkpt lat="45.8208583" lon="11.7099734"><ele>124.0</ele><time>2026-04-06T13:01:28.561Z</time></trkpt><trkpt lat="45.8209969" lon="11.7097633"><ele>124.0</ele><time>2026-04-06T13:01:29.566Z</time></trkpt><trkpt lat="45.8211066" lon="11.7095322"><ele>124.0</ele><time>2026-04-06T13:01:30.564Z</time></trkpt><trkpt lat="45.8212161" lon="11.709301"><ele>124.0</ele><time>2026-04-06T13:01:31.573Z</time></trkpt><trkpt lat="45.8213442" lon="11.7090877"><ele>124.33333333333334</ele><time>2026-04-06T13:01:32.571Z</time></trkpt><trkpt lat="45.8214717" lon="11.7088716"><ele>124.66666666666666</ele><time>2026-04-06T13:01:33.57Z</time></trkpt><trkpt lat="45.8215945" lon="11.708687"><ele>125.0</ele><time>2026-04-06T13:01:34.573Z</time></trkpt><trkpt lat="45.8217178" lon="11.7085361"><ele>125.66666666666666</ele><time>2026-04-06T13:01:35.605Z</time></trkpt><trkpt lat="45.8218846" lon="11.708402"><ele>126.33333333333334</ele><time>2026-04-06T13:01:36.573Z</time></trkpt><trkpt lat="45.8220554" lon="11.7082387"><ele>127.0</ele><time>2026-04-06T13:01:37.575Z</time></trkpt><trkpt lat="45.8222089" lon="11.7080807"><ele>127.0</ele><time>2026-04-06T13:01:38.574Z</time></trkpt><trkpt lat="45.8223515" lon="11.7079456"><ele>127.0</ele><time>2026-04-06T13:01:39.574Z</time></trkpt><trkpt lat="45.8224822" lon="11.7078227"><ele>127.0</ele><time>2026-04-06T13:01:40.597Z</time></trkpt><trkpt lat="45.8226227" lon="11.7076737"><ele>128.33333333333334</ele><time>2026-04-06T13:01:41.574Z</time></trkpt><trkpt lat="45.8227589" lon="11.7075234"><ele>129.66666666666666</ele><time>2026-04-06T13:01:42.573Z</time></trkpt><trkpt lat="45.8229054" lon="11.7073611"><ele>131.0</ele><time>2026-04-06T13:01:43.575Z</time></trkpt><trkpt lat="45.8230566" lon="11.7071972"><ele>131.0</ele><time>2026-04-06T13:01:44.575Z</time></trkpt><trkpt lat="45.82319" lon="11.7070472"><ele>131.0</ele><time>2026-04-06T13:01:45.573Z</time></trkpt><trkpt lat="45.8233036" lon="11.7069057"><ele>131.0</ele><time>2026-04-06T13:01:46.582Z</time></trkpt><trkpt lat="45.8234143" lon="11.7067574"><ele>131.5</ele><time>2026-04-06T13:01:47.577Z</time></trkpt><trkpt lat="45.8235184" lon="11.7066389"><ele>132.0</ele><time>2026-04-06T13:01:48.576Z</time></trkpt><trkpt lat="45.8236241" lon="11.7065289"><ele>132.5</ele><time>2026-04-06T13:01:49.578Z</time></trkpt><trkpt lat="45.8237166" lon="11.7064138"><ele>133.0</ele><time>2026-04-06T13:01:50.576Z</time></trkpt><trkpt lat="45.8238079" lon="11.7062936"><ele>133.0</ele><time>2026-04-06T13:01:51.571Z</time></trkpt><trkpt lat="45.8239121" lon="11.7061815"><ele>133.0</ele><time>2026-04-06T13:01:52.573Z</time></trkpt><trkpt lat="45.8240555" lon="11.7060316"><ele>133.0</ele><time>2026-04-06T13:01:53.571Z</time></trkpt><trkpt lat="45.8242153" lon="11.7058927"><ele>132.66666666666669</ele><time>2026-04-06T13:01:54.568Z</time></trkpt><trkpt lat="45.8243683" lon="11.7057727"><ele>132.33333333333334</ele><time>2026-04-06T13:01:55.57Z</time></trkpt><trkpt lat="45.8245163" lon="11.7056619"><ele>132.0</ele><time>2026-04-06T13:01:56.569Z</time></trkpt><trkpt lat="45.8246525" lon="11.7055081"><ele>132.0</ele><time>2026-04-06T13:01:57.567Z</time></trkpt><trkpt lat="45.8247947" lon="11.7052877"><ele>132.0</ele><time>2026-04-06T13:01:58.57Z</time></trkpt><trkpt lat="45.8248947" lon="11.7050471"><ele>132.0</ele><time>2026-04-06T13:01:59.591Z</time></trkpt><trkpt lat="45.8250368" lon="11.7048711"><ele>131.66666666666666</ele><time>2026-04-06T13:02:00.575Z</time></trkpt><trkpt lat="45.8252016" lon="11.7046921"><ele>131.33333333333331</ele><time>2026-04-06T13:02:01.57Z</time></trkpt><trkpt lat="45.8253563" lon="11.7044915"><ele>131.0</ele><time>2026-04-06T13:02:02.593Z</time></trkpt><trkpt lat="45.8254895" lon="11.7043203"><ele>131.66666666666666</ele><time>2026-04-06T13:02:03.573Z</time></trkpt><trkpt lat="45.8256272" lon="11.7041342"><ele>132.33333333333334</ele><time>2026-04-06T13:02:04.573Z</time></trkpt><trkpt lat="45.8257799" lon="11.7039165"><ele>133.0</ele><time>2026-04-06T13:02:05.571Z</time></trkpt><trkpt lat="45.825926" lon="11.7037426"><ele>133.66666666666669</ele><time>2026-04-06T13:02:06.575Z</time></trkpt><trkpt lat="45.8260671" lon="11.7035699"><ele>134.33333333333334</ele><time>2026-04-06T13:02:07.586Z</time></trkpt><trkpt lat="45.826213" lon="11.7033716"><ele>135.0</ele><time>2026-04-06T13:02:08.573Z</time></trkpt><trkpt lat="45.8263532" lon="11.7031725"><ele>135.0</ele><time>2026-04-06T13:02:09.571Z</time></trkpt><trkpt lat="45.8264971" lon="11.7030187"><ele>135.0</ele><time>2026-04-06T13:02:10.572Z</time></trkpt><trkpt lat="45.8266398" lon="11.7028728"><ele>135.0</ele><time>2026-04-06T13:02:11.575Z</time></trkpt><trkpt lat="45.8267509" lon="11.7027111"><ele>134.66666666666666</ele><time>2026-04-06T13:02:12.572Z</time></trkpt><trkpt lat="45.8268656" lon="11.7025419"><ele>134.33333333333331</ele><time>2026-04-06T13:02:13.57Z</time></trkpt><trkpt lat="45.8269588" lon="11.7023595"><ele>134.0</ele><time>2026-04-06T13:02:14.571Z</time></trkpt><trkpt lat="45.8270309" lon="11.7021544"><ele>134.0</ele><time>2026-04-06T13:02:15.573Z</time></trkpt><trkpt lat="45.8271198" lon="11.7019373"><ele>134.0</ele><time>2026-04-06T13:02:16.572Z</time></trkpt><trkpt lat="45.8272417" lon="11.7016972"><ele>134.0</ele><time>2026-04-06T13:02:17.576Z</time></trkpt><trkpt lat="45.8273736" lon="11.7014848"><ele>134.0</ele><time>2026-04-06T13:02:18.576Z</time></trkpt><trkpt lat="45.8275149" lon="11.7013159"><ele>134.0</ele><time>2026-04-06T13:02:19.577Z</time></trkpt><trkpt lat="45.8276585" lon="11.7011593"><ele>134.0</ele><time>2026-04-06T13:02:20.581Z</time></trkpt><trkpt lat="45.8278149" lon="11.700955"><ele>135.33333333333331</ele><time>2026-04-06T13:02:21.576Z</time></trkpt><trkpt lat="45.8279401" lon="11.7007852"><ele>136.66666666666666</ele><time>2026-04-06T13:02:22.578Z</time></trkpt><trkpt lat="45.8280674" lon="11.7006234"><ele>138.0</ele><time>2026-04-06T13:02:23.577Z</time></trkpt><trkpt lat="45.8281861" lon="11.7004616"><ele>138.0</ele><time>2026-04-06T13:02:24.595Z</time></trkpt><trkpt lat="45.8282942" lon="11.7003208"><ele>138.0</ele><time>2026-04-06T13:02:25.572Z</time></trkpt><trkpt lat="45.8283878" lon="11.7001983"><ele>138.0</ele><time>2026-04-06T13:02:26.575Z</time></trkpt><trkpt lat="45.8284703" lon="11.700098"><ele>138.0</ele><time>2026-04-06T13:02:27.575Z</time></trkpt><trkpt lat="45.8285644" lon="11.7000089"><ele>138.6</ele><time>2026-04-06T13:02:28.575Z</time></trkpt><trkpt lat="45.8286313" lon="11.6999391"><ele>139.20000000000002</ele><time>2026-04-06T13:02:29.577Z</time></trkpt><trkpt lat="45.8287178" lon="11.6998746"><ele>139.8</ele><time>2026-04-06T13:02:30.576Z</time></trkpt><trkpt lat="45.8287837" lon="11.6998258"><ele>140.4</ele><time>2026-04-06T13:02:31.569Z</time></trkpt><trkpt lat="45.8288523" lon="11.6997443"><ele>141.0</ele><time>2026-04-06T13:02:32.573Z</time></trkpt><trkpt lat="45.8289743" lon="11.6997314"><ele>141.0</ele><time>2026-04-06T13:02:33.564Z</time></trkpt><trkpt lat="45.8290788" lon="11.6996733"><ele>141.0</ele><time>2026-04-06T13:02:34.566Z</time></trkpt><trkpt lat="45.829179" lon="11.6995886"><ele>141.0</ele><time>2026-04-06T13:02:35.591Z</time></trkpt><trkpt lat="45.8292834" lon="11.6995069"><ele>141.0</ele><time>2026-04-06T13:02:36.565Z</time></trkpt><trkpt lat="45.8293943" lon="11.6994404"><ele>141.75</ele><time>2026-04-06T13:02:37.572Z</time></trkpt><trkpt lat="45.8294927" lon="11.6993656"><ele>142.5</ele><time>2026-04-06T13:02:38.569Z</time></trkpt><trkpt lat="45.8295838" lon="11.6992822"><ele>143.25</ele><time>2026-04-06T13:02:39.572Z</time></trkpt><trkpt lat="45.8296685" lon="11.6991783"><ele>144.0</ele><time>2026-04-06T13:02:40.58Z</time></trkpt><trkpt lat="45.8297615" lon="11.6990631"><ele>144.0</ele><time>2026-04-06T13:02:41.572Z</time></trkpt><trkpt lat="45.8298638" lon="11.6989445"><ele>144.0</ele><time>2026-04-06T13:02:42.649Z</time></trkpt><trkpt lat="45.8299955" lon="11.6988325"><ele>144.0</ele><time>2026-04-06T13:02:43.728Z</time></trkpt><trkpt lat="45.8301509" lon="11.6986651"><ele>142.33333333333334</ele><time>2026-04-06T13:02:44.731Z</time></trkpt><trkpt lat="45.8303104" lon="11.6985259"><ele>140.66666666666669</ele><time>2026-04-06T13:02:45.809Z</time></trkpt><trkpt lat="45.8304911" lon="11.6983582"><ele>139.0</ele><time>2026-04-06T13:02:46.728Z</time></trkpt><trkpt lat="45.8306778" lon="11.6982123"><ele>139.0</ele><time>2026-04-06T13:02:47.573Z</time></trkpt><trkpt lat="45.8308615" lon="11.6980446"><ele>139.0</ele><time>2026-04-06T13:02:48.57Z</time></trkpt><trkpt lat="45.831028" lon="11.6978863"><ele>139.0</ele><time>2026-04-06T13:02:49.571Z</time></trkpt><trkpt lat="45.8312094" lon="11.6976908"><ele>137.5</ele><time>2026-04-06T13:02:50.565Z</time></trkpt><trkpt lat="45.8314066" lon="11.6974968"><ele>136.0</ele><time>2026-04-06T13:02:51.566Z</time></trkpt><trkpt lat="45.8316285" lon="11.6973064"><ele>134.0</ele><time>2026-04-06T13:02:52.565Z</time></trkpt><trkpt lat="45.8318289" lon="11.6971236"><ele>132.0</ele><time>2026-04-06T13:02:53.563Z</time></trkpt><trkpt lat="45.832009" lon="11.6969376"><ele>133.66666666666666</ele><time>2026-04-06T13:02:54.567Z</time></trkpt><trkpt lat="45.8321843" lon="11.6967582"><ele>135.33333333333331</ele><time>2026-04-06T13:02:55.572Z</time></trkpt><trkpt lat="45.832359" lon="11.6965733"><ele>137.0</ele><time>2026-04-06T13:02:56.567Z</time></trkpt><trkpt lat="45.8325237" lon="11.6963966"><ele>136.66666666666666</ele><time>2026-04-06T13:02:57.566Z</time></trkpt><trkpt lat="45.8326855" lon="11.6962159"><ele>136.33333333333334</ele><time>2026-04-06T13:02:58.572Z</time></trkpt><trkpt lat="45.8328393" lon="11.6960207"><ele>136.0</ele><time>2026-04-06T13:02:59.565Z</time></trkpt><trkpt lat="45.8329744" lon="11.6958354"><ele>136.0</ele><time>2026-04-06T13:03:00.566Z</time></trkpt><trkpt lat="45.8330758" lon="11.6955952"><ele>136.0</ele><time>2026-04-06T13:03:01.567Z</time></trkpt><trkpt lat="45.8331827" lon="11.6953627"><ele>136.0</ele><time>2026-04-06T13:03:02.722Z</time></trkpt><trkpt lat="45.8333208" lon="11.6951223"><ele>135.5</ele><time>2026-04-06T13:03:03.723Z</time></trkpt><trkpt lat="45.833531" lon="11.6945823"><ele>135.0</ele><time>2026-04-06T13:03:05.559Z</time></trkpt><trkpt lat="45.8336322" lon="11.6943488"><ele>135.0</ele><time>2026-04-06T13:03:06.564Z</time></trkpt><trkpt lat="45.833748" lon="11.6941153"><ele>135.0</ele><time>2026-04-06T13:03:07.565Z</time></trkpt><trkpt lat="45.8338487" lon="11.6939009"><ele>135.0</ele><time>2026-04-06T13:03:08.565Z</time></trkpt><trkpt lat="45.8339721" lon="11.6937075"><ele>135.33333333333334</ele><time>2026-04-06T13:03:09.567Z</time></trkpt><trkpt lat="45.8340902" lon="11.6935108"><ele>135.66666666666669</ele><time>2026-04-06T13:03:10.564Z</time></trkpt><trkpt lat="45.8342151" lon="11.6933586"><ele>136.0</ele><time>2026-04-06T13:03:11.566Z</time></trkpt><trkpt lat="45.834327" lon="11.6931609"><ele>136.0</ele><time>2026-04-06T13:03:12.565Z</time></trkpt><trkpt lat="45.8344239" lon="11.6929729"><ele>136.0</ele><time>2026-04-06T13:03:13.631Z</time></trkpt><trkpt lat="45.8344966" lon="11.6927812"><ele>136.0</ele><time>2026-04-06T13:03:14.565Z</time></trkpt><trkpt lat="45.8345607" lon="11.6925936"><ele>136.0</ele><time>2026-04-06T13:03:15.565Z</time></trkpt><trkpt lat="45.8346203" lon="11.6924411"><ele>136.0</ele><time>2026-04-06T13:03:16.564Z</time></trkpt><trkpt lat="45.8346617" lon="11.6923048"><ele>136.0</ele><time>2026-04-06T13:03:17.565Z</time></trkpt><trkpt lat="45.8347102" lon="11.6921891"><ele>136.0</ele><time>2026-04-06T13:03:18.571Z</time></trkpt><trkpt lat="45.8347368" lon="11.6920542"><ele>136.0</ele><time>2026-04-06T13:03:19.567Z</time></trkpt><trkpt lat="45.8347749" lon="11.6919096"><ele>136.25</ele><time>2026-04-06T13:03:20.569Z</time></trkpt><trkpt lat="45.8348046" lon="11.6917195"><ele>136.5</ele><time>2026-04-06T13:03:21.569Z</time></trkpt><trkpt lat="45.8348727" lon="11.6915393"><ele>136.75</ele><time>2026-04-06T13:03:22.598Z</time></trkpt><trkpt lat="45.8349675" lon="11.6913445"><ele>137.0</ele><time>2026-04-06T13:03:23.568Z</time></trkpt><trkpt lat="45.8350678" lon="11.6910505"><ele>137.33333333333331</ele><time>2026-04-06T13:03:24.57Z</time></trkpt><trkpt lat="45.8351929" lon="11.6908244"><ele>137.66666666666666</ele><time>2026-04-06T13:03:25.587Z</time></trkpt><trkpt lat="45.8353138" lon="11.6906268"><ele>138.0</ele><time>2026-04-06T13:03:26.568Z</time></trkpt><trkpt lat="45.8354305" lon="11.6904375"><ele>138.0</ele><time>2026-04-06T13:03:27.567Z</time></trkpt><trkpt lat="45.8355423" lon="11.6902609"><ele>138.0</ele><time>2026-04-06T13:03:28.566Z</time></trkpt><trkpt lat="45.8356166" lon="11.6901625"><ele>138.0</ele><time>2026-04-06T13:03:29.568Z</time></trkpt><trkpt lat="45.8357328" lon="11.6900077"><ele>138.0</ele><time>2026-04-06T13:03:30.57Z</time></trkpt><trkpt lat="45.8358189" lon="11.6898648"><ele>138.0</ele><time>2026-04-06T13:03:31.568Z</time></trkpt><trkpt lat="45.8359189" lon="11.689793"><ele>138.0</ele><time>2026-04-06T13:03:32.591Z</time></trkpt><trkpt lat="45.8359986" lon="11.6897271"><ele>138.0</ele><time>2026-04-06T13:03:33.567Z</time></trkpt><trkpt lat="45.8360909" lon="11.6896233"><ele>138.0</ele><time>2026-04-06T13:03:34.573Z</time></trkpt><trkpt lat="45.8361836" lon="11.6895131"><ele>138.0</ele><time>2026-04-06T13:03:35.568Z</time></trkpt><trkpt lat="45.8362811" lon="11.6893923"><ele>138.75</ele><time>2026-04-06T13:03:36.566Z</time></trkpt><trkpt lat="45.8363793" lon="11.6892713"><ele>139.5</ele><time>2026-04-06T13:03:37.566Z</time></trkpt><trkpt lat="45.8364716" lon="11.6891555"><ele>140.25</ele><time>2026-04-06T13:03:38.569Z</time></trkpt><trkpt lat="45.836557" lon="11.6890452"><ele>141.0</ele><time>2026-04-06T13:03:39.566Z</time></trkpt><trkpt lat="45.8366455" lon="11.6889323"><ele>141.0</ele><time>2026-04-06T13:03:40.567Z</time></trkpt><trkpt lat="45.8367354" lon="11.6888132"><ele>141.0</ele><time>2026-04-06T13:03:41.567Z</time></trkpt><trkpt lat="45.8368259" lon="11.688691"><ele>141.0</ele><time>2026-04-06T13:03:42.566Z</time></trkpt><trkpt lat="45.8369152" lon="11.6885654"><ele>141.0</ele><time>2026-04-06T13:03:43.568Z</time></trkpt><trkpt lat="45.8370028" lon="11.6884387"><ele>139.75</ele><time>2026-04-06T13:03:44.569Z</time></trkpt><trkpt lat="45.8370875" lon="11.6883087"><ele>138.5</ele><time>2026-04-06T13:03:45.567Z</time></trkpt><trkpt lat="45.8371628" lon="11.6881661"><ele>137.25</ele><time>2026-04-06T13:03:46.572Z</time></trkpt><trkpt lat="45.8372338" lon="11.6880153"><ele>136.0</ele><time>2026-04-06T13:03:47.573Z</time></trkpt><trkpt lat="45.8373028" lon="11.687869"><ele>138.0</ele><time>2026-04-06T13:03:48.569Z</time></trkpt><trkpt lat="45.8373819" lon="11.6877218"><ele>140.0</ele><time>2026-04-06T13:03:49.569Z</time></trkpt><trkpt lat="45.8374576" lon="11.6875807"><ele>142.0</ele><time>2026-04-06T13:03:50.574Z</time></trkpt><trkpt lat="45.8375382" lon="11.687416"><ele>144.0</ele><time>2026-04-06T13:03:51.593Z</time></trkpt><trkpt lat="45.8376186" lon="11.6872342"><ele>142.33333333333334</ele><time>2026-04-06T13:03:52.572Z</time></trkpt><trkpt lat="45.8377001" lon="11.6870063"><ele>140.66666666666669</ele><time>2026-04-06T13:03:53.569Z</time></trkpt><trkpt lat="45.8377951" lon="11.686797"><ele>139.0</ele><time>2026-04-06T13:03:54.57Z</time></trkpt><trkpt lat="45.8378909" lon="11.6866606"><ele>139.0</ele><time>2026-04-06T13:03:55.57Z</time></trkpt><trkpt lat="45.8379912" lon="11.6865522"><ele>139.0</ele><time>2026-04-06T13:03:56.574Z</time></trkpt><trkpt lat="45.8381096" lon="11.686427"><ele>139.0</ele><time>2026-04-06T13:03:57.569Z</time></trkpt><trkpt lat="45.8382255" lon="11.6862558"><ele>139.0</ele><time>2026-04-06T13:03:58.57Z</time></trkpt><trkpt lat="45.8383321" lon="11.6860331"><ele>138.33333333333334</ele><time>2026-04-06T13:03:59.572Z</time></trkpt><trkpt lat="45.8384459" lon="11.6857817"><ele>137.66666666666666</ele><time>2026-04-06T13:04:00.571Z</time></trkpt><trkpt lat="45.8385535" lon="11.6855456"><ele>137.0</ele><time>2026-04-06T13:04:01.574Z</time></trkpt><trkpt lat="45.8386619" lon="11.6853323"><ele>137.66666666666666</ele><time>2026-04-06T13:04:02.571Z</time></trkpt><trkpt lat="45.8387821" lon="11.685114"><ele>138.33333333333334</ele><time>2026-04-06T13:04:03.571Z</time></trkpt><trkpt lat="45.8389263" lon="11.6848873"><ele>139.0</ele><time>2026-04-06T13:04:04.57Z</time></trkpt><trkpt lat="45.83908" lon="11.6847334"><ele>139.0</ele><time>2026-04-06T13:04:05.567Z</time></trkpt><trkpt lat="45.8391819" lon="11.6844991"><ele>139.0</ele><time>2026-04-06T13:04:06.566Z</time></trkpt><trkpt lat="45.839294" lon="11.6842828"><ele>139.0</ele><time>2026-04-06T13:04:07.569Z</time></trkpt><trkpt lat="45.8394024" lon="11.6840893"><ele>138.66666666666669</ele><time>2026-04-06T13:04:08.643Z</time></trkpt><trkpt lat="45.8395149" lon="11.6839021"><ele>138.33333333333334</ele><time>2026-04-06T13:04:09.567Z</time></trkpt><trkpt lat="45.8396425" lon="11.683726"><ele>138.0</ele><time>2026-04-06T13:04:10.569Z</time></trkpt><trkpt lat="45.8397696" lon="11.6835176"><ele>138.66666666666666</ele><time>2026-04-06T13:04:11.648Z</time></trkpt><trkpt lat="45.839905" lon="11.6833396"><ele>139.33333333333331</ele><time>2026-04-06T13:04:12.724Z</time></trkpt><trkpt lat="45.8400265" lon="11.6831831"><ele>140.0</ele><time>2026-04-06T13:04:13.727Z</time></trkpt><trkpt lat="45.8402643" lon="11.6828161"><ele>139.0</ele><time>2026-04-06T13:04:15.568Z</time></trkpt><trkpt lat="45.8403992" lon="11.6826137"><ele>138.0</ele><time>2026-04-06T13:04:16.564Z</time></trkpt><trkpt lat="45.840537" lon="11.6824458"><ele>137.0</ele><time>2026-04-06T13:04:17.892Z</time></trkpt><trkpt lat="45.8407865" lon="11.6820132"><ele>140.5</ele><time>2026-04-06T13:04:19.568Z</time></trkpt><trkpt lat="45.8408672" lon="11.6817448"><ele>144.0</ele><time>2026-04-06T13:04:20.573Z</time></trkpt><trkpt lat="45.8409342" lon="11.6813899"><ele>135.0</ele><time>2026-04-06T13:04:21.728Z</time></trkpt><trkpt lat="45.8410647" lon="11.6807033"><ele>135.0</ele><time>2026-04-06T13:04:23.728Z</time></trkpt><trkpt lat="45.8411295" lon="11.6803419"><ele>135.0</ele><time>2026-04-06T13:04:24.726Z</time></trkpt><trkpt lat="45.8411825" lon="11.6800115"><ele>136.0</ele><time>2026-04-06T13:04:25.732Z</time></trkpt><trkpt lat="45.8412574" lon="11.6797142"><ele>137.0</ele><time>2026-04-06T13:04:26.728Z</time></trkpt><trkpt lat="45.8413369" lon="11.6794455"><ele>138.0</ele><time>2026-04-06T13:04:27.719Z</time></trkpt><trkpt lat="45.8414377" lon="11.679176"><ele>139.33333333333334</ele><time>2026-04-06T13:04:28.724Z</time></trkpt><trkpt lat="45.8415557" lon="11.6789323"><ele>140.66666666666669</ele><time>2026-04-06T13:04:29.571Z</time></trkpt><trkpt lat="45.8416525" lon="11.6786866"><ele>142.0</ele><time>2026-04-06T13:04:30.573Z</time></trkpt><trkpt lat="45.8417461" lon="11.678414"><ele>141.66666666666669</ele><time>2026-04-06T13:04:31.567Z</time></trkpt><trkpt lat="45.8417978" lon="11.6781762"><ele>141.33333333333334</ele><time>2026-04-06T13:04:32.564Z</time></trkpt><trkpt lat="45.8418422" lon="11.67795"><ele>141.0</ele><time>2026-04-06T13:04:33.722Z</time></trkpt><trkpt lat="45.8419051" lon="11.6777244"><ele>141.0</ele><time>2026-04-06T13:04:34.722Z</time></trkpt><trkpt lat="45.8419535" lon="11.6775449"><ele>141.0</ele><time>2026-04-06T13:04:35.718Z</time></trkpt><trkpt lat="45.8419762" lon="11.6773382"><ele>141.0</ele><time>2026-04-06T13:04:36.801Z</time></trkpt><trkpt lat="45.8419683" lon="11.6771207"><ele>141.0</ele><time>2026-04-06T13:04:37.723Z</time></trkpt><trkpt lat="45.8419788" lon="11.6769015"><ele>140.66666666666666</ele><time>2026-04-06T13:04:38.722Z</time></trkpt><trkpt lat="45.842034" lon="11.6766767"><ele>140.33333333333331</ele><time>2026-04-06T13:04:39.724Z</time></trkpt><trkpt lat="45.842074" lon="11.6764304"><ele>140.0</ele><time>2026-04-06T13:04:40.721Z</time></trkpt><trkpt lat="45.8421366" lon="11.6761695"><ele>140.33333333333331</ele><time>2026-04-06T13:04:41.799Z</time></trkpt><trkpt lat="45.8422241" lon="11.6758969"><ele>140.66666666666666</ele><time>2026-04-06T13:04:42.88Z</time></trkpt><trkpt lat="45.8423615" lon="11.6756571"><ele>141.0</ele><time>2026-04-06T13:04:43.877Z</time></trkpt><trkpt lat="45.8426449" lon="11.6752045"><ele>141.0</ele><time>2026-04-06T13:04:45.727Z</time></trkpt><trkpt lat="45.8428197" lon="11.674789"><ele>141.0</ele><time>2026-04-06T13:04:47.726Z</time></trkpt><trkpt lat="45.8428715" lon="11.6745041"><ele>141.66666666666666</ele><time>2026-04-06T13:04:48.725Z</time></trkpt><trkpt lat="45.842934" lon="11.6742233"><ele>142.33333333333331</ele><time>2026-04-06T13:04:49.724Z</time></trkpt><trkpt lat="45.8429646" lon="11.6739789"><ele>143.0</ele><time>2026-04-06T13:04:50.725Z</time></trkpt><trkpt lat="45.8429982" lon="11.6737313"><ele>143.66666666666666</ele><time>2026-04-06T13:04:51.728Z</time></trkpt><trkpt lat="45.843008" lon="11.6735557"><ele>144.33333333333334</ele><time>2026-04-06T13:04:52.88Z</time></trkpt><trkpt lat="45.8430562" lon="11.6733746"><ele>145.0</ele><time>2026-04-06T13:04:53.875Z</time></trkpt><trkpt lat="45.8431935" lon="11.6731165"><ele>145.0</ele><time>2026-04-06T13:04:55.721Z</time></trkpt><trkpt lat="45.843234" lon="11.6729542"><ele>145.0</ele><time>2026-04-06T13:04:56.726Z</time></trkpt><trkpt lat="45.8432889" lon="11.6728101"><ele>145.0</ele><time>2026-04-06T13:04:57.725Z</time></trkpt><trkpt lat="45.8433252" lon="11.672661"><ele>145.0</ele><time>2026-04-06T13:04:58.725Z</time></trkpt><trkpt lat="45.8435573" lon="11.6724009"><ele>145.66666666666669</ele><time>2026-04-06T13:05:00.567Z</time></trkpt><trkpt lat="45.8436734" lon="11.6722836"><ele>146.33333333333334</ele><time>2026-04-06T13:05:01.569Z</time></trkpt><trkpt lat="45.8437748" lon="11.6721421"><ele>147.0</ele><time>2026-04-06T13:05:02.566Z</time></trkpt><trkpt lat="45.8438951" lon="11.671976"><ele>147.0</ele><time>2026-04-06T13:05:03.566Z</time></trkpt><trkpt lat="45.844066" lon="11.6718325"><ele>147.0</ele><time>2026-04-06T13:05:04.566Z</time></trkpt><trkpt lat="45.8442224" lon="11.6716932"><ele>147.0</ele><time>2026-04-06T13:05:05.889Z</time></trkpt><trkpt lat="45.8445162" lon="11.6713995"><ele>147.0</ele><time>2026-04-06T13:05:07.571Z</time></trkpt><trkpt lat="45.844653" lon="11.6713386"><ele>147.0</ele><time>2026-04-06T13:05:08.57Z</time></trkpt><trkpt lat="45.8447819" lon="11.6712407"><ele>147.0</ele><time>2026-04-06T13:05:09.728Z</time></trkpt><trkpt lat="45.8448602" lon="11.6711624"><ele>147.0</ele><time>2026-04-06T13:05:10.721Z</time></trkpt><trkpt lat="45.8448629" lon="11.6709935"><ele>147.0</ele><time>2026-04-06T13:05:12.724Z</time></trkpt><trkpt lat="45.844944" lon="11.6708238"><ele>147.0</ele><time>2026-04-06T13:05:15.566Z</time></trkpt><trkpt lat="45.8450057" lon="11.6707265"><ele>147.0</ele><time>2026-04-06T13:05:16.725Z</time></trkpt><trkpt lat="45.8450892" lon="11.670613"><ele>147.0</ele><time>2026-04-06T13:05:17.731Z</time></trkpt><trkpt lat="45.845176" lon="11.670484"><ele>148.0</ele><time>2026-04-06T13:05:18.891Z</time></trkpt><trkpt lat="45.845365" lon="11.6702654"><ele>149.0</ele><time>2026-04-06T13:05:20.57Z</time></trkpt><trkpt lat="45.8454462" lon="11.6701601"><ele>150.0</ele><time>2026-04-06T13:05:21.568Z</time></trkpt><trkpt lat="45.8455245" lon="11.6700539"><ele>150.0</ele><time>2026-04-06T13:05:22.57Z</time></trkpt><trkpt lat="45.8456077" lon="11.6699579"><ele>150.0</ele><time>2026-04-06T13:05:23.57Z</time></trkpt><trkpt lat="45.8456872" lon="11.6698886"><ele>150.0</ele><time>2026-04-06T13:05:24.571Z</time></trkpt><trkpt lat="45.8457456" lon="11.6698121"><ele>150.0</ele><time>2026-04-06T13:05:25.727Z</time></trkpt><trkpt lat="45.8458067" lon="11.6697676"><ele>150.0</ele><time>2026-04-06T13:05:26.729Z</time></trkpt><trkpt lat="45.8459425" lon="11.669703"><ele>148.8</ele><time>2026-04-06T13:05:28.577Z</time></trkpt><trkpt lat="45.8460389" lon="11.6696652"><ele>147.6</ele><time>2026-04-06T13:05:29.57Z</time></trkpt><trkpt lat="45.8461111" lon="11.6696355"><ele>146.4</ele><time>2026-04-06T13:05:30.569Z</time></trkpt><trkpt lat="45.8462038" lon="11.669615"><ele>145.2</ele><time>2026-04-06T13:05:31.73Z</time></trkpt><trkpt lat="45.8463059" lon="11.6696045"><ele>144.0</ele><time>2026-04-06T13:05:32.777Z</time></trkpt><trkpt lat="45.8464752" lon="11.6695621"><ele>144.0</ele><time>2026-04-06T13:05:34.588Z</time></trkpt><trkpt lat="45.8465285" lon="11.6695068"><ele>144.0</ele><time>2026-04-06T13:05:35.564Z</time></trkpt><trkpt lat="45.8465806" lon="11.6694446"><ele>144.0</ele><time>2026-04-06T13:05:36.569Z</time></trkpt><trkpt lat="45.846633" lon="11.6693603"><ele>144.0</ele><time>2026-04-06T13:05:37.563Z</time></trkpt><trkpt lat="45.846658" lon="11.669248"><ele>144.0</ele><time>2026-04-06T13:05:38.562Z</time></trkpt><trkpt lat="45.8466797" lon="11.669131"><ele>144.0</ele><time>2026-04-06T13:05:39.567Z</time></trkpt><trkpt lat="45.8466899" lon="11.6690078"><ele>144.5</ele><time>2026-04-06T13:05:40.567Z</time></trkpt><trkpt lat="45.8466871" lon="11.6688388"><ele>145.0</ele><time>2026-04-06T13:05:41.562Z</time></trkpt><trkpt lat="45.8466666" lon="11.6686461"><ele>145.5</ele><time>2026-04-06T13:05:42.567Z</time></trkpt><trkpt lat="45.8466335" lon="11.6684634"><ele>146.0</ele><time>2026-04-06T13:05:43.565Z</time></trkpt><trkpt lat="45.8465965" lon="11.6682985"><ele>145.0</ele><time>2026-04-06T13:05:44.563Z</time></trkpt><trkpt lat="45.8465716" lon="11.6681592"><ele>144.0</ele><time>2026-04-06T13:05:45.724Z</time></trkpt><trkpt lat="45.8465506" lon="11.6680406"><ele>143.0</ele><time>2026-04-06T13:05:46.722Z</time></trkpt><trkpt lat="45.8465444" lon="11.6678227"><ele>142.0</ele><time>2026-04-06T13:05:48.639Z</time></trkpt><trkpt lat="45.8465528" lon="11.6677116"><ele>141.0</ele><time>2026-04-06T13:05:49.721Z</time></trkpt><trkpt lat="45.846578" lon="11.6676089"><ele>144.5</ele><time>2026-04-06T13:05:50.72Z</time></trkpt><trkpt lat="45.8467632" lon="11.667596"><ele>148.0</ele><time>2026-04-06T13:05:52.564Z</time></trkpt><trkpt lat="45.8468635" lon="11.6676121"><ele>151.5</ele><time>2026-04-06T13:05:53.712Z</time></trkpt><trkpt lat="45.8469964" lon="11.667624"><ele>155.0</ele><time>2026-04-06T13:05:54.712Z</time></trkpt><trkpt lat="45.84729" lon="11.6675539"><ele>155.0</ele><time>2026-04-06T13:05:56.721Z</time></trkpt><trkpt lat="45.8474228" lon="11.6674686"><ele>155.0</ele><time>2026-04-06T13:05:57.725Z</time></trkpt><trkpt lat="45.8477578" lon="11.667285"><ele>153.0</ele><time>2026-04-06T13:05:59.731Z</time></trkpt><trkpt lat="45.8480494" lon="11.6671529"><ele>151.0</ele><time>2026-04-06T13:06:01.565Z</time></trkpt><trkpt lat="45.8481926" lon="11.6670803"><ele>151.0</ele><time>2026-04-06T13:06:02.567Z</time></trkpt><trkpt lat="45.8483183" lon="11.6670209"><ele>151.0</ele><time>2026-04-06T13:06:03.564Z</time></trkpt><trkpt lat="45.8484602" lon="11.6670015"><ele>151.0</ele><time>2026-04-06T13:06:04.564Z</time></trkpt><trkpt lat="45.8485555" lon="11.6669714"><ele>151.0</ele><time>2026-04-06T13:06:05.563Z</time></trkpt><trkpt lat="45.8486496" lon="11.6669268"><ele>151.4</ele><time>2026-04-06T13:06:06.561Z</time></trkpt><trkpt lat="45.8487491" lon="11.6668997"><ele>151.8</ele><time>2026-04-06T13:06:07.561Z</time></trkpt><trkpt lat="45.8488426" lon="11.666913"><ele>152.20000000000002</ele><time>2026-04-06T13:06:08.563Z</time></trkpt><trkpt lat="45.848945" lon="11.6669367"><ele>152.6</ele><time>2026-04-06T13:06:09.56Z</time></trkpt><trkpt lat="45.849083" lon="11.6670056"><ele>153.0</ele><time>2026-04-06T13:06:10.566Z</time></trkpt><trkpt lat="45.8492023" lon="11.6670367"><ele>151.75</ele><time>2026-04-06T13:06:11.585Z</time></trkpt><trkpt lat="45.8493096" lon="11.6670678"><ele>150.5</ele><time>2026-04-06T13:06:12.566Z</time></trkpt><trkpt lat="45.849417" lon="11.6671048"><ele>149.25</ele><time>2026-04-06T13:06:13.592Z</time></trkpt><trkpt lat="45.8495351" lon="11.6671242"><ele>148.0</ele><time>2026-04-06T13:06:14.568Z</time></trkpt><trkpt lat="45.8496579" lon="11.6671418"><ele>148.0</ele><time>2026-04-06T13:06:15.562Z</time></trkpt><trkpt lat="45.8497788" lon="11.6671106"><ele>148.0</ele><time>2026-04-06T13:06:16.565Z</time></trkpt><trkpt lat="45.8499059" lon="11.6670363"><ele>148.0</ele><time>2026-04-06T13:06:17.569Z</time></trkpt><trkpt lat="45.8500321" lon="11.6669369"><ele>148.0</ele><time>2026-04-06T13:06:18.566Z</time></trkpt><trkpt lat="45.8501582" lon="11.6668162"><ele>147.66666666666669</ele><time>2026-04-06T13:06:19.567Z</time></trkpt><trkpt lat="45.850286" lon="11.6666647"><ele>147.33333333333334</ele><time>2026-04-06T13:06:20.566Z</time></trkpt><trkpt lat="45.8504645" lon="11.6665041"><ele>147.0</ele><time>2026-04-06T13:06:21.567Z</time></trkpt><trkpt lat="45.850657" lon="11.6663108"><ele>147.0</ele><time>2026-04-06T13:06:22.567Z</time></trkpt><trkpt lat="45.8507894" lon="11.6661676"><ele>147.0</ele><time>2026-04-06T13:06:23.567Z</time></trkpt><trkpt lat="45.8509188" lon="11.6660671"><ele>147.0</ele><time>2026-04-06T13:06:24.568Z</time></trkpt><trkpt lat="45.8510448" lon="11.6659369"><ele>147.5</ele><time>2026-04-06T13:06:25.567Z</time></trkpt><trkpt lat="45.8511715" lon="11.6658197"><ele>148.0</ele><time>2026-04-06T13:06:26.572Z</time></trkpt><trkpt lat="45.8512869" lon="11.6657203"><ele>148.5</ele><time>2026-04-06T13:06:27.571Z</time></trkpt><trkpt lat="45.8514121" lon="11.6656247"><ele>149.0</ele><time>2026-04-06T13:06:28.574Z</time></trkpt><trkpt lat="45.8515484" lon="11.6655652"><ele>149.0</ele><time>2026-04-06T13:06:29.574Z</time></trkpt><trkpt lat="45.851686" lon="11.6654945"><ele>149.0</ele><time>2026-04-06T13:06:30.573Z</time></trkpt><trkpt lat="45.8518334" lon="11.6654298"><ele>149.0</ele><time>2026-04-06T13:06:31.57Z</time></trkpt><trkpt lat="45.851967" lon="11.665378"><ele>149.0</ele><time>2026-04-06T13:06:32.567Z</time></trkpt><trkpt lat="45.8521093" lon="11.6652703"><ele>149.33333333333331</ele><time>2026-04-06T13:06:33.569Z</time></trkpt><trkpt lat="45.8522333" lon="11.6651803"><ele>149.66666666666666</ele><time>2026-04-06T13:06:34.572Z</time></trkpt><trkpt lat="45.8523994" lon="11.6651049"><ele>150.0</ele><time>2026-04-06T13:06:35.569Z</time></trkpt><trkpt lat="45.8525246" lon="11.6649834"><ele>149.33333333333334</ele><time>2026-04-06T13:06:36.562Z</time></trkpt><trkpt lat="45.8526479" lon="11.6649186"><ele>148.66666666666669</ele><time>2026-04-06T13:06:37.566Z</time></trkpt><trkpt lat="45.8528454" lon="11.6648138"><ele>148.0</ele><time>2026-04-06T13:06:38.566Z</time></trkpt><trkpt lat="45.8529772" lon="11.6647416"><ele>148.0</ele><time>2026-04-06T13:06:39.567Z</time></trkpt><trkpt lat="45.853054" lon="11.6646779"><ele>148.0</ele><time>2026-04-06T13:06:40.571Z</time></trkpt><trkpt lat="45.8531043" lon="11.6646201"><ele>148.0</ele><time>2026-04-06T13:06:41.568Z</time></trkpt><trkpt lat="45.8531426" lon="11.6645196"><ele>148.0</ele><time>2026-04-06T13:06:42.567Z</time></trkpt><trkpt lat="45.8531644" lon="11.6643656"><ele>148.0</ele><time>2026-04-06T13:06:43.592Z</time></trkpt><trkpt lat="45.8531892" lon="11.6642461"><ele>148.0</ele><time>2026-04-06T13:06:44.592Z</time></trkpt><trkpt lat="45.8532209" lon="11.6641392"><ele>148.20000000000002</ele><time>2026-04-06T13:06:45.568Z</time></trkpt><trkpt lat="45.8532671" lon="11.6640437"><ele>148.4</ele><time>2026-04-06T13:06:46.592Z</time></trkpt><trkpt lat="45.8533307" lon="11.6639502"><ele>148.60000000000002</ele><time>2026-04-06T13:06:47.591Z</time></trkpt><trkpt lat="45.8533998" lon="11.6638557"><ele>148.8</ele><time>2026-04-06T13:06:48.566Z</time></trkpt><trkpt lat="45.8534827" lon="11.6637704"><ele>149.0</ele><time>2026-04-06T13:06:49.566Z</time></trkpt><trkpt lat="45.8535826" lon="11.6636919"><ele>150.0</ele><time>2026-04-06T13:06:50.567Z</time></trkpt><trkpt lat="45.853695" lon="11.6636125"><ele>151.0</ele><time>2026-04-06T13:06:51.567Z</time></trkpt><trkpt lat="45.8538222" lon="11.6635261"><ele>152.0</ele><time>2026-04-06T13:06:52.592Z</time></trkpt><trkpt lat="45.8539513" lon="11.6634322"><ele>153.0</ele><time>2026-04-06T13:06:53.563Z</time></trkpt><trkpt lat="45.8540979" lon="11.6633177"><ele>153.0</ele><time>2026-04-06T13:06:54.56Z</time></trkpt><trkpt lat="45.854248" lon="11.6632018"><ele>153.0</ele><time>2026-04-06T13:06:55.56Z</time></trkpt><trkpt lat="45.8544024" lon="11.6630889"><ele>153.0</ele><time>2026-04-06T13:06:56.564Z</time></trkpt><trkpt lat="45.8545619" lon="11.6629618"><ele>151.66666666666666</ele><time>2026-04-06T13:06:57.562Z</time></trkpt><trkpt lat="45.8547486" lon="11.6628576"><ele>150.33333333333331</ele><time>2026-04-06T13:06:58.562Z</time></trkpt><trkpt lat="45.8549289" lon="11.66276"><ele>149.0</ele><time>2026-04-06T13:06:59.561Z</time></trkpt><trkpt lat="45.8551143" lon="11.6626469"><ele>148.0</ele><time>2026-04-06T13:07:00.562Z</time></trkpt><trkpt lat="45.8553205" lon="11.6625285"><ele>147.0</ele><time>2026-04-06T13:07:01.563Z</time></trkpt><trkpt lat="45.8555053" lon="11.6623991"><ele>146.0</ele><time>2026-04-06T13:07:02.564Z</time></trkpt><trkpt lat="45.855696" lon="11.6622673"><ele>146.0</ele><time>2026-04-06T13:07:03.566Z</time></trkpt><trkpt lat="45.8558874" lon="11.6621469"><ele>146.0</ele><time>2026-04-06T13:07:04.586Z</time></trkpt><trkpt lat="45.8560481" lon="11.6620224"><ele>146.0</ele><time>2026-04-06T13:07:05.561Z</time></trkpt><trkpt lat="45.8561946" lon="11.6618833"><ele>146.75</ele><time>2026-04-06T13:07:06.566Z</time></trkpt><trkpt lat="45.8562757" lon="11.6617075"><ele>147.5</ele><time>2026-04-06T13:07:07.565Z</time></trkpt><trkpt lat="45.8563608" lon="11.6615395"><ele>148.25</ele><time>2026-04-06T13:07:08.564Z</time></trkpt><trkpt lat="45.8564404" lon="11.6613812"><ele>149.0</ele><time>2026-04-06T13:07:09.584Z</time></trkpt><trkpt lat="45.8565173" lon="11.6611809"><ele>148.33333333333331</ele><time>2026-04-06T13:07:10.566Z</time></trkpt><trkpt lat="45.8565841" lon="11.6609717"><ele>147.66666666666666</ele><time>2026-04-06T13:07:11.564Z</time></trkpt><trkpt lat="45.8566617" lon="11.6606046"><ele>147.0</ele><time>2026-04-06T13:07:13.56Z</time></trkpt><trkpt lat="45.8567071" lon="11.6604518"><ele>147.0</ele><time>2026-04-06T13:07:14.585Z</time></trkpt><trkpt lat="45.856751" lon="11.6603078"><ele>147.0</ele><time>2026-04-06T13:07:15.563Z</time></trkpt><trkpt lat="45.8567958" lon="11.6601792"><ele>147.0</ele><time>2026-04-06T13:07:16.583Z</time></trkpt><trkpt lat="45.8568278" lon="11.6600409"><ele>147.0</ele><time>2026-04-06T13:07:17.719Z</time></trkpt><trkpt lat="45.8568581" lon="11.6598846"><ele>147.0</ele><time>2026-04-06T13:07:18.719Z</time></trkpt><trkpt lat="45.8569035" lon="11.6597187"><ele>147.4</ele><time>2026-04-06T13:07:19.706Z</time></trkpt><trkpt lat="45.8569367" lon="11.659556"><ele>147.79999999999998</ele><time>2026-04-06T13:07:20.709Z</time></trkpt><trkpt lat="45.8569828" lon="11.6594066"><ele>148.2</ele><time>2026-04-06T13:07:21.638Z</time></trkpt><trkpt lat="45.8570348" lon="11.6592731"><ele>148.6</ele><time>2026-04-06T13:07:22.719Z</time></trkpt><trkpt lat="45.8570906" lon="11.6591462"><ele>149.0</ele><time>2026-04-06T13:07:23.718Z</time></trkpt><trkpt lat="45.857166" lon="11.6590371"><ele>150.0</ele><time>2026-04-06T13:07:24.878Z</time></trkpt><trkpt lat="45.8574183" lon="11.6589239"><ele>151.0</ele><time>2026-04-06T13:07:26.717Z</time></trkpt><trkpt lat="45.8575692" lon="11.6588659"><ele>152.0</ele><time>2026-04-06T13:07:27.721Z</time></trkpt><trkpt lat="45.8577651" lon="11.6588131"><ele>152.0</ele><time>2026-04-06T13:07:28.72Z</time></trkpt><trkpt lat="45.8579361" lon="11.6588009"><ele>152.0</ele><time>2026-04-06T13:07:29.873Z</time></trkpt><trkpt lat="45.8580879" lon="11.6587997"><ele>152.0</ele><time>2026-04-06T13:07:30.873Z</time></trkpt><trkpt lat="45.8582137" lon="11.6588005"><ele>152.0</ele><time>2026-04-06T13:07:32.029Z</time></trkpt><trkpt lat="45.8583232" lon="11.6587339"><ele>152.0</ele><time>2026-04-06T13:07:33.03Z</time></trkpt><trkpt lat="45.8584327" lon="11.6586822"><ele>152.0</ele><time>2026-04-06T13:07:34.028Z</time></trkpt><trkpt lat="45.8586758" lon="11.658608"><ele>152.0</ele><time>2026-04-06T13:07:35.867Z</time></trkpt><trkpt lat="45.8589049" lon="11.6585525"><ele>151.75</ele><time>2026-04-06T13:07:37.579Z</time></trkpt><trkpt lat="45.8590284" lon="11.6584931"><ele>151.5</ele><time>2026-04-06T13:07:38.58Z</time></trkpt><trkpt lat="45.8591596" lon="11.658443"><ele>151.25</ele><time>2026-04-06T13:07:39.556Z</time></trkpt><trkpt lat="45.8592895" lon="11.6584056"><ele>151.0</ele><time>2026-04-06T13:07:40.58Z</time></trkpt><trkpt lat="45.8593993" lon="11.6583662"><ele>150.8</ele><time>2026-04-06T13:07:41.583Z</time></trkpt><trkpt lat="45.8595112" lon="11.6583604"><ele>150.6</ele><time>2026-04-06T13:07:42.603Z</time></trkpt><trkpt lat="45.8596044" lon="11.6583445"><ele>150.4</ele><time>2026-04-06T13:07:43.607Z</time></trkpt><trkpt lat="45.8597199" lon="11.6583559"><ele>150.2</ele><time>2026-04-06T13:07:44.613Z</time></trkpt><trkpt lat="45.8598409" lon="11.6583486"><ele>150.0</ele><time>2026-04-06T13:07:45.587Z</time></trkpt><trkpt lat="45.8599917" lon="11.658371"><ele>151.25</ele><time>2026-04-06T13:07:46.572Z</time></trkpt><trkpt lat="45.8601361" lon="11.6583922"><ele>152.5</ele><time>2026-04-06T13:07:47.569Z</time></trkpt><trkpt lat="45.8602599" lon="11.6584445"><ele>153.75</ele><time>2026-04-06T13:07:48.588Z</time></trkpt><trkpt lat="45.8603836" lon="11.6585067"><ele>155.0</ele><time>2026-04-06T13:07:49.588Z</time></trkpt><trkpt lat="45.8604793" lon="11.6585566"><ele>155.0</ele><time>2026-04-06T13:07:50.569Z</time></trkpt><trkpt lat="45.8605753" lon="11.6585828"><ele>155.0</ele><time>2026-04-06T13:07:51.563Z</time></trkpt><trkpt lat="45.8606624" lon="11.6585991"><ele>155.0</ele><time>2026-04-06T13:07:52.585Z</time></trkpt><trkpt lat="45.8607517" lon="11.6586207"><ele>155.0</ele><time>2026-04-06T13:07:53.586Z</time></trkpt><trkpt lat="45.8608339" lon="11.6586373"><ele>155.0</ele><time>2026-04-06T13:07:54.581Z</time></trkpt><trkpt lat="45.8608994" lon="11.6586516"><ele>155.0</ele><time>2026-04-06T13:07:55.566Z</time></trkpt><trkpt lat="45.8610084" lon="11.658675"><ele>154.0</ele><time>2026-04-06T13:07:57.568Z</time></trkpt><trkpt lat="45.8610772" lon="11.6586759"><ele>153.0</ele><time>2026-04-06T13:07:58.571Z</time></trkpt><trkpt lat="45.8611455" lon="11.6586799"><ele>152.0</ele><time>2026-04-06T13:07:59.569Z</time></trkpt><trkpt lat="45.8612363" lon="11.6587118"><ele>151.0</ele><time>2026-04-06T13:08:00.564Z</time></trkpt><trkpt lat="45.861336" lon="11.6587495"><ele>150.0</ele><time>2026-04-06T13:08:01.57Z</time></trkpt><trkpt lat="45.8614247" lon="11.6587898"><ele>149.0</ele><time>2026-04-06T13:08:02.567Z</time></trkpt><trkpt lat="45.8615087" lon="11.6588333"><ele>149.0</ele><time>2026-04-06T13:08:03.562Z</time></trkpt><trkpt lat="45.8615831" lon="11.6588642"><ele>149.0</ele><time>2026-04-06T13:08:04.573Z</time></trkpt><trkpt lat="45.8616903" lon="11.6588987"><ele>149.0</ele><time>2026-04-06T13:08:06.571Z</time></trkpt><trkpt lat="45.8617652" lon="11.6589315"><ele>149.0</ele><time>2026-04-06T13:08:08.567Z</time></trkpt><trkpt lat="45.861869" lon="11.6589272"><ele>149.0</ele><time>2026-04-06T13:08:10.566Z</time></trkpt><trkpt lat="45.8619576" lon="11.6589613"><ele>149.5</ele><time>2026-04-06T13:08:11.564Z</time></trkpt><trkpt lat="45.8620526" lon="11.6589989"><ele>150.0</ele><time>2026-04-06T13:08:12.586Z</time></trkpt><trkpt lat="45.8621525" lon="11.6590286"><ele>150.5</ele><time>2026-04-06T13:08:13.587Z</time></trkpt><trkpt lat="45.8622386" lon="11.6590509"><ele>151.0</ele><time>2026-04-06T13:08:14.565Z</time></trkpt><trkpt lat="45.8623173" lon="11.6590701"><ele>151.5</ele><time>2026-04-06T13:08:15.563Z</time></trkpt><trkpt lat="45.8623968" lon="11.6590939"><ele>152.0</ele><time>2026-04-06T13:08:16.564Z</time></trkpt><trkpt lat="45.8624768" lon="11.6591233"><ele>152.0</ele><time>2026-04-06T13:08:17.564Z</time></trkpt><trkpt lat="45.8625515" lon="11.6591507"><ele>152.0</ele><time>2026-04-06T13:08:18.561Z</time></trkpt><trkpt lat="45.8626328" lon="11.6591854"><ele>152.0</ele><time>2026-04-06T13:08:19.564Z</time></trkpt><trkpt lat="45.8627195" lon="11.659228"><ele>152.0</ele><time>2026-04-06T13:08:20.562Z</time></trkpt><trkpt lat="45.8628089" lon="11.659266"><ele>152.0</ele><time>2026-04-06T13:08:21.587Z</time></trkpt><trkpt lat="45.8628998" lon="11.659299"><ele>152.0</ele><time>2026-04-06T13:08:22.569Z</time></trkpt><trkpt lat="45.8629884" lon="11.6593274"><ele>150.79999999999998</ele><time>2026-04-06T13:08:23.562Z</time></trkpt><trkpt lat="45.8630748" lon="11.6593439"><ele>149.6</ele><time>2026-04-06T13:08:24.564Z</time></trkpt><trkpt lat="45.863149" lon="11.6593789"><ele>148.39999999999998</ele><time>2026-04-06T13:08:25.567Z</time></trkpt><trkpt lat="45.863222" lon="11.6594072"><ele>147.2</ele><time>2026-04-06T13:08:26.563Z</time></trkpt><trkpt lat="45.8633376" lon="11.6594554"><ele>146.0</ele><time>2026-04-06T13:08:28.562Z</time></trkpt><trkpt lat="45.8634353" lon="11.6593947"><ele>155.8</ele><time>2026-04-06T13:08:30.564Z</time></trkpt><trkpt lat="45.8634831" lon="11.6593352"><ele>165.6</ele><time>2026-04-06T13:08:31.566Z</time></trkpt><trkpt lat="45.8635397" lon="11.6592791"><ele>175.4</ele><time>2026-04-06T13:08:32.586Z</time></trkpt><trkpt lat="45.8636499" lon="11.6592328"><ele>185.2</ele><time>2026-04-06T13:08:34.564Z</time></trkpt><trkpt lat="45.863753" lon="11.6592833"><ele>195.0</ele><time>2026-04-06T13:08:35.565Z</time></trkpt><trkpt lat="45.8638595" lon="11.6593397"><ele>195.0</ele><time>2026-04-06T13:08:36.56Z</time></trkpt><trkpt lat="45.8640147" lon="11.6594161"><ele>195.0</ele><time>2026-04-06T13:08:37.563Z</time></trkpt><trkpt lat="45.8641714" lon="11.6594649"><ele>195.0</ele><time>2026-04-06T13:08:38.561Z</time></trkpt><trkpt lat="45.8643323" lon="11.6595116"><ele>188.33333333333334</ele><time>2026-04-06T13:08:39.563Z</time></trkpt><trkpt lat="45.8645382" lon="11.6596088"><ele>181.66666666666669</ele><time>2026-04-06T13:08:40.562Z</time></trkpt><trkpt lat="45.8647522" lon="11.6597338"><ele>175.0</ele><time>2026-04-06T13:08:41.716Z</time></trkpt><trkpt lat="45.8649899" lon="11.65995"><ele>175.0</ele><time>2026-04-06T13:08:43.558Z</time></trkpt><trkpt lat="45.8650627" lon="11.6600196"><ele>175.0</ele><time>2026-04-06T13:08:44.561Z</time></trkpt><trkpt lat="45.8651331" lon="11.6600899"><ele>175.0</ele><time>2026-04-06T13:08:45.56Z</time></trkpt><trkpt lat="45.8652233" lon="11.6601269"><ele>175.0</ele><time>2026-04-06T13:08:46.559Z</time></trkpt><trkpt lat="45.8653284" lon="11.6601426"><ele>175.0</ele><time>2026-04-06T13:08:47.566Z</time></trkpt><trkpt lat="45.8654309" lon="11.660115"><ele>178.0</ele><time>2026-04-06T13:08:48.562Z</time></trkpt><trkpt lat="45.865533" lon="11.6600731"><ele>181.0</ele><time>2026-04-06T13:08:49.562Z</time></trkpt><trkpt lat="45.8656295" lon="11.6600344"><ele>184.0</ele><time>2026-04-06T13:08:50.565Z</time></trkpt><trkpt lat="45.8657302" lon="11.6600044"><ele>187.0</ele><time>2026-04-06T13:08:51.563Z</time></trkpt><trkpt lat="45.8658256" lon="11.6599885"><ele>190.0</ele><time>2026-04-06T13:08:52.564Z</time></trkpt><trkpt lat="45.8659112" lon="11.659982"><ele>191.0</ele><time>2026-04-06T13:08:53.564Z</time></trkpt><trkpt lat="45.8659902" lon="11.6599874"><ele>192.0</ele><time>2026-04-06T13:08:54.56Z</time></trkpt><trkpt lat="45.8660641" lon="11.6600098"><ele>193.0</ele><time>2026-04-06T13:08:55.56Z</time></trkpt><trkpt lat="45.8661303" lon="11.660059"><ele>194.0</ele><time>2026-04-06T13:08:56.561Z</time></trkpt><trkpt lat="45.8661921" lon="11.6601112"><ele>195.0</ele><time>2026-04-06T13:08:57.56Z</time></trkpt><trkpt lat="45.8662433" lon="11.660173"><ele>196.0</ele><time>2026-04-06T13:08:58.562Z</time></trkpt><trkpt lat="45.8662858" lon="11.6602553"><ele>197.0</ele><time>2026-04-06T13:08:59.564Z</time></trkpt><trkpt lat="45.86631" lon="11.6603615"><ele>197.0</ele><time>2026-04-06T13:09:00.562Z</time></trkpt><trkpt lat="45.8663094" lon="11.6604844"><ele>197.0</ele><time>2026-04-06T13:09:01.564Z</time></trkpt><trkpt lat="45.8662833" lon="11.6605994"><ele>197.0</ele><time>2026-04-06T13:09:02.559Z</time></trkpt><trkpt lat="45.8662659" lon="11.6607003"><ele>197.0</ele><time>2026-04-06T13:09:03.584Z</time></trkpt><trkpt lat="45.8662821" lon="11.6607902"><ele>197.0</ele><time>2026-04-06T13:09:04.564Z</time></trkpt><trkpt lat="45.8663266" lon="11.6608546"><ele>197.0</ele><time>2026-04-06T13:09:05.562Z</time></trkpt><trkpt lat="45.866389" lon="11.6609108"><ele>197.0</ele><time>2026-04-06T13:09:06.56Z</time></trkpt><trkpt lat="45.8664732" lon="11.6609806"><ele>197.0</ele><time>2026-04-06T13:09:07.584Z</time></trkpt><trkpt lat="45.8665609" lon="11.6610574"><ele>197.0</ele><time>2026-04-06T13:09:08.563Z</time></trkpt><trkpt lat="45.8666313" lon="11.6611219"><ele>197.0</ele><time>2026-04-06T13:09:09.548Z</time></trkpt><trkpt lat="45.8667046" lon="11.6611705"><ele>197.0</ele><time>2026-04-06T13:09:10.556Z</time></trkpt><trkpt lat="45.8668012" lon="11.6612198"><ele>197.0</ele><time>2026-04-06T13:09:11.56Z</time></trkpt><trkpt lat="45.8668934" lon="11.6612788"><ele>203.6</ele><time>2026-04-06T13:09:12.56Z</time></trkpt><trkpt lat="45.8669709" lon="11.6613503"><ele>210.2</ele><time>2026-04-06T13:09:13.561Z</time></trkpt><trkpt lat="45.8670427" lon="11.6613864"><ele>216.8</ele><time>2026-04-06T13:09:14.561Z</time></trkpt><trkpt lat="45.8670519" lon="11.6615907"><ele>223.4</ele><time>2026-04-06T13:09:16.567Z</time></trkpt><trkpt lat="45.8670361" lon="11.6617131"><ele>230.0</ele><time>2026-04-06T13:09:17.571Z</time></trkpt><trkpt lat="45.8670232" lon="11.6618161"><ele>229.99999999999997</ele><time>2026-04-06T13:09:18.563Z</time></trkpt><trkpt lat="45.867024" lon="11.6619162"><ele>230.0</ele><time>2026-04-06T13:09:19.562Z</time></trkpt><trkpt lat="45.8670302" lon="11.6620103"><ele>229.99999999999997</ele><time>2026-04-06T13:09:20.564Z</time></trkpt><trkpt lat="45.8670353" lon="11.6621088"><ele>229.99999999999997</ele><time>2026-04-06T13:09:21.566Z</time></trkpt><trkpt lat="45.867053" lon="11.6622058"><ele>230.0</ele><time>2026-04-06T13:09:22.569Z</time></trkpt><trkpt lat="45.8670845" lon="11.6622972"><ele>229.99999999999997</ele><time>2026-04-06T13:09:23.565Z</time></trkpt><trkpt lat="45.8671204" lon="11.6623842"><ele>229.99999999999997</ele><time>2026-04-06T13:09:24.565Z</time></trkpt><trkpt lat="45.8671962" lon="11.6625144"><ele>229.33333333333334</ele><time>2026-04-06T13:09:26.589Z</time></trkpt><trkpt lat="45.867253" lon="11.6625803"><ele>228.66666666666669</ele><time>2026-04-06T13:09:28.57Z</time></trkpt><trkpt lat="45.8672035" lon="11.6624765"><ele>228.0</ele><time>2026-04-06T13:11:08.566Z</time></trkpt><trkpt lat="45.8671714" lon="11.6623293"><ele>227.33333333333331</ele><time>2026-04-06T13:11:09.569Z</time></trkpt><trkpt lat="45.8671382" lon="11.6622134"><ele>226.66666666666666</ele><time>2026-04-06T13:11:10.586Z</time></trkpt><trkpt lat="45.8671083" lon="11.6621239"><ele>226.0</ele><time>2026-04-06T13:11:11.588Z</time></trkpt><trkpt lat="45.8670819" lon="11.662037"><ele>226.8</ele><time>2026-04-06T13:11:12.568Z</time></trkpt><trkpt lat="45.8670622" lon="11.6619439"><ele>227.60000000000002</ele><time>2026-04-06T13:11:13.566Z</time></trkpt><trkpt lat="45.8670458" lon="11.6617872"><ele>228.4</ele><time>2026-04-06T13:11:15.569Z</time></trkpt><trkpt lat="45.8670411" lon="11.6616098"><ele>229.2</ele><time>2026-04-06T13:11:17.571Z</time></trkpt><trkpt lat="45.8670532" lon="11.6615091"><ele>230.0</ele><time>2026-04-06T13:11:18.574Z</time></trkpt><trkpt lat="45.8670643" lon="11.6613529"><ele>230.00000000000003</ele><time>2026-04-06T13:11:20.561Z</time></trkpt><trkpt lat="45.8670019" lon="11.6612032"><ele>230.0</ele><time>2026-04-06T13:11:22.566Z</time></trkpt><trkpt lat="45.8669445" lon="11.6611463"><ele>230.0</ele><time>2026-04-06T13:11:23.563Z</time></trkpt><trkpt lat="45.866876" lon="11.6611111"><ele>230.0</ele><time>2026-04-06T13:11:24.561Z</time></trkpt><trkpt lat="45.8667965" lon="11.6610923"><ele>230.00000000000003</ele><time>2026-04-06T13:11:25.562Z</time></trkpt><trkpt lat="45.8667152" lon="11.6610854"><ele>230.0</ele><time>2026-04-06T13:11:26.59Z</time></trkpt><trkpt lat="45.8666351" lon="11.6610678"><ele>223.4</ele><time>2026-04-06T13:11:27.562Z</time></trkpt><trkpt lat="45.866551" lon="11.6610343"><ele>216.8</ele><time>2026-04-06T13:11:28.564Z</time></trkpt><trkpt lat="45.8664643" lon="11.6610035"><ele>210.2</ele><time>2026-04-06T13:11:29.566Z</time></trkpt><trkpt lat="45.8663849" lon="11.6609445"><ele>203.6</ele><time>2026-04-06T13:11:30.561Z</time></trkpt><trkpt lat="45.8663134" lon="11.6608894"><ele>197.0</ele><time>2026-04-06T13:11:31.563Z</time></trkpt><trkpt lat="45.8662079" lon="11.6608147"><ele>197.00000000000003</ele><time>2026-04-06T13:11:33.56Z</time></trkpt><trkpt lat="45.8661678" lon="11.6607222"><ele>197.0</ele><time>2026-04-06T13:11:35.565Z</time></trkpt><trkpt lat="45.8661813" lon="11.6605537"><ele>197.0</ele><time>2026-04-06T13:11:37.559Z</time></trkpt><trkpt lat="45.8661926" lon="11.6604622"><ele>197.0</ele><time>2026-04-06T13:11:38.564Z</time></trkpt><trkpt lat="45.8661858" lon="11.6603664"><ele>197.00000000000003</ele><time>2026-04-06T13:11:39.562Z</time></trkpt><trkpt lat="45.8661657" lon="11.6602779"><ele>197.0</ele><time>2026-04-06T13:11:40.563Z</time></trkpt><trkpt lat="45.8661146" lon="11.6602061"><ele>195.6</ele><time>2026-04-06T13:11:41.572Z</time></trkpt><trkpt lat="45.866047" lon="11.6601445"><ele>194.2</ele><time>2026-04-06T13:11:42.562Z</time></trkpt><trkpt lat="45.8659589" lon="11.6600788"><ele>192.8</ele><time>2026-04-06T13:11:43.566Z</time></trkpt><trkpt lat="45.8658682" lon="11.6600318"><ele>191.4</ele><time>2026-04-06T13:11:44.567Z</time></trkpt><trkpt lat="45.8657756" lon="11.6600082"><ele>190.0</ele><time>2026-04-06T13:11:45.558Z</time></trkpt><trkpt lat="45.8656909" lon="11.6600008"><ele>190.0</ele><time>2026-04-06T13:11:46.559Z</time></trkpt><trkpt lat="45.865609" lon="11.6599934"><ele>190.0</ele><time>2026-04-06T13:11:47.558Z</time></trkpt><trkpt lat="45.8654866" lon="11.6600104"><ele>190.0</ele><time>2026-04-06T13:11:49.558Z</time></trkpt><trkpt lat="45.8653906" lon="11.6600375"><ele>190.0</ele><time>2026-04-06T13:11:51.563Z</time></trkpt><trkpt lat="45.865328" lon="11.6600709"><ele>190.0</ele><time>2026-04-06T13:11:53.56Z</time></trkpt><trkpt lat="45.8652564" lon="11.6600838"><ele>190.0</ele><time>2026-04-06T13:11:56.562Z</time></trkpt><trkpt lat="45.8651877" lon="11.6600638"><ele>187.5</ele><time>2026-04-06T13:11:58.567Z</time></trkpt><trkpt lat="45.8650956" lon="11.6600247"><ele>185.0</ele><time>2026-04-06T13:12:00.562Z</time></trkpt><trkpt lat="45.865027" lon="11.6599459"><ele>182.5</ele><time>2026-04-06T13:12:02.563Z</time></trkpt><trkpt lat="45.8649648" lon="11.6599112"><ele>180.0</ele><time>2026-04-06T13:12:04.563Z</time></trkpt><trkpt lat="45.8649028" lon="11.6598882"><ele>177.5</ele><time>2026-04-06T13:12:11.566Z</time></trkpt><trkpt lat="45.864973" lon="11.6598691"><ele>175.0</ele><time>2026-04-06T13:12:15.56Z</time></trkpt><trkpt lat="45.8650751" lon="11.6599153"><ele>177.5</ele><time>2026-04-06T13:12:17.558Z</time></trkpt><trkpt lat="45.8651416" lon="11.6599363"><ele>180.0</ele><time>2026-04-06T13:12:18.564Z</time></trkpt><trkpt lat="45.8652056" lon="11.6599651"><ele>182.5</ele><time>2026-04-06T13:12:19.579Z</time></trkpt><trkpt lat="45.8652663" lon="11.6599983"><ele>185.0</ele><time>2026-04-06T13:12:20.56Z</time></trkpt><trkpt lat="45.8653479" lon="11.660041"><ele>187.5</ele><time>2026-04-06T13:12:22.584Z</time></trkpt><trkpt lat="45.8654417" lon="11.6600411"><ele>190.0</ele><time>2026-04-06T13:12:26.562Z</time></trkpt><trkpt lat="45.8655378" lon="11.6600334"><ele>190.0</ele><time>2026-04-06T13:12:29.569Z</time></trkpt><trkpt lat="45.8656234" lon="11.6600051"><ele>190.0</ele><time>2026-04-06T13:12:31.564Z</time></trkpt><trkpt lat="45.8656989" lon="11.6599884"><ele>190.0</ele><time>2026-04-06T13:12:33.564Z</time></trkpt><trkpt lat="45.8657882" lon="11.6599869"><ele>190.0</ele><time>2026-04-06T13:12:35.559Z</time></trkpt><trkpt lat="45.8658974" lon="11.6599977"><ele>190.0</ele><time>2026-04-06T13:12:37.561Z</time></trkpt><trkpt lat="45.8659624" lon="11.6600136"><ele>190.0</ele><time>2026-04-06T13:12:38.56Z</time></trkpt><trkpt lat="45.866024" lon="11.6600446"><ele>191.16666666666669</ele><time>2026-04-06T13:12:39.564Z</time></trkpt><trkpt lat="45.8660932" lon="11.6600851"><ele>192.33333333333334</ele><time>2026-04-06T13:12:40.562Z</time></trkpt><trkpt lat="45.8661733" lon="11.6601409"><ele>193.5</ele><time>2026-04-06T13:12:41.559Z</time></trkpt><trkpt lat="45.8662437" lon="11.660211"><ele>194.66666666666669</ele><time>2026-04-06T13:12:42.558Z</time></trkpt><trkpt lat="45.8663053" lon="11.660302"><ele>195.83333333333334</ele><time>2026-04-06T13:12:43.564Z</time></trkpt><trkpt lat="45.8663362" lon="11.6604129"><ele>197.0</ele><time>2026-04-06T13:12:44.562Z</time></trkpt><trkpt lat="45.8663297" lon="11.6605442"><ele>197.00000000000003</ele><time>2026-04-06T13:12:45.566Z</time></trkpt><trkpt lat="45.8663096" lon="11.6606692"><ele>197.0</ele><time>2026-04-06T13:12:46.562Z</time></trkpt><trkpt lat="45.866301" lon="11.6607725"><ele>197.0</ele><time>2026-04-06T13:12:47.583Z</time></trkpt><trkpt lat="45.8663264" lon="11.6608553"><ele>197.0</ele><time>2026-04-06T13:12:48.564Z</time></trkpt><trkpt lat="45.8663769" lon="11.6609211"><ele>197.00000000000003</ele><time>2026-04-06T13:12:49.565Z</time></trkpt><trkpt lat="45.8664498" lon="11.6609761"><ele>197.0</ele><time>2026-04-06T13:12:50.561Z</time></trkpt><trkpt lat="45.8665289" lon="11.661033"><ele>197.0</ele><time>2026-04-06T13:12:51.563Z</time></trkpt><trkpt lat="45.8666151" lon="11.6611088"><ele>197.0</ele><time>2026-04-06T13:12:52.565Z</time></trkpt><trkpt lat="45.8667059" lon="11.6611777"><ele>197.0</ele><time>2026-04-06T13:12:53.56Z</time></trkpt><trkpt lat="45.8668031" lon="11.661232"><ele>197.0</ele><time>2026-04-06T13:12:54.558Z</time></trkpt><trkpt lat="45.8669013" lon="11.6612587"><ele>197.0</ele><time>2026-04-06T13:12:55.58Z</time></trkpt><trkpt lat="45.8669925" lon="11.6612871"><ele>202.50000000000003</ele><time>2026-04-06T13:12:56.562Z</time></trkpt><trkpt lat="45.8670638" lon="11.6613233"><ele>208.0</ele><time>2026-04-06T13:12:57.559Z</time></trkpt><trkpt lat="45.8671448" lon="11.6613971"><ele>213.5</ele><time>2026-04-06T13:12:59.586Z</time></trkpt><trkpt lat="45.8671404" lon="11.6615204"><ele>219.0</ele><time>2026-04-06T13:13:01.566Z</time></trkpt><trkpt lat="45.8671384" lon="11.6616476"><ele>224.50000000000003</ele><time>2026-04-06T13:13:02.586Z</time></trkpt><trkpt lat="45.8671356" lon="11.6617831"><ele>230.0</ele><time>2026-04-06T13:13:03.564Z</time></trkpt><trkpt lat="45.8671229" lon="11.6619124"><ele>229.33333333333334</ele><time>2026-04-06T13:13:04.572Z</time></trkpt><trkpt lat="45.8671181" lon="11.6620595"><ele>228.66666666666669</ele><time>2026-04-06T13:13:05.567Z</time></trkpt><trkpt lat="45.867126" lon="11.66219"><ele>228.0</ele><time>2026-04-06T13:13:06.57Z</time></trkpt><trkpt lat="45.8671576" lon="11.6622916"><ele>227.33333333333331</ele><time>2026-04-06T13:13:07.565Z</time></trkpt><trkpt lat="45.8672099" lon="11.6624124"><ele>226.66666666666666</ele><time>2026-04-06T13:13:08.563Z</time></trkpt><trkpt lat="45.8672302" lon="11.6625202"><ele>226.0</ele><time>2026-04-06T13:13:09.565Z</time></trkpt><trkpt lat="45.8672692" lon="11.662638"><ele>226.0</ele><time>2026-04-06T13:13:10.569Z</time></trkpt><trkpt lat="45.8673173" lon="11.6627548"><ele>226.00000000000003</ele><time>2026-04-06T13:13:11.572Z</time></trkpt><trkpt lat="45.8673677" lon="11.6628562"><ele>226.00000000000003</ele><time>2026-04-06T13:13:12.58Z</time></trkpt><trkpt lat="45.8674228" lon="11.6629361"><ele>226.0</ele><time>2026-04-06T13:13:13.568Z</time></trkpt><trkpt lat="45.8674947" lon="11.6630052"><ele>226.0</ele><time>2026-04-06T13:13:14.57Z</time></trkpt><trkpt lat="45.8675937" lon="11.6631503"><ele>228.4</ele><time>2026-04-06T13:13:16.563Z</time></trkpt><trkpt lat="45.8676468" lon="11.6632471"><ele>230.8</ele><time>2026-04-06T13:13:17.561Z</time></trkpt><trkpt lat="45.8676973" lon="11.6633429"><ele>233.20000000000002</ele><time>2026-04-06T13:13:18.558Z</time></trkpt><trkpt lat="45.8677707" lon="11.6634329"><ele>235.60000000000002</ele><time>2026-04-06T13:13:19.561Z</time></trkpt><trkpt lat="45.867863" lon="11.6634957"><ele>238.0</ele><time>2026-04-06T13:13:20.559Z</time></trkpt><trkpt lat="45.8679603" lon="11.6635485"><ele>238.0</ele><time>2026-04-06T13:13:21.563Z</time></trkpt><trkpt lat="45.8680451" lon="11.6635904"><ele>238.0</ele><time>2026-04-06T13:13:22.567Z</time></trkpt><trkpt lat="45.8681205" lon="11.663612"><ele>238.0</ele><time>2026-04-06T13:13:23.565Z</time></trkpt><trkpt lat="45.8681957" lon="11.6636267"><ele>238.0</ele><time>2026-04-06T13:13:35.561Z</time></trkpt><trkpt lat="45.8682791" lon="11.663679"><ele>238.0</ele><time>2026-04-06T13:13:38.562Z</time></trkpt><trkpt lat="45.8684079" lon="11.6636928"><ele>234.33333333333331</ele><time>2026-04-06T13:13:40.56Z</time></trkpt><trkpt lat="45.8684965" lon="11.6637108"><ele>230.66666666666666</ele><time>2026-04-06T13:13:41.557Z</time></trkpt><trkpt lat="45.8685894" lon="11.6637312"><ele>227.0</ele><time>2026-04-06T13:13:42.563Z</time></trkpt><trkpt lat="45.8686861" lon="11.6637887"><ele>223.33333333333331</ele><time>2026-04-06T13:13:43.578Z</time></trkpt><trkpt lat="45.8687518" lon="11.6638272"><ele>219.66666666666666</ele><time>2026-04-06T13:13:44.558Z</time></trkpt><trkpt lat="45.8688185" lon="11.6638566"><ele>216.0</ele><time>2026-04-06T13:13:45.562Z</time></trkpt><trkpt lat="45.8688983" lon="11.6638493"><ele>216.0</ele><time>2026-04-06T13:13:47.636Z</time></trkpt><trkpt lat="45.8688376" lon="11.6637316"><ele>216.0</ele><time>2026-04-06T13:13:50.561Z</time></trkpt><trkpt lat="45.8687555" lon="11.6636853"><ele>216.0</ele><time>2026-04-06T13:13:51.726Z</time></trkpt><trkpt lat="45.8686641" lon="11.6636339"><ele>216.0</ele><time>2026-04-06T13:13:52.725Z</time></trkpt><trkpt lat="45.8684742" lon="11.6635107"><ele>221.5</ele><time>2026-04-06T13:13:54.719Z</time></trkpt><trkpt lat="45.8683646" lon="11.6634597"><ele>227.0</ele><time>2026-04-06T13:13:55.718Z</time></trkpt><trkpt lat="45.8681838" lon="11.6632823"><ele>232.5</ele><time>2026-04-06T13:13:57.567Z</time></trkpt><trkpt lat="45.8681152" lon="11.6631932"><ele>238.0</ele><time>2026-04-06T13:13:58.88Z</time></trkpt><trkpt lat="45.8679512" lon="11.6629869"><ele>238.0</ele><time>2026-04-06T13:14:00.716Z</time></trkpt><trkpt lat="45.8678659" lon="11.6628668"><ele>238.0</ele><time>2026-04-06T13:14:01.88Z</time></trkpt><trkpt lat="45.8677036" lon="11.6626352"><ele>238.0</ele><time>2026-04-06T13:14:03.723Z</time></trkpt><trkpt lat="45.8676466" lon="11.6625157"><ele>238.0</ele><time>2026-04-06T13:14:04.727Z</time></trkpt><trkpt lat="45.8675987" lon="11.6623878"><ele>236.66666666666666</ele><time>2026-04-06T13:14:05.725Z</time></trkpt><trkpt lat="45.8675583" lon="11.6622947"><ele>235.33333333333331</ele><time>2026-04-06T13:14:06.725Z</time></trkpt><trkpt lat="45.8675345" lon="11.662168"><ele>234.0</ele><time>2026-04-06T13:14:07.726Z</time></trkpt><trkpt lat="45.867516" lon="11.6620578"><ele>232.66666666666669</ele><time>2026-04-06T13:14:08.728Z</time></trkpt><trkpt lat="45.8674976" lon="11.6619434"><ele>231.33333333333334</ele><time>2026-04-06T13:14:09.726Z</time></trkpt><trkpt lat="45.867491" lon="11.6618231"><ele>230.0</ele><time>2026-04-06T13:14:10.724Z</time></trkpt><trkpt lat="45.8674807" lon="11.6617219"><ele>230.0</ele><time>2026-04-06T13:14:11.889Z</time></trkpt><trkpt lat="45.8674752" lon="11.6616306"><ele>230.0</ele><time>2026-04-06T13:14:12.888Z</time></trkpt><trkpt lat="45.8674935" lon="11.6614388"><ele>230.0</ele><time>2026-04-06T13:14:14.571Z</time></trkpt><trkpt lat="45.8675241" lon="11.6613382"><ele>230.0</ele><time>2026-04-06T13:14:15.57Z</time></trkpt><trkpt lat="45.8675656" lon="11.6612297"><ele>230.0</ele><time>2026-04-06T13:14:16.569Z</time></trkpt><trkpt lat="45.8676217" lon="11.6611185"><ele>238.6</ele><time>2026-04-06T13:14:17.566Z</time></trkpt><trkpt lat="45.8676861" lon="11.6610147"><ele>247.2</ele><time>2026-04-06T13:14:18.729Z</time></trkpt><trkpt lat="45.8677584" lon="11.6609218"><ele>255.8</ele><time>2026-04-06T13:14:19.718Z</time></trkpt><trkpt lat="45.8678602" lon="11.6608049"><ele>264.4</ele><time>2026-04-06T13:14:21.722Z</time></trkpt><trkpt lat="45.8679095" lon="11.6607436"><ele>273.0</ele><time>2026-04-06T13:14:23.726Z</time></trkpt><trkpt lat="45.8678105" lon="11.6606873"><ele>273.0</ele><time>2026-04-06T13:14:26.565Z</time></trkpt><trkpt lat="45.8677263" lon="11.6607323"><ele>273.0</ele><time>2026-04-06T13:14:28.72Z</time></trkpt><trkpt lat="45.8676629" lon="11.6607617"><ele>273.0</ele><time>2026-04-06T13:14:29.716Z</time></trkpt><trkpt lat="45.8675971" lon="11.6607947"><ele>273.0</ele><time>2026-04-06T13:14:30.714Z</time></trkpt><trkpt lat="45.8675279" lon="11.6608319"><ele>273.0</ele><time>2026-04-06T13:14:31.716Z</time></trkpt><trkpt lat="45.8673869" lon="11.6608847"><ele>273.0</ele><time>2026-04-06T13:14:33.722Z</time></trkpt><trkpt lat="45.8673064" lon="11.6609135"><ele>267.6666666666667</ele><time>2026-04-06T13:14:34.722Z</time></trkpt><trkpt lat="45.8672023" lon="11.6609274"><ele>262.3333333333333</ele><time>2026-04-06T13:14:36.717Z</time></trkpt><trkpt lat="45.8670992" lon="11.6609563"><ele>257.0</ele><time>2026-04-06T13:14:38.868Z</time></trkpt><trkpt lat="45.8670196" lon="11.6609563"><ele>251.66666666666666</ele><time>2026-04-06T13:14:40.716Z</time></trkpt><trkpt lat="45.8669554" lon="11.6609336"><ele>246.33333333333331</ele><time>2026-04-06T13:14:42.561Z</time></trkpt><trkpt lat="45.8668911" lon="11.6609229"><ele>241.0</ele><time>2026-04-06T13:15:07.707Z</time></trkpt><trkpt lat="45.8668244" lon="11.6609135"><ele>234.71428571428572</ele><time>2026-04-06T13:15:24.721Z</time></trkpt><trkpt lat="45.8667485" lon="11.6608998"><ele>228.42857142857144</ele><time>2026-04-06T13:15:51.008Z</time></trkpt><trkpt lat="45.8666793" lon="11.6608953"><ele>222.14285714285717</ele><time>2026-04-06T13:18:28.56Z</time></trkpt><trkpt lat="45.8666159" lon="11.660887"><ele>215.85714285714286</ele><time>2026-04-06T13:19:19.88Z</time></trkpt><trkpt lat="45.8665363" lon="11.6608797"><ele>209.57142857142858</ele><time>2026-04-06T13:19:33.728Z</time></trkpt><trkpt lat="45.866471" lon="11.6608797"><ele>203.28571428571428</ele><time>2026-04-06T13:19:37.88Z</time></trkpt><trkpt lat="45.8664043" lon="11.6608736"><ele>197.0</ele><time>2026-04-06T13:19:40.715Z</time></trkpt><trkpt lat="45.8663475" lon="11.6609257"><ele>197.0</ele><time>2026-04-06T13:19:48.716Z</time></trkpt><trkpt lat="45.8663102" lon="11.6610024"><ele>197.0</ele><time>2026-04-06T13:19:50.879Z</time></trkpt><trkpt lat="45.8663323" lon="11.661106"><ele>197.0</ele><time>2026-04-06T13:19:54.862Z</time></trkpt><trkpt lat="45.8662892" lon="11.6612721"><ele>197.0</ele><time>2026-04-06T13:20:00.564Z</time></trkpt><trkpt lat="45.8663444" lon="11.661388"><ele>197.0</ele><time>2026-04-06T13:20:02.566Z</time></trkpt><trkpt lat="45.8664072" lon="11.6614956"><ele>193.5</ele><time>2026-04-06T13:20:04.564Z</time></trkpt><trkpt lat="45.8665282" lon="11.6616643"><ele>190.0</ele><time>2026-04-06T13:20:06.876Z</time></trkpt><trkpt lat="45.8666382" lon="11.6618203"><ele>186.5</ele><time>2026-04-06T13:20:08.877Z</time></trkpt><trkpt lat="45.8667236" lon="11.6619068"><ele>183.0</ele><time>2026-04-06T13:20:09.876Z</time></trkpt><trkpt lat="45.8668263" lon="11.6620172"><ele>191.60000000000002</ele><time>2026-04-06T13:20:10.871Z</time></trkpt><trkpt lat="45.8668493" lon="11.6621159"><ele>200.20000000000002</ele><time>2026-04-06T13:20:11.829Z</time></trkpt><trkpt lat="45.8669037" lon="11.6622222"><ele>208.8</ele><time>2026-04-06T13:20:12.863Z</time></trkpt><trkpt lat="45.866962" lon="11.6623368"><ele>217.4</ele><time>2026-04-06T13:20:13.873Z</time></trkpt><trkpt lat="45.8670188" lon="11.6624516"><ele>226.0</ele><time>2026-04-06T13:20:14.871Z</time></trkpt><trkpt lat="45.8670763" lon="11.6625524"><ele>226.0</ele><time>2026-04-06T13:20:15.868Z</time></trkpt><trkpt lat="45.8671874" lon="11.662738"><ele>226.0</ele><time>2026-04-06T13:20:17.564Z</time></trkpt><trkpt lat="45.8672855" lon="11.6628447"><ele>226.0</ele><time>2026-04-06T13:20:18.565Z</time></trkpt><trkpt lat="45.867401" lon="11.6629476"><ele>226.0</ele><time>2026-04-06T13:20:19.725Z</time></trkpt><trkpt lat="45.8675637" lon="11.6631276"><ele>229.0</ele><time>2026-04-06T13:20:21.723Z</time></trkpt><trkpt lat="45.8676492" lon="11.6632132"><ele>232.0</ele><time>2026-04-06T13:20:22.724Z</time></trkpt><trkpt lat="45.867747" lon="11.6633008"><ele>235.0</ele><time>2026-04-06T13:20:23.719Z</time></trkpt><trkpt lat="45.8678543" lon="11.6633777"><ele>238.0</ele><time>2026-04-06T13:20:24.72Z</time></trkpt><trkpt lat="45.8679608" lon="11.66344"><ele>238.0</ele><time>2026-04-06T13:20:25.714Z</time></trkpt><trkpt lat="45.8680609" lon="11.6634925"><ele>238.0</ele><time>2026-04-06T13:20:26.721Z</time></trkpt><trkpt lat="45.8681546" lon="11.6635354"><ele>238.0</ele><time>2026-04-06T13:20:27.87Z</time></trkpt><trkpt lat="45.8683308" lon="11.6636233"><ele>238.0</ele><time>2026-04-06T13:20:29.713Z</time></trkpt><trkpt lat="45.8684002" lon="11.6636676"><ele>233.60000000000002</ele><time>2026-04-06T13:20:30.71Z</time></trkpt><trkpt lat="45.8684644" lon="11.6637081"><ele>229.20000000000002</ele><time>2026-04-06T13:20:31.714Z</time></trkpt><trkpt lat="45.868574" lon="11.6637769"><ele>224.8</ele><time>2026-04-06T13:20:33.557Z</time></trkpt><trkpt lat="45.8686346" lon="11.6638539"><ele>220.4</ele><time>2026-04-06T13:20:35.872Z</time></trkpt><trkpt lat="45.8685345" lon="11.6638022"><ele>216.0</ele><time>2026-04-06T13:20:40.027Z</time></trkpt><trkpt lat="45.8683666" lon="11.6637587"><ele>221.5</ele><time>2026-04-06T13:20:41.881Z</time></trkpt><trkpt lat="45.8681965" lon="11.6637417"><ele>227.0</ele><time>2026-04-06T13:20:43.563Z</time></trkpt><trkpt lat="45.8681164" lon="11.663728"><ele>232.5</ele><time>2026-04-06T13:20:44.71Z</time></trkpt><trkpt lat="45.867955" lon="11.6636813"><ele>238.0</ele><time>2026-04-06T13:20:46.877Z</time></trkpt><trkpt lat="45.8678262" lon="11.6636078"><ele>238.0</ele><time>2026-04-06T13:20:48.88Z</time></trkpt><trkpt lat="45.8676771" lon="11.6634739"><ele>238.0</ele><time>2026-04-06T13:20:50.878Z</time></trkpt><trkpt lat="45.8676037" lon="11.6634054"><ele>238.0</ele><time>2026-04-06T13:20:51.877Z</time></trkpt><trkpt lat="45.8674561" lon="11.6632801"><ele>238.0</ele><time>2026-04-06T13:20:53.873Z</time></trkpt><trkpt lat="45.8673461" lon="11.6631101"><ele>235.60000000000002</ele><time>2026-04-06T13:20:55.879Z</time></trkpt><trkpt lat="45.8672506" lon="11.662963"><ele>233.20000000000002</ele><time>2026-04-06T13:20:57.871Z</time></trkpt><trkpt lat="45.8671899" lon="11.6629184"><ele>230.8</ele><time>2026-04-06T13:20:58.867Z</time></trkpt><trkpt lat="45.8670847" lon="11.6628134"><ele>228.4</ele><time>2026-04-06T13:21:00.562Z</time></trkpt><trkpt lat="45.8670495" lon="11.6627278"><ele>226.0</ele><time>2026-04-06T13:21:01.718Z</time></trkpt><trkpt lat="45.8670286" lon="11.662609"><ele>225.99999999999997</ele><time>2026-04-06T13:21:02.724Z</time></trkpt><trkpt lat="45.8670149" lon="11.6624923"><ele>226.0</ele><time>2026-04-06T13:21:03.72Z</time></trkpt><trkpt lat="45.8670016" lon="11.6623945"><ele>226.0</ele><time>2026-04-06T13:21:04.725Z</time></trkpt><trkpt lat="45.8669892" lon="11.6622964"><ele>226.0</ele><time>2026-04-06T13:21:05.721Z</time></trkpt><trkpt lat="45.8669744" lon="11.6621881"><ele>225.99999999999997</ele><time>2026-04-06T13:21:06.72Z</time></trkpt><trkpt lat="45.8669619" lon="11.6620834"><ele>226.0</ele><time>2026-04-06T13:21:07.882Z</time></trkpt><trkpt lat="45.8669549" lon="11.6619712"><ele>227.33333333333331</ele><time>2026-04-06T13:21:08.878Z</time></trkpt><trkpt lat="45.8669653" lon="11.6616998"><ele>228.66666666666669</ele><time>2026-04-06T13:21:10.724Z</time></trkpt><trkpt lat="45.8670056" lon="11.6614792"><ele>230.0</ele><time>2026-04-06T13:21:12.714Z</time></trkpt><trkpt lat="45.8669645" lon="11.66123"><ele>230.0</ele><time>2026-04-06T13:21:15.559Z</time></trkpt><trkpt lat="45.8669098" lon="11.6611723"><ele>230.0</ele><time>2026-04-06T13:21:16.867Z</time></trkpt><trkpt lat="45.8668405" lon="11.6611264"><ele>230.0</ele><time>2026-04-06T13:21:18.025Z</time></trkpt><trkpt lat="45.866763" lon="11.6611097"><ele>230.0</ele><time>2026-04-06T13:21:19.027Z</time></trkpt><trkpt lat="45.8665958" lon="11.6610468"><ele>230.0</ele><time>2026-04-06T13:21:20.716Z</time></trkpt><trkpt lat="45.8665135" lon="11.6610085"><ele>223.4</ele><time>2026-04-06T13:21:21.72Z</time></trkpt><trkpt lat="45.8663424" lon="11.6609042"><ele>216.8</ele><time>2026-04-06T13:21:23.721Z</time></trkpt><trkpt lat="45.8662815" lon="11.660834"><ele>210.2</ele><time>2026-04-06T13:21:24.723Z</time></trkpt><trkpt lat="45.8662371" lon="11.6607654"><ele>203.6</ele><time>2026-04-06T13:21:26.034Z</time></trkpt><trkpt lat="45.8662092" lon="11.6606198"><ele>197.0</ele><time>2026-04-06T13:21:27.721Z</time></trkpt><trkpt lat="45.8662546" lon="11.6604096"><ele>197.0</ele><time>2026-04-06T13:21:29.564Z</time></trkpt><trkpt lat="45.8662763" lon="11.6602873"><ele>197.0</ele><time>2026-04-06T13:21:30.561Z</time></trkpt><trkpt lat="45.866286" lon="11.6601915"><ele>197.0</ele><time>2026-04-06T13:21:31.711Z</time></trkpt><trkpt lat="45.8662174" lon="11.6600437"><ele>197.0</ele><time>2026-04-06T13:21:33.867Z</time></trkpt><trkpt lat="45.8661278" lon="11.6599836"><ele>197.0</ele><time>2026-04-06T13:21:35.03Z</time></trkpt><trkpt lat="45.8660256" lon="11.659945"><ele>195.25</ele><time>2026-04-06T13:21:36.032Z</time></trkpt><trkpt lat="45.8659194" lon="11.6599156"><ele>193.5</ele><time>2026-04-06T13:21:37.025Z</time></trkpt><trkpt lat="45.8658128" lon="11.6599057"><ele>191.75</ele><time>2026-04-06T13:21:38.034Z</time></trkpt><trkpt lat="45.8656121" lon="11.6599091"><ele>190.0</ele><time>2026-04-06T13:21:39.692Z</time></trkpt><trkpt lat="45.8655218" lon="11.6599315"><ele>190.0</ele><time>2026-04-06T13:21:40.861Z</time></trkpt><trkpt lat="45.8653509" lon="11.6599728"><ele>190.0</ele><time>2026-04-06T13:21:42.717Z</time></trkpt><trkpt lat="45.8652643" lon="11.6599397"><ele>190.0</ele><time>2026-04-06T13:21:43.866Z</time></trkpt><trkpt lat="45.8651714" lon="11.6598913"><ele>190.0</ele><time>2026-04-06T13:21:45.026Z</time></trkpt><trkpt lat="45.8649783" lon="11.6598134"><ele>186.25</ele><time>2026-04-06T13:21:46.874Z</time></trkpt><trkpt lat="45.8648863" lon="11.6597865"><ele>182.5</ele><time>2026-04-06T13:21:47.868Z</time></trkpt><trkpt lat="45.8647068" lon="11.6597312"><ele>178.75</ele><time>2026-04-06T13:21:49.873Z</time></trkpt><trkpt lat="45.8646189" lon="11.6597128"><ele>175.0</ele><time>2026-04-06T13:21:51.032Z</time></trkpt><trkpt lat="45.864449" lon="11.6597043"><ele>175.0</ele><time>2026-04-06T13:21:52.558Z</time></trkpt><trkpt lat="45.8643613" lon="11.6597107"><ele>175.0</ele><time>2026-04-06T13:21:53.561Z</time></trkpt><trkpt lat="45.8642685" lon="11.6597061"><ele>175.0</ele><time>2026-04-06T13:21:54.559Z</time></trkpt><trkpt lat="45.8641815" lon="11.6596837"><ele>175.0</ele><time>2026-04-06T13:21:55.717Z</time></trkpt><trkpt lat="45.8639994" lon="11.6595915"><ele>170.0</ele><time>2026-04-06T13:21:57.564Z</time></trkpt><trkpt lat="45.8639141" lon="11.659545"><ele>165.0</ele><time>2026-04-06T13:21:58.72Z</time></trkpt><trkpt lat="45.8638198" lon="11.6594874"><ele>160.0</ele><time>2026-04-06T13:21:59.723Z</time></trkpt><trkpt lat="45.8636571" lon="11.6593748"><ele>155.0</ele><time>2026-04-06T13:22:01.556Z</time></trkpt><trkpt lat="45.8635755" lon="11.6593264"><ele>155.8</ele><time>2026-04-06T13:22:02.56Z</time></trkpt><trkpt lat="45.863509" lon="11.6592936"><ele>156.6</ele><time>2026-04-06T13:22:03.869Z</time></trkpt><trkpt lat="45.8634405" lon="11.6592705"><ele>157.4</ele><time>2026-04-06T13:22:04.87Z</time></trkpt><trkpt lat="45.8633689" lon="11.6592668"><ele>158.2</ele><time>2026-04-06T13:22:05.951Z</time></trkpt><trkpt lat="45.8631945" lon="11.6592258"><ele>159.0</ele><time>2026-04-06T13:22:07.559Z</time></trkpt><trkpt lat="45.8630778" lon="11.659172"><ele>159.0</ele><time>2026-04-06T13:22:08.718Z</time></trkpt><trkpt lat="45.8629601" lon="11.6591274"><ele>159.0</ele><time>2026-04-06T13:22:09.715Z</time></trkpt><trkpt lat="45.8628428" lon="11.6590874"><ele>159.0</ele><time>2026-04-06T13:22:10.718Z</time></trkpt><trkpt lat="45.8627202" lon="11.6590557"><ele>159.0</ele><time>2026-04-06T13:22:11.716Z</time></trkpt><trkpt lat="45.8626014" lon="11.6590377"><ele>157.25</ele><time>2026-04-06T13:22:12.716Z</time></trkpt><trkpt lat="45.8624961" lon="11.6590333"><ele>155.5</ele><time>2026-04-06T13:22:13.716Z</time></trkpt><trkpt lat="45.862404" lon="11.6590345"><ele>153.75</ele><time>2026-04-06T13:22:14.881Z</time></trkpt><trkpt lat="45.8622231" lon="11.6590309"><ele>152.0</ele><time>2026-04-06T13:22:16.711Z</time></trkpt><trkpt lat="45.8620402" lon="11.6589925"><ele>152.0</ele><time>2026-04-06T13:22:18.866Z</time></trkpt><trkpt lat="45.8619288" lon="11.6589726"><ele>152.0</ele><time>2026-04-06T13:22:20.034Z</time></trkpt><trkpt lat="45.8617029" lon="11.6588908"><ele>152.0</ele><time>2026-04-06T13:22:21.724Z</time></trkpt><trkpt lat="45.861589" lon="11.6588279"><ele>151.0</ele><time>2026-04-06T13:22:22.723Z</time></trkpt><trkpt lat="45.861473" lon="11.6587718"><ele>150.0</ele><time>2026-04-06T13:22:23.723Z</time></trkpt><trkpt lat="45.861234" lon="11.658682"><ele>149.0</ele><time>2026-04-06T13:22:26.032Z</time></trkpt><trkpt lat="45.8611093" lon="11.6586479"><ele>151.0</ele><time>2026-04-06T13:22:27.037Z</time></trkpt><trkpt lat="45.8608567" lon="11.6585784"><ele>153.0</ele><time>2026-04-06T13:22:28.721Z</time></trkpt><trkpt lat="45.8607342" lon="11.6585495"><ele>155.0</ele><time>2026-04-06T13:22:29.884Z</time></trkpt><trkpt lat="45.860616" lon="11.6585311"><ele>155.0</ele><time>2026-04-06T13:22:30.885Z</time></trkpt><trkpt lat="45.8603648" lon="11.6584881"><ele>155.0</ele><time>2026-04-06T13:22:32.869Z</time></trkpt><trkpt lat="45.8602481" lon="11.6584675"><ele>155.0</ele><time>2026-04-06T13:22:34.029Z</time></trkpt><trkpt lat="45.8600558" lon="11.6584006"><ele>154.0</ele><time>2026-04-06T13:22:35.838Z</time></trkpt><trkpt lat="45.8599593" lon="11.6583675"><ele>153.0</ele><time>2026-04-06T13:22:36.843Z</time></trkpt><trkpt lat="45.8598691" lon="11.6583593"><ele>152.0</ele><time>2026-04-06T13:22:38.021Z</time></trkpt><trkpt lat="45.8597858" lon="11.6583759"><ele>151.0</ele><time>2026-04-06T13:22:39.029Z</time></trkpt><trkpt lat="45.8596388" lon="11.6584151"><ele>150.0</ele><time>2026-04-06T13:22:40.719Z</time></trkpt><trkpt lat="45.8594993" lon="11.6584658"><ele>150.0</ele><time>2026-04-06T13:22:42.722Z</time></trkpt><trkpt lat="45.8594275" lon="11.6584739"><ele>150.0</ele><time>2026-04-06T13:22:43.877Z</time></trkpt><trkpt lat="45.8592569" lon="11.6585259"><ele>150.0</ele><time>2026-04-06T13:22:45.721Z</time></trkpt><trkpt lat="45.8591661" lon="11.6585666"><ele>150.0</ele><time>2026-04-06T13:22:46.713Z</time></trkpt><trkpt lat="45.8590695" lon="11.6586085"><ele>150.0</ele><time>2026-04-06T13:22:47.714Z</time></trkpt><trkpt lat="45.8589658" lon="11.6586348"><ele>150.25</ele><time>2026-04-06T13:22:48.876Z</time></trkpt><trkpt lat="45.8587502" lon="11.6586812"><ele>150.5</ele><time>2026-04-06T13:22:50.869Z</time></trkpt><trkpt lat="45.8586396" lon="11.6586953"><ele>150.75</ele><time>2026-04-06T13:22:51.874Z</time></trkpt><trkpt lat="45.8585346" lon="11.6587015"><ele>151.0</ele><time>2026-04-06T13:22:52.874Z</time></trkpt><trkpt lat="45.8584397" lon="11.6587046"><ele>151.25</ele><time>2026-04-06T13:22:53.863Z</time></trkpt><trkpt lat="45.8583001" lon="11.6587328"><ele>151.5</ele><time>2026-04-06T13:22:55.703Z</time></trkpt><trkpt lat="45.8582358" lon="11.6587712"><ele>151.75</ele><time>2026-04-06T13:22:56.718Z</time></trkpt><trkpt lat="45.8580787" lon="11.6588682"><ele>152.0</ele><time>2026-04-06T13:22:58.558Z</time></trkpt><trkpt lat="45.8579779" lon="11.6589187"><ele>152.0</ele><time>2026-04-06T13:23:00.036Z</time></trkpt><trkpt lat="45.8577898" lon="11.6589995"><ele>152.0</ele><time>2026-04-06T13:23:01.708Z</time></trkpt><trkpt lat="45.8577035" lon="11.659044"><ele>152.0</ele><time>2026-04-06T13:23:02.871Z</time></trkpt><trkpt lat="45.85755" lon="11.6591283"><ele>152.0</ele><time>2026-04-06T13:23:04.557Z</time></trkpt><trkpt lat="45.8574731" lon="11.6591919"><ele>152.0</ele><time>2026-04-06T13:23:05.557Z</time></trkpt><trkpt lat="45.8573849" lon="11.659245"><ele>152.0</ele><time>2026-04-06T13:23:06.714Z</time></trkpt><trkpt lat="45.8573013" lon="11.6593084"><ele>152.0</ele><time>2026-04-06T13:23:07.711Z</time></trkpt><trkpt lat="45.8572156" lon="11.6594001"><ele>152.0</ele><time>2026-04-06T13:23:08.712Z</time></trkpt><trkpt lat="45.8571356" lon="11.6595045"><ele>152.33333333333331</ele><time>2026-04-06T13:23:09.711Z</time></trkpt><trkpt lat="45.8569929" lon="11.6597661"><ele>152.66666666666666</ele><time>2026-04-06T13:23:11.555Z</time></trkpt><trkpt lat="45.8569333" lon="11.6599231"><ele>153.0</ele><time>2026-04-06T13:23:12.715Z</time></trkpt><trkpt lat="45.8568107" lon="11.6603196"><ele>151.5</ele><time>2026-04-06T13:23:14.716Z</time></trkpt><trkpt lat="45.8567412" lon="11.6604837"><ele>150.0</ele><time>2026-04-06T13:23:15.717Z</time></trkpt><trkpt lat="45.8566736" lon="11.6606214"><ele>148.5</ele><time>2026-04-06T13:23:16.867Z</time></trkpt><trkpt lat="45.8565732" lon="11.6608657"><ele>147.0</ele><time>2026-04-06T13:23:18.555Z</time></trkpt><trkpt lat="45.8565248" lon="11.6609965"><ele>147.5</ele><time>2026-04-06T13:23:19.558Z</time></trkpt><trkpt lat="45.856468" lon="11.661155"><ele>148.0</ele><time>2026-04-06T13:23:20.556Z</time></trkpt><trkpt lat="45.8564084" lon="11.661304"><ele>148.5</ele><time>2026-04-06T13:23:21.717Z</time></trkpt><trkpt lat="45.8563526" lon="11.6614626"><ele>149.0</ele><time>2026-04-06T13:23:22.719Z</time></trkpt><trkpt lat="45.8562374" lon="11.6617181"><ele>149.0</ele><time>2026-04-06T13:23:24.871Z</time></trkpt><trkpt lat="45.8562067" lon="11.6618184"><ele>149.0</ele><time>2026-04-06T13:23:26.031Z</time></trkpt><trkpt lat="45.8561204" lon="11.661979"><ele>149.0</ele><time>2026-04-06T13:23:27.718Z</time></trkpt><trkpt lat="45.8560685" lon="11.662039"><ele>149.0</ele><time>2026-04-06T13:23:28.88Z</time></trkpt><trkpt lat="45.8559" lon="11.6621474"><ele>148.4</ele><time>2026-04-06T13:23:30.556Z</time></trkpt><trkpt lat="45.8557984" lon="11.6622281"><ele>147.8</ele><time>2026-04-06T13:23:31.559Z</time></trkpt><trkpt lat="45.8556972" lon="11.6622964"><ele>147.2</ele><time>2026-04-06T13:23:32.557Z</time></trkpt><trkpt lat="45.8555936" lon="11.662348"><ele>146.6</ele><time>2026-04-06T13:23:33.714Z</time></trkpt><trkpt lat="45.8554964" lon="11.6623698"><ele>146.0</ele><time>2026-04-06T13:23:34.876Z</time></trkpt><trkpt lat="45.8552944" lon="11.6623503"><ele>146.0</ele><time>2026-04-06T13:23:36.558Z</time></trkpt><trkpt lat="45.8551771" lon="11.6623452"><ele>146.0</ele><time>2026-04-06T13:23:37.557Z</time></trkpt><trkpt lat="45.8550444" lon="11.662347"><ele>146.0</ele><time>2026-04-06T13:23:38.555Z</time></trkpt><trkpt lat="45.8549221" lon="11.6623633"><ele>146.0</ele><time>2026-04-06T13:23:39.717Z</time></trkpt><trkpt lat="45.854746" lon="11.6623693"><ele>146.6</ele><time>2026-04-06T13:23:41.556Z</time></trkpt><trkpt lat="45.8546708" lon="11.6623405"><ele>147.2</ele><time>2026-04-06T13:23:42.559Z</time></trkpt><trkpt lat="45.8546121" lon="11.6622775"><ele>147.8</ele><time>2026-04-06T13:23:43.707Z</time></trkpt><trkpt lat="45.8545552" lon="11.6620819"><ele>148.4</ele><time>2026-04-06T13:23:45.714Z</time></trkpt><trkpt lat="45.8545604" lon="11.6619723"><ele>149.0</ele><time>2026-04-06T13:23:46.708Z</time></trkpt><trkpt lat="45.8545928" lon="11.6618416"><ele>155.0</ele><time>2026-04-06T13:23:48.025Z</time></trkpt><trkpt lat="45.8547695" lon="11.6615719"><ele>161.0</ele><time>2026-04-06T13:23:49.716Z</time></trkpt><trkpt lat="45.8550305" lon="11.6613286"><ele>156.5</ele><time>2026-04-06T13:23:51.87Z</time></trkpt><trkpt lat="45.8553431" lon="11.6611689"><ele>152.0</ele><time>2026-04-06T13:23:53.554Z</time></trkpt><trkpt lat="45.8554925" lon="11.6611224"><ele>150.75</ele><time>2026-04-06T13:23:54.714Z</time></trkpt><trkpt lat="45.8556293" lon="11.6610975"><ele>149.5</ele><time>2026-04-06T13:23:55.715Z</time></trkpt><trkpt lat="45.855747" lon="11.6610767"><ele>148.25</ele><time>2026-04-06T13:23:56.875Z</time></trkpt><trkpt lat="45.855836" lon="11.661013"><ele>147.0</ele><time>2026-04-06T13:23:57.875Z</time></trkpt><trkpt lat="45.8559551" lon="11.6608357"><ele>147.0</ele><time>2026-04-06T13:23:59.703Z</time></trkpt><trkpt lat="45.8560236" lon="11.6606968"><ele>147.0</ele><time>2026-04-06T13:24:00.874Z</time></trkpt><trkpt lat="45.8561043" lon="11.6605446"><ele>147.0</ele><time>2026-04-06T13:24:01.87Z</time></trkpt><trkpt lat="45.8561975" lon="11.6603859"><ele>147.0</ele><time>2026-04-06T13:24:02.876Z</time></trkpt><trkpt lat="45.8563661" lon="11.6600691"><ele>149.66666666666666</ele><time>2026-04-06T13:24:04.714Z</time></trkpt><trkpt lat="45.8564439" lon="11.6599028"><ele>152.33333333333331</ele><time>2026-04-06T13:24:05.71Z</time></trkpt><trkpt lat="45.8565331" lon="11.6595077"><ele>155.0</ele><time>2026-04-06T13:24:07.552Z</time></trkpt><trkpt lat="45.8565517" lon="11.6592618"><ele>154.0</ele><time>2026-04-06T13:24:08.553Z</time></trkpt><trkpt lat="45.8566026" lon="11.6591092"><ele>153.0</ele><time>2026-04-06T13:24:09.717Z</time></trkpt><trkpt lat="45.856692" lon="11.6588432"><ele>152.0</ele><time>2026-04-06T13:24:11.871Z</time></trkpt><trkpt lat="45.8567919" lon="11.6587173"><ele>159.66666666666666</ele><time>2026-04-06T13:24:12.872Z</time></trkpt><trkpt lat="45.8569012" lon="11.6585917"><ele>167.33333333333334</ele><time>2026-04-06T13:24:13.871Z</time></trkpt><trkpt lat="45.8570898" lon="11.6584002"><ele>175.0</ele><time>2026-04-06T13:24:15.714Z</time></trkpt><trkpt lat="45.8573366" lon="11.6582884"><ele>175.0</ele><time>2026-04-06T13:24:17.555Z</time></trkpt><trkpt lat="45.857471" lon="11.6582306"><ele>175.0</ele><time>2026-04-06T13:24:18.874Z</time></trkpt><trkpt lat="45.8577178" lon="11.6581168"><ele>175.0</ele><time>2026-04-06T13:24:20.713Z</time></trkpt><trkpt lat="45.8578199" lon="11.6580504"><ele>170.66666666666669</ele><time>2026-04-06T13:24:21.714Z</time></trkpt><trkpt lat="45.8580423" lon="11.6579401"><ele>166.33333333333334</ele><time>2026-04-06T13:24:23.564Z</time></trkpt><trkpt lat="45.8581564" lon="11.657898"><ele>162.0</ele><time>2026-04-06T13:24:25.017Z</time></trkpt><trkpt lat="45.8583549" lon="11.6578271"><ele>162.0</ele><time>2026-04-06T13:24:26.541Z</time></trkpt><trkpt lat="45.8584352" lon="11.6578058"><ele>162.0</ele><time>2026-04-06T13:24:27.539Z</time></trkpt><trkpt lat="45.8586652" lon="11.6577429"><ele>162.0</ele><time>2026-04-06T13:24:38.693Z</time></trkpt><trkpt lat="45.8588518" lon="11.657698"><ele>166.66666666666666</ele><time>2026-04-06T13:24:41.694Z</time></trkpt><trkpt lat="45.8590307" lon="11.6576174"><ele>171.33333333333331</ele><time>2026-04-06T13:24:43.713Z</time></trkpt><trkpt lat="45.8592019" lon="11.6574308"><ele>176.0</ele><time>2026-04-06T13:24:45.711Z</time></trkpt><trkpt lat="45.8592775" lon="11.6572949"><ele>174.75</ele><time>2026-04-06T13:24:46.712Z</time></trkpt><trkpt lat="45.8593499" lon="11.6571268"><ele>173.5</ele><time>2026-04-06T13:24:47.712Z</time></trkpt><trkpt lat="45.8594332" lon="11.6569439"><ele>172.25</ele><time>2026-04-06T13:24:48.71Z</time></trkpt><trkpt lat="45.8594937" lon="11.6567752"><ele>171.0</ele><time>2026-04-06T13:24:49.714Z</time></trkpt><trkpt lat="45.8595851" lon="11.6565732"><ele>171.0</ele><time>2026-04-06T13:24:51.553Z</time></trkpt><trkpt lat="45.8596869" lon="11.656508"><ele>171.0</ele><time>2026-04-06T13:24:52.715Z</time></trkpt><trkpt lat="45.8599676" lon="11.6563977"><ele>171.0</ele><time>2026-04-06T13:24:54.711Z</time></trkpt><trkpt lat="45.8600887" lon="11.656343"><ele>171.33333333333334</ele><time>2026-04-06T13:24:55.712Z</time></trkpt><trkpt lat="45.8602491" lon="11.6561841"><ele>171.66666666666669</ele><time>2026-04-06T13:24:57.714Z</time></trkpt><trkpt lat="45.8603491" lon="11.6560955"><ele>172.0</ele><time>2026-04-06T13:24:58.716Z</time></trkpt><trkpt lat="45.8604753" lon="11.6560023"><ele>178.0</ele><time>2026-04-06T13:24:59.715Z</time></trkpt><trkpt lat="45.8607279" lon="11.6558146"><ele>184.0</ele><time>2026-04-06T13:25:01.715Z</time></trkpt><trkpt lat="45.8608952" lon="11.6557564"><ele>187.0</ele><time>2026-04-06T13:25:02.72Z</time></trkpt><trkpt lat="45.8610055" lon="11.6556437"><ele>190.0</ele><time>2026-04-06T13:25:03.716Z</time></trkpt><trkpt lat="45.8611288" lon="11.6553203"><ele>193.0</ele><time>2026-04-06T13:25:05.555Z</time></trkpt><trkpt lat="45.8611261" lon="11.6551227"><ele>193.0</ele><time>2026-04-06T13:25:06.555Z</time></trkpt><trkpt lat="45.8611218" lon="11.6549324"><ele>193.0</ele><time>2026-04-06T13:25:07.715Z</time></trkpt><trkpt lat="45.8611891" lon="11.6546722"><ele>193.0</ele><time>2026-04-06T13:25:09.707Z</time></trkpt><trkpt lat="45.8613069" lon="11.6544572"><ele>193.25</ele><time>2026-04-06T13:25:11.717Z</time></trkpt><trkpt lat="45.8614158" lon="11.6542275"><ele>193.5</ele><time>2026-04-06T13:25:13.708Z</time></trkpt><trkpt lat="45.8614581" lon="11.6540915"><ele>193.75</ele><time>2026-04-06T13:25:14.633Z</time></trkpt><trkpt lat="45.8614915" lon="11.6539211"><ele>194.0</ele><time>2026-04-06T13:25:15.715Z</time></trkpt><trkpt lat="45.8615227" lon="11.6537183"><ele>194.0</ele><time>2026-04-06T13:25:16.715Z</time></trkpt><trkpt lat="45.8615629" lon="11.6534644"><ele>194.0</ele><time>2026-04-06T13:25:17.708Z</time></trkpt><trkpt lat="45.8615965" lon="11.6531903"><ele>194.0</ele><time>2026-04-06T13:25:18.709Z</time></trkpt><trkpt lat="45.8616472" lon="11.6529745"><ele>198.0</ele><time>2026-04-06T13:25:19.709Z</time></trkpt><trkpt lat="45.8617039" lon="11.6527766"><ele>202.0</ele><time>2026-04-06T13:25:20.866Z</time></trkpt><trkpt lat="45.8618074" lon="11.6524315"><ele>206.0</ele><time>2026-04-06T13:25:22.711Z</time></trkpt><trkpt lat="45.861841" lon="11.6522529"><ele>207.66666666666669</ele><time>2026-04-06T13:25:23.71Z</time></trkpt><trkpt lat="45.861873" lon="11.6521085"><ele>209.33333333333331</ele><time>2026-04-06T13:25:24.71Z</time></trkpt><trkpt lat="45.8619331" lon="11.6519919"><ele>211.0</ele><time>2026-04-06T13:25:25.86Z</time></trkpt><trkpt lat="45.8621884" lon="11.6517548"><ele>213.0</ele><time>2026-04-06T13:25:27.689Z</time></trkpt><trkpt lat="45.8624875" lon="11.6514932"><ele>215.0</ele><time>2026-04-06T13:25:29.543Z</time></trkpt><trkpt lat="45.8626198" lon="11.651358"><ele>215.66666666666669</ele><time>2026-04-06T13:25:30.543Z</time></trkpt><trkpt lat="45.8627471" lon="11.6512241"><ele>216.33333333333331</ele><time>2026-04-06T13:25:31.532Z</time></trkpt><trkpt lat="45.8628777" lon="11.6510953"><ele>217.0</ele><time>2026-04-06T13:25:32.534Z</time></trkpt><trkpt lat="45.8630122" lon="11.650964"><ele>217.0</ele><time>2026-04-06T13:25:33.532Z</time></trkpt><trkpt lat="45.8631474" lon="11.6508442"><ele>217.0</ele><time>2026-04-06T13:25:34.532Z</time></trkpt><trkpt lat="45.8632883" lon="11.6507305"><ele>217.0</ele><time>2026-04-06T13:25:35.532Z</time></trkpt><trkpt lat="45.8634318" lon="11.6506221"><ele>222.75</ele><time>2026-04-06T13:25:36.532Z</time></trkpt><trkpt lat="45.8635793" lon="11.6505291"><ele>228.5</ele><time>2026-04-06T13:25:37.532Z</time></trkpt><trkpt lat="45.8637154" lon="11.6504306"><ele>234.25</ele><time>2026-04-06T13:25:38.533Z</time></trkpt><trkpt lat="45.863791" lon="11.6503705"><ele>240.0</ele><time>2026-04-06T13:25:39.532Z</time></trkpt><trkpt lat="45.8638609" lon="11.6503217"><ele>236.75</ele><time>2026-04-06T13:25:40.531Z</time></trkpt><trkpt lat="45.8639263" lon="11.6502819"><ele>233.5</ele><time>2026-04-06T13:25:41.534Z</time></trkpt><trkpt lat="45.863993" lon="11.6501889"><ele>230.25</ele><time>2026-04-06T13:25:42.692Z</time></trkpt><trkpt lat="45.8641015" lon="11.650064"><ele>227.0</ele><time>2026-04-06T13:25:43.851Z</time></trkpt><trkpt lat="45.8642126" lon="11.6499034"><ele>229.66666666666669</ele><time>2026-04-06T13:25:44.692Z</time></trkpt><trkpt lat="45.8643372" lon="11.6497668"><ele>232.33333333333331</ele><time>2026-04-06T13:25:45.692Z</time></trkpt><trkpt lat="45.86449" lon="11.6496399"><ele>235.0</ele><time>2026-04-06T13:25:46.689Z</time></trkpt><trkpt lat="45.8646527" lon="11.6495784"><ele>235.0</ele><time>2026-04-06T13:25:47.691Z</time></trkpt><trkpt lat="45.8649484" lon="11.6495291"><ele>235.0</ele><time>2026-04-06T13:25:49.691Z</time></trkpt><trkpt lat="45.8652232" lon="11.649534"><ele>231.66666666666666</ele><time>2026-04-06T13:25:51.531Z</time></trkpt><trkpt lat="45.8653479" lon="11.6495176"><ele>228.33333333333331</ele><time>2026-04-06T13:25:52.529Z</time></trkpt><trkpt lat="45.8654559" lon="11.6494705"><ele>225.0</ele><time>2026-04-06T13:25:53.697Z</time></trkpt><trkpt lat="45.8656939" lon="11.6492757"><ele>225.0</ele><time>2026-04-06T13:25:55.533Z</time></trkpt><trkpt lat="45.86577" lon="11.6491067"><ele>225.0</ele><time>2026-04-06T13:25:56.692Z</time></trkpt><trkpt lat="45.8658386" lon="11.6489355"><ele>225.0</ele><time>2026-04-06T13:25:57.691Z</time></trkpt><trkpt lat="45.8659232" lon="11.648799"><ele>225.0</ele><time>2026-04-06T13:25:58.686Z</time></trkpt><trkpt lat="45.8660647" lon="11.6485064"><ele>229.0</ele><time>2026-04-06T13:26:00.547Z</time></trkpt><trkpt lat="45.8661301" lon="11.6483509"><ele>233.0</ele><time>2026-04-06T13:26:01.554Z</time></trkpt><trkpt lat="45.8661868" lon="11.648184"><ele>237.0</ele><time>2026-04-06T13:26:02.554Z</time></trkpt><trkpt lat="45.8662488" lon="11.6480379"><ele>241.0</ele><time>2026-04-06T13:26:03.711Z</time></trkpt><trkpt lat="45.8663651" lon="11.6477964"><ele>239.0</ele><time>2026-04-06T13:26:05.552Z</time></trkpt><trkpt lat="45.8664242" lon="11.6476706"><ele>237.00000000000003</ele><time>2026-04-06T13:26:06.71Z</time></trkpt><trkpt lat="45.8664769" lon="11.6474122"><ele>235.00000000000003</ele><time>2026-04-06T13:26:08.551Z</time></trkpt><trkpt lat="45.8665011" lon="11.6473045"><ele>233.0</ele><time>2026-04-06T13:26:09.551Z</time></trkpt><trkpt lat="45.8665222" lon="11.6472114"><ele>231.0</ele><time>2026-04-06T13:26:10.552Z</time></trkpt><trkpt lat="45.8665848" lon="11.6470748"><ele>231.0</ele><time>2026-04-06T13:26:12.711Z</time></trkpt><trkpt lat="45.8666674" lon="11.646973"><ele>231.0</ele><time>2026-04-06T13:26:14.552Z</time></trkpt><trkpt lat="45.8667821" lon="11.6468489"><ele>231.0</ele><time>2026-04-06T13:26:17.553Z</time></trkpt><trkpt lat="45.8668724" lon="11.6466811"><ele>231.0</ele><time>2026-04-06T13:26:20.539Z</time></trkpt><trkpt lat="45.86691" lon="11.6465327"><ele>234.20000000000002</ele><time>2026-04-06T13:26:22.714Z</time></trkpt><trkpt lat="45.8670103" lon="11.6465693"><ele>237.40000000000003</ele><time>2026-04-06T13:26:25.553Z</time></trkpt><trkpt lat="45.8670326" lon="11.6466645"><ele>240.6</ele><time>2026-04-06T13:26:26.554Z</time></trkpt><trkpt lat="45.8670325" lon="11.646807"><ele>243.8</ele><time>2026-04-06T13:26:27.554Z</time></trkpt><trkpt lat="45.8670216" lon="11.6469823"><ele>247.0</ele><time>2026-04-06T13:26:28.714Z</time></trkpt><trkpt lat="45.8670047" lon="11.6471832"><ele>255.0</ele><time>2026-04-06T13:26:29.71Z</time></trkpt><trkpt lat="45.8669762" lon="11.647388"><ele>263.0</ele><time>2026-04-06T13:26:30.714Z</time></trkpt><trkpt lat="45.8669435" lon="11.6475733"><ele>271.0</ele><time>2026-04-06T13:26:31.713Z</time></trkpt><trkpt lat="45.8668943" lon="11.6477562"><ele>279.0</ele><time>2026-04-06T13:26:32.713Z</time></trkpt><trkpt lat="45.8668307" lon="11.6479322"><ele>266.3333333333333</ele><time>2026-04-06T13:26:33.714Z</time></trkpt><trkpt lat="45.8666753" lon="11.6482814"><ele>253.66666666666666</ele><time>2026-04-06T13:26:35.554Z</time></trkpt><trkpt lat="45.8665838" lon="11.6484219"><ele>241.0</ele><time>2026-04-06T13:26:36.555Z</time></trkpt><trkpt lat="45.8664978" lon="11.6485344"><ele>251.66666666666666</ele><time>2026-04-06T13:26:37.872Z</time></trkpt><trkpt lat="45.8663869" lon="11.6486419"><ele>262.3333333333333</ele><time>2026-04-06T13:26:38.556Z</time></trkpt><trkpt lat="45.8662646" lon="11.6487884"><ele>273.0</ele><time>2026-04-06T13:26:39.715Z</time></trkpt><trkpt lat="45.8661624" lon="11.6489614"><ele>273.0</ele><time>2026-04-06T13:26:40.716Z</time></trkpt><trkpt lat="45.866053" lon="11.6491393"><ele>273.0</ele><time>2026-04-06T13:26:41.714Z</time></trkpt><trkpt lat="45.8657919" lon="11.6494609"><ele>270.4</ele><time>2026-04-06T13:26:43.555Z</time></trkpt><trkpt lat="45.8656926" lon="11.6496049"><ele>267.8</ele><time>2026-04-06T13:26:44.713Z</time></trkpt><trkpt lat="45.8656248" lon="11.649745"><ele>265.2</ele><time>2026-04-06T13:26:45.716Z</time></trkpt><trkpt lat="45.8655742" lon="11.6498483"><ele>262.6</ele><time>2026-04-06T13:26:46.719Z</time></trkpt><trkpt lat="45.8655384" lon="11.6499367"><ele>260.0</ele><time>2026-04-06T13:26:48.555Z</time></trkpt><trkpt lat="45.8656158" lon="11.6499269"><ele>260.0</ele><time>2026-04-06T13:26:50.554Z</time></trkpt><trkpt lat="45.8656796" lon="11.6498666"><ele>260.0</ele><time>2026-04-06T13:26:51.548Z</time></trkpt><trkpt lat="45.865755" lon="11.6497794"><ele>260.0</ele><time>2026-04-06T13:26:52.557Z</time></trkpt><trkpt lat="45.8658218" lon="11.6496547"><ele>260.0</ele><time>2026-04-06T13:26:53.555Z</time></trkpt><trkpt lat="45.8658992" lon="11.6495345"><ele>260.0</ele><time>2026-04-06T13:26:54.551Z</time></trkpt><trkpt lat="45.8659812" lon="11.6494409"><ele>262.6</ele><time>2026-04-06T13:26:55.556Z</time></trkpt><trkpt lat="45.8660775" lon="11.6493782"><ele>265.2</ele><time>2026-04-06T13:26:56.556Z</time></trkpt><trkpt lat="45.8661737" lon="11.6493095"><ele>267.8</ele><time>2026-04-06T13:26:57.554Z</time></trkpt><trkpt lat="45.8662657" lon="11.6492268"><ele>270.4</ele><time>2026-04-06T13:26:58.559Z</time></trkpt><trkpt lat="45.8663346" lon="11.6491131"><ele>273.0</ele><time>2026-04-06T13:26:59.589Z</time></trkpt><trkpt lat="45.8663884" lon="11.648996"><ele>273.0</ele><time>2026-04-06T13:27:00.559Z</time></trkpt><trkpt lat="45.8664475" lon="11.6488969"><ele>273.0</ele><time>2026-04-06T13:27:01.555Z</time></trkpt><trkpt lat="45.8665133" lon="11.6488155"><ele>273.0</ele><time>2026-04-06T13:27:02.563Z</time></trkpt><trkpt lat="45.8665912" lon="11.6487537"><ele>273.0</ele><time>2026-04-06T13:27:03.557Z</time></trkpt><trkpt lat="45.8666705" lon="11.6486886"><ele>273.0</ele><time>2026-04-06T13:27:04.559Z</time></trkpt><trkpt lat="45.8667502" lon="11.6486231"><ele>280.8</ele><time>2026-04-06T13:27:05.557Z</time></trkpt><trkpt lat="45.8668257" lon="11.6485464"><ele>288.6</ele><time>2026-04-06T13:27:06.558Z</time></trkpt><trkpt lat="45.866896" lon="11.6484394"><ele>296.4</ele><time>2026-04-06T13:27:07.553Z</time></trkpt><trkpt lat="45.8669637" lon="11.6482966"><ele>304.2</ele><time>2026-04-06T13:27:08.562Z</time></trkpt><trkpt lat="45.8670344" lon="11.6481483"><ele>312.0</ele><time>2026-04-06T13:27:09.581Z</time></trkpt><trkpt lat="45.8670972" lon="11.6480204"><ele>312.0</ele><time>2026-04-06T13:27:10.558Z</time></trkpt><trkpt lat="45.8671496" lon="11.6478926"><ele>312.0</ele><time>2026-04-06T13:27:11.557Z</time></trkpt><trkpt lat="45.8671722" lon="11.6477511"><ele>312.0</ele><time>2026-04-06T13:27:12.552Z</time></trkpt><trkpt lat="45.8671871" lon="11.6476281"><ele>312.0</ele><time>2026-04-06T13:27:13.573Z</time></trkpt><trkpt lat="45.8672298" lon="11.6475164"><ele>312.0</ele><time>2026-04-06T13:27:14.579Z</time></trkpt><trkpt lat="45.8672722" lon="11.6474122"><ele>305.4</ele><time>2026-04-06T13:27:15.557Z</time></trkpt><trkpt lat="45.8672952" lon="11.6473069"><ele>298.79999999999995</ele><time>2026-04-06T13:27:16.558Z</time></trkpt><trkpt lat="45.867281" lon="11.6471866"><ele>292.2</ele><time>2026-04-06T13:27:17.711Z</time></trkpt><trkpt lat="45.8672742" lon="11.6469813"><ele>285.59999999999997</ele><time>2026-04-06T13:27:19.579Z</time></trkpt><trkpt lat="45.8673213" lon="11.6468816"><ele>279.0</ele><time>2026-04-06T13:27:21.556Z</time></trkpt><trkpt lat="45.867366" lon="11.6469491"><ele>279.0</ele><time>2026-04-06T13:27:23.556Z</time></trkpt><trkpt lat="45.8673697" lon="11.6470529"><ele>279.0</ele><time>2026-04-06T13:27:24.555Z</time></trkpt><trkpt lat="45.8673689" lon="11.6471833"><ele>279.0</ele><time>2026-04-06T13:27:25.556Z</time></trkpt><trkpt lat="45.8673677" lon="11.6473402"><ele>279.0</ele><time>2026-04-06T13:27:26.554Z</time></trkpt><trkpt lat="45.8673502" lon="11.6475183"><ele>279.0</ele><time>2026-04-06T13:27:27.555Z</time></trkpt><trkpt lat="45.8673312" lon="11.6476823"><ele>285.59999999999997</ele><time>2026-04-06T13:27:28.556Z</time></trkpt><trkpt lat="45.8673139" lon="11.6478212"><ele>292.2</ele><time>2026-04-06T13:27:29.555Z</time></trkpt><trkpt lat="45.8672911" lon="11.6479613"><ele>298.79999999999995</ele><time>2026-04-06T13:27:30.556Z</time></trkpt><trkpt lat="45.8672523" lon="11.6480868"><ele>305.4</ele><time>2026-04-06T13:27:31.578Z</time></trkpt><trkpt lat="45.8671921" lon="11.6482033"><ele>312.0</ele><time>2026-04-06T13:27:32.556Z</time></trkpt><trkpt lat="45.8671434" lon="11.6483259"><ele>312.0</ele><time>2026-04-06T13:27:33.553Z</time></trkpt><trkpt lat="45.8671134" lon="11.6484583"><ele>312.0</ele><time>2026-04-06T13:27:34.558Z</time></trkpt><trkpt lat="45.8670943" lon="11.6485903"><ele>312.0</ele><time>2026-04-06T13:27:35.552Z</time></trkpt><trkpt lat="45.8670502" lon="11.6487005"><ele>312.0</ele><time>2026-04-06T13:27:36.556Z</time></trkpt><trkpt lat="45.8669773" lon="11.6487807"><ele>312.0</ele><time>2026-04-06T13:27:37.57Z</time></trkpt><trkpt lat="45.8668916" lon="11.6488482"><ele>318.8</ele><time>2026-04-06T13:27:38.553Z</time></trkpt><trkpt lat="45.8668113" lon="11.6489378"><ele>325.6</ele><time>2026-04-06T13:27:39.557Z</time></trkpt><trkpt lat="45.8667236" lon="11.649025"><ele>332.40000000000003</ele><time>2026-04-06T13:27:40.556Z</time></trkpt><trkpt lat="45.8666533" lon="11.6491157"><ele>339.2</ele><time>2026-04-06T13:27:41.554Z</time></trkpt><trkpt lat="45.866605" lon="11.6492073"><ele>346.0</ele><time>2026-04-06T13:27:42.558Z</time></trkpt><trkpt lat="45.8665842" lon="11.6493081"><ele>340.8</ele><time>2026-04-06T13:27:43.578Z</time></trkpt><trkpt lat="45.8665876" lon="11.6494273"><ele>335.6</ele><time>2026-04-06T13:27:44.557Z</time></trkpt><trkpt lat="45.8666076" lon="11.6495614"><ele>330.4</ele><time>2026-04-06T13:27:45.557Z</time></trkpt><trkpt lat="45.8666211" lon="11.6496745"><ele>325.2</ele><time>2026-04-06T13:27:46.554Z</time></trkpt><trkpt lat="45.8666071" lon="11.6498481"><ele>320.0</ele><time>2026-04-06T13:27:48.553Z</time></trkpt><trkpt lat="45.8665701" lon="11.6500081"><ele>320.0</ele><time>2026-04-06T13:27:50.551Z</time></trkpt><trkpt lat="45.8665255" lon="11.6500813"><ele>320.0</ele><time>2026-04-06T13:27:51.557Z</time></trkpt><trkpt lat="45.8664656" lon="11.650188"><ele>320.0</ele><time>2026-04-06T13:27:52.56Z</time></trkpt><trkpt lat="45.8663778" lon="11.6503138"><ele>320.0</ele><time>2026-04-06T13:27:53.551Z</time></trkpt><trkpt lat="45.8662868" lon="11.6504324"><ele>320.0</ele><time>2026-04-06T13:27:54.58Z</time></trkpt><trkpt lat="45.8662005" lon="11.6505407"><ele>319.8</ele><time>2026-04-06T13:27:55.558Z</time></trkpt><trkpt lat="45.866117" lon="11.6506372"><ele>319.6</ele><time>2026-04-06T13:27:56.541Z</time></trkpt><trkpt lat="45.8660395" lon="11.6507152"><ele>319.4</ele><time>2026-04-06T13:27:57.551Z</time></trkpt><trkpt lat="45.8659609" lon="11.650796"><ele>319.2</ele><time>2026-04-06T13:27:58.542Z</time></trkpt><trkpt lat="45.8658847" lon="11.6508769"><ele>319.0</ele><time>2026-04-06T13:27:59.519Z</time></trkpt><trkpt lat="45.8658049" lon="11.6509577"><ele>319.0</ele><time>2026-04-06T13:28:00.523Z</time></trkpt><trkpt lat="45.8657226" lon="11.6510336"><ele>319.0</ele><time>2026-04-06T13:28:01.526Z</time></trkpt><trkpt lat="45.8656445" lon="11.6510808"><ele>319.0</ele><time>2026-04-06T13:28:02.547Z</time></trkpt><trkpt lat="45.8655709" lon="11.6511288"><ele>319.0</ele><time>2026-04-06T13:28:03.557Z</time></trkpt><trkpt lat="45.8655002" lon="11.6511873"><ele>319.0</ele><time>2026-04-06T13:28:04.553Z</time></trkpt><trkpt lat="45.8654309" lon="11.6512543"><ele>319.0</ele><time>2026-04-06T13:28:05.554Z</time></trkpt><trkpt lat="45.8653774" lon="11.6513654"><ele>322.0</ele><time>2026-04-06T13:28:06.559Z</time></trkpt><trkpt lat="45.8653189" lon="11.6514661"><ele>325.0</ele><time>2026-04-06T13:28:07.556Z</time></trkpt><trkpt lat="45.8652498" lon="11.6515305"><ele>328.0</ele><time>2026-04-06T13:28:08.555Z</time></trkpt><trkpt lat="45.8651732" lon="11.6515671"><ele>331.0</ele><time>2026-04-06T13:28:09.557Z</time></trkpt><trkpt lat="45.8650769" lon="11.6515894"><ele>334.0</ele><time>2026-04-06T13:28:10.557Z</time></trkpt><trkpt lat="45.8649835" lon="11.6516476"><ele>334.0</ele><time>2026-04-06T13:28:11.633Z</time></trkpt><trkpt lat="45.8648734" lon="11.6517118"><ele>334.0</ele><time>2026-04-06T13:28:12.556Z</time></trkpt><trkpt lat="45.864754" lon="11.6517541"><ele>334.0</ele><time>2026-04-06T13:28:13.555Z</time></trkpt><trkpt lat="45.8646571" lon="11.6518073"><ele>334.0</ele><time>2026-04-06T13:28:14.636Z</time></trkpt><trkpt lat="45.8645759" lon="11.6518787"><ele>334.0</ele><time>2026-04-06T13:28:15.556Z</time></trkpt><trkpt lat="45.8645209" lon="11.6519803"><ele>332.0</ele><time>2026-04-06T13:28:16.952Z</time></trkpt><trkpt lat="45.8644356" lon="11.652203"><ele>330.0</ele><time>2026-04-06T13:28:18.876Z</time></trkpt><trkpt lat="45.8643809" lon="11.6522664"><ele>328.0</ele><time>2026-04-06T13:28:19.873Z</time></trkpt><trkpt lat="45.8642324" lon="11.6523224"><ele>326.0</ele><time>2026-04-06T13:28:21.872Z</time></trkpt><trkpt lat="45.8641232" lon="11.6524281"><ele>326.0</ele><time>2026-04-06T13:28:23.719Z</time></trkpt><trkpt lat="45.8640808" lon="11.6525318"><ele>326.0</ele><time>2026-04-06T13:28:26.035Z</time></trkpt><trkpt lat="45.8641822" lon="11.6524314"><ele>326.0</ele><time>2026-04-06T13:28:29.712Z</time></trkpt><trkpt lat="45.8642423" lon="11.6523618"><ele>326.0</ele><time>2026-04-06T13:28:30.717Z</time></trkpt><trkpt lat="45.8643135" lon="11.6523075"><ele>326.0</ele><time>2026-04-06T13:28:31.713Z</time></trkpt><trkpt lat="45.8643966" lon="11.6522737"><ele>327.33333333333337</ele><time>2026-04-06T13:28:32.716Z</time></trkpt><trkpt lat="45.8644777" lon="11.6522224"><ele>328.6666666666667</ele><time>2026-04-06T13:28:33.713Z</time></trkpt><trkpt lat="45.8645407" lon="11.6521329"><ele>330.0</ele><time>2026-04-06T13:28:34.71Z</time></trkpt><trkpt lat="45.864595" lon="11.6520206"><ele>331.3333333333333</ele><time>2026-04-06T13:28:35.711Z</time></trkpt><trkpt lat="45.8646613" lon="11.6519424"><ele>332.66666666666663</ele><time>2026-04-06T13:28:36.71Z</time></trkpt><trkpt lat="45.8647289" lon="11.6518908"><ele>334.0</ele><time>2026-04-06T13:28:37.709Z</time></trkpt><trkpt lat="45.8647998" lon="11.6518533"><ele>334.0</ele><time>2026-04-06T13:28:38.711Z</time></trkpt><trkpt lat="45.8649473" lon="11.651801"><ele>334.0</ele><time>2026-04-06T13:28:40.71Z</time></trkpt><trkpt lat="45.8650248" lon="11.6517371"><ele>334.0</ele><time>2026-04-06T13:28:41.788Z</time></trkpt><trkpt lat="45.8651005" lon="11.6516773"><ele>334.0</ele><time>2026-04-06T13:28:42.697Z</time></trkpt><trkpt lat="45.8651802" lon="11.6516221"><ele>334.0</ele><time>2026-04-06T13:28:43.861Z</time></trkpt><trkpt lat="45.8652624" lon="11.651601"><ele>340.2</ele><time>2026-04-06T13:28:44.872Z</time></trkpt><trkpt lat="45.865404" lon="11.651539"><ele>346.4</ele><time>2026-04-06T13:28:46.87Z</time></trkpt><trkpt lat="45.8654587" lon="11.6514627"><ele>352.6</ele><time>2026-04-06T13:28:47.874Z</time></trkpt><trkpt lat="45.8654973" lon="11.6513717"><ele>358.8</ele><time>2026-04-06T13:28:48.873Z</time></trkpt><trkpt lat="45.8655203" lon="11.6512856"><ele>365.0</ele><time>2026-04-06T13:28:49.872Z</time></trkpt><trkpt lat="45.8656009" lon="11.6511576"><ele>365.0</ele><time>2026-04-06T13:28:51.859Z</time></trkpt><trkpt lat="45.8657829" lon="11.651019"><ele>365.0</ele><time>2026-04-06T13:28:53.714Z</time></trkpt><trkpt lat="45.8658887" lon="11.6509284"><ele>365.0</ele><time>2026-04-06T13:28:54.87Z</time></trkpt><trkpt lat="45.8659902" lon="11.6508607"><ele>365.0</ele><time>2026-04-06T13:28:55.869Z</time></trkpt><trkpt lat="45.8661749" lon="11.6507895"><ele>365.0</ele><time>2026-04-06T13:28:57.709Z</time></trkpt><trkpt lat="45.8662707" lon="11.6507477"><ele>365.0</ele><time>2026-04-06T13:28:58.716Z</time></trkpt><trkpt lat="45.8663585" lon="11.6506475"><ele>365.0</ele><time>2026-04-06T13:28:59.713Z</time></trkpt><trkpt lat="45.8664516" lon="11.6505439"><ele>365.0</ele><time>2026-04-06T13:29:00.713Z</time></trkpt><trkpt lat="45.8666066" lon="11.6503474"><ele>368.0</ele><time>2026-04-06T13:29:02.716Z</time></trkpt><trkpt lat="45.8666692" lon="11.6502779"><ele>371.0</ele><time>2026-04-06T13:29:03.877Z</time></trkpt><trkpt lat="45.8667319" lon="11.6502219"><ele>374.0</ele><time>2026-04-06T13:29:04.874Z</time></trkpt><trkpt lat="45.8667946" lon="11.650167"><ele>377.0</ele><time>2026-04-06T13:29:05.875Z</time></trkpt><trkpt lat="45.8669505" lon="11.650121"><ele>380.0</ele><time>2026-04-06T13:29:07.554Z</time></trkpt><trkpt lat="45.8670183" lon="11.6500838"><ele>380.0</ele><time>2026-04-06T13:29:08.871Z</time></trkpt><trkpt lat="45.8671368" lon="11.6499568"><ele>380.0</ele><time>2026-04-06T13:29:10.712Z</time></trkpt><trkpt lat="45.8671805" lon="11.6498631"><ele>380.0</ele><time>2026-04-06T13:29:11.711Z</time></trkpt><trkpt lat="45.8672077" lon="11.6497544"><ele>380.0</ele><time>2026-04-06T13:29:12.873Z</time></trkpt><trkpt lat="45.8672578" lon="11.6495341"><ele>374.33333333333337</ele><time>2026-04-06T13:29:14.712Z</time></trkpt><trkpt lat="45.8673476" lon="11.6494228"><ele>368.6666666666667</ele><time>2026-04-06T13:29:16.872Z</time></trkpt><trkpt lat="45.8674246" lon="11.6493817"><ele>363.0</ele><time>2026-04-06T13:29:17.871Z</time></trkpt><trkpt lat="45.8674975" lon="11.6493361"><ele>357.3333333333333</ele><time>2026-04-06T13:29:18.87Z</time></trkpt><trkpt lat="45.8675566" lon="11.6492673"><ele>351.66666666666663</ele><time>2026-04-06T13:29:19.87Z</time></trkpt><trkpt lat="45.8675933" lon="11.6491643"><ele>346.0</ele><time>2026-04-06T13:29:20.868Z</time></trkpt><trkpt lat="45.867656" lon="11.6489383"><ele>356.3333333333333</ele><time>2026-04-06T13:29:22.688Z</time></trkpt><trkpt lat="45.867691" lon="11.6488269"><ele>366.6666666666667</ele><time>2026-04-06T13:29:23.713Z</time></trkpt><trkpt lat="45.8678456" lon="11.6485714"><ele>377.0</ele><time>2026-04-06T13:29:25.558Z</time></trkpt><trkpt lat="45.8679861" lon="11.6484256"><ele>377.0</ele><time>2026-04-06T13:29:26.556Z</time></trkpt><trkpt lat="45.8681759" lon="11.6482171"><ele>377.0</ele><time>2026-04-06T13:29:27.555Z</time></trkpt><trkpt lat="45.8683337" lon="11.648009"><ele>377.0</ele><time>2026-04-06T13:29:28.576Z</time></trkpt><trkpt lat="45.8684334" lon="11.6478379"><ele>377.0</ele><time>2026-04-06T13:29:29.563Z</time></trkpt><trkpt lat="45.8685095" lon="11.6476693"><ele>377.0</ele><time>2026-04-06T13:29:30.556Z</time></trkpt><trkpt lat="45.8685612" lon="11.6475319"><ele>377.0</ele><time>2026-04-06T13:29:31.56Z</time></trkpt><trkpt lat="45.8686058" lon="11.6474197"><ele>378.0</ele><time>2026-04-06T13:29:32.558Z</time></trkpt><trkpt lat="45.8687078" lon="11.6473"><ele>379.0</ele><time>2026-04-06T13:29:34.555Z</time></trkpt><trkpt lat="45.8687883" lon="11.647293"><ele>380.0</ele><time>2026-04-06T13:29:35.555Z</time></trkpt><trkpt lat="45.8688767" lon="11.6472983"><ele>381.0</ele><time>2026-04-06T13:29:36.548Z</time></trkpt><trkpt lat="45.8689779" lon="11.6473183"><ele>382.0</ele><time>2026-04-06T13:29:37.549Z</time></trkpt><trkpt lat="45.8691045" lon="11.6473254"><ele>382.0</ele><time>2026-04-06T13:29:38.55Z</time></trkpt><trkpt lat="45.8692197" lon="11.6473327"><ele>382.0</ele><time>2026-04-06T13:29:39.551Z</time></trkpt><trkpt lat="45.8693286" lon="11.6473418"><ele>382.0</ele><time>2026-04-06T13:29:40.548Z</time></trkpt><trkpt lat="45.8694218" lon="11.6473437"><ele>382.0</ele><time>2026-04-06T13:29:41.549Z</time></trkpt><trkpt lat="45.8695021" lon="11.6473519"><ele>382.0</ele><time>2026-04-06T13:29:42.548Z</time></trkpt><trkpt lat="45.8696162" lon="11.6474068"><ele>382.0</ele><time>2026-04-06T13:29:44.857Z</time></trkpt><trkpt lat="45.8695935" lon="11.6474977"><ele>382.0</ele><time>2026-04-06T13:29:49.866Z</time></trkpt><trkpt lat="45.8694379" lon="11.6475781"><ele>382.0</ele><time>2026-04-06T13:29:51.548Z</time></trkpt><trkpt lat="45.8693454" lon="11.6476267"><ele>382.0</ele><time>2026-04-06T13:29:52.552Z</time></trkpt><trkpt lat="45.8692497" lon="11.6476797"><ele>382.0</ele><time>2026-04-06T13:29:53.553Z</time></trkpt><trkpt lat="45.8691589" lon="11.6477584"><ele>392.5</ele><time>2026-04-06T13:29:54.711Z</time></trkpt><trkpt lat="45.8690756" lon="11.6478738"><ele>403.0</ele><time>2026-04-06T13:29:55.714Z</time></trkpt><trkpt lat="45.8690084" lon="11.6480232"><ele>413.5</ele><time>2026-04-06T13:29:56.634Z</time></trkpt><trkpt lat="45.8689523" lon="11.648188"><ele>424.0</ele><time>2026-04-06T13:29:57.552Z</time></trkpt><trkpt lat="45.8688825" lon="11.6483591"><ele>424.0</ele><time>2026-04-06T13:29:58.572Z</time></trkpt><trkpt lat="45.8688016" lon="11.6485278"><ele>424.0</ele><time>2026-04-06T13:29:59.554Z</time></trkpt><trkpt lat="45.8687044" lon="11.6487103"><ele>424.0</ele><time>2026-04-06T13:30:00.551Z</time></trkpt><trkpt lat="45.8685935" lon="11.6489095"><ele>421.33333333333337</ele><time>2026-04-06T13:30:01.559Z</time></trkpt><trkpt lat="45.8684813" lon="11.6490865"><ele>418.66666666666663</ele><time>2026-04-06T13:30:02.577Z</time></trkpt><trkpt lat="45.8683641" lon="11.6492808"><ele>416.0</ele><time>2026-04-06T13:30:03.554Z</time></trkpt><trkpt lat="45.868256" lon="11.6494456"><ele>422.75</ele><time>2026-04-06T13:30:04.603Z</time></trkpt><trkpt lat="45.8681476" lon="11.6495973"><ele>429.5</ele><time>2026-04-06T13:30:05.619Z</time></trkpt><trkpt lat="45.868066" lon="11.6497667"><ele>436.25</ele><time>2026-04-06T13:30:06.578Z</time></trkpt><trkpt lat="45.8680213" lon="11.6499381"><ele>443.0</ele><time>2026-04-06T13:30:07.562Z</time></trkpt><trkpt lat="45.8679492" lon="11.6500855"><ele>443.0</ele><time>2026-04-06T13:30:08.6Z</time></trkpt><trkpt lat="45.8678858" lon="11.6501373"><ele>442.99999999999994</ele><time>2026-04-06T13:30:09.577Z</time></trkpt><trkpt lat="45.8677887" lon="11.6502276"><ele>442.99999999999994</ele><time>2026-04-06T13:30:11.575Z</time></trkpt><trkpt lat="45.8676769" lon="11.6502565"><ele>443.0</ele><time>2026-04-06T13:30:13.581Z</time></trkpt><trkpt lat="45.8677132" lon="11.6501661"><ele>443.0</ele><time>2026-04-06T13:30:16.577Z</time></trkpt><trkpt lat="45.8677702" lon="11.6500833"><ele>443.0</ele><time>2026-04-06T13:30:17.552Z</time></trkpt><trkpt lat="45.8678206" lon="11.6499717"><ele>442.99999999999994</ele><time>2026-04-06T13:30:18.576Z</time></trkpt><trkpt lat="45.8678567" lon="11.6498344"><ele>442.99999999999994</ele><time>2026-04-06T13:30:19.552Z</time></trkpt><trkpt lat="45.8678938" lon="11.6496905"><ele>443.0</ele><time>2026-04-06T13:30:20.554Z</time></trkpt><trkpt lat="45.8679562" lon="11.6495756"><ele>443.0</ele><time>2026-04-06T13:30:21.555Z</time></trkpt><trkpt lat="45.8680332" lon="11.6494713"><ele>429.5</ele><time>2026-04-06T13:30:22.547Z</time></trkpt><trkpt lat="45.8681103" lon="11.649367"><ele>416.0</ele><time>2026-04-06T13:30:23.538Z</time></trkpt><trkpt lat="45.8700539" lon="11.6495528"><ele>512.0</ele><time>2026-04-06T13:30:31.54Z</time></trkpt><trkpt lat="45.870313" lon="11.6487177"><ele>512.0</ele><time>2026-04-06T13:30:35.541Z</time></trkpt><trkpt lat="45.8702355" lon="11.6490548"><ele>512.0</ele><time>2026-04-06T13:30:40.696Z</time></trkpt><trkpt lat="45.8705646" lon="11.6490958"><ele>512.0</ele><time>2026-04-06T13:30:41.861Z</time></trkpt><trkpt lat="45.8702748" lon="11.6490134"><ele>512.0</ele><time>2026-04-06T13:30:43.704Z</time></trkpt><trkpt lat="45.8701038" lon="11.6492913"><ele>484.0</ele><time>2026-04-06T13:30:46.54Z</time></trkpt><trkpt lat="45.8694763" lon="11.6491737"><ele>498.0</ele><time>2026-04-06T13:30:47.55Z</time></trkpt><trkpt lat="45.8694742" lon="11.6496322"><ele>512.0</ele><time>2026-04-06T13:30:48.547Z</time></trkpt><trkpt lat="45.8699677" lon="11.6502549"><ele>550.0</ele><time>2026-04-06T13:30:49.548Z</time></trkpt><trkpt lat="45.8695265" lon="11.6504495"><ele>493.0</ele><time>2026-04-06T13:30:52.699Z</time></trkpt><trkpt lat="45.8687649" lon="11.6498574"><ele>493.0</ele><time>2026-04-06T13:30:54.633Z</time></trkpt><trkpt lat="45.8689419" lon="11.6502424"><ele>493.0</ele><time>2026-04-06T13:30:55.555Z</time></trkpt><trkpt lat="45.868894" lon="11.6503223"><ele>493.0</ele><time>2026-04-06T13:30:56.575Z</time></trkpt><trkpt lat="45.8692133" lon="11.650401"><ele>508.5</ele><time>2026-04-06T13:30:57.574Z</time></trkpt><trkpt lat="45.8692701" lon="11.6507491"><ele>524.0</ele><time>2026-04-06T13:31:00.537Z</time></trkpt><trkpt lat="45.8687631" lon="11.6507514"><ele>524.0</ele><time>2026-04-06T13:31:01.601Z</time></trkpt><trkpt lat="45.8690694" lon="11.6509159"><ele>524.0</ele><time>2026-04-06T13:31:02.573Z</time></trkpt><trkpt lat="45.8693107" lon="11.6508817"><ele>524.0</ele><time>2026-04-06T13:31:03.593Z</time></trkpt><trkpt lat="45.8687717" lon="11.6503903"><ele>518.0</ele><time>2026-04-06T13:31:09.54Z</time></trkpt><trkpt lat="45.8690746" lon="11.6501667"><ele>512.0</ele><time>2026-04-06T13:31:10.552Z</time></trkpt><trkpt lat="45.8693504" lon="11.6501277"><ele>493.0</ele><time>2026-04-06T13:31:11.547Z</time></trkpt><trkpt lat="45.8687608" lon="11.6498715"><ele>512.0</ele><time>2026-04-06T13:31:12.546Z</time></trkpt><trkpt lat="45.8696882" lon="11.6501355"><ele>550.0</ele><time>2026-04-06T13:31:15.545Z</time></trkpt><trkpt lat="45.8700024" lon="11.6506052"><ele>512.0</ele><time>2026-04-06T13:31:16.553Z</time></trkpt><trkpt lat="45.869621" lon="11.6498182"><ele>512.0</ele><time>2026-04-06T13:31:17.552Z</time></trkpt><trkpt lat="45.8699371" lon="11.6499247"><ele>512.0</ele><time>2026-04-06T13:31:21.541Z</time></trkpt><trkpt lat="45.8704266" lon="11.6498732"><ele>598.0</ele><time>2026-04-06T13:31:22.554Z</time></trkpt><trkpt lat="45.8714208" lon="11.6505232"><ele>584.5</ele><time>2026-04-06T13:31:27.538Z</time></trkpt><trkpt lat="45.8713844" lon="11.6499159"><ele>571.0</ele><time>2026-04-06T13:31:28.553Z</time></trkpt><trkpt lat="45.8713483" lon="11.6496209"><ele>561.5</ele><time>2026-04-06T13:31:29.548Z</time></trkpt><trkpt lat="45.8712293" lon="11.6494471"><ele>552.0</ele><time>2026-04-06T13:31:32.704Z</time></trkpt><trkpt lat="45.8704823" lon="11.6489666"><ele>552.0</ele><time>2026-04-06T13:31:33.864Z</time></trkpt><trkpt lat="45.8708017" lon="11.6490574"><ele>552.0</ele><time>2026-04-06T13:31:35.547Z</time></trkpt><trkpt lat="45.8711474" lon="11.6490767"><ele>512.0</ele><time>2026-04-06T13:31:38.545Z</time></trkpt><trkpt lat="45.8701489" lon="11.648892"><ele>512.0</ele><time>2026-04-06T13:31:39.547Z</time></trkpt><trkpt lat="45.8705697" lon="11.6488533"><ele>512.0</ele><time>2026-04-06T13:31:40.552Z</time></trkpt><trkpt lat="45.8706566" lon="11.648778"><ele>512.0</ele><time>2026-04-06T13:31:44.564Z</time></trkpt><trkpt lat="45.8707417" lon="11.6487822"><ele>512.0</ele><time>2026-04-06T13:31:45.571Z</time></trkpt><trkpt lat="45.8708434" lon="11.6488261"><ele>512.0</ele><time>2026-04-06T13:31:50.751Z</time></trkpt><trkpt lat="45.8709735" lon="11.6486966"><ele>512.0</ele><time>2026-04-06T13:32:18.565Z</time></trkpt><trkpt lat="45.8710116" lon="11.6486149"><ele>512.0</ele><time>2026-04-06T13:32:19.564Z</time></trkpt><trkpt lat="45.8710632" lon="11.6485245"><ele>515.8333333333333</ele><time>2026-04-06T13:32:20.559Z</time></trkpt><trkpt lat="45.871126" lon="11.6484531"><ele>519.6666666666666</ele><time>2026-04-06T13:32:21.552Z</time></trkpt><trkpt lat="45.8712021" lon="11.6483815"><ele>523.5</ele><time>2026-04-06T13:32:22.584Z</time></trkpt><trkpt lat="45.8712833" lon="11.6483417"><ele>527.3333333333334</ele><time>2026-04-06T13:32:23.557Z</time></trkpt><trkpt lat="45.8713693" lon="11.6483405"><ele>531.1666666666667</ele><time>2026-04-06T13:32:24.579Z</time></trkpt><trkpt lat="45.8714399" lon="11.6483409"><ele>535.0</ele><time>2026-04-06T13:32:25.583Z</time></trkpt><trkpt lat="45.871521" lon="11.6483074"><ele>535.0</ele><time>2026-04-06T13:32:26.575Z</time></trkpt><trkpt lat="45.8716066" lon="11.6482321"><ele>535.0</ele><time>2026-04-06T13:32:27.557Z</time></trkpt><trkpt lat="45.8716961" lon="11.6481431"><ele>535.0</ele><time>2026-04-06T13:32:28.575Z</time></trkpt><trkpt lat="45.8718" lon="11.6480403"><ele>535.0</ele><time>2026-04-06T13:32:29.553Z</time></trkpt><trkpt lat="45.8718868" lon="11.6479289"><ele>533.6</ele><time>2026-04-06T13:32:30.555Z</time></trkpt><trkpt lat="45.8719592" lon="11.6478078"><ele>532.2</ele><time>2026-04-06T13:32:31.563Z</time></trkpt><trkpt lat="45.8720181" lon="11.6476868"><ele>530.8</ele><time>2026-04-06T13:32:32.582Z</time></trkpt><trkpt lat="45.872082" lon="11.6475962"><ele>529.4</ele><time>2026-04-06T13:32:33.578Z</time></trkpt><trkpt lat="45.8721491" lon="11.647549"><ele>528.0</ele><time>2026-04-06T13:32:34.557Z</time></trkpt><trkpt lat="45.8722285" lon="11.6475393"><ele>528.0</ele><time>2026-04-06T13:32:35.559Z</time></trkpt><trkpt lat="45.8723207" lon="11.647531"><ele>528.0</ele><time>2026-04-06T13:32:36.555Z</time></trkpt><trkpt lat="45.8724373" lon="11.6475325"><ele>528.0</ele><time>2026-04-06T13:32:37.556Z</time></trkpt><trkpt lat="45.8725573" lon="11.6475443"><ele>528.0</ele><time>2026-04-06T13:32:38.553Z</time></trkpt><trkpt lat="45.8726716" lon="11.6475572"><ele>528.0</ele><time>2026-04-06T13:32:39.558Z</time></trkpt><trkpt lat="45.8727667" lon="11.6475485"><ele>528.0</ele><time>2026-04-06T13:32:40.557Z</time></trkpt><trkpt lat="45.8728473" lon="11.6475315"><ele>528.0</ele><time>2026-04-06T13:32:41.555Z</time></trkpt><trkpt lat="45.8729318" lon="11.6475979"><ele>528.0</ele><time>2026-04-06T13:32:43.557Z</time></trkpt><trkpt lat="45.8728676" lon="11.6476903"><ele>528.0</ele><time>2026-04-06T13:32:46.551Z</time></trkpt><trkpt lat="45.8728006" lon="11.6476975"><ele>528.0</ele><time>2026-04-06T13:32:47.555Z</time></trkpt><trkpt lat="45.8727081" lon="11.6476836"><ele>528.0</ele><time>2026-04-06T13:32:48.555Z</time></trkpt><trkpt lat="45.8725928" lon="11.6476819"><ele>528.0</ele><time>2026-04-06T13:32:49.553Z</time></trkpt><trkpt lat="45.8724726" lon="11.6476964"><ele>528.0</ele><time>2026-04-06T13:32:50.551Z</time></trkpt><trkpt lat="45.8723554" lon="11.6477278"><ele>528.0</ele><time>2026-04-06T13:32:51.557Z</time></trkpt><trkpt lat="45.872254" lon="11.6477802"><ele>528.0</ele><time>2026-04-06T13:32:52.557Z</time></trkpt><trkpt lat="45.872175" lon="11.6478514"><ele>528.0</ele><time>2026-04-06T13:32:53.557Z</time></trkpt><trkpt lat="45.8721123" lon="11.6479564"><ele>529.75</ele><time>2026-04-06T13:32:54.554Z</time></trkpt><trkpt lat="45.8720433" lon="11.6481036"><ele>531.5</ele><time>2026-04-06T13:32:55.551Z</time></trkpt><trkpt lat="45.8719523" lon="11.6482603"><ele>533.25</ele><time>2026-04-06T13:32:56.556Z</time></trkpt><trkpt lat="45.8718629" lon="11.6483911"><ele>535.0</ele><time>2026-04-06T13:32:57.554Z</time></trkpt><trkpt lat="45.8717711" lon="11.6484702"><ele>535.0</ele><time>2026-04-06T13:32:58.554Z</time></trkpt><trkpt lat="45.8716574" lon="11.6485436"><ele>535.0</ele><time>2026-04-06T13:32:59.704Z</time></trkpt><trkpt lat="45.8715533" lon="11.6485717"><ele>535.0</ele><time>2026-04-06T13:33:00.939Z</time></trkpt><trkpt lat="45.8714008" lon="11.6486566"><ele>535.0</ele><time>2026-04-06T13:33:02.714Z</time></trkpt><trkpt lat="45.8713638" lon="11.648761"><ele>539.25</ele><time>2026-04-06T13:33:03.7Z</time></trkpt><trkpt lat="45.8713615" lon="11.6489219"><ele>543.5</ele><time>2026-04-06T13:33:04.703Z</time></trkpt><trkpt lat="45.8714115" lon="11.6492399"><ele>547.75</ele><time>2026-04-06T13:33:06.877Z</time></trkpt><trkpt lat="45.871417" lon="11.6493758"><ele>552.0</ele><time>2026-04-06T13:33:07.878Z</time></trkpt><trkpt lat="45.8713641" lon="11.6495734"><ele>558.3333333333334</ele><time>2026-04-06T13:33:09.556Z</time></trkpt><trkpt lat="45.8712955" lon="11.649653"><ele>564.6666666666667</ele><time>2026-04-06T13:33:11.027Z</time></trkpt><trkpt lat="45.8710886" lon="11.6498328"><ele>571.0</ele><time>2026-04-06T13:33:12.557Z</time></trkpt><trkpt lat="45.8709663" lon="11.6499684"><ele>567.5</ele><time>2026-04-06T13:33:13.87Z</time></trkpt><trkpt lat="45.8708347" lon="11.6500884"><ele>564.0</ele><time>2026-04-06T13:33:15.029Z</time></trkpt><trkpt lat="45.8705192" lon="11.6503805"><ele>564.0</ele><time>2026-04-06T13:33:17.187Z</time></trkpt><trkpt lat="45.8702211" lon="11.6505589"><ele>564.0</ele><time>2026-04-06T13:33:19.029Z</time></trkpt><trkpt lat="45.8700403" lon="11.6507332"><ele>559.3333333333334</ele><time>2026-04-06T13:33:21.008Z</time></trkpt><trkpt lat="45.869773" lon="11.6507301"><ele>554.6666666666667</ele><time>2026-04-06T13:33:22.178Z</time></trkpt><trkpt lat="45.8696437" lon="11.6508272"><ele>550.0</ele><time>2026-04-06T13:33:24.024Z</time></trkpt><trkpt lat="45.8697399" lon="11.6511449"><ele>560.5</ele><time>2026-04-06T13:33:29.867Z</time></trkpt><trkpt lat="45.8698455" lon="11.6511266"><ele>571.0</ele><time>2026-04-06T13:33:30.865Z</time></trkpt><trkpt lat="45.8711085" lon="11.6495962"><ele>564.6666666666667</ele><time>2026-04-06T13:33:44.04Z</time></trkpt><trkpt lat="45.8711596" lon="11.649367"><ele>558.3333333333334</ele><time>2026-04-06T13:33:45.879Z</time></trkpt><trkpt lat="45.8709268" lon="11.6492006"><ele>552.0</ele><time>2026-04-06T13:33:46.879Z</time></trkpt><trkpt lat="45.8715712" lon="11.6492072"><ele>552.0</ele><time>2026-04-06T13:33:49.178Z</time></trkpt><trkpt lat="45.8714279" lon="11.649439"><ele>552.0</ele><time>2026-04-06T13:33:50.703Z</time></trkpt><trkpt lat="45.8722763" lon="11.6500419"><ele>558.0</ele><time>2026-04-06T13:33:51.876Z</time></trkpt><trkpt lat="45.8719894" lon="11.6500607"><ele>564.0</ele><time>2026-04-06T13:33:53.721Z</time></trkpt><trkpt lat="45.8707056" lon="11.6503565"><ele>564.0</ele><time>2026-04-06T13:33:55.709Z</time></trkpt><trkpt lat="45.870688" lon="11.650267"><ele>564.0</ele><time>2026-04-06T13:33:56.873Z</time></trkpt><trkpt lat="45.8707866" lon="11.650576"><ele>564.0</ele><time>2026-04-06T13:33:58.027Z</time></trkpt><trkpt lat="45.8696455" lon="11.6508357"><ele>564.0</ele><time>2026-04-06T13:33:59.185Z</time></trkpt><trkpt lat="45.870923" lon="11.6508922"><ele>624.0</ele><time>2026-04-06T13:34:01.178Z</time></trkpt><trkpt lat="45.8715662" lon="11.6517238"><ele>660.0</ele><time>2026-04-06T13:34:06.868Z</time></trkpt><trkpt lat="45.8720955" lon="11.6518745"><ele>598.0</ele><time>2026-04-06T13:34:10.862Z</time></trkpt><trkpt lat="45.8716428" lon="11.6508023"><ele>615.0</ele><time>2026-04-06T13:34:13.033Z</time></trkpt><trkpt lat="45.8717881" lon="11.6504511"><ele>632.0</ele><time>2026-04-06T13:34:14.877Z</time></trkpt><trkpt lat="45.870881" lon="11.6501537"><ele>601.5</ele><time>2026-04-06T13:34:16.708Z</time></trkpt><trkpt lat="45.871272" lon="11.6499994"><ele>571.0</ele><time>2026-04-06T13:34:17.875Z</time></trkpt><trkpt lat="45.8715006" lon="11.6500046"><ele>571.0</ele><time>2026-04-06T13:34:18.876Z</time></trkpt><trkpt lat="45.8712758" lon="11.6496873"><ele>571.0</ele><time>2026-04-06T13:34:19.875Z</time></trkpt><trkpt lat="45.8714112" lon="11.6494383"><ele>594.0</ele><time>2026-04-06T13:34:21.862Z</time></trkpt><trkpt lat="45.8719189" lon="11.649161"><ele>594.0</ele><time>2026-04-06T13:34:23.881Z</time></trkpt><trkpt lat="45.8720143" lon="11.6492387"><ele>594.0</ele><time>2026-04-06T13:34:24.878Z</time></trkpt><trkpt lat="45.871815" lon="11.6495364"><ele>594.0</ele><time>2026-04-06T13:34:28.718Z</time></trkpt><trkpt lat="45.8723367" lon="11.6497956"><ele>603.0</ele><time>2026-04-06T13:34:29.721Z</time></trkpt><trkpt lat="45.8719841" lon="11.6497378"><ele>612.0</ele><time>2026-04-06T13:34:31.71Z</time></trkpt><trkpt lat="45.8717726" lon="11.6500505"><ele>564.0</ele><time>2026-04-06T13:34:33.034Z</time></trkpt><trkpt lat="45.8706124" lon="11.6506788"><ele>598.0</ele><time>2026-04-06T13:34:34.878Z</time></trkpt><trkpt lat="45.8716131" lon="11.6507528"><ele>624.0</ele><time>2026-04-06T13:34:37.705Z</time></trkpt><trkpt lat="45.8711911" lon="11.6511618"><ele>624.0</ele><time>2026-04-06T13:34:39.715Z</time></trkpt><trkpt lat="45.8709992" lon="11.6511466"><ele>624.0</ele><time>2026-04-06T13:34:41.713Z</time></trkpt><trkpt lat="45.8709486" lon="11.651335"><ele>624.0</ele><time>2026-04-06T13:34:42.877Z</time></trkpt><trkpt lat="45.8716326" lon="11.6519569"><ele>598.0</ele><time>2026-04-06T13:34:43.872Z</time></trkpt><trkpt lat="45.8705041" lon="11.6514238"><ele>598.0</ele><time>2026-04-06T13:34:46.021Z</time></trkpt><trkpt lat="45.870458" lon="11.6519126"><ele>598.0</ele><time>2026-04-06T13:34:48.034Z</time></trkpt><trkpt lat="45.8712103" lon="11.652092"><ele>629.0</ele><time>2026-04-06T13:34:49.034Z</time></trkpt><trkpt lat="45.8703517" lon="11.6520691"><ele>622.0</ele><time>2026-04-06T13:34:51.024Z</time></trkpt><trkpt lat="45.8700166" lon="11.6524741"><ele>615.0</ele><time>2026-04-06T13:34:52.879Z</time></trkpt><trkpt lat="45.8689576" lon="11.652513"><ele>629.0</ele><time>2026-04-06T13:34:53.87Z</time></trkpt><trkpt lat="45.8705781" lon="11.6522126"><ele>635.0</ele><time>2026-04-06T13:34:55.861Z</time></trkpt><trkpt lat="45.8715383" lon="11.6525116"><ele>667.0</ele><time>2026-04-06T13:34:57.871Z</time></trkpt><trkpt lat="45.8720742" lon="11.6524022"><ele>667.0</ele><time>2026-04-06T13:34:58.873Z</time></trkpt><trkpt lat="45.8723933" lon="11.65212"><ele>667.0</ele><time>2026-04-06T13:35:00.866Z</time></trkpt><trkpt lat="45.8724543" lon="11.6518634"><ele>660.0</ele><time>2026-04-06T13:35:01.87Z</time></trkpt><trkpt lat="45.8719731" lon="11.6515861"><ele>660.0</ele><time>2026-04-06T13:35:02.879Z</time></trkpt><trkpt lat="45.8725373" lon="11.6513555"><ele>632.0</ele><time>2026-04-06T13:35:03.88Z</time></trkpt><trkpt lat="45.8722476" lon="11.6508559"><ele>632.0</ele><time>2026-04-06T13:35:06.02Z</time></trkpt><trkpt lat="45.8724021" lon="11.650739"><ele>632.0</ele><time>2026-04-06T13:35:07.867Z</time></trkpt><trkpt lat="45.8718928" lon="11.6504599"><ele>625.3333333333333</ele><time>2026-04-06T13:35:11.023Z</time></trkpt><trkpt lat="45.871792" lon="11.6501946"><ele>618.6666666666666</ele><time>2026-04-06T13:35:12.033Z</time></trkpt><trkpt lat="45.8719668" lon="11.6500416"><ele>612.0</ele><time>2026-04-06T13:35:13.872Z</time></trkpt><trkpt lat="45.8722922" lon="11.649549"><ele>603.0</ele><time>2026-04-06T13:35:15.862Z</time></trkpt><trkpt lat="45.8724993" lon="11.6494397"><ele>594.0</ele><time>2026-04-06T13:35:17.707Z</time></trkpt><trkpt lat="45.8728937" lon="11.6497732"><ele>626.0</ele><time>2026-04-06T13:35:20.699Z</time></trkpt><trkpt lat="45.8733284" lon="11.6497072"><ele>658.0</ele><time>2026-04-06T13:35:21.709Z</time></trkpt><trkpt lat="45.8732307" lon="11.6495655"><ele>658.0</ele><time>2026-04-06T13:35:22.714Z</time></trkpt><trkpt lat="45.8733828" lon="11.6494713"><ele>658.0</ele><time>2026-04-06T13:35:23.716Z</time></trkpt><trkpt lat="45.8739273" lon="11.6491719"><ele>661.0</ele><time>2026-04-06T13:35:26.707Z</time></trkpt><trkpt lat="45.874106" lon="11.6491344"><ele>664.0</ele><time>2026-04-06T13:35:27.869Z</time></trkpt><trkpt lat="45.8741498" lon="11.6488819"><ele>667.0</ele><time>2026-04-06T13:35:29.883Z</time></trkpt><trkpt lat="45.8741021" lon="11.6486797"><ele>667.0</ele><time>2026-04-06T13:35:32.02Z</time></trkpt><trkpt lat="45.8744488" lon="11.6486459"><ele>667.0</ele><time>2026-04-06T13:35:35.037Z</time></trkpt><trkpt lat="45.8740729" lon="11.6489463"><ele>667.0</ele><time>2026-04-06T13:35:36.869Z</time></trkpt><trkpt lat="45.8735907" lon="11.6490784"><ele>827.0</ele><time>2026-04-06T13:35:37.875Z</time></trkpt><trkpt lat="45.8754601" lon="11.6506545"><ele>780.0</ele><time>2026-04-06T13:35:41.703Z</time></trkpt><trkpt lat="45.8746436" lon="11.6503143"><ele>732.0</ele><time>2026-04-06T13:35:42.718Z</time></trkpt><trkpt lat="45.8738252" lon="11.6505823"><ele>658.0</ele><time>2026-04-06T13:35:45.867Z</time></trkpt><trkpt lat="45.873201" lon="11.6500521"><ele>658.0</ele><time>2026-04-06T13:35:46.953Z</time></trkpt><trkpt lat="45.8730925" lon="11.650169"><ele>658.0</ele><time>2026-04-06T13:35:48.038Z</time></trkpt><trkpt lat="45.873358" lon="11.6503883"><ele>658.0</ele><time>2026-04-06T13:35:49.035Z</time></trkpt><trkpt lat="45.8732276" lon="11.6504232"><ele>675.0</ele><time>2026-04-06T13:35:50.865Z</time></trkpt><trkpt lat="45.8726744" lon="11.65058"><ele>675.0</ele><time>2026-04-06T13:35:52.72Z</time></trkpt><trkpt lat="45.87277" lon="11.6507031"><ele>675.0</ele><time>2026-04-06T13:35:53.882Z</time></trkpt><trkpt lat="45.8725287" lon="11.650573"><ele>675.0</ele><time>2026-04-06T13:35:55.704Z</time></trkpt><trkpt lat="45.8715197" lon="11.6514172"><ele>660.0</ele><time>2026-04-06T13:35:56.874Z</time></trkpt><trkpt lat="45.8722554" lon="11.6511925"><ele>646.0</ele><time>2026-04-06T13:35:59.864Z</time></trkpt><trkpt lat="45.8720024" lon="11.6509162"><ele>632.0</ele><time>2026-04-06T13:36:02.863Z</time></trkpt><trkpt lat="45.8718495" lon="11.6510597"><ele>667.0</ele><time>2026-04-06T13:36:03.872Z</time></trkpt><trkpt lat="45.8725034" lon="11.6521952"><ele>667.0</ele><time>2026-04-06T13:36:06.702Z</time></trkpt><trkpt lat="45.8723677" lon="11.6523181"><ele>667.0</ele><time>2026-04-06T13:36:07.875Z</time></trkpt><trkpt lat="45.8714053" lon="11.6522897"><ele>599.0</ele><time>2026-04-06T13:36:09.872Z</time></trkpt><trkpt lat="45.871364" lon="11.6529359"><ele>635.0</ele><time>2026-04-06T13:36:13.015Z</time></trkpt><trkpt lat="45.8710641" lon="11.6524103"><ele>599.0</ele><time>2026-04-06T13:36:14.034Z</time></trkpt><trkpt lat="45.8715887" lon="11.6530898"><ele>599.0</ele><time>2026-04-06T13:36:15.028Z</time></trkpt><trkpt lat="45.8713401" lon="11.653193"><ele>599.0</ele><time>2026-04-06T13:36:16.031Z</time></trkpt><trkpt lat="45.8713427" lon="11.6532883"><ele>599.0</ele><time>2026-04-06T13:36:17.717Z</time></trkpt><trkpt lat="45.8714065" lon="11.6533078"><ele>599.0</ele><time>2026-04-06T13:36:19.877Z</time></trkpt><trkpt lat="45.8714847" lon="11.6532212"><ele>599.0</ele><time>2026-04-06T13:36:21.885Z</time></trkpt><trkpt lat="45.8715423" lon="11.653128"><ele>599.0</ele><time>2026-04-06T13:36:24.88Z</time></trkpt><trkpt lat="45.8715953" lon="11.6530317"><ele>599.0</ele><time>2026-04-06T13:36:27.201Z</time></trkpt><trkpt lat="45.8717209" lon="11.6528811"><ele>599.0</ele><time>2026-04-06T13:36:28.725Z</time></trkpt><trkpt lat="45.8718094" lon="11.6527709"><ele>616.0</ele><time>2026-04-06T13:36:29.727Z</time></trkpt><trkpt lat="45.8719099" lon="11.6526294"><ele>633.0</ele><time>2026-04-06T13:36:30.718Z</time></trkpt><trkpt lat="45.8720164" lon="11.6525026"><ele>650.0</ele><time>2026-04-06T13:36:31.879Z</time></trkpt><trkpt lat="45.872122" lon="11.6523815"><ele>667.0</ele><time>2026-04-06T13:36:32.885Z</time></trkpt><trkpt lat="45.8723591" lon="11.6521483"><ele>667.0</ele><time>2026-04-06T13:36:34.725Z</time></trkpt><trkpt lat="45.8724498" lon="11.6520763"><ele>667.0</ele><time>2026-04-06T13:36:35.72Z</time></trkpt><trkpt lat="45.8725395" lon="11.6520483"><ele>667.0</ele><time>2026-04-06T13:36:36.874Z</time></trkpt><trkpt lat="45.8726388" lon="11.6520898"><ele>667.0</ele><time>2026-04-06T13:36:37.877Z</time></trkpt><trkpt lat="45.8728081" lon="11.6521355"><ele>675.75</ele><time>2026-04-06T13:36:38.872Z</time></trkpt><trkpt lat="45.8729935" lon="11.6521622"><ele>684.5</ele><time>2026-04-06T13:36:40.714Z</time></trkpt><trkpt lat="45.8730896" lon="11.6520678"><ele>693.25</ele><time>2026-04-06T13:36:42.714Z</time></trkpt><trkpt lat="45.8731459" lon="11.6519725"><ele>702.0</ele><time>2026-04-06T13:36:43.718Z</time></trkpt><trkpt lat="45.8731853" lon="11.6518378"><ele>702.0</ele><time>2026-04-06T13:36:44.72Z</time></trkpt><trkpt lat="45.8731986" lon="11.6516771"><ele>702.0</ele><time>2026-04-06T13:36:45.721Z</time></trkpt><trkpt lat="45.8732026" lon="11.6515204"><ele>702.0</ele><time>2026-04-06T13:36:46.721Z</time></trkpt><trkpt lat="45.8732494" lon="11.6512452"><ele>702.0</ele><time>2026-04-06T13:36:48.564Z</time></trkpt><trkpt lat="45.8732872" lon="11.6511362"><ele>695.25</ele><time>2026-04-06T13:36:49.559Z</time></trkpt><trkpt lat="45.8733567" lon="11.6510399"><ele>688.5</ele><time>2026-04-06T13:36:50.567Z</time></trkpt><trkpt lat="45.8734543" lon="11.6509585"><ele>681.75</ele><time>2026-04-06T13:36:51.559Z</time></trkpt><trkpt lat="45.8735613" lon="11.6508657"><ele>675.0</ele><time>2026-04-06T13:36:52.72Z</time></trkpt><trkpt lat="45.8737624" lon="11.6506308"><ele>684.0</ele><time>2026-04-06T13:36:54.719Z</time></trkpt><trkpt lat="45.8738791" lon="11.6504943"><ele>693.0</ele><time>2026-04-06T13:36:55.717Z</time></trkpt><trkpt lat="45.8740642" lon="11.6502872"><ele>702.0</ele><time>2026-04-06T13:36:57.56Z</time></trkpt><trkpt lat="45.8741693" lon="11.6502471"><ele>702.0</ele><time>2026-04-06T13:36:58.554Z</time></trkpt><trkpt lat="45.8742539" lon="11.6501889"><ele>702.0</ele><time>2026-04-06T13:36:59.716Z</time></trkpt><trkpt lat="45.8743177" lon="11.6501288"><ele>702.0</ele><time>2026-04-06T13:37:00.714Z</time></trkpt><trkpt lat="45.8743915" lon="11.6500218"><ele>702.0</ele><time>2026-04-06T13:37:01.715Z</time></trkpt><trkpt lat="45.8745229" lon="11.6496744"><ele>703.75</ele><time>2026-04-06T13:37:03.546Z</time></trkpt><trkpt lat="45.8745868" lon="11.6495351"><ele>705.5</ele><time>2026-04-06T13:37:04.704Z</time></trkpt><trkpt lat="45.8746685" lon="11.6494317"><ele>707.25</ele><time>2026-04-06T13:37:05.717Z</time></trkpt><trkpt lat="45.874769" lon="11.6493495"><ele>709.0</ele><time>2026-04-06T13:37:06.709Z</time></trkpt><trkpt lat="45.8748768" lon="11.6492567"><ele>709.0</ele><time>2026-04-06T13:37:07.692Z</time></trkpt><trkpt lat="45.8749926" lon="11.6491798"><ele>709.0</ele><time>2026-04-06T13:37:08.698Z</time></trkpt><trkpt lat="45.8750843" lon="11.6491311"><ele>709.0</ele><time>2026-04-06T13:37:09.855Z</time></trkpt><trkpt lat="45.875253" lon="11.6491083"><ele>709.0</ele><time>2026-04-06T13:37:11.722Z</time></trkpt><trkpt lat="45.8753669" lon="11.6490345"><ele>712.0</ele><time>2026-04-06T13:37:13.721Z</time></trkpt><trkpt lat="45.8754282" lon="11.6489496"><ele>715.0</ele><time>2026-04-06T13:37:14.879Z</time></trkpt><trkpt lat="45.8754764" lon="11.6488259"><ele>718.0</ele><time>2026-04-06T13:37:15.882Z</time></trkpt><trkpt lat="45.8755123" lon="11.6486913"><ele>721.0</ele><time>2026-04-06T13:37:16.885Z</time></trkpt><trkpt lat="45.8756162" lon="11.6485626"><ele>724.0</ele><time>2026-04-06T13:37:19.041Z</time></trkpt><trkpt lat="45.8756781" lon="11.6486659"><ele>731.5</ele><time>2026-04-06T13:37:20.718Z</time></trkpt><trkpt lat="45.8756767" lon="11.6487698"><ele>739.0</ele><time>2026-04-06T13:37:22.038Z</time></trkpt><trkpt lat="45.8756049" lon="11.6490241"><ele>746.5</ele><time>2026-04-06T13:37:23.723Z</time></trkpt><trkpt lat="45.8755329" lon="11.6491304"><ele>754.0</ele><time>2026-04-06T13:37:24.721Z</time></trkpt><trkpt lat="45.8754585" lon="11.6492082"><ele>754.0</ele><time>2026-04-06T13:37:25.715Z</time></trkpt><trkpt lat="45.8753782" lon="11.6492484"><ele>754.0</ele><time>2026-04-06T13:37:26.722Z</time></trkpt><trkpt lat="45.8752677" lon="11.6493445"><ele>754.0</ele><time>2026-04-06T13:37:27.71Z</time></trkpt><trkpt lat="45.8751572" lon="11.6494405"><ele>754.0</ele><time>2026-04-06T13:37:28.699Z</time></trkpt><trkpt lat="45.8756863" lon="11.650774"><ele>780.0</ele><time>2026-04-06T13:37:38.713Z</time></trkpt><trkpt lat="45.8745438" lon="11.6505595"><ele>874.0</ele><time>2026-04-06T13:37:39.878Z</time></trkpt><trkpt lat="45.8760575" lon="11.6505895"><ele>958.0</ele><time>2026-04-06T13:37:46.861Z</time></trkpt><trkpt lat="45.8771512" lon="11.6514299"><ele>831.0</ele><time>2026-04-06T13:37:47.874Z</time></trkpt><trkpt lat="45.876191" lon="11.6498144"><ele>831.0</ele><time>2026-04-06T13:37:51.693Z</time></trkpt><trkpt lat="45.876654" lon="11.6501645"><ele>754.0</ele><time>2026-04-06T13:37:54.695Z</time></trkpt><trkpt lat="45.8759328" lon="11.6493015"><ele>831.0</ele><time>2026-04-06T13:37:56.54Z</time></trkpt><trkpt lat="45.8767256" lon="11.6496994"><ele>814.0</ele><time>2026-04-06T13:37:58.699Z</time></trkpt><trkpt lat="45.8764457" lon="11.6493018"><ele>797.0</ele><time>2026-04-06T13:37:59.711Z</time></trkpt><trkpt lat="45.8770307" lon="11.6497658"><ele>934.0</ele><time>2026-04-06T13:38:00.864Z</time></trkpt><trkpt lat="45.8780852" lon="11.6501782"><ele>1048.0</ele><time>2026-04-06T13:38:05.698Z</time></trkpt><trkpt lat="45.8793718" lon="11.6504707"><ele>726.0</ele><time>2026-04-06T13:38:06.712Z</time></trkpt><trkpt lat="45.8766945" lon="11.6475797"><ele>726.0</ele><time>2026-04-06T13:38:11.695Z</time></trkpt><trkpt lat="45.8766553" lon="11.6478811"><ele>726.0</ele><time>2026-04-06T13:38:12.709Z</time></trkpt><trkpt lat="45.8764296" lon="11.6470528"><ele>763.0</ele><time>2026-04-06T13:38:14.7Z</time></trkpt><trkpt lat="45.8768707" lon="11.6475137"><ele>728.0</ele><time>2026-04-06T13:38:15.709Z</time></trkpt><trkpt lat="45.8768534" lon="11.6468402"><ele>1010.0</ele><time>2026-04-06T13:38:17.55Z</time></trkpt><trkpt lat="45.8797184" lon="11.6491572"><ele>1010.0</ele><time>2026-04-06T13:38:19.547Z</time></trkpt><trkpt lat="45.8798554" lon="11.6488805"><ele>1010.0</ele><time>2026-04-06T13:38:21.545Z</time></trkpt><trkpt lat="45.8782741" lon="11.6469312"><ele>1010.0</ele><time>2026-04-06T13:38:22.71Z</time></trkpt><trkpt lat="45.879589" lon="11.6489417"><ele>850.0</ele><time>2026-04-06T13:38:23.706Z</time></trkpt><trkpt lat="45.8786747" lon="11.647102"><ele>753.0</ele><time>2026-04-06T13:38:31.7Z</time></trkpt><trkpt lat="45.8783989" lon="11.6465327"><ele>772.5</ele><time>2026-04-06T13:38:33.858Z</time></trkpt><trkpt lat="45.8784395" lon="11.6462165"><ele>792.0</ele><time>2026-04-06T13:38:34.869Z</time></trkpt><trkpt lat="45.8809854" lon="11.6482506"><ele>1057.0</ele><time>2026-04-06T13:38:39.698Z</time></trkpt><trkpt lat="45.8826883" lon="11.6494658"><ele>972.0</ele><time>2026-04-06T13:38:41.696Z</time></trkpt><trkpt lat="45.8843231" lon="11.648291"><ele>989.0</ele><time>2026-04-06T13:38:54.549Z</time></trkpt><trkpt lat="45.8854011" lon="11.6490051"><ele>865.0</ele><time>2026-04-06T13:39:02.7Z</time></trkpt><trkpt lat="45.8807076" lon="11.641778"><ele>856.0</ele><time>2026-04-06T13:39:21.562Z</time></trkpt><trkpt lat="45.8809813" lon="11.6418034"><ele>847.0</ele><time>2026-04-06T13:39:33.545Z</time></trkpt><trkpt lat="45.8811046" lon="11.6420175"><ele>869.0</ele><time>2026-04-06T13:39:59.707Z</time></trkpt><trkpt lat="45.8813307" lon="11.6414722"><ele>891.0</ele><time>2026-04-06T13:40:06.695Z</time></trkpt><trkpt lat="45.8848622" lon="11.6407168"><ele>984.0</ele><time>2026-04-06T13:42:08.545Z</time></trkpt><trkpt lat="45.8847749" lon="11.6399092"><ele>935.0</ele><time>2026-04-06T13:42:09.557Z</time></trkpt><trkpt lat="45.8868237" lon="11.6405658"><ele>895.0</ele><time>2026-04-06T13:42:11.54Z</time></trkpt><trkpt lat="45.8856273" lon="11.6421784"><ele>895.0</ele><time>2026-04-06T13:42:17.543Z</time></trkpt><trkpt lat="45.8853021" lon="11.6423814"><ele>895.0</ele><time>2026-04-06T13:42:18.574Z</time></trkpt><trkpt lat="45.8858257" lon="11.6412382"><ele>931.0</ele><time>2026-04-06T13:42:21.542Z</time></trkpt><trkpt lat="45.886284" lon="11.6416946"><ele>958.0</ele><time>2026-04-06T13:42:22.555Z</time></trkpt><trkpt lat="45.8854645" lon="11.6403921"><ele>931.0</ele><time>2026-04-06T13:42:25.545Z</time></trkpt><trkpt lat="45.8860125" lon="11.6419483"><ele>897.0</ele><time>2026-04-06T13:42:28.546Z</time></trkpt><trkpt lat="45.8850605" lon="11.6423183"><ele>920.0</ele><time>2026-04-06T13:42:31.543Z</time></trkpt><trkpt lat="45.8875136" lon="11.6430794"><ele>920.0</ele><time>2026-04-06T13:42:32.553Z</time></trkpt><trkpt lat="45.8874739" lon="11.6428937"><ele>920.0</ele><time>2026-04-06T13:42:35.55Z</time></trkpt><trkpt lat="45.8846224" lon="11.6418215"><ele>998.0</ele><time>2026-04-06T13:42:38.544Z</time></trkpt><trkpt lat="45.8855732" lon="11.639275"><ele>998.0</ele><time>2026-04-06T13:42:55.552Z</time></trkpt><trkpt lat="45.8855034" lon="11.6393987"><ele>998.0</ele><time>2026-04-06T13:42:56.534Z</time></trkpt><trkpt lat="45.8857718" lon="11.6416679"><ele>932.0</ele><time>2026-04-06T13:43:10.548Z</time></trkpt><trkpt lat="45.8851872" lon="11.6418373"><ele>932.0</ele><time>2026-04-06T13:43:12.547Z</time></trkpt><trkpt lat="45.8851026" lon="11.6418498"><ele>932.0</ele><time>2026-04-06T13:43:17.554Z</time></trkpt><trkpt lat="45.8850532" lon="11.6417555"><ele>932.0</ele><time>2026-04-06T13:43:19.555Z</time></trkpt><trkpt lat="45.885452" lon="11.6418961"><ele>932.0</ele><time>2026-04-06T13:43:24.542Z</time></trkpt><trkpt lat="45.8855255" lon="11.6419909"><ele>932.0</ele><time>2026-04-06T13:43:27.55Z</time></trkpt><trkpt lat="45.8854784" lon="11.6417889"><ele>932.0</ele><time>2026-04-06T13:43:32.551Z</time></trkpt><trkpt lat="45.8853779" lon="11.6420664"><ele>900.0</ele><time>2026-04-06T13:43:35.555Z</time></trkpt><trkpt lat="45.8874494" lon="11.6424633"><ele>912.0</ele><time>2026-04-06T13:43:47.551Z</time></trkpt><trkpt lat="45.8882978" lon="11.6422709"><ele>912.0</ele><time>2026-04-06T13:43:54.565Z</time></trkpt><trkpt lat="45.8880184" lon="11.642046"><ele>912.0</ele><time>2026-04-06T13:43:56.569Z</time></trkpt><trkpt lat="45.8886763" lon="11.6423859"><ele>913.25</ele><time>2026-04-06T13:43:58.551Z</time></trkpt><trkpt lat="45.8887405" lon="11.642317"><ele>914.5</ele><time>2026-04-06T13:44:01.56Z</time></trkpt><trkpt lat="45.8885656" lon="11.6423201"><ele>915.75</ele><time>2026-04-06T13:44:04.571Z</time></trkpt><trkpt lat="45.8884694" lon="11.642429"><ele>917.0</ele><time>2026-04-06T13:44:11.571Z</time></trkpt><trkpt lat="45.888588" lon="11.6423698"><ele>917.0</ele><time>2026-04-06T13:44:15.567Z</time></trkpt><trkpt lat="45.888727" lon="11.642353"><ele>917.0</ele><time>2026-04-06T13:44:18.552Z</time></trkpt><trkpt lat="45.8885811" lon="11.6422923"><ele>917.0</ele><time>2026-04-06T13:44:19.566Z</time></trkpt><trkpt lat="45.888435" lon="11.6422933"><ele>917.0</ele><time>2026-04-06T13:44:21.555Z</time></trkpt><trkpt lat="45.8886436" lon="11.6421611"><ele>917.0</ele><time>2026-04-06T13:44:23.558Z</time></trkpt><trkpt lat="45.88836" lon="11.6421564"><ele>917.0</ele><time>2026-04-06T13:44:24.554Z</time></trkpt><trkpt lat="45.888539" lon="11.6421154"><ele>914.5</ele><time>2026-04-06T13:44:25.55Z</time></trkpt><trkpt lat="45.8883112" lon="11.6421662"><ele>912.0</ele><time>2026-04-06T13:44:26.563Z</time></trkpt><trkpt lat="45.8880171" lon="11.6422705"><ele>917.0</ele><time>2026-04-06T13:44:28.566Z</time></trkpt><trkpt lat="45.8888594" lon="11.6422542"><ele>917.0</ele><time>2026-04-06T13:44:29.553Z</time></trkpt><trkpt lat="45.8888562" lon="11.6424308"><ele>917.0</ele><time>2026-04-06T13:44:30.562Z</time></trkpt><trkpt lat="45.8888486" lon="11.6422974"><ele>917.0</ele><time>2026-04-06T13:44:31.556Z</time></trkpt><trkpt lat="45.8886928" lon="11.6423956"><ele>917.0</ele><time>2026-04-06T13:44:34.56Z</time></trkpt><trkpt lat="45.8882385" lon="11.6423771"><ele>917.0</ele><time>2026-04-06T13:44:35.566Z</time></trkpt><trkpt lat="45.8881433" lon="11.6423432"><ele>917.0</ele><time>2026-04-06T13:44:36.568Z</time></trkpt><trkpt lat="45.8888804" lon="11.6423604"><ele>917.0</ele><time>2026-04-06T13:44:37.57Z</time></trkpt><trkpt lat="45.8889442" lon="11.6422195"><ele>917.0</ele><time>2026-04-06T13:44:39.548Z</time></trkpt><trkpt lat="45.8887497" lon="11.6421964"><ele>917.0</ele><time>2026-04-06T13:44:40.576Z</time></trkpt><trkpt lat="45.8886704" lon="11.6423229"><ele>917.0</ele><time>2026-04-06T13:44:41.564Z</time></trkpt><trkpt lat="45.8888895" lon="11.6423292"><ele>917.0</ele><time>2026-04-06T13:44:42.562Z</time></trkpt><trkpt lat="45.8886375" lon="11.6423009"><ele>917.0</ele><time>2026-04-06T13:44:44.55Z</time></trkpt><trkpt lat="45.888951" lon="11.642258"><ele>917.0</ele><time>2026-04-06T13:44:45.572Z</time></trkpt><trkpt lat="45.888564" lon="11.6422644"><ele>917.0</ele><time>2026-04-06T13:44:47.575Z</time></trkpt><trkpt lat="45.8883149" lon="11.6421966"><ele>912.0</ele><time>2026-04-06T13:44:49.554Z</time></trkpt><trkpt lat="45.8878578" lon="11.6424291"><ele>932.0</ele><time>2026-04-06T13:44:50.557Z</time></trkpt><trkpt lat="45.8857762" lon="11.6412417"><ele>915.0</ele><time>2026-04-06T13:46:26.538Z</time></trkpt><trkpt lat="45.8868986" lon="11.6417114"><ele>915.0</ele><time>2026-04-06T13:46:27.565Z</time></trkpt><trkpt lat="45.8868171" lon="11.6416648"><ele>915.0</ele><time>2026-04-06T13:46:33.539Z</time></trkpt><trkpt lat="45.8868839" lon="11.6416834"><ele>915.0</ele><time>2026-04-06T13:46:35.532Z</time></trkpt><trkpt lat="45.8868779" lon="11.6415816"><ele>915.0</ele><time>2026-04-06T13:46:41.545Z</time></trkpt><trkpt lat="45.8864851" lon="11.6417773"><ele>935.0</ele><time>2026-04-06T13:46:44.565Z</time></trkpt><trkpt lat="45.886897" lon="11.6407631"><ele>958.0</ele><time>2026-04-06T13:46:47.555Z</time></trkpt><trkpt lat="45.8854194" lon="11.6410397"><ele>972.0</ele><time>2026-04-06T13:46:48.563Z</time></trkpt><trkpt lat="45.8843876" lon="11.6407263"><ele>948.0</ele><time>2026-04-06T13:46:50.562Z</time></trkpt><trkpt lat="45.8836715" lon="11.6411901"><ele>951.0</ele><time>2026-04-06T13:46:52.546Z</time></trkpt><trkpt lat="45.882025" lon="11.6405971"><ele>976.0</ele><time>2026-04-06T13:47:00.546Z</time></trkpt><trkpt lat="45.8859022" lon="11.6398369"><ele>976.0</ele><time>2026-04-06T13:47:20.553Z</time></trkpt><trkpt lat="45.8856845" lon="11.6397836"><ele>976.0</ele><time>2026-04-06T13:47:22.539Z</time></trkpt><trkpt lat="45.8881949" lon="11.6414946"><ele>900.0</ele><time>2026-04-06T13:47:26.569Z</time></trkpt><trkpt lat="45.8872687" lon="11.6422715"><ele>900.0</ele><time>2026-04-06T13:47:35.547Z</time></trkpt><trkpt lat="45.8871076" lon="11.6424993"><ele>900.0</ele><time>2026-04-06T13:47:37.536Z</time></trkpt><trkpt lat="45.8901011" lon="11.6399391"><ele>915.0</ele><time>2026-04-06T13:50:03.549Z</time></trkpt><trkpt lat="45.8900669" lon="11.6401471"><ele>930.0</ele><time>2026-04-06T13:50:05.552Z</time></trkpt><trkpt lat="45.889775" lon="11.6401693"><ele>945.0</ele><time>2026-04-06T13:50:06.558Z</time></trkpt><trkpt lat="45.8900802" lon="11.6401389"><ele>945.0</ele><time>2026-04-06T13:50:07.554Z</time></trkpt><trkpt lat="45.8902596" lon="11.6402476"><ele>945.0</ele><time>2026-04-06T13:50:08.554Z</time></trkpt><trkpt lat="45.8902139" lon="11.64011"><ele>945.0</ele><time>2026-04-06T13:50:09.556Z</time></trkpt><trkpt lat="45.8899378" lon="11.6401168"><ele>945.0</ele><time>2026-04-06T13:50:10.555Z</time></trkpt><trkpt lat="45.8899114" lon="11.6402038"><ele>945.0</ele><time>2026-04-06T13:50:17.557Z</time></trkpt><trkpt lat="45.8900424" lon="11.6402224"><ele>945.0</ele><time>2026-04-06T13:50:34.573Z</time></trkpt><trkpt lat="45.8901001" lon="11.6402694"><ele>945.0</ele><time>2026-04-06T13:50:47.548Z</time></trkpt><trkpt lat="45.8900816" lon="11.6404844"><ele>945.0</ele><time>2026-04-06T13:50:49.543Z</time></trkpt><trkpt lat="45.890028" lon="11.6406002"><ele>940.4</ele><time>2026-04-06T13:50:51.569Z</time></trkpt><trkpt lat="45.8901184" lon="11.6407277"><ele>935.8</ele><time>2026-04-06T13:50:59.632Z</time></trkpt><trkpt lat="45.8901649" lon="11.6408197"><ele>931.2</ele><time>2026-04-06T13:51:15.559Z</time></trkpt><trkpt lat="45.8902003" lon="11.6409285"><ele>926.6</ele><time>2026-04-06T13:51:19.574Z</time></trkpt><trkpt lat="45.8901546" lon="11.6410403"><ele>922.0</ele><time>2026-04-06T13:51:22.575Z</time></trkpt><trkpt lat="45.8901019" lon="11.6411185"><ele>921.9999999999999</ele><time>2026-04-06T13:51:24.556Z</time></trkpt><trkpt lat="45.8901426" lon="11.6411962"><ele>922.0</ele><time>2026-04-06T13:51:27.601Z</time></trkpt><trkpt lat="45.8902738" lon="11.6411737"><ele>922.0</ele><time>2026-04-06T13:51:29.557Z</time></trkpt><trkpt lat="45.890347" lon="11.6411607"><ele>922.0</ele><time>2026-04-06T13:51:30.565Z</time></trkpt><trkpt lat="45.8904118" lon="11.6411252"><ele>921.9999999999999</ele><time>2026-04-06T13:51:31.56Z</time></trkpt><trkpt lat="45.8904796" lon="11.6411035"><ele>922.0</ele><time>2026-04-06T13:51:32.556Z</time></trkpt><trkpt lat="45.8905861" lon="11.6410727"><ele>922.0</ele><time>2026-04-06T13:51:34.564Z</time></trkpt><trkpt lat="45.8906887" lon="11.6410905"><ele>922.0</ele><time>2026-04-06T13:51:36.585Z</time></trkpt><trkpt lat="45.8907694" lon="11.6411285"><ele>922.0</ele><time>2026-04-06T13:51:38.566Z</time></trkpt><trkpt lat="45.8908435" lon="11.6410906"><ele>922.0</ele><time>2026-04-06T13:51:40.604Z</time></trkpt><trkpt lat="45.8909185" lon="11.6410862"><ele>922.0</ele><time>2026-04-06T13:51:42.584Z</time></trkpt><trkpt lat="45.8910289" lon="11.641094"><ele>922.3333333333333</ele><time>2026-04-06T13:51:44.56Z</time></trkpt><trkpt lat="45.8911316" lon="11.6411051"><ele>922.6666666666666</ele><time>2026-04-06T13:51:46.561Z</time></trkpt><trkpt lat="45.8912231" lon="11.6411488"><ele>923.0</ele><time>2026-04-06T13:51:48.562Z</time></trkpt><trkpt lat="45.8912847" lon="11.6412174"><ele>923.3333333333333</ele><time>2026-04-06T13:51:53.565Z</time></trkpt><trkpt lat="45.8913729" lon="11.6412327"><ele>923.6666666666666</ele><time>2026-04-06T13:51:55.56Z</time></trkpt><trkpt lat="45.8914458" lon="11.641202"><ele>924.0</ele><time>2026-04-06T13:51:56.57Z</time></trkpt><trkpt lat="45.8915123" lon="11.6411681"><ele>924.0</ele><time>2026-04-06T13:51:57.559Z</time></trkpt><trkpt lat="45.8915788" lon="11.6411338"><ele>924.0000000000001</ele><time>2026-04-06T13:51:58.558Z</time></trkpt><trkpt lat="45.8916531" lon="11.6410959"><ele>924.0000000000001</ele><time>2026-04-06T13:51:59.552Z</time></trkpt><trkpt lat="45.8917275" lon="11.6410695"><ele>924.0</ele><time>2026-04-06T13:52:00.557Z</time></trkpt><trkpt lat="45.8918303" lon="11.6410519"><ele>924.0</ele><time>2026-04-06T13:52:01.556Z</time></trkpt><trkpt lat="45.8919574" lon="11.641045"><ele>924.75</ele><time>2026-04-06T13:52:02.562Z</time></trkpt><trkpt lat="45.8920882" lon="11.6410321"><ele>925.5</ele><time>2026-04-06T13:52:03.555Z</time></trkpt><trkpt lat="45.8922082" lon="11.6410293"><ele>926.25</ele><time>2026-04-06T13:52:04.559Z</time></trkpt><trkpt lat="45.8923242" lon="11.6409812"><ele>927.0</ele><time>2026-04-06T13:52:05.562Z</time></trkpt><trkpt lat="45.8924685" lon="11.6409495"><ele>924.25</ele><time>2026-04-06T13:52:06.561Z</time></trkpt><trkpt lat="45.8926123" lon="11.6409236"><ele>921.5</ele><time>2026-04-06T13:52:07.585Z</time></trkpt><trkpt lat="45.8927532" lon="11.6409292"><ele>918.75</ele><time>2026-04-06T13:52:08.561Z</time></trkpt><trkpt lat="45.8928622" lon="11.6409373"><ele>916.0</ele><time>2026-04-06T13:52:09.556Z</time></trkpt><trkpt lat="45.8929714" lon="11.6409204"><ele>916.0</ele><time>2026-04-06T13:52:10.564Z</time></trkpt><trkpt lat="45.8930729" lon="11.6408854"><ele>915.9999999999999</ele><time>2026-04-06T13:52:11.558Z</time></trkpt><trkpt lat="45.893179" lon="11.6408275"><ele>915.9999999999999</ele><time>2026-04-06T13:52:12.557Z</time></trkpt><trkpt lat="45.8932871" lon="11.6407789"><ele>916.0</ele><time>2026-04-06T13:52:13.579Z</time></trkpt><trkpt lat="45.8933827" lon="11.6407028"><ele>916.0</ele><time>2026-04-06T13:52:14.58Z</time></trkpt><trkpt lat="45.8934787" lon="11.6406078"><ele>917.0</ele><time>2026-04-06T13:52:15.554Z</time></trkpt><trkpt lat="45.8936042" lon="11.640456"><ele>918.0</ele><time>2026-04-06T13:52:16.557Z</time></trkpt><trkpt lat="45.8937387" lon="11.6403043"><ele>919.0</ele><time>2026-04-06T13:52:17.553Z</time></trkpt><trkpt lat="45.8938558" lon="11.6401384"><ele>922.8000000000001</ele><time>2026-04-06T13:52:18.555Z</time></trkpt><trkpt lat="45.8939413" lon="11.6399935"><ele>926.6000000000001</ele><time>2026-04-06T13:52:19.562Z</time></trkpt><trkpt lat="45.8940156" lon="11.6398724"><ele>930.4</ele><time>2026-04-06T13:52:20.583Z</time></trkpt><trkpt lat="45.8940673" lon="11.6397607"><ele>934.2</ele><time>2026-04-06T13:52:21.551Z</time></trkpt><trkpt lat="45.8941079" lon="11.6396492"><ele>938.0</ele><time>2026-04-06T13:52:22.576Z</time></trkpt><trkpt lat="45.8941564" lon="11.6395479"><ele>938.0000000000001</ele><time>2026-04-06T13:52:23.554Z</time></trkpt><trkpt lat="45.8942327" lon="11.6394942"><ele>938.0</ele><time>2026-04-06T13:52:24.552Z</time></trkpt><trkpt lat="45.8943053" lon="11.6394627"><ele>938.0</ele><time>2026-04-06T13:52:25.551Z</time></trkpt><trkpt lat="45.8943913" lon="11.6394578"><ele>938.0</ele><time>2026-04-06T13:52:26.576Z</time></trkpt><trkpt lat="45.8944686" lon="11.6394916"><ele>938.0000000000001</ele><time>2026-04-06T13:52:27.55Z</time></trkpt><trkpt lat="45.894555" lon="11.6395582"><ele>938.0</ele><time>2026-04-06T13:52:28.555Z</time></trkpt><trkpt lat="45.8946147" lon="11.6395996"><ele>937.6666666666667</ele><time>2026-04-06T13:52:29.545Z</time></trkpt><trkpt lat="45.8946775" lon="11.6396356"><ele>937.3333333333334</ele><time>2026-04-06T13:52:30.558Z</time></trkpt><trkpt lat="45.8947433" lon="11.6396865"><ele>937.0</ele><time>2026-04-06T13:52:31.549Z</time></trkpt><trkpt lat="45.8947978" lon="11.6397633"><ele>936.6666666666667</ele><time>2026-04-06T13:52:33.554Z</time></trkpt><trkpt lat="45.8948808" lon="11.639862"><ele>936.3333333333334</ele><time>2026-04-06T13:52:39.558Z</time></trkpt><trkpt lat="45.8949792" lon="11.639923"><ele>936.0</ele><time>2026-04-06T13:52:41.553Z</time></trkpt><trkpt lat="45.8950667" lon="11.6399337"><ele>935.0</ele><time>2026-04-06T13:52:42.554Z</time></trkpt><trkpt lat="45.8951661" lon="11.6399532"><ele>933.9999999999999</ele><time>2026-04-06T13:52:43.557Z</time></trkpt><trkpt lat="45.89527" lon="11.6399905"><ele>932.9999999999999</ele><time>2026-04-06T13:52:44.559Z</time></trkpt><trkpt lat="45.895369" lon="11.6400246"><ele>932.0</ele><time>2026-04-06T13:52:45.559Z</time></trkpt><trkpt lat="45.8954904" lon="11.6400262"><ele>931.0</ele><time>2026-04-06T13:52:46.55Z</time></trkpt><trkpt lat="45.8956231" lon="11.6399976"><ele>931.0</ele><time>2026-04-06T13:52:47.555Z</time></trkpt><trkpt lat="45.8957609" lon="11.63996"><ele>931.0</ele><time>2026-04-06T13:52:48.555Z</time></trkpt><trkpt lat="45.895875" lon="11.6398959"><ele>931.0</ele><time>2026-04-06T13:52:49.567Z</time></trkpt><trkpt lat="45.8959949" lon="11.6398276"><ele>931.0</ele><time>2026-04-06T13:52:50.571Z</time></trkpt><trkpt lat="45.8960895" lon="11.639732"><ele>934.0</ele><time>2026-04-06T13:52:51.555Z</time></trkpt><trkpt lat="45.8961727" lon="11.6396132"><ele>937.0</ele><time>2026-04-06T13:52:52.579Z</time></trkpt><trkpt lat="45.896252" lon="11.6394751"><ele>940.0</ele><time>2026-04-06T13:52:53.561Z</time></trkpt><trkpt lat="45.8963036" lon="11.6393048"><ele>943.0</ele><time>2026-04-06T13:52:54.557Z</time></trkpt><trkpt lat="45.8963306" lon="11.6390983"><ele>949.6666666666666</ele><time>2026-04-06T13:52:55.556Z</time></trkpt><trkpt lat="45.8963155" lon="11.6388515"><ele>956.3333333333333</ele><time>2026-04-06T13:52:56.562Z</time></trkpt><trkpt lat="45.8962699" lon="11.6385563"><ele>963.0</ele><time>2026-04-06T13:52:57.559Z</time></trkpt><trkpt lat="45.8962071" lon="11.6382618"><ele>969.0</ele><time>2026-04-06T13:52:58.556Z</time></trkpt><trkpt lat="45.8961472" lon="11.6379625"><ele>975.0</ele><time>2026-04-06T13:52:59.556Z</time></trkpt><trkpt lat="45.8960751" lon="11.6376662"><ele>981.0</ele><time>2026-04-06T13:53:00.556Z</time></trkpt><trkpt lat="45.8959909" lon="11.6373517"><ele>977.3333333333333</ele><time>2026-04-06T13:53:01.554Z</time></trkpt><trkpt lat="45.8959117" lon="11.6370567"><ele>973.6666666666666</ele><time>2026-04-06T13:53:02.565Z</time></trkpt><trkpt lat="45.8958764" lon="11.6367651"><ele>970.0</ele><time>2026-04-06T13:53:03.554Z</time></trkpt><trkpt lat="45.8958706" lon="11.6364752"><ele>970.0</ele><time>2026-04-06T13:53:04.553Z</time></trkpt><trkpt lat="45.8958756" lon="11.636194"><ele>970.0</ele><time>2026-04-06T13:53:05.555Z</time></trkpt><trkpt lat="45.8958891" lon="11.6359148"><ele>970.0</ele><time>2026-04-06T13:53:06.63Z</time></trkpt><trkpt lat="45.8959099" lon="11.6356607"><ele>972.6666666666666</ele><time>2026-04-06T13:53:07.548Z</time></trkpt><trkpt lat="45.8959178" lon="11.6354588"><ele>975.3333333333333</ele><time>2026-04-06T13:53:08.555Z</time></trkpt><trkpt lat="45.8959073" lon="11.6352764"><ele>978.0</ele><time>2026-04-06T13:53:09.712Z</time></trkpt><trkpt lat="45.8959608" lon="11.6349993"><ele>986.25</ele><time>2026-04-06T13:53:11.557Z</time></trkpt><trkpt lat="45.8960239" lon="11.6349135"><ele>994.5</ele><time>2026-04-06T13:53:12.549Z</time></trkpt><trkpt lat="45.8960627" lon="11.6348334"><ele>1002.75</ele><time>2026-04-06T13:53:13.632Z</time></trkpt><trkpt lat="45.8960349" lon="11.6350093"><ele>1011.0</ele><time>2026-04-06T13:53:24.877Z</time></trkpt><trkpt lat="45.8959473" lon="11.6352947"><ele>1011.3333333333333</ele><time>2026-04-06T13:53:26.711Z</time></trkpt><trkpt lat="45.8959374" lon="11.6354623"><ele>1011.6666666666666</ele><time>2026-04-06T13:53:27.869Z</time></trkpt><trkpt lat="45.8959695" lon="11.6358166"><ele>1012.0</ele><time>2026-04-06T13:53:29.873Z</time></trkpt><trkpt lat="45.8960147" lon="11.6362736"><ele>1010.0</ele><time>2026-04-06T13:53:31.699Z</time></trkpt><trkpt lat="45.8960251" lon="11.6365116"><ele>1008.0</ele><time>2026-04-06T13:53:32.713Z</time></trkpt><trkpt lat="45.8960267" lon="11.6367371"><ele>1006.0</ele><time>2026-04-06T13:53:33.708Z</time></trkpt><trkpt lat="45.8960381" lon="11.6369557"><ele>1004.0</ele><time>2026-04-06T13:53:34.709Z</time></trkpt><trkpt lat="45.8960662" lon="11.6371206"><ele>1002.0</ele><time>2026-04-06T13:53:35.71Z</time></trkpt><trkpt lat="45.8960799" lon="11.6372805"><ele>1000.0</ele><time>2026-04-06T13:53:36.871Z</time></trkpt><trkpt lat="45.8961235" lon="11.6375524"><ele>998.0</ele><time>2026-04-06T13:53:38.869Z</time></trkpt><trkpt lat="45.896193" lon="11.63769"><ele>998.0</ele><time>2026-04-06T13:53:40.556Z</time></trkpt><trkpt lat="45.8962093" lon="11.6377786"><ele>998.0</ele><time>2026-04-06T13:53:42.859Z</time></trkpt><trkpt lat="45.896182" lon="11.6376192"><ele>998.0</ele><time>2026-04-06T13:53:47.712Z</time></trkpt><trkpt lat="45.8961725" lon="11.637441"><ele>998.0</ele><time>2026-04-06T13:53:49.553Z</time></trkpt><trkpt lat="45.8961747" lon="11.6372996"><ele>998.0</ele><time>2026-04-06T13:53:50.709Z</time></trkpt><trkpt lat="45.8961963" lon="11.6370494"><ele>1000.0</ele><time>2026-04-06T13:53:52.713Z</time></trkpt><trkpt lat="45.8962191" lon="11.6368275"><ele>1002.0</ele><time>2026-04-06T13:53:54.557Z</time></trkpt><trkpt lat="45.8962358" lon="11.6367266"><ele>1004.0</ele><time>2026-04-06T13:53:55.55Z</time></trkpt><trkpt lat="45.896225" lon="11.636627"><ele>1006.0</ele><time>2026-04-06T13:53:56.711Z</time></trkpt><trkpt lat="45.8962141" lon="11.6364007"><ele>1006.0</ele><time>2026-04-06T13:53:58.553Z</time></trkpt><trkpt lat="45.8962549" lon="11.6362987"><ele>1005.9999999999999</ele><time>2026-04-06T13:53:59.554Z</time></trkpt><trkpt lat="45.8962555" lon="11.6361924"><ele>1005.9999999999999</ele><time>2026-04-06T13:54:00.559Z</time></trkpt><trkpt lat="45.8962817" lon="11.6360552"><ele>1006.0</ele><time>2026-04-06T13:54:02.551Z</time></trkpt><trkpt lat="45.8962482" lon="11.6358731"><ele>1006.0</ele><time>2026-04-06T13:54:04.553Z</time></trkpt><trkpt lat="45.896259" lon="11.6357412"><ele>1007.0</ele><time>2026-04-06T13:54:05.55Z</time></trkpt><trkpt lat="45.8962362" lon="11.6356479"><ele>1007.9999999999999</ele><time>2026-04-06T13:54:06.555Z</time></trkpt><trkpt lat="45.8962122" lon="11.6355043"><ele>1008.9999999999999</ele><time>2026-04-06T13:54:08.559Z</time></trkpt><trkpt lat="45.8961837" lon="11.6353418"><ele>1010.0</ele><time>2026-04-06T13:54:10.71Z</time></trkpt><trkpt lat="45.8961896" lon="11.6351692"><ele>1011.0</ele><time>2026-04-06T13:54:12.712Z</time></trkpt><trkpt lat="45.8962426" lon="11.6350465"><ele>1011.0</ele><time>2026-04-06T13:54:15.029Z</time></trkpt><trkpt lat="45.8963361" lon="11.6348975"><ele>1010.9999999999999</ele><time>2026-04-06T13:54:16.558Z</time></trkpt><trkpt lat="45.8963795" lon="11.6348233"><ele>1010.9999999999999</ele><time>2026-04-06T13:54:17.716Z</time></trkpt><trkpt lat="45.8964208" lon="11.6347446"><ele>1011.0</ele><time>2026-04-06T13:54:19.032Z</time></trkpt><trkpt lat="45.8964976" lon="11.6346068"><ele>1011.0</ele><time>2026-04-06T13:54:20.875Z</time></trkpt><trkpt lat="45.8965742" lon="11.6344428"><ele>1011.0</ele><time>2026-04-06T13:54:22.873Z</time></trkpt><trkpt lat="45.8966409" lon="11.6343409"><ele>1011.0</ele><time>2026-04-06T13:54:24.554Z</time></trkpt><trkpt lat="45.8966715" lon="11.6344238"><ele>1011.0</ele><time>2026-04-06T13:54:45.86Z</time></trkpt><trkpt lat="45.8966458" lon="11.6345617"><ele>1011.0</ele><time>2026-04-06T13:54:49.709Z</time></trkpt><trkpt lat="45.8966277" lon="11.6346513"><ele>1011.0</ele><time>2026-04-06T13:54:52.852Z</time></trkpt><trkpt lat="45.8965734" lon="11.6347988"><ele>1011.0</ele><time>2026-04-06T13:54:55.698Z</time></trkpt><trkpt lat="45.8965266" lon="11.634932"><ele>1011.0</ele><time>2026-04-06T13:54:57.85Z</time></trkpt><trkpt lat="45.8965017" lon="11.6350583"><ele>1011.0</ele><time>2026-04-06T13:54:59.858Z</time></trkpt><trkpt lat="45.8964818" lon="11.6351881"><ele>1011.0</ele><time>2026-04-06T13:55:01.702Z</time></trkpt><trkpt lat="45.8964638" lon="11.6352819"><ele>1011.0</ele><time>2026-04-06T13:55:02.717Z</time></trkpt><trkpt lat="45.8964347" lon="11.6353722"><ele>1011.0</ele><time>2026-04-06T13:55:04.87Z</time></trkpt><trkpt lat="45.8963924" lon="11.6354495"><ele>1011.0</ele><time>2026-04-06T13:55:07.871Z</time></trkpt><trkpt lat="45.8963417" lon="11.6355422"><ele>1011.1666666666666</ele><time>2026-04-06T13:55:10.873Z</time></trkpt><trkpt lat="45.8962998" lon="11.6356288"><ele>1011.3333333333333</ele><time>2026-04-06T13:55:13.713Z</time></trkpt><trkpt lat="45.8963068" lon="11.6357223"><ele>1011.5</ele><time>2026-04-06T13:55:15.718Z</time></trkpt><trkpt lat="45.8963254" lon="11.6358713"><ele>1011.6666666666666</ele><time>2026-04-06T13:55:17.71Z</time></trkpt><trkpt lat="45.8963514" lon="11.6359876"><ele>1011.8333333333333</ele><time>2026-04-06T13:55:19.556Z</time></trkpt><trkpt lat="45.8963594" lon="11.6361237"><ele>1012.0</ele><time>2026-04-06T13:55:21.556Z</time></trkpt><trkpt lat="45.8963705" lon="11.6362785"><ele>1010.5</ele><time>2026-04-06T13:55:23.709Z</time></trkpt><trkpt lat="45.8964382" lon="11.6364209"><ele>1009.0</ele><time>2026-04-06T13:55:25.551Z</time></trkpt><trkpt lat="45.8965069" lon="11.6365645"><ele>1007.5</ele><time>2026-04-06T13:55:28.553Z</time></trkpt><trkpt lat="45.8965359" lon="11.6367738"><ele>1006.0</ele><time>2026-04-06T13:55:31.549Z</time></trkpt><trkpt lat="45.8965638" lon="11.6369245"><ele>1004.0</ele><time>2026-04-06T13:55:33.548Z</time></trkpt><trkpt lat="45.8965735" lon="11.6370664"><ele>1002.0</ele><time>2026-04-06T13:55:36.033Z</time></trkpt><trkpt lat="45.8966076" lon="11.6371956"><ele>1000.0</ele><time>2026-04-06T13:55:37.714Z</time></trkpt><trkpt lat="45.8965935" lon="11.6373411"><ele>998.0</ele><time>2026-04-06T13:55:40.109Z</time></trkpt><trkpt lat="45.8965357" lon="11.6375593"><ele>998.0</ele><time>2026-04-06T13:55:42.036Z</time></trkpt><trkpt lat="45.896563" lon="11.6377428"><ele>998.0</ele><time>2026-04-06T13:55:43.876Z</time></trkpt><trkpt lat="45.8966229" lon="11.6379925"><ele>998.0</ele><time>2026-04-06T13:55:47.864Z</time></trkpt><trkpt lat="45.8967003" lon="11.6380986"><ele>998.0</ele><time>2026-04-06T13:55:50.032Z</time></trkpt><trkpt lat="45.8967487" lon="11.6382023"><ele>993.75</ele><time>2026-04-06T13:55:51.718Z</time></trkpt><trkpt lat="45.8967328" lon="11.638424"><ele>989.5</ele><time>2026-04-06T13:55:55.027Z</time></trkpt><trkpt lat="45.8967298" lon="11.6385607"><ele>985.25</ele><time>2026-04-06T13:55:57.181Z</time></trkpt><trkpt lat="45.8967432" lon="11.6386534"><ele>981.0</ele><time>2026-04-06T13:55:58.184Z</time></trkpt><trkpt lat="45.8967521" lon="11.6388505"><ele>979.8</ele><time>2026-04-06T13:56:00.023Z</time></trkpt><trkpt lat="45.8967501" lon="11.6389691"><ele>978.5999999999999</ele><time>2026-04-06T13:56:01.033Z</time></trkpt><trkpt lat="45.8967564" lon="11.6390769"><ele>977.4</ele><time>2026-04-06T13:56:02.185Z</time></trkpt><trkpt lat="45.8967519" lon="11.6392947"><ele>976.2</ele><time>2026-04-06T13:56:04.026Z</time></trkpt><trkpt lat="45.8967526" lon="11.6393989"><ele>975.0</ele><time>2026-04-06T13:56:05.032Z</time></trkpt><trkpt lat="45.8967477" lon="11.6395053"><ele>967.75</ele><time>2026-04-06T13:56:06.025Z</time></trkpt><trkpt lat="45.8967274" lon="11.6397437"><ele>960.5</ele><time>2026-04-06T13:56:09.185Z</time></trkpt><trkpt lat="45.8967283" lon="11.6398894"><ele>953.25</ele><time>2026-04-06T13:56:10.883Z</time></trkpt><trkpt lat="45.896743" lon="11.6400234"><ele>946.0</ele><time>2026-04-06T13:56:12.876Z</time></trkpt><trkpt lat="45.8967879" lon="11.6402008"><ele>944.1666666666666</ele><time>2026-04-06T13:56:15.717Z</time></trkpt><trkpt lat="45.8968145" lon="11.6403166"><ele>942.3333333333333</ele><time>2026-04-06T13:56:23.714Z</time></trkpt><trkpt lat="45.8968447" lon="11.640404"><ele>940.5</ele><time>2026-04-06T13:56:27.715Z</time></trkpt><trkpt lat="45.896903" lon="11.6405459"><ele>938.6666666666667</ele><time>2026-04-06T13:56:31.553Z</time></trkpt><trkpt lat="45.89698" lon="11.6405609"><ele>936.8333333333334</ele><time>2026-04-06T13:56:33.861Z</time></trkpt><trkpt lat="45.897055" lon="11.6405631"><ele>935.0</ele><time>2026-04-06T13:56:34.861Z</time></trkpt><trkpt lat="45.8972493" lon="11.6405026"><ele>935.0</ele><time>2026-04-06T13:56:36.558Z</time></trkpt><trkpt lat="45.8974039" lon="11.6404494"><ele>935.0</ele><time>2026-04-06T13:56:37.557Z</time></trkpt><trkpt lat="45.89751" lon="11.640417"><ele>935.0</ele><time>2026-04-06T13:56:38.557Z</time></trkpt><trkpt lat="45.8977198" lon="11.6403804"><ele>935.0</ele><time>2026-04-06T13:56:39.72Z</time></trkpt><trkpt lat="45.8979449" lon="11.6403512"><ele>935.0</ele><time>2026-04-06T13:56:40.718Z</time></trkpt><trkpt lat="45.898144" lon="11.6403439"><ele>935.0</ele><time>2026-04-06T13:56:41.717Z</time></trkpt><trkpt lat="45.8986171" lon="11.64029"><ele>937.0</ele><time>2026-04-06T13:56:43.715Z</time></trkpt><trkpt lat="45.8989838" lon="11.6403596"><ele>939.0</ele><time>2026-04-06T13:56:45.873Z</time></trkpt><trkpt lat="45.8991261" lon="11.6404099"><ele>944.3333333333333</ele><time>2026-04-06T13:56:46.867Z</time></trkpt><trkpt lat="45.8992871" lon="11.6404417"><ele>949.6666666666666</ele><time>2026-04-06T13:56:47.781Z</time></trkpt><trkpt lat="45.8995504" lon="11.6403883"><ele>955.0</ele><time>2026-04-06T13:56:49.554Z</time></trkpt><trkpt lat="45.8996754" lon="11.6403686"><ele>954.3333333333333</ele><time>2026-04-06T13:56:50.715Z</time></trkpt><trkpt lat="45.8999333" lon="11.6402646"><ele>953.6666666666667</ele><time>2026-04-06T13:56:52.56Z</time></trkpt><trkpt lat="45.9000712" lon="11.6402063"><ele>953.0</ele><time>2026-04-06T13:56:53.559Z</time></trkpt><trkpt lat="45.9001698" lon="11.6401433"><ele>954.6666666666667</ele><time>2026-04-06T13:56:54.71Z</time></trkpt><trkpt lat="45.9003459" lon="11.6400148"><ele>956.3333333333333</ele><time>2026-04-06T13:56:55.71Z</time></trkpt><trkpt lat="45.9004847" lon="11.6399325"><ele>958.0</ele><time>2026-04-06T13:56:56.878Z</time></trkpt><trkpt lat="45.9006602" lon="11.6397882"><ele>958.0</ele><time>2026-04-06T13:56:58.455Z</time></trkpt><trkpt lat="45.9006732" lon="11.6396643"><ele>958.0</ele><time>2026-04-06T13:56:59.612Z</time></trkpt><trkpt lat="45.9008093" lon="11.6395565"><ele>958.0</ele><time>2026-04-06T13:57:00.612Z</time></trkpt><trkpt lat="45.9009348" lon="11.6394465"><ele>958.0</ele><time>2026-04-06T13:57:01.615Z</time></trkpt><trkpt lat="45.9010579" lon="11.6393238"><ele>961.3333333333333</ele><time>2026-04-06T13:57:02.616Z</time></trkpt><trkpt lat="45.901208" lon="11.63928"><ele>964.6666666666667</ele><time>2026-04-06T13:57:03.613Z</time></trkpt><trkpt lat="45.9013464" lon="11.6392503"><ele>968.0</ele><time>2026-04-06T13:57:04.608Z</time></trkpt><trkpt lat="45.9016508" lon="11.6391677"><ele>971.0</ele><time>2026-04-06T13:57:06.455Z</time></trkpt><trkpt lat="45.9018079" lon="11.6390999"><ele>974.0</ele><time>2026-04-06T13:57:07.922Z</time></trkpt><trkpt lat="45.902055" lon="11.6388907"><ele>974.0</ele><time>2026-04-06T13:57:09.77Z</time></trkpt><trkpt lat="45.9021692" lon="11.6387744"><ele>974.0</ele><time>2026-04-06T13:57:10.768Z</time></trkpt><trkpt lat="45.9024044" lon="11.638444"><ele>975.0</ele><time>2026-04-06T13:57:12.612Z</time></trkpt><trkpt lat="45.9024951" lon="11.6383478"><ele>976.0</ele><time>2026-04-06T13:57:13.765Z</time></trkpt><trkpt lat="45.9025476" lon="11.6382435"><ele>977.0</ele><time>2026-04-06T13:57:14.926Z</time></trkpt><trkpt lat="45.9026461" lon="11.6381271"><ele>978.0</ele><time>2026-04-06T13:57:16.083Z</time></trkpt><trkpt lat="45.9029734" lon="11.6376969"><ele>983.2</ele><time>2026-04-06T13:57:18.395Z</time></trkpt><trkpt lat="45.9030704" lon="11.6375677"><ele>988.4</ele><time>2026-04-06T13:57:19.556Z</time></trkpt><trkpt lat="45.9031308" lon="11.6374772"><ele>993.6000000000001</ele><time>2026-04-06T13:57:20.552Z</time></trkpt><trkpt lat="45.9031868" lon="11.6374152"><ele>998.8000000000001</ele><time>2026-04-06T13:57:21.463Z</time></trkpt><trkpt lat="45.9032875" lon="11.6373503"><ele>1004.0</ele><time>2026-04-06T13:57:23.103Z</time></trkpt><trkpt lat="45.9034071" lon="11.6373797"><ele>1003.6666666666667</ele><time>2026-04-06T13:57:25.213Z</time></trkpt><trkpt lat="45.9035709" lon="11.6376006"><ele>1003.3333333333333</ele><time>2026-04-06T13:57:27.708Z</time></trkpt><trkpt lat="45.9036757" lon="11.6378444"><ele>1003.0</ele><time>2026-04-06T13:57:30.018Z</time></trkpt><trkpt lat="45.9037266" lon="11.6379845"><ele>1003.0</ele><time>2026-04-06T13:57:31.028Z</time></trkpt><trkpt lat="45.9038142" lon="11.638213"><ele>1003.0</ele><time>2026-04-06T13:57:32.863Z</time></trkpt><trkpt lat="45.9039141" lon="11.6383321"><ele>1003.0</ele><time>2026-04-06T13:57:34.702Z</time></trkpt><trkpt lat="45.9039909" lon="11.638377"><ele>1003.0</ele><time>2026-04-06T13:57:35.86Z</time></trkpt><trkpt lat="45.9040736" lon="11.6384086"><ele>1003.0</ele><time>2026-04-06T13:57:36.861Z</time></trkpt><trkpt lat="45.904152" lon="11.6384251"><ele>1003.0</ele><time>2026-04-06T13:57:37.868Z</time></trkpt><trkpt lat="45.9043112" lon="11.6383349"><ele>1003.0</ele><time>2026-04-06T13:57:39.709Z</time></trkpt><trkpt lat="45.9043973" lon="11.6382469"><ele>1003.0</ele><time>2026-04-06T13:57:40.709Z</time></trkpt><trkpt lat="45.9045974" lon="11.638076"><ele>1009.3333333333333</ele><time>2026-04-06T13:57:42.711Z</time></trkpt><trkpt lat="45.9048326" lon="11.6379282"><ele>1015.6666666666667</ele><time>2026-04-06T13:57:44.71Z</time></trkpt><trkpt lat="45.90497" lon="11.6378702"><ele>1022.0</ele><time>2026-04-06T13:57:45.71Z</time></trkpt><trkpt lat="45.9052442" lon="11.63773"><ele>1029.6666666666667</ele><time>2026-04-06T13:57:47.557Z</time></trkpt><trkpt lat="45.9054306" lon="11.6377062"><ele>1037.3333333333333</ele><time>2026-04-06T13:57:48.551Z</time></trkpt><trkpt lat="45.9055822" lon="11.6376219"><ele>1045.0</ele><time>2026-04-06T13:57:49.708Z</time></trkpt><trkpt lat="45.9057259" lon="11.6374859"><ele>1061.5</ele><time>2026-04-06T13:57:50.71Z</time></trkpt><trkpt lat="45.9059216" lon="11.6373258"><ele>1078.0</ele><time>2026-04-06T13:57:51.87Z</time></trkpt><trkpt lat="45.9061876" lon="11.6370947"><ele>1078.0</ele><time>2026-04-06T13:57:53.693Z</time></trkpt><trkpt lat="45.9062775" lon="11.6370148"><ele>1078.0</ele><time>2026-04-06T13:57:54.855Z</time></trkpt><trkpt lat="45.9063345" lon="11.6369728"><ele>1078.0</ele><time>2026-04-06T13:57:55.84Z</time></trkpt><trkpt lat="45.9064001" lon="11.6368544"><ele>1078.0</ele><time>2026-04-06T13:57:57.176Z</time></trkpt><trkpt lat="45.9064911" lon="11.636778"><ele>1078.0</ele><time>2026-04-06T13:57:58.689Z</time></trkpt><trkpt lat="45.9065519" lon="11.6367355"><ele>1078.0</ele><time>2026-04-06T13:58:00.842Z</time></trkpt><trkpt lat="45.9065946" lon="11.6366422"><ele>1081.0</ele><time>2026-04-06T13:58:02.685Z</time></trkpt><trkpt lat="45.9066258" lon="11.636395"><ele>1084.0</ele><time>2026-04-06T13:58:05.528Z</time></trkpt><trkpt lat="45.9066315" lon="11.6362484"><ele>1087.0</ele><time>2026-04-06T13:58:07.687Z</time></trkpt><trkpt lat="45.9066234" lon="11.636132"><ele>1090.0</ele><time>2026-04-06T13:58:09.526Z</time></trkpt><trkpt lat="45.906554" lon="11.6361346"><ele>1093.0</ele><time>2026-04-06T13:58:16.869Z</time></trkpt><trkpt lat="45.9064913" lon="11.6361459"><ele>1093.0</ele><time>2026-04-06T13:58:34.701Z</time></trkpt><trkpt lat="45.9064261" lon="11.6362101"><ele>1093.0</ele><time>2026-04-06T13:58:39.553Z</time></trkpt><trkpt lat="45.9063952" lon="11.6363283"><ele>1093.0</ele><time>2026-04-06T13:58:42.536Z</time></trkpt><trkpt lat="45.9063798" lon="11.6364568"><ele>1093.0</ele><time>2026-04-06T13:58:45.711Z</time></trkpt><trkpt lat="45.9063786" lon="11.6365644"><ele>1093.0</ele><time>2026-04-06T13:58:47.552Z</time></trkpt><trkpt lat="45.9063566" lon="11.6366936"><ele>1093.0</ele><time>2026-04-06T13:58:49.846Z</time></trkpt><trkpt lat="45.906313" lon="11.6368078"><ele>1093.0</ele><time>2026-04-06T13:58:51.871Z</time></trkpt><trkpt lat="45.9061656" lon="11.636882"><ele>1093.0</ele><time>2026-04-06T13:58:53.7Z</time></trkpt><trkpt lat="45.9060592" lon="11.6368903"><ele>1093.0</ele><time>2026-04-06T13:58:54.846Z</time></trkpt><trkpt lat="45.9057843" lon="11.6369012"><ele>1083.25</ele><time>2026-04-06T13:58:56.534Z</time></trkpt><trkpt lat="45.9056738" lon="11.6369165"><ele>1073.5</ele><time>2026-04-06T13:58:57.543Z</time></trkpt><trkpt lat="45.9055352" lon="11.6369092"><ele>1063.75</ele><time>2026-04-06T13:58:58.55Z</time></trkpt><trkpt lat="45.9054191" lon="11.6369279"><ele>1054.0</ele><time>2026-04-06T13:58:59.552Z</time></trkpt><trkpt lat="45.9052882" lon="11.6369253"><ele>1051.5</ele><time>2026-04-06T13:59:01.027Z</time></trkpt><trkpt lat="45.9050494" lon="11.6368742"><ele>1049.0</ele><time>2026-04-06T13:59:02.713Z</time></trkpt><trkpt lat="45.9049634" lon="11.6368335"><ele>1046.5</ele><time>2026-04-06T13:59:03.87Z</time></trkpt><trkpt lat="45.9048855" lon="11.6367746"><ele>1044.0</ele><time>2026-04-06T13:59:04.863Z</time></trkpt><trkpt lat="45.9048274" lon="11.6366967"><ele>1044.0</ele><time>2026-04-06T13:59:05.867Z</time></trkpt><trkpt lat="45.9047353" lon="11.6364789"><ele>1044.0</ele><time>2026-04-06T13:59:07.552Z</time></trkpt><trkpt lat="45.9047065" lon="11.6363342"><ele>1044.0</ele><time>2026-04-06T13:59:08.867Z</time></trkpt><trkpt lat="45.9046788" lon="11.6361948"><ele>1044.0</ele><time>2026-04-06T13:59:09.873Z</time></trkpt><trkpt lat="45.9046892" lon="11.6360481"><ele>1051.0</ele><time>2026-04-06T13:59:10.872Z</time></trkpt><trkpt lat="45.9047081" lon="11.635915"><ele>1058.0</ele><time>2026-04-06T13:59:11.869Z</time></trkpt><trkpt lat="45.9047243" lon="11.6357949"><ele>1065.0</ele><time>2026-04-06T13:59:13.033Z</time></trkpt><trkpt lat="45.9048094" lon="11.6355502"><ele>1072.0</ele><time>2026-04-06T13:59:14.87Z</time></trkpt><trkpt lat="45.9048624" lon="11.6352907"><ele>1074.3333333333333</ele><time>2026-04-06T13:59:16.707Z</time></trkpt><trkpt lat="45.9048963" lon="11.6351181"><ele>1076.6666666666667</ele><time>2026-04-06T13:59:17.854Z</time></trkpt><trkpt lat="45.9048939" lon="11.6347586"><ele>1079.0</ele><time>2026-04-06T13:59:19.705Z</time></trkpt><trkpt lat="45.9049022" lon="11.6346109"><ele>1080.0</ele><time>2026-04-06T13:59:21.025Z</time></trkpt><trkpt lat="45.9049124" lon="11.6344653"><ele>1081.0</ele><time>2026-04-06T13:59:22.027Z</time></trkpt><trkpt lat="45.9049487" lon="11.6341449"><ele>1082.0</ele><time>2026-04-06T13:59:23.859Z</time></trkpt><trkpt lat="45.9049892" lon="11.6339702"><ele>1082.0</ele><time>2026-04-06T13:59:24.842Z</time></trkpt><trkpt lat="45.9050317" lon="11.6338056"><ele>1082.0</ele><time>2026-04-06T13:59:25.703Z</time></trkpt><trkpt lat="45.9051" lon="11.6336493"><ele>1082.0</ele><time>2026-04-06T13:59:26.701Z</time></trkpt><trkpt lat="45.9051597" lon="11.6335189"><ele>1082.0</ele><time>2026-04-06T13:59:27.69Z</time></trkpt><trkpt lat="45.9051881" lon="11.6333937"><ele>1084.75</ele><time>2026-04-06T13:59:28.846Z</time></trkpt><trkpt lat="45.905192" lon="11.633262"><ele>1087.5</ele><time>2026-04-06T13:59:29.862Z</time></trkpt><trkpt lat="45.9051742" lon="11.6329906"><ele>1090.25</ele><time>2026-04-06T13:59:31.705Z</time></trkpt><trkpt lat="45.9051605" lon="11.6328497"><ele>1093.0</ele><time>2026-04-06T13:59:32.696Z</time></trkpt><trkpt lat="45.9051011" lon="11.6325687"><ele>1096.8</ele><time>2026-04-06T13:59:34.715Z</time></trkpt><trkpt lat="45.9050676" lon="11.6324559"><ele>1100.6</ele><time>2026-04-06T13:59:35.716Z</time></trkpt><trkpt lat="45.905036" lon="11.6323438"><ele>1104.4</ele><time>2026-04-06T13:59:36.704Z</time></trkpt><trkpt lat="45.9049785" lon="11.6322739"><ele>1108.2</ele><time>2026-04-06T13:59:37.854Z</time></trkpt><trkpt lat="45.9048774" lon="11.6321218"><ele>1112.0</ele><time>2026-04-06T13:59:39.544Z</time></trkpt><trkpt lat="45.9048232" lon="11.6320461"><ele>1112.0</ele><time>2026-04-06T13:59:40.545Z</time></trkpt><trkpt lat="45.9047643" lon="11.6319817"><ele>1112.0</ele><time>2026-04-06T13:59:41.853Z</time></trkpt><trkpt lat="45.9047158" lon="11.6318889"><ele>1112.0</ele><time>2026-04-06T13:59:42.845Z</time></trkpt><trkpt lat="45.9046582" lon="11.631808"><ele>1112.0</ele><time>2026-04-06T13:59:43.86Z</time></trkpt><trkpt lat="45.9044701" lon="11.6317253"><ele>1112.0</ele><time>2026-04-06T13:59:45.859Z</time></trkpt><trkpt lat="45.9043553" lon="11.6317025"><ele>1110.3333333333335</ele><time>2026-04-06T13:59:46.856Z</time></trkpt><trkpt lat="45.9042412" lon="11.6316609"><ele>1108.6666666666667</ele><time>2026-04-06T13:59:48.018Z</time></trkpt><trkpt lat="45.9041347" lon="11.6315875"><ele>1107.0</ele><time>2026-04-06T13:59:49.02Z</time></trkpt><trkpt lat="45.9039421" lon="11.6313885"><ele>1107.0</ele><time>2026-04-06T13:59:50.864Z</time></trkpt><trkpt lat="45.903853" lon="11.6312535"><ele>1107.0</ele><time>2026-04-06T13:59:51.858Z</time></trkpt><trkpt lat="45.9037586" lon="11.6311155"><ele>1107.0</ele><time>2026-04-06T13:59:52.844Z</time></trkpt><trkpt lat="45.9035606" lon="11.6308704"><ele>1109.6666666666667</ele><time>2026-04-06T13:59:54.709Z</time></trkpt><trkpt lat="45.9034278" lon="11.6306219"><ele>1112.3333333333335</ele><time>2026-04-06T13:59:56.709Z</time></trkpt><trkpt lat="45.9033769" lon="11.630498"><ele>1115.0</ele><time>2026-04-06T13:59:57.712Z</time></trkpt><trkpt lat="45.9032538" lon="11.630257"><ele>1121.2</ele><time>2026-04-06T13:59:59.712Z</time></trkpt><trkpt lat="45.9031985" lon="11.6301933"><ele>1127.4</ele><time>2026-04-06T14:00:01.019Z</time></trkpt><trkpt lat="45.9030472" lon="11.630133"><ele>1133.6</ele><time>2026-04-06T14:00:02.527Z</time></trkpt><trkpt lat="45.9029624" lon="11.6301272"><ele>1139.8</ele><time>2026-04-06T14:00:03.542Z</time></trkpt><trkpt lat="45.9028658" lon="11.6301207"><ele>1146.0</ele><time>2026-04-06T14:00:04.557Z</time></trkpt><trkpt lat="45.9027632" lon="11.6301393"><ele>1146.0</ele><time>2026-04-06T14:00:05.541Z</time></trkpt><trkpt lat="45.9026787" lon="11.6301574"><ele>1146.0</ele><time>2026-04-06T14:00:06.54Z</time></trkpt><trkpt lat="45.9026368" lon="11.6302689"><ele>1146.0</ele><time>2026-04-06T14:00:32.017Z</time></trkpt><trkpt lat="45.9026918" lon="11.6303637"><ele>1146.0</ele><time>2026-04-06T14:00:34.191Z</time></trkpt><trkpt lat="45.9025137" lon="11.6302432"><ele>1132.6666666666667</ele><time>2026-04-06T14:00:58.044Z</time></trkpt><trkpt lat="45.9023806" lon="11.6302034"><ele>1119.3333333333335</ele><time>2026-04-06T14:01:00.194Z</time></trkpt><trkpt lat="45.9022048" lon="11.6301828"><ele>1106.0</ele><time>2026-04-06T14:01:02.037Z</time></trkpt><trkpt lat="45.9020153" lon="11.6301636"><ele>1106.0</ele><time>2026-04-06T14:01:04.186Z</time></trkpt><trkpt lat="45.9018331" lon="11.6301434"><ele>1106.0</ele><time>2026-04-06T14:01:05.869Z</time></trkpt><trkpt lat="45.9017458" lon="11.6301266"><ele>1106.0</ele><time>2026-04-06T14:01:07.187Z</time></trkpt><trkpt lat="45.9015657" lon="11.6300712"><ele>1102.0</ele><time>2026-04-06T14:01:09.034Z</time></trkpt><trkpt lat="45.9014652" lon="11.6300216"><ele>1098.0</ele><time>2026-04-06T14:01:10.183Z</time></trkpt><trkpt lat="45.9013743" lon="11.6299744"><ele>1094.0</ele><time>2026-04-06T14:01:11.189Z</time></trkpt><trkpt lat="45.9012959" lon="11.6299499"><ele>1090.0</ele><time>2026-04-06T14:01:12.195Z</time></trkpt><trkpt lat="45.9012209" lon="11.6299473"><ele>1086.0</ele><time>2026-04-06T14:01:15.322Z</time></trkpt><trkpt lat="45.9010636" lon="11.630008"><ele>1086.0</ele><time>2026-04-06T14:01:17.538Z</time></trkpt><trkpt lat="45.9011024" lon="11.6298745"><ele>1086.0</ele><time>2026-04-06T14:01:19.645Z</time></trkpt><trkpt lat="45.9011966" lon="11.6298383"><ele>1086.0</ele><time>2026-04-06T14:01:21.558Z</time></trkpt><trkpt lat="45.9012737" lon="11.6297829"><ele>1086.0</ele><time>2026-04-06T14:01:23.562Z</time></trkpt><trkpt lat="45.9012229" lon="11.6296953"><ele>1086.0</ele><time>2026-04-06T14:01:46.564Z</time></trkpt><trkpt lat="45.9011357" lon="11.6296568"><ele>1086.0</ele><time>2026-04-06T14:01:49.584Z</time></trkpt><trkpt lat="45.9010325" lon="11.6296693"><ele>1086.0</ele><time>2026-04-06T14:01:51.555Z</time></trkpt><trkpt lat="45.9008325" lon="11.6297297"><ele>1086.0</ele><time>2026-04-06T14:01:53.58Z</time></trkpt><trkpt lat="45.9006936" lon="11.6297511"><ele>1086.0</ele><time>2026-04-06T14:01:54.557Z</time></trkpt><trkpt lat="45.900564" lon="11.6297701"><ele>1084.6</ele><time>2026-04-06T14:01:55.561Z</time></trkpt><trkpt lat="45.9004432" lon="11.6298047"><ele>1083.1999999999998</ele><time>2026-04-06T14:01:56.563Z</time></trkpt><trkpt lat="45.9003279" lon="11.6298407"><ele>1081.8000000000002</ele><time>2026-04-06T14:01:57.557Z</time></trkpt><trkpt lat="45.90024" lon="11.6298508"><ele>1080.4</ele><time>2026-04-06T14:01:58.543Z</time></trkpt><trkpt lat="45.9001327" lon="11.6298361"><ele>1079.0</ele><time>2026-04-06T14:02:00.536Z</time></trkpt><trkpt lat="45.9000707" lon="11.6298101"><ele>1079.0</ele><time>2026-04-06T14:02:06.543Z</time></trkpt><trkpt lat="45.900009" lon="11.629785"><ele>1079.0</ele><time>2026-04-06T14:02:12.533Z</time></trkpt><trkpt lat="45.899954" lon="11.6297386"><ele>1079.0</ele><time>2026-04-06T14:02:19.528Z</time></trkpt><trkpt lat="45.8998582" lon="11.6297912"><ele>1079.0</ele><time>2026-04-06T14:02:25.546Z</time></trkpt><trkpt lat="45.8997188" lon="11.6298614"><ele>1079.0</ele><time>2026-04-06T14:02:27.572Z</time></trkpt><trkpt lat="45.8996134" lon="11.6298968"><ele>1079.0</ele><time>2026-04-06T14:02:28.551Z</time></trkpt><trkpt lat="45.8995036" lon="11.6299791"><ele>1079.0</ele><time>2026-04-06T14:02:29.567Z</time></trkpt><trkpt lat="45.8993657" lon="11.6300322"><ele>1079.0</ele><time>2026-04-06T14:02:30.549Z</time></trkpt><trkpt lat="45.8992275" lon="11.6300847"><ele>1079.0</ele><time>2026-04-06T14:02:31.552Z</time></trkpt><trkpt lat="45.899125" lon="11.630129"><ele>1080.6000000000001</ele><time>2026-04-06T14:02:32.554Z</time></trkpt><trkpt lat="45.8990157" lon="11.6301464"><ele>1082.2</ele><time>2026-04-06T14:02:33.546Z</time></trkpt><trkpt lat="45.8989118" lon="11.6301769"><ele>1083.8000000000002</ele><time>2026-04-06T14:02:34.576Z</time></trkpt><trkpt lat="45.8988189" lon="11.6302009"><ele>1085.4</ele><time>2026-04-06T14:02:35.571Z</time></trkpt><trkpt lat="45.8987341" lon="11.6302089"><ele>1087.0</ele><time>2026-04-06T14:02:36.545Z</time></trkpt><trkpt lat="45.8986704" lon="11.6302644"><ele>1088.0</ele><time>2026-04-06T14:02:37.545Z</time></trkpt><trkpt lat="45.8985431" lon="11.6303794"><ele>1089.0</ele><time>2026-04-06T14:02:39.552Z</time></trkpt><trkpt lat="45.898457" lon="11.6304098"><ele>1090.0</ele><time>2026-04-06T14:02:40.557Z</time></trkpt><trkpt lat="45.8983772" lon="11.6304444"><ele>1091.0</ele><time>2026-04-06T14:02:41.551Z</time></trkpt><trkpt lat="45.8982881" lon="11.6304615"><ele>1092.0</ele><time>2026-04-06T14:02:42.552Z</time></trkpt><trkpt lat="45.8981359" lon="11.6305"><ele>1092.0</ele><time>2026-04-06T14:02:44.549Z</time></trkpt><trkpt lat="45.8980223" lon="11.6304818"><ele>1092.0</ele><time>2026-04-06T14:02:45.572Z</time></trkpt><trkpt lat="45.8979112" lon="11.6304823"><ele>1092.0</ele><time>2026-04-06T14:02:46.55Z</time></trkpt><trkpt lat="45.8978012" lon="11.6304797"><ele>1092.0</ele><time>2026-04-06T14:02:47.552Z</time></trkpt><trkpt lat="45.8976959" lon="11.6304875"><ele>1092.0</ele><time>2026-04-06T14:02:48.551Z</time></trkpt><trkpt lat="45.897592" lon="11.6304937"><ele>1091.8333333333333</ele><time>2026-04-06T14:02:49.548Z</time></trkpt><trkpt lat="45.8975256" lon="11.6304933"><ele>1091.6666666666667</ele><time>2026-04-06T14:02:50.547Z</time></trkpt><trkpt lat="45.8974386" lon="11.6304665"><ele>1091.5</ele><time>2026-04-06T14:02:52.548Z</time></trkpt><trkpt lat="45.8974102" lon="11.630334"><ele>1091.3333333333335</ele><time>2026-04-06T14:02:54.568Z</time></trkpt><trkpt lat="45.8974366" lon="11.6302497"><ele>1091.1666666666667</ele><time>2026-04-06T14:02:55.576Z</time></trkpt><trkpt lat="45.8974792" lon="11.6301435"><ele>1091.0</ele><time>2026-04-06T14:02:56.54Z</time></trkpt><trkpt lat="45.897567" lon="11.6300079"><ele>1091.0</ele><time>2026-04-06T14:02:57.535Z</time></trkpt><trkpt lat="45.897674" lon="11.6298671"><ele>1091.0</ele><time>2026-04-06T14:02:58.53Z</time></trkpt><trkpt lat="45.8978144" lon="11.629697"><ele>1091.0</ele><time>2026-04-06T14:02:59.544Z</time></trkpt><trkpt lat="45.8979909" lon="11.6294953"><ele>1088.6666666666667</ele><time>2026-04-06T14:03:00.558Z</time></trkpt><trkpt lat="45.8981339" lon="11.6293"><ele>1086.3333333333333</ele><time>2026-04-06T14:03:01.541Z</time></trkpt><trkpt lat="45.898264" lon="11.6291192"><ele>1084.0</ele><time>2026-04-06T14:03:02.549Z</time></trkpt><trkpt lat="45.8983504" lon="11.628942"><ele>1084.0</ele><time>2026-04-06T14:03:03.575Z</time></trkpt><trkpt lat="45.8984479" lon="11.6288328"><ele>1084.0</ele><time>2026-04-06T14:03:04.546Z</time></trkpt><trkpt lat="45.8985437" lon="11.6286587"><ele>1084.0</ele><time>2026-04-06T14:03:05.543Z</time></trkpt><trkpt lat="45.898655" lon="11.6284981"><ele>1084.0</ele><time>2026-04-06T14:03:06.546Z</time></trkpt><trkpt lat="45.8987894" lon="11.6283455"><ele>1081.0</ele><time>2026-04-06T14:03:07.57Z</time></trkpt><trkpt lat="45.8989315" lon="11.6282359"><ele>1078.0</ele><time>2026-04-06T14:03:08.545Z</time></trkpt><trkpt lat="45.8990201" lon="11.6281166"><ele>1075.0</ele><time>2026-04-06T14:03:09.547Z</time></trkpt><trkpt lat="45.8991662" lon="11.6280254"><ele>1072.0</ele><time>2026-04-06T14:03:10.548Z</time></trkpt><trkpt lat="45.8993143" lon="11.6279594"><ele>1072.0</ele><time>2026-04-06T14:03:11.544Z</time></trkpt><trkpt lat="45.8994929" lon="11.6279283"><ele>1072.0</ele><time>2026-04-06T14:03:12.551Z</time></trkpt><trkpt lat="45.8996452" lon="11.6278897"><ele>1072.0</ele><time>2026-04-06T14:03:13.55Z</time></trkpt><trkpt lat="45.8997734" lon="11.6278334"><ele>1071.25</ele><time>2026-04-06T14:03:14.546Z</time></trkpt><trkpt lat="45.8998995" lon="11.6277533"><ele>1070.5</ele><time>2026-04-06T14:03:15.548Z</time></trkpt><trkpt lat="45.9000183" lon="11.6276875"><ele>1069.75</ele><time>2026-04-06T14:03:16.538Z</time></trkpt><trkpt lat="45.9001273" lon="11.6276233"><ele>1069.0</ele><time>2026-04-06T14:03:17.542Z</time></trkpt><trkpt lat="45.9002622" lon="11.6275694"><ele>1075.3333333333333</ele><time>2026-04-06T14:03:18.552Z</time></trkpt><trkpt lat="45.900367" lon="11.6274995"><ele>1081.6666666666665</ele><time>2026-04-06T14:03:19.551Z</time></trkpt><trkpt lat="45.9004379" lon="11.6274082"><ele>1088.0</ele><time>2026-04-06T14:03:20.548Z</time></trkpt><trkpt lat="45.9004823" lon="11.6273065"><ele>1094.3333333333333</ele><time>2026-04-06T14:03:21.57Z</time></trkpt><trkpt lat="45.9004907" lon="11.6271992"><ele>1100.6666666666667</ele><time>2026-04-06T14:03:22.571Z</time></trkpt><trkpt lat="45.9004827" lon="11.6270855"><ele>1107.0</ele><time>2026-04-06T14:03:23.548Z</time></trkpt><trkpt lat="45.9004523" lon="11.6269708"><ele>1107.0</ele><time>2026-04-06T14:03:24.55Z</time></trkpt><trkpt lat="45.9004175" lon="11.6268683"><ele>1107.0</ele><time>2026-04-06T14:03:25.585Z</time></trkpt><trkpt lat="45.9004005" lon="11.6267565"><ele>1107.0</ele><time>2026-04-06T14:03:26.553Z</time></trkpt><trkpt lat="45.9004195" lon="11.626637"><ele>1107.0</ele><time>2026-04-06T14:03:27.551Z</time></trkpt><trkpt lat="45.900433" lon="11.6264896"><ele>1107.0</ele><time>2026-04-06T14:03:28.554Z</time></trkpt><trkpt lat="45.9004371" lon="11.6263483"><ele>1107.0</ele><time>2026-04-06T14:03:29.549Z</time></trkpt><trkpt lat="45.900447" lon="11.6262022"><ele>1102.2</ele><time>2026-04-06T14:03:30.552Z</time></trkpt><trkpt lat="45.9004746" lon="11.6260549"><ele>1097.4</ele><time>2026-04-06T14:03:31.534Z</time></trkpt><trkpt lat="45.9004893" lon="11.6259198"><ele>1092.6</ele><time>2026-04-06T14:03:32.531Z</time></trkpt><trkpt lat="45.9005004" lon="11.6257976"><ele>1087.8</ele><time>2026-04-06T14:03:33.522Z</time></trkpt><trkpt lat="45.9005095" lon="11.6256788"><ele>1083.0</ele><time>2026-04-06T14:03:34.546Z</time></trkpt><trkpt lat="45.900524" lon="11.6255664"><ele>1083.0</ele><time>2026-04-06T14:03:35.534Z</time></trkpt><trkpt lat="45.9005364" lon="11.6254331"><ele>1083.0</ele><time>2026-04-06T14:03:36.528Z</time></trkpt><trkpt lat="45.9005545" lon="11.6252858"><ele>1083.0</ele><time>2026-04-06T14:03:37.55Z</time></trkpt><trkpt lat="45.900589" lon="11.6251381"><ele>1083.0</ele><time>2026-04-06T14:03:38.549Z</time></trkpt><trkpt lat="45.9006478" lon="11.6250062"><ele>1083.0</ele><time>2026-04-06T14:03:39.541Z</time></trkpt><trkpt lat="45.9007366" lon="11.6248898"><ele>1086.2</ele><time>2026-04-06T14:03:40.525Z</time></trkpt><trkpt lat="45.9008313" lon="11.6248318"><ele>1089.4</ele><time>2026-04-06T14:03:41.521Z</time></trkpt><trkpt lat="45.9009349" lon="11.6247794"><ele>1092.6000000000001</ele><time>2026-04-06T14:03:42.519Z</time></trkpt><trkpt lat="45.9010365" lon="11.6247302"><ele>1095.8</ele><time>2026-04-06T14:03:43.529Z</time></trkpt><trkpt lat="45.9011435" lon="11.6246905"><ele>1099.0</ele><time>2026-04-06T14:03:44.545Z</time></trkpt><trkpt lat="45.9012746" lon="11.6246619"><ele>1099.0</ele><time>2026-04-06T14:03:45.552Z</time></trkpt><trkpt lat="45.901406" lon="11.6246277"><ele>1099.0</ele><time>2026-04-06T14:03:46.546Z</time></trkpt><trkpt lat="45.9015189" lon="11.6245682"><ele>1099.0</ele><time>2026-04-06T14:03:47.535Z</time></trkpt><trkpt lat="45.901626" lon="11.6244875"><ele>1099.0</ele><time>2026-04-06T14:03:48.535Z</time></trkpt><trkpt lat="45.9016938" lon="11.6243778"><ele>1098.0</ele><time>2026-04-06T14:03:49.548Z</time></trkpt><trkpt lat="45.9017262" lon="11.6242376"><ele>1097.0</ele><time>2026-04-06T14:03:50.552Z</time></trkpt><trkpt lat="45.9017412" lon="11.6240802"><ele>1096.0</ele><time>2026-04-06T14:03:51.536Z</time></trkpt><trkpt lat="45.9017565" lon="11.623925"><ele>1095.0</ele><time>2026-04-06T14:03:52.547Z</time></trkpt><trkpt lat="45.9017709" lon="11.6237666"><ele>1094.0</ele><time>2026-04-06T14:03:53.536Z</time></trkpt><trkpt lat="45.9017889" lon="11.6236274"><ele>1109.6666666666667</ele><time>2026-04-06T14:03:54.617Z</time></trkpt><trkpt lat="45.9017995" lon="11.6234739"><ele>1125.3333333333333</ele><time>2026-04-06T14:03:55.627Z</time></trkpt><trkpt lat="45.9018022" lon="11.6233192"><ele>1141.0</ele><time>2026-04-06T14:03:56.727Z</time></trkpt><trkpt lat="45.9017669" lon="11.6228801"><ele>1146.0</ele><time>2026-04-06T14:03:58.58Z</time></trkpt><trkpt lat="45.9017549" lon="11.6225586"><ele>1151.0</ele><time>2026-04-06T14:03:59.559Z</time></trkpt><trkpt lat="45.9017509" lon="11.6222489"><ele>1156.0</ele><time>2026-04-06T14:04:00.526Z</time></trkpt><trkpt lat="45.9016979" lon="11.6219681"><ele>1139.0</ele><time>2026-04-06T14:04:01.531Z</time></trkpt><trkpt lat="45.9016218" lon="11.621736"><ele>1122.0</ele><time>2026-04-06T14:04:02.537Z</time></trkpt><trkpt lat="45.9015218" lon="11.6215328"><ele>1105.0</ele><time>2026-04-06T14:04:03.546Z</time></trkpt><trkpt lat="45.9014189" lon="11.6213969"><ele>1105.0</ele><time>2026-04-06T14:04:04.54Z</time></trkpt><trkpt lat="45.9012843" lon="11.6212652"><ele>1105.0</ele><time>2026-04-06T14:04:05.535Z</time></trkpt><trkpt lat="45.9011528" lon="11.6211669"><ele>1105.0</ele><time>2026-04-06T14:04:06.539Z</time></trkpt><trkpt lat="45.9010437" lon="11.6210236"><ele>1107.3333333333333</ele><time>2026-04-06T14:04:07.538Z</time></trkpt><trkpt lat="45.9009236" lon="11.6208409"><ele>1109.6666666666667</ele><time>2026-04-06T14:04:08.55Z</time></trkpt><trkpt lat="45.9007682" lon="11.6207042"><ele>1112.0</ele><time>2026-04-06T14:04:09.556Z</time></trkpt><trkpt lat="45.9006597" lon="11.6205574"><ele>1104.25</ele><time>2026-04-06T14:04:10.558Z</time></trkpt><trkpt lat="45.9005708" lon="11.6204152"><ele>1096.5</ele><time>2026-04-06T14:04:11.558Z</time></trkpt><trkpt lat="45.9004686" lon="11.6202561"><ele>1088.75</ele><time>2026-04-06T14:04:12.561Z</time></trkpt><trkpt lat="45.9003872" lon="11.6200902"><ele>1081.0</ele><time>2026-04-06T14:04:13.554Z</time></trkpt><trkpt lat="45.9002953" lon="11.6198932"><ele>1081.0</ele><time>2026-04-06T14:04:14.557Z</time></trkpt><trkpt lat="45.9001859" lon="11.6197508"><ele>1081.0</ele><time>2026-04-06T14:04:15.56Z</time></trkpt><trkpt lat="45.9000755" lon="11.6196562"><ele>1081.0</ele><time>2026-04-06T14:04:16.546Z</time></trkpt><trkpt lat="45.8999801" lon="11.6195288"><ele>1081.0</ele><time>2026-04-06T14:04:17.547Z</time></trkpt><trkpt lat="45.8999203" lon="11.6194128"><ele>1081.0</ele><time>2026-04-06T14:04:18.553Z</time></trkpt><trkpt lat="45.8998855" lon="11.6193241"><ele>1081.0</ele><time>2026-04-06T14:04:19.551Z</time></trkpt><trkpt lat="45.8998593" lon="11.6192405"><ele>1081.0</ele><time>2026-04-06T14:04:20.553Z</time></trkpt><trkpt lat="45.8998987" lon="11.6193514"><ele>1081.0</ele><time>2026-04-06T14:04:27.553Z</time></trkpt><trkpt lat="45.8999944" lon="11.6194774"><ele>1081.0</ele><time>2026-04-06T14:04:29.545Z</time></trkpt><trkpt lat="45.9000557" lon="11.6195803"><ele>1081.0</ele><time>2026-04-06T14:04:30.583Z</time></trkpt><trkpt lat="45.9001374" lon="11.6196863"><ele>1081.0</ele><time>2026-04-06T14:04:31.575Z</time></trkpt><trkpt lat="45.9002011" lon="11.619784"><ele>1081.0</ele><time>2026-04-06T14:04:32.576Z</time></trkpt><trkpt lat="45.9002599" lon="11.6198789"><ele>1081.0</ele><time>2026-04-06T14:04:33.549Z</time></trkpt><trkpt lat="45.9003085" lon="11.6199738"><ele>1081.0</ele><time>2026-04-06T14:04:34.561Z</time></trkpt><trkpt lat="45.9003534" lon="11.6200916"><ele>1081.0</ele><time>2026-04-06T14:04:35.577Z</time></trkpt><trkpt lat="45.9003849" lon="11.6202185"><ele>1079.1666666666665</ele><time>2026-04-06T14:04:36.554Z</time></trkpt><trkpt lat="45.900432" lon="11.6203469"><ele>1077.3333333333333</ele><time>2026-04-06T14:04:37.547Z</time></trkpt><trkpt lat="45.9004741" lon="11.6204506"><ele>1075.5</ele><time>2026-04-06T14:04:38.551Z</time></trkpt><trkpt lat="45.9005265" lon="11.6205538"><ele>1073.6666666666667</ele><time>2026-04-06T14:04:39.557Z</time></trkpt><trkpt lat="45.9005771" lon="11.6206392"><ele>1071.8333333333335</ele><time>2026-04-06T14:04:40.557Z</time></trkpt><trkpt lat="45.900605" lon="11.6207622"><ele>1070.0</ele><time>2026-04-06T14:04:42.558Z</time></trkpt><trkpt lat="45.9006417" lon="11.6209365"><ele>1070.0</ele><time>2026-04-06T14:04:46.556Z</time></trkpt><trkpt lat="45.9006654" lon="11.6210493"><ele>1070.0</ele><time>2026-04-06T14:04:48.548Z</time></trkpt><trkpt lat="45.9006854" lon="11.6211446"><ele>1070.0</ele><time>2026-04-06T14:04:50.555Z</time></trkpt><trkpt lat="45.9006827" lon="11.6212388"><ele>1070.0</ele><time>2026-04-06T14:04:53.621Z</time></trkpt><trkpt lat="45.9006251" lon="11.6213085"><ele>1070.0</ele><time>2026-04-06T14:04:55.548Z</time></trkpt><trkpt lat="45.9006529" lon="11.6214669"><ele>1070.0</ele><time>2026-04-06T14:04:57.594Z</time></trkpt><trkpt lat="45.9006567" lon="11.6215701"><ele>1067.5</ele><time>2026-04-06T14:04:58.576Z</time></trkpt><trkpt lat="45.9006541" lon="11.6216622"><ele>1065.0</ele><time>2026-04-06T14:04:59.552Z</time></trkpt><trkpt lat="45.9006777" lon="11.621784"><ele>1062.5</ele><time>2026-04-06T14:05:01.55Z</time></trkpt><trkpt lat="45.9005055" lon="11.6217147"><ele>1060.0</ele><time>2026-04-06T14:05:07.574Z</time></trkpt><trkpt lat="45.9003971" lon="11.6216402"><ele>1060.0</ele><time>2026-04-06T14:05:08.551Z</time></trkpt><trkpt lat="45.9003119" lon="11.621571"><ele>1060.0</ele><time>2026-04-06T14:05:09.561Z</time></trkpt><trkpt lat="45.9002093" lon="11.6214788"><ele>1060.0</ele><time>2026-04-06T14:05:10.564Z</time></trkpt><trkpt lat="45.9001162" lon="11.6213707"><ele>1060.0</ele><time>2026-04-06T14:05:11.551Z</time></trkpt><trkpt lat="45.900009" lon="11.6212575"><ele>1055.0</ele><time>2026-04-06T14:05:12.549Z</time></trkpt><trkpt lat="45.8998742" lon="11.6210966"><ele>1050.0</ele><time>2026-04-06T14:05:13.551Z</time></trkpt><trkpt lat="45.8998129" lon="11.6210176"><ele>1045.0</ele><time>2026-04-06T14:05:14.576Z</time></trkpt><trkpt lat="45.899729" lon="11.6209717"><ele>1040.0</ele><time>2026-04-06T14:05:16.555Z</time></trkpt><trkpt lat="45.8997106" lon="11.6210781"><ele>1035.0</ele><time>2026-04-06T14:05:19.574Z</time></trkpt><trkpt lat="45.8997487" lon="11.6211663"><ele>1033.4285714285713</ele><time>2026-04-06T14:05:20.549Z</time></trkpt><trkpt lat="45.8997715" lon="11.6212709"><ele>1031.857142857143</ele><time>2026-04-06T14:05:21.55Z</time></trkpt><trkpt lat="45.8997891" lon="11.6213791"><ele>1030.2857142857142</ele><time>2026-04-06T14:05:22.551Z</time></trkpt><trkpt lat="45.8998099" lon="11.6214798"><ele>1028.7142857142858</ele><time>2026-04-06T14:05:23.551Z</time></trkpt><trkpt lat="45.8998407" lon="11.6215641"><ele>1027.142857142857</ele><time>2026-04-06T14:05:24.55Z</time></trkpt><trkpt lat="45.8998837" lon="11.6216308"><ele>1025.5714285714284</ele><time>2026-04-06T14:05:25.562Z</time></trkpt><trkpt lat="45.8999204" lon="11.6217131"><ele>1024.0</ele><time>2026-04-06T14:05:27.55Z</time></trkpt><trkpt lat="45.899819" lon="11.6217301"><ele>1024.0</ele><time>2026-04-06T14:05:30.571Z</time></trkpt><trkpt lat="45.8997627" lon="11.6216679"><ele>1024.0</ele><time>2026-04-06T14:05:31.548Z</time></trkpt><trkpt lat="45.8996792" lon="11.6215672"><ele>1024.0</ele><time>2026-04-06T14:05:32.545Z</time></trkpt><trkpt lat="45.8996014" lon="11.6214873"><ele>1024.0</ele><time>2026-04-06T14:05:33.546Z</time></trkpt><trkpt lat="45.8995262" lon="11.6214076"><ele>1024.0</ele><time>2026-04-06T14:05:34.545Z</time></trkpt><trkpt lat="45.8994332" lon="11.6213315"><ele>1024.0</ele><time>2026-04-06T14:05:35.553Z</time></trkpt><trkpt lat="45.8993454" lon="11.6212516"><ele>1024.0</ele><time>2026-04-06T14:05:36.55Z</time></trkpt><trkpt lat="45.8992562" lon="11.6211784"><ele>1024.0</ele><time>2026-04-06T14:05:37.532Z</time></trkpt><trkpt lat="45.8991607" lon="11.6210979"><ele>1024.0</ele><time>2026-04-06T14:05:38.54Z</time></trkpt><trkpt lat="45.899084" lon="11.6210211"><ele>1024.0</ele><time>2026-04-06T14:05:39.55Z</time></trkpt><trkpt lat="45.8990227" lon="11.6209562"><ele>1021.9999999999999</ele><time>2026-04-06T14:05:40.547Z</time></trkpt><trkpt lat="45.8989573" lon="11.6208909"><ele>1020.0</ele><time>2026-04-06T14:05:41.55Z</time></trkpt><trkpt lat="45.8989123" lon="11.6208186"><ele>1018.0</ele><time>2026-04-06T14:05:42.552Z</time></trkpt><trkpt lat="45.8988466" lon="11.6207461"><ele>1016.0</ele><time>2026-04-06T14:05:43.702Z</time></trkpt><trkpt lat="45.8988732" lon="11.6208497"><ele>1013.9999999999999</ele><time>2026-04-06T14:05:48.708Z</time></trkpt><trkpt lat="45.8989183" lon="11.6209647"><ele>1012.0</ele><time>2026-04-06T14:05:49.705Z</time></trkpt><trkpt lat="45.8989649" lon="11.6210858"><ele>1008.0</ele><time>2026-04-06T14:05:50.71Z</time></trkpt><trkpt lat="45.8990259" lon="11.6212136"><ele>1004.0</ele><time>2026-04-06T14:05:51.868Z</time></trkpt><trkpt lat="45.8990831" lon="11.621323"><ele>1000.0</ele><time>2026-04-06T14:05:52.864Z</time></trkpt><trkpt lat="45.8991213" lon="11.6214686"><ele>996.0</ele><time>2026-04-06T14:05:53.863Z</time></trkpt><trkpt lat="45.8992226" lon="11.6217579"><ele>996.0</ele><time>2026-04-06T14:05:55.872Z</time></trkpt><trkpt lat="45.8993156" lon="11.6219305"><ele>996.0</ele><time>2026-04-06T14:05:57.552Z</time></trkpt><trkpt lat="45.8993714" lon="11.6219924"><ele>996.0</ele><time>2026-04-06T14:05:59.868Z</time></trkpt><trkpt lat="45.8992607" lon="11.6219626"><ele>996.0</ele><time>2026-04-06T14:06:02.869Z</time></trkpt><trkpt lat="45.8991557" lon="11.6218575"><ele>996.0</ele><time>2026-04-06T14:06:04.551Z</time></trkpt><trkpt lat="45.899084" lon="11.6217921"><ele>995.9999999999999</ele><time>2026-04-06T14:06:05.708Z</time></trkpt><trkpt lat="45.8990095" lon="11.6217262"><ele>995.9999999999999</ele><time>2026-04-06T14:06:07.012Z</time></trkpt><trkpt lat="45.8989436" lon="11.6216711"><ele>996.0</ele><time>2026-04-06T14:06:08.174Z</time></trkpt><trkpt lat="45.8988183" lon="11.6214742"><ele>996.0</ele><time>2026-04-06T14:06:09.71Z</time></trkpt><trkpt lat="45.8987548" lon="11.6213538"><ele>1001.3333333333333</ele><time>2026-04-06T14:06:10.859Z</time></trkpt><trkpt lat="45.8986039" lon="11.6210724"><ele>1006.6666666666666</ele><time>2026-04-06T14:06:12.551Z</time></trkpt><trkpt lat="45.8985113" lon="11.6209235"><ele>1012.0</ele><time>2026-04-06T14:06:13.552Z</time></trkpt><trkpt lat="45.8984363" lon="11.6207924"><ele>1009.8333333333333</ele><time>2026-04-06T14:06:14.55Z</time></trkpt><trkpt lat="45.898372" lon="11.620673"><ele>1007.6666666666666</ele><time>2026-04-06T14:06:15.548Z</time></trkpt><trkpt lat="45.8983255" lon="11.6205695"><ele>1005.5</ele><time>2026-04-06T14:06:16.549Z</time></trkpt><trkpt lat="45.8982832" lon="11.6204748"><ele>1003.3333333333333</ele><time>2026-04-06T14:06:17.553Z</time></trkpt><trkpt lat="45.8982781" lon="11.620381"><ele>1001.1666666666666</ele><time>2026-04-06T14:06:18.717Z</time></trkpt><trkpt lat="45.8982398" lon="11.6202741"><ele>999.0</ele><time>2026-04-06T14:06:20.863Z</time></trkpt><trkpt lat="45.8982467" lon="11.6204805"><ele>996.5</ele><time>2026-04-06T14:06:25.016Z</time></trkpt><trkpt lat="45.8982719" lon="11.6206123"><ele>994.0</ele><time>2026-04-06T14:06:26.026Z</time></trkpt><trkpt lat="45.8982923" lon="11.6207611"><ele>991.5</ele><time>2026-04-06T14:06:27.015Z</time></trkpt><trkpt lat="45.898297" lon="11.6209087"><ele>989.0</ele><time>2026-04-06T14:06:28.017Z</time></trkpt><trkpt lat="45.8982811" lon="11.6211943"><ele>987.0</ele><time>2026-04-06T14:06:29.871Z</time></trkpt><trkpt lat="45.8982777" lon="11.6213224"><ele>985.0000000000001</ele><time>2026-04-06T14:06:31.029Z</time></trkpt><trkpt lat="45.8982733" lon="11.6214341"><ele>983.0000000000001</ele><time>2026-04-06T14:06:32.338Z</time></trkpt><trkpt lat="45.8983002" lon="11.6215816"><ele>981.0</ele><time>2026-04-06T14:06:33.871Z</time></trkpt><trkpt lat="45.8983959" lon="11.621776"><ele>979.0</ele><time>2026-04-06T14:06:36.551Z</time></trkpt><trkpt lat="45.8983668" lon="11.6216916"><ele>979.0</ele><time>2026-04-06T14:06:42.556Z</time></trkpt><trkpt lat="45.8983208" lon="11.6215449"><ele>979.0</ele><time>2026-04-06T14:06:43.709Z</time></trkpt><trkpt lat="45.8982565" lon="11.6212473"><ele>979.0</ele><time>2026-04-06T14:06:45.704Z</time></trkpt><trkpt lat="45.8981648" lon="11.6209553"><ele>981.0</ele><time>2026-04-06T14:06:47.548Z</time></trkpt><trkpt lat="45.8981121" lon="11.6208451"><ele>983.0000000000001</ele><time>2026-04-06T14:06:48.547Z</time></trkpt><trkpt lat="45.8980492" lon="11.62075"><ele>985.0000000000001</ele><time>2026-04-06T14:06:49.55Z</time></trkpt><trkpt lat="45.8979683" lon="11.6206554"><ele>987.0</ele><time>2026-04-06T14:06:50.704Z</time></trkpt><trkpt lat="45.8978947" lon="11.6205852"><ele>989.0</ele><time>2026-04-06T14:06:51.866Z</time></trkpt><trkpt lat="45.8977954" lon="11.6205665"><ele>989.0</ele><time>2026-04-06T14:06:54.024Z</time></trkpt><trkpt lat="45.8977318" lon="11.6207085"><ele>989.0000000000001</ele><time>2026-04-06T14:06:55.713Z</time></trkpt><trkpt lat="45.8976941" lon="11.620811"><ele>989.0000000000001</ele><time>2026-04-06T14:06:56.864Z</time></trkpt><trkpt lat="45.8976653" lon="11.6209388"><ele>989.0</ele><time>2026-04-06T14:06:57.865Z</time></trkpt><trkpt lat="45.8976576" lon="11.6210804"><ele>989.0</ele><time>2026-04-06T14:06:59.019Z</time></trkpt><trkpt lat="45.8976602" lon="11.621236"><ele>987.0</ele><time>2026-04-06T14:07:00.027Z</time></trkpt><trkpt lat="45.8976704" lon="11.6213647"><ele>985.0000000000001</ele><time>2026-04-06T14:07:01.023Z</time></trkpt><trkpt lat="45.8976681" lon="11.6216222"><ele>983.0000000000001</ele><time>2026-04-06T14:07:02.871Z</time></trkpt><trkpt lat="45.8976731" lon="11.6217382"><ele>981.0</ele><time>2026-04-06T14:07:03.867Z</time></trkpt><trkpt lat="45.897669" lon="11.6218477"><ele>979.0</ele><time>2026-04-06T14:07:05.034Z</time></trkpt><trkpt lat="45.897668" lon="11.6221034"><ele>975.0</ele><time>2026-04-06T14:07:07.022Z</time></trkpt><trkpt lat="45.8976768" lon="11.6222322"><ele>971.0</ele><time>2026-04-06T14:07:08.192Z</time></trkpt><trkpt lat="45.8977481" lon="11.6225368"><ele>967.0</ele><time>2026-04-06T14:07:10.026Z</time></trkpt><trkpt lat="45.8978576" lon="11.6227956"><ele>965.8333333333333</ele><time>2026-04-06T14:07:11.594Z</time></trkpt><trkpt lat="45.8979017" lon="11.6229148"><ele>964.6666666666666</ele><time>2026-04-06T14:07:12.591Z</time></trkpt><trkpt lat="45.8979221" lon="11.6230442"><ele>963.5</ele><time>2026-04-06T14:07:13.571Z</time></trkpt><trkpt lat="45.8979466" lon="11.6231433"><ele>962.3333333333333</ele><time>2026-04-06T14:07:14.575Z</time></trkpt><trkpt lat="45.8979687" lon="11.6232528"><ele>961.1666666666666</ele><time>2026-04-06T14:07:15.548Z</time></trkpt><trkpt lat="45.8980018" lon="11.6233589"><ele>960.0</ele><time>2026-04-06T14:07:16.547Z</time></trkpt><trkpt lat="45.8980328" lon="11.6234587"><ele>960.0</ele><time>2026-04-06T14:07:17.55Z</time></trkpt><trkpt lat="45.8980732" lon="11.6235547"><ele>960.0</ele><time>2026-04-06T14:07:18.538Z</time></trkpt><trkpt lat="45.8981052" lon="11.6236482"><ele>960.0</ele><time>2026-04-06T14:07:19.53Z</time></trkpt><trkpt lat="45.8981193" lon="11.62374"><ele>960.0</ele><time>2026-04-06T14:07:20.534Z</time></trkpt><trkpt lat="45.8981149" lon="11.6238791"><ele>960.0</ele><time>2026-04-06T14:07:22.527Z</time></trkpt><trkpt lat="45.8980472" lon="11.6239631"><ele>960.0</ele><time>2026-04-06T14:07:24.538Z</time></trkpt><trkpt lat="45.897969" lon="11.6240706"><ele>960.7142857142858</ele><time>2026-04-06T14:07:26.539Z</time></trkpt><trkpt lat="45.8979129" lon="11.6241226"><ele>961.4285714285713</ele><time>2026-04-06T14:07:27.546Z</time></trkpt><trkpt lat="45.8978566" lon="11.6241778"><ele>962.1428571428571</ele><time>2026-04-06T14:07:28.549Z</time></trkpt><trkpt lat="45.8977988" lon="11.6242558"><ele>962.8571428571429</ele><time>2026-04-06T14:07:29.55Z</time></trkpt><trkpt lat="45.8977436" lon="11.6243083"><ele>963.5714285714287</ele><time>2026-04-06T14:07:30.556Z</time></trkpt><trkpt lat="45.897687" lon="11.6243495"><ele>964.2857142857142</ele><time>2026-04-06T14:07:31.558Z</time></trkpt><trkpt lat="45.8976319" lon="11.6244047"><ele>965.0</ele><time>2026-04-06T14:07:32.568Z</time></trkpt><trkpt lat="45.897552" lon="11.6245201"><ele>965.0</ele><time>2026-04-06T14:07:34.558Z</time></trkpt><trkpt lat="45.8974432" lon="11.6246269"><ele>965.0</ele><time>2026-04-06T14:07:36.546Z</time></trkpt><trkpt lat="45.8973608" lon="11.6246543"><ele>965.0</ele><time>2026-04-06T14:07:37.538Z</time></trkpt><trkpt lat="45.8972904" lon="11.6246813"><ele>965.0</ele><time>2026-04-06T14:07:38.572Z</time></trkpt><trkpt lat="45.8972098" lon="11.6247111"><ele>965.0</ele><time>2026-04-06T14:07:39.553Z</time></trkpt><trkpt lat="45.8971339" lon="11.6247346"><ele>965.0</ele><time>2026-04-06T14:07:40.527Z</time></trkpt><trkpt lat="45.8970702" lon="11.624733"><ele>965.0</ele><time>2026-04-06T14:07:41.526Z</time></trkpt><trkpt lat="45.8969554" lon="11.6247331"><ele>965.0</ele><time>2026-04-06T14:07:43.531Z</time></trkpt><trkpt lat="45.8968725" lon="11.6247046"><ele>965.0</ele><time>2026-04-06T14:07:59.554Z</time></trkpt><trkpt lat="45.8969528" lon="11.6245645"><ele>965.0</ele><time>2026-04-06T14:08:01.548Z</time></trkpt><trkpt lat="45.8970418" lon="11.624479"><ele>961.6666666666667</ele><time>2026-04-06T14:08:02.547Z</time></trkpt><trkpt lat="45.8971051" lon="11.6243964"><ele>958.3333333333334</ele><time>2026-04-06T14:08:03.55Z</time></trkpt><trkpt lat="45.8971666" lon="11.6243258"><ele>955.0</ele><time>2026-04-06T14:08:04.549Z</time></trkpt><trkpt lat="45.8971283" lon="11.6242157"><ele>951.6666666666667</ele><time>2026-04-06T14:08:07.572Z</time></trkpt><trkpt lat="45.8970595" lon="11.6241943"><ele>948.3333333333334</ele><time>2026-04-06T14:08:08.568Z</time></trkpt><trkpt lat="45.896991" lon="11.6241575"><ele>945.0</ele><time>2026-04-06T14:08:09.548Z</time></trkpt><trkpt lat="45.8969049" lon="11.6241645"><ele>945.0</ele><time>2026-04-06T14:08:10.547Z</time></trkpt><trkpt lat="45.8968272" lon="11.6241498"><ele>945.0</ele><time>2026-04-06T14:08:11.569Z</time></trkpt><trkpt lat="45.8967333" lon="11.6241393"><ele>945.0</ele><time>2026-04-06T14:08:12.548Z</time></trkpt><trkpt lat="45.8966369" lon="11.6241409"><ele>945.0</ele><time>2026-04-06T14:08:13.55Z</time></trkpt><trkpt lat="45.8965344" lon="11.6241414"><ele>945.0</ele><time>2026-04-06T14:08:14.592Z</time></trkpt><trkpt lat="45.8964375" lon="11.6241271"><ele>941.4</ele><time>2026-04-06T14:08:15.552Z</time></trkpt><trkpt lat="45.8963435" lon="11.6240889"><ele>937.8</ele><time>2026-04-06T14:08:16.55Z</time></trkpt><trkpt lat="45.8962323" lon="11.6240547"><ele>934.2</ele><time>2026-04-06T14:08:17.545Z</time></trkpt><trkpt lat="45.8961379" lon="11.6240281"><ele>930.6</ele><time>2026-04-06T14:08:18.546Z</time></trkpt><trkpt lat="45.8960425" lon="11.6240036"><ele>927.0</ele><time>2026-04-06T14:08:19.567Z</time></trkpt><trkpt lat="45.8959515" lon="11.6239775"><ele>925.0</ele><time>2026-04-06T14:08:20.549Z</time></trkpt><trkpt lat="45.8958565" lon="11.6239454"><ele>923.0</ele><time>2026-04-06T14:08:21.547Z</time></trkpt><trkpt lat="45.8957546" lon="11.6239109"><ele>921.0</ele><time>2026-04-06T14:08:22.547Z</time></trkpt><trkpt lat="45.8956547" lon="11.6238783"><ele>919.0</ele><time>2026-04-06T14:08:23.551Z</time></trkpt><trkpt lat="45.8955579" lon="11.6238528"><ele>917.0</ele><time>2026-04-06T14:08:24.547Z</time></trkpt><trkpt lat="45.8954729" lon="11.6238143"><ele>917.0000000000001</ele><time>2026-04-06T14:08:25.547Z</time></trkpt><trkpt lat="45.8953885" lon="11.623754"><ele>917.0</ele><time>2026-04-06T14:08:26.63Z</time></trkpt><trkpt lat="45.8953033" lon="11.6236808"><ele>917.0</ele><time>2026-04-06T14:08:27.549Z</time></trkpt><trkpt lat="45.8952213" lon="11.6236248"><ele>917.0</ele><time>2026-04-06T14:08:28.577Z</time></trkpt><trkpt lat="45.8951407" lon="11.6235895"><ele>917.0000000000001</ele><time>2026-04-06T14:08:29.553Z</time></trkpt><trkpt lat="45.8950631" lon="11.6235649"><ele>917.0</ele><time>2026-04-06T14:08:30.552Z</time></trkpt><trkpt lat="45.8949811" lon="11.6235391"><ele>913.3333333333334</ele><time>2026-04-06T14:08:31.547Z</time></trkpt><trkpt lat="45.8948914" lon="11.6234962"><ele>909.6666666666667</ele><time>2026-04-06T14:08:32.552Z</time></trkpt><trkpt lat="45.8948033" lon="11.6234621"><ele>906.0</ele><time>2026-04-06T14:08:33.557Z</time></trkpt><trkpt lat="45.8947182" lon="11.6234333"><ele>902.3333333333333</ele><time>2026-04-06T14:08:34.552Z</time></trkpt><trkpt lat="45.8946389" lon="11.6234145"><ele>898.6666666666666</ele><time>2026-04-06T14:08:35.549Z</time></trkpt><trkpt lat="45.8945687" lon="11.6234138"><ele>895.0</ele><time>2026-04-06T14:08:36.545Z</time></trkpt><trkpt lat="45.8945044" lon="11.623388"><ele>895.0</ele><time>2026-04-06T14:08:37.532Z</time></trkpt><trkpt lat="45.8944145" lon="11.6232783"><ele>895.0</ele><time>2026-04-06T14:08:39.589Z</time></trkpt><trkpt lat="45.8943926" lon="11.6231886"><ele>895.0</ele><time>2026-04-06T14:08:40.573Z</time></trkpt><trkpt lat="45.8943786" lon="11.6230969"><ele>895.0</ele><time>2026-04-06T14:08:41.706Z</time></trkpt><trkpt lat="45.8943355" lon="11.6228964"><ele>895.0</ele><time>2026-04-06T14:08:43.546Z</time></trkpt><trkpt lat="45.8942927" lon="11.6227969"><ele>892.4999999999999</ele><time>2026-04-06T14:08:44.556Z</time></trkpt><trkpt lat="45.8942448" lon="11.6227038"><ele>890.0</ele><time>2026-04-06T14:08:45.55Z</time></trkpt><trkpt lat="45.8941954" lon="11.6226208"><ele>887.5</ele><time>2026-04-06T14:08:46.548Z</time></trkpt><trkpt lat="45.8941381" lon="11.6225437"><ele>885.0</ele><time>2026-04-06T14:08:47.552Z</time></trkpt><trkpt lat="45.8940784" lon="11.6224417"><ele>882.4999999999999</ele><time>2026-04-06T14:08:48.554Z</time></trkpt><trkpt lat="45.8940101" lon="11.6223353"><ele>880.0</ele><time>2026-04-06T14:08:49.707Z</time></trkpt><trkpt lat="45.8938781" lon="11.6220966"><ele>880.0</ele><time>2026-04-06T14:08:51.55Z</time></trkpt><trkpt lat="45.8938009" lon="11.6219939"><ele>880.0</ele><time>2026-04-06T14:08:52.706Z</time></trkpt><trkpt lat="45.8936772" lon="11.6218204"><ele>880.0</ele><time>2026-04-06T14:08:54.548Z</time></trkpt><trkpt lat="45.8936297" lon="11.6217355"><ele>880.0</ele><time>2026-04-06T14:08:55.552Z</time></trkpt><trkpt lat="45.8935921" lon="11.6216525"><ele>880.0</ele><time>2026-04-06T14:08:56.71Z</time></trkpt><trkpt lat="45.8935573" lon="11.6215669"><ele>880.3333333333333</ele><time>2026-04-06T14:08:57.71Z</time></trkpt><trkpt lat="45.8935027" lon="11.621399"><ele>880.6666666666666</ele><time>2026-04-06T14:08:59.555Z</time></trkpt><trkpt lat="45.8934879" lon="11.6213061"><ele>881.0</ele><time>2026-04-06T14:09:00.55Z</time></trkpt><trkpt lat="45.8934762" lon="11.6212136"><ele>881.3333333333333</ele><time>2026-04-06T14:09:01.576Z</time></trkpt><trkpt lat="45.8934537" lon="11.6211175"><ele>881.6666666666666</ele><time>2026-04-06T14:09:02.553Z</time></trkpt><trkpt lat="45.8934222" lon="11.6210338"><ele>882.0</ele><time>2026-04-06T14:09:03.552Z</time></trkpt><trkpt lat="45.893395" lon="11.6209508"><ele>881.0</ele><time>2026-04-06T14:09:04.556Z</time></trkpt><trkpt lat="45.8933702" lon="11.6208577"><ele>880.0</ele><time>2026-04-06T14:09:05.551Z</time></trkpt><trkpt lat="45.8933512" lon="11.6207651"><ele>879.0</ele><time>2026-04-06T14:09:06.575Z</time></trkpt><trkpt lat="45.8933421" lon="11.620575"><ele>878.0</ele><time>2026-04-06T14:09:08.557Z</time></trkpt><trkpt lat="45.8933585" lon="11.6204739"><ele>877.0</ele><time>2026-04-06T14:09:09.553Z</time></trkpt><trkpt lat="45.8933779" lon="11.6203875"><ele>876.0</ele><time>2026-04-06T14:09:10.582Z</time></trkpt><trkpt lat="45.8933786" lon="11.6202471"><ele>876.0</ele><time>2026-04-06T14:09:12.554Z</time></trkpt><trkpt lat="45.8933399" lon="11.6201382"><ele>876.0</ele><time>2026-04-06T14:09:14.551Z</time></trkpt><trkpt lat="45.8933195" lon="11.6200387"><ele>876.0</ele><time>2026-04-06T14:09:16.548Z</time></trkpt><trkpt lat="45.8934121" lon="11.619946"><ele>876.0</ele><time>2026-04-06T14:09:19.549Z</time></trkpt><trkpt lat="45.8934769" lon="11.619931"><ele>876.0</ele><time>2026-04-06T14:09:29.565Z</time></trkpt><trkpt lat="45.8935527" lon="11.6199083"><ele>876.0</ele><time>2026-04-06T14:09:49.562Z</time></trkpt><trkpt lat="45.8988732" lon="11.6208497"><ele>900.0</ele><time>2026-04-06T14:05:48.708Z</time></trkpt><trkpt lat="45.8989183" lon="11.6209647"><ele>923.9999999999999</ele><time>2026-04-06T14:05:49.705Z</time></trkpt><trkpt lat="45.8989649" lon="11.6210858"><ele>947.9999999999999</ele><time>2026-04-06T14:05:50.71Z</time></trkpt><trkpt lat="45.8990259" lon="11.6212136"><ele>972.0</ele><time>2026-04-06T14:05:51.868Z</time></trkpt><trkpt lat="45.8990831" lon="11.621323"><ele>996.0</ele><time>2026-04-06T14:05:52.864Z</time></trkpt><trkpt lat="45.8991213" lon="11.6214686"><ele>996.0</ele><time>2026-04-06T14:05:53.863Z</time></trkpt><trkpt lat="45.8992226" lon="11.6217579"><ele>996.0</ele><time>2026-04-06T14:05:55.872Z</time></trkpt><trkpt lat="45.8993156" lon="11.6219305"><ele>996.0</ele><time>2026-04-06T14:05:57.552Z</time></trkpt><trkpt lat="45.8993714" lon="11.6219924"><ele>996.0</ele><time>2026-04-06T14:05:59.868Z</time></trkpt><trkpt lat="45.8992607" lon="11.6219626"><ele>996.0</ele><time>2026-04-06T14:06:02.869Z</time></trkpt><trkpt lat="45.8991557" lon="11.6218575"><ele>995.9999999999999</ele><time>2026-04-06T14:06:04.551Z</time></trkpt><trkpt lat="45.899084" lon="11.6217921"><ele>995.9999999999999</ele><time>2026-04-06T14:06:05.708Z</time></trkpt><trkpt lat="45.8990095" lon="11.6217262"><ele>996.0</ele><time>2026-04-06T14:06:07.012Z</time></trkpt><trkpt lat="45.8989436" lon="11.6216711"><ele>996.0</ele><time>2026-04-06T14:06:08.174Z</time></trkpt><trkpt lat="45.8988183" lon="11.6214742"><ele>996.0</ele><time>2026-04-06T14:06:09.71Z</time></trkpt><trkpt lat="45.8987548" lon="11.6213538"><ele>996.0</ele><time>2026-04-06T14:06:10.859Z</time></trkpt><trkpt lat="45.8986039" lon="11.6210724"><ele>996.0</ele><time>2026-04-06T14:06:12.551Z</time></trkpt><trkpt lat="45.8985113" lon="11.6209235"><ele>994.5999999999999</ele><time>2026-04-06T14:06:13.552Z</time></trkpt><trkpt lat="45.8984363" lon="11.6207924"><ele>993.1999999999999</ele><time>2026-04-06T14:06:14.55Z</time></trkpt><trkpt lat="45.898372" lon="11.620673"><ele>991.8000000000001</ele><time>2026-04-06T14:06:15.548Z</time></trkpt><trkpt lat="45.8983255" lon="11.6205695"><ele>990.4000000000001</ele><time>2026-04-06T14:06:16.549Z</time></trkpt><trkpt lat="45.8982832" lon="11.6204748"><ele>989.0</ele><time>2026-04-06T14:06:17.553Z</time></trkpt><trkpt lat="45.8982781" lon="11.620381"><ele>989.0</ele><time>2026-04-06T14:06:18.717Z</time></trkpt><trkpt lat="45.8982398" lon="11.6202741"><ele>989.0000000000001</ele><time>2026-04-06T14:06:20.863Z</time></trkpt><trkpt lat="45.8982467" lon="11.6204805"><ele>989.0000000000001</ele><time>2026-04-06T14:06:25.016Z</time></trkpt><trkpt lat="45.8982719" lon="11.6206123"><ele>989.0</ele><time>2026-04-06T14:06:26.026Z</time></trkpt><trkpt lat="45.8982923" lon="11.6207611"><ele>989.0</ele><time>2026-04-06T14:06:27.015Z</time></trkpt><trkpt lat="45.898297" lon="11.6209087"><ele>986.5</ele><time>2026-04-06T14:06:28.017Z</time></trkpt><trkpt lat="45.8982811" lon="11.6211943"><ele>984.0</ele><time>2026-04-06T14:06:29.871Z</time></trkpt><trkpt lat="45.8982777" lon="11.6213224"><ele>981.5</ele><time>2026-04-06T14:06:31.029Z</time></trkpt><trkpt lat="45.8982733" lon="11.6214341"><ele>979.0</ele><time>2026-04-06T14:06:32.338Z</time></trkpt><trkpt lat="45.8983002" lon="11.6215816"><ele>979.0</ele><time>2026-04-06T14:06:33.871Z</time></trkpt><trkpt lat="45.8983959" lon="11.621776"><ele>979.0</ele><time>2026-04-06T14:06:36.551Z</time></trkpt><trkpt lat="45.8983668" lon="11.6216916"><ele>979.0</ele><time>2026-04-06T14:06:42.556Z</time></trkpt><trkpt lat="45.8983208" lon="11.6215449"><ele>979.0</ele><time>2026-04-06T14:06:43.709Z</time></trkpt><trkpt lat="45.8982565" lon="11.6212473"><ele>981.5</ele><time>2026-04-06T14:06:45.704Z</time></trkpt><trkpt lat="45.8981648" lon="11.6209553"><ele>984.0</ele><time>2026-04-06T14:06:47.548Z</time></trkpt><trkpt lat="45.8981121" lon="11.6208451"><ele>986.5</ele><time>2026-04-06T14:06:48.547Z</time></trkpt><trkpt lat="45.8980492" lon="11.62075"><ele>989.0</ele><time>2026-04-06T14:06:49.55Z</time></trkpt><trkpt lat="45.8979683" lon="11.6206554"><ele>989.0</ele><time>2026-04-06T14:06:50.704Z</time></trkpt><trkpt lat="45.8978947" lon="11.6205852"><ele>989.0000000000001</ele><time>2026-04-06T14:06:51.866Z</time></trkpt><trkpt lat="45.8977954" lon="11.6205665"><ele>989.0000000000001</ele><time>2026-04-06T14:06:54.024Z</time></trkpt><trkpt lat="45.8977318" lon="11.6207085"><ele>989.0</ele><time>2026-04-06T14:06:55.713Z</time></trkpt><trkpt lat="45.8976941" lon="11.620811"><ele>989.0</ele><time>2026-04-06T14:06:56.864Z</time></trkpt><trkpt lat="45.8976653" lon="11.6209388"><ele>989.0</ele><time>2026-04-06T14:06:57.865Z</time></trkpt><trkpt lat="45.8976576" lon="11.6210804"><ele>989.0</ele><time>2026-04-06T14:06:59.019Z</time></trkpt><trkpt lat="45.8976602" lon="11.621236"><ele>989.0</ele><time>2026-04-06T14:07:00.027Z</time></trkpt><trkpt lat="45.8976704" lon="11.6213647"><ele>989.0</ele><time>2026-04-06T14:07:01.023Z</time></trkpt><trkpt lat="45.8976681" lon="11.6216222"><ele>987.0</ele><time>2026-04-06T14:07:02.871Z</time></trkpt><trkpt lat="45.8976731" lon="11.6217382"><ele>985.0000000000001</ele><time>2026-04-06T14:07:03.867Z</time></trkpt><trkpt lat="45.897669" lon="11.6218477"><ele>983.0000000000001</ele><time>2026-04-06T14:07:05.034Z</time></trkpt><trkpt lat="45.897668" lon="11.6221034"><ele>981.0</ele><time>2026-04-06T14:07:07.022Z</time></trkpt><trkpt lat="45.8976768" lon="11.6222322"><ele>979.0</ele><time>2026-04-06T14:07:08.192Z</time></trkpt><trkpt lat="45.8977481" lon="11.6225368"><ele>976.0</ele><time>2026-04-06T14:07:10.026Z</time></trkpt><trkpt lat="45.8978576" lon="11.6227956"><ele>973.0</ele><time>2026-04-06T14:07:11.594Z</time></trkpt><trkpt lat="45.8979017" lon="11.6229148"><ele>970.0</ele><time>2026-04-06T14:07:12.591Z</time></trkpt><trkpt lat="45.8979221" lon="11.6230442"><ele>967.0</ele><time>2026-04-06T14:07:13.571Z</time></trkpt><trkpt lat="45.8979466" lon="11.6231433"><ele>967.3333333333333</ele><time>2026-04-06T14:07:14.575Z</time></trkpt><trkpt lat="45.8979687" lon="11.6232528"><ele>967.6666666666666</ele><time>2026-04-06T14:07:15.548Z</time></trkpt><trkpt lat="45.8980018" lon="11.6233589"><ele>968.0</ele><time>2026-04-06T14:07:16.547Z</time></trkpt><trkpt lat="45.8980328" lon="11.6234587"><ele>968.3333333333333</ele><time>2026-04-06T14:07:17.55Z</time></trkpt><trkpt lat="45.8980732" lon="11.6235547"><ele>968.6666666666666</ele><time>2026-04-06T14:07:18.538Z</time></trkpt><trkpt lat="45.8981052" lon="11.6236482"><ele>969.0</ele><time>2026-04-06T14:07:19.53Z</time></trkpt><trkpt lat="45.8981193" lon="11.62374"><ele>969.0</ele><time>2026-04-06T14:07:20.534Z</time></trkpt><trkpt lat="45.8981149" lon="11.6238791"><ele>969.0</ele><time>2026-04-06T14:07:22.527Z</time></trkpt><trkpt lat="45.8980472" lon="11.6239631"><ele>969.0</ele><time>2026-04-06T14:07:24.538Z</time></trkpt><trkpt lat="45.897969" lon="11.6240706"><ele>969.0</ele><time>2026-04-06T14:07:26.539Z</time></trkpt><trkpt lat="45.8979129" lon="11.6241226"><ele>969.0</ele><time>2026-04-06T14:07:27.546Z</time></trkpt><trkpt lat="45.8978566" lon="11.6241778"><ele>969.0</ele><time>2026-04-06T14:07:28.549Z</time></trkpt><trkpt lat="45.8977988" lon="11.6242558"><ele>969.0</ele><time>2026-04-06T14:07:29.55Z</time></trkpt><trkpt lat="45.8977436" lon="11.6243083"><ele>969.0</ele><time>2026-04-06T14:07:30.556Z</time></trkpt><trkpt lat="45.897687" lon="11.6243495"><ele>969.0</ele><time>2026-04-06T14:07:31.558Z</time></trkpt><trkpt lat="45.8976319" lon="11.6244047"><ele>969.0</ele><time>2026-04-06T14:07:32.568Z</time></trkpt><trkpt lat="45.897552" lon="11.6245201"><ele>969.0</ele><time>2026-04-06T14:07:34.558Z</time></trkpt><trkpt lat="45.8974432" lon="11.6246269"><ele>969.0</ele><time>2026-04-06T14:07:36.546Z</time></trkpt><trkpt lat="45.8973608" lon="11.6246543"><ele>968.3333333333334</ele><time>2026-04-06T14:07:37.538Z</time></trkpt><trkpt lat="45.8972904" lon="11.6246813"><ele>967.6666666666667</ele><time>2026-04-06T14:07:38.572Z</time></trkpt><trkpt lat="45.8972098" lon="11.6247111"><ele>967.0</ele><time>2026-04-06T14:07:39.553Z</time></trkpt><trkpt lat="45.8971339" lon="11.6247346"><ele>966.3333333333334</ele><time>2026-04-06T14:07:40.527Z</time></trkpt><trkpt lat="45.8970702" lon="11.624733"><ele>965.6666666666667</ele><time>2026-04-06T14:07:41.526Z</time></trkpt><trkpt lat="45.8969554" lon="11.6247331"><ele>965.0</ele><time>2026-04-06T14:07:43.531Z</time></trkpt><trkpt lat="45.8968725" lon="11.6247046"><ele>965.0</ele><time>2026-04-06T14:07:59.554Z</time></trkpt><trkpt lat="45.8969528" lon="11.6245645"><ele>965.0</ele><time>2026-04-06T14:08:01.548Z</time></trkpt><trkpt lat="45.8970418" lon="11.624479"><ele>965.0</ele><time>2026-04-06T14:08:02.547Z</time></trkpt><trkpt lat="45.8971051" lon="11.6243964"><ele>965.0</ele><time>2026-04-06T14:08:03.55Z</time></trkpt><trkpt lat="45.8971666" lon="11.6243258"><ele>965.0</ele><time>2026-04-06T14:08:04.549Z</time></trkpt><trkpt lat="45.8971283" lon="11.6242157"><ele>961.6666666666667</ele><time>2026-04-06T14:08:07.572Z</time></trkpt><trkpt lat="45.8970595" lon="11.6241943"><ele>958.3333333333334</ele><time>2026-04-06T14:08:08.568Z</time></trkpt><trkpt lat="45.896991" lon="11.6241575"><ele>955.0</ele><time>2026-04-06T14:08:09.548Z</time></trkpt><trkpt lat="45.8969049" lon="11.6241645"><ele>951.6666666666667</ele><time>2026-04-06T14:08:10.547Z</time></trkpt><trkpt lat="45.8968272" lon="11.6241498"><ele>948.3333333333334</ele><time>2026-04-06T14:08:11.569Z</time></trkpt><trkpt lat="45.8967333" lon="11.6241393"><ele>945.0</ele><time>2026-04-06T14:08:12.548Z</time></trkpt><trkpt lat="45.8966369" lon="11.6241409"><ele>941.4</ele><time>2026-04-06T14:08:13.55Z</time></trkpt><trkpt lat="45.8965344" lon="11.6241414"><ele>937.8</ele><time>2026-04-06T14:08:14.592Z</time></trkpt><trkpt lat="45.8964375" lon="11.6241271"><ele>934.2</ele><time>2026-04-06T14:08:15.552Z</time></trkpt><trkpt lat="45.8963435" lon="11.6240889"><ele>930.6</ele><time>2026-04-06T14:08:16.55Z</time></trkpt><trkpt lat="45.8962323" lon="11.6240547"><ele>927.0</ele><time>2026-04-06T14:08:17.545Z</time></trkpt><trkpt lat="45.8961379" lon="11.6240281"><ele>927.0</ele><time>2026-04-06T14:08:18.546Z</time></trkpt><trkpt lat="45.8960425" lon="11.6240036"><ele>927.0</ele><time>2026-04-06T14:08:19.567Z</time></trkpt><trkpt lat="45.8959515" lon="11.6239775"><ele>927.0</ele><time>2026-04-06T14:08:20.549Z</time></trkpt><trkpt lat="45.8958565" lon="11.6239454"><ele>927.0</ele><time>2026-04-06T14:08:21.547Z</time></trkpt><trkpt lat="45.8957546" lon="11.6239109"><ele>927.0</ele><time>2026-04-06T14:08:22.547Z</time></trkpt><trkpt lat="45.8956547" lon="11.6238783"><ele>925.0</ele><time>2026-04-06T14:08:23.551Z</time></trkpt><trkpt lat="45.8955579" lon="11.6238528"><ele>923.0</ele><time>2026-04-06T14:08:24.547Z</time></trkpt><trkpt lat="45.8954729" lon="11.6238143"><ele>921.0</ele><time>2026-04-06T14:08:25.547Z</time></trkpt><trkpt lat="45.8953885" lon="11.623754"><ele>919.0</ele><time>2026-04-06T14:08:26.63Z</time></trkpt><trkpt lat="45.8953033" lon="11.6236808"><ele>917.0</ele><time>2026-04-06T14:08:27.549Z</time></trkpt><trkpt lat="45.8952213" lon="11.6236248"><ele>916.0000000000001</ele><time>2026-04-06T14:08:28.577Z</time></trkpt><trkpt lat="45.8951407" lon="11.6235895"><ele>915.0</ele><time>2026-04-06T14:08:29.553Z</time></trkpt><trkpt lat="45.8950631" lon="11.6235649"><ele>914.0</ele><time>2026-04-06T14:08:30.552Z</time></trkpt><trkpt lat="45.8949811" lon="11.6235391"><ele>913.0</ele><time>2026-04-06T14:08:31.547Z</time></trkpt><trkpt lat="45.8948914" lon="11.6234962"><ele>912.0000000000001</ele><time>2026-04-06T14:08:32.552Z</time></trkpt><trkpt lat="45.8948033" lon="11.6234621"><ele>911.0</ele><time>2026-04-06T14:08:33.557Z</time></trkpt><trkpt lat="45.8947182" lon="11.6234333"><ele>908.3333333333334</ele><time>2026-04-06T14:08:34.552Z</time></trkpt><trkpt lat="45.8946389" lon="11.6234145"><ele>905.6666666666667</ele><time>2026-04-06T14:08:35.549Z</time></trkpt><trkpt lat="45.8945687" lon="11.6234138"><ele>903.0</ele><time>2026-04-06T14:08:36.545Z</time></trkpt><trkpt lat="45.8945044" lon="11.623388"><ele>900.3333333333333</ele><time>2026-04-06T14:08:37.532Z</time></trkpt><trkpt lat="45.8944145" lon="11.6232783"><ele>897.6666666666666</ele><time>2026-04-06T14:08:39.589Z</time></trkpt><trkpt lat="45.8943926" lon="11.6231886"><ele>895.0</ele><time>2026-04-06T14:08:40.573Z</time></trkpt><trkpt lat="45.8943786" lon="11.6230969"><ele>895.0</ele><time>2026-04-06T14:08:41.706Z</time></trkpt><trkpt lat="45.8943355" lon="11.6228964"><ele>895.0</ele><time>2026-04-06T14:08:43.546Z</time></trkpt><trkpt lat="45.8942927" lon="11.6227969"><ele>895.0</ele><time>2026-04-06T14:08:44.556Z</time></trkpt><trkpt lat="45.8942448" lon="11.6227038"><ele>895.0</ele><time>2026-04-06T14:08:45.55Z</time></trkpt><trkpt lat="45.8941954" lon="11.6226208"><ele>895.0</ele><time>2026-04-06T14:08:46.548Z</time></trkpt><trkpt lat="45.8941381" lon="11.6225437"><ele>891.25</ele><time>2026-04-06T14:08:47.552Z</time></trkpt><trkpt lat="45.8940784" lon="11.6224417"><ele>887.5</ele><time>2026-04-06T14:08:48.554Z</time></trkpt><trkpt lat="45.8940101" lon="11.6223353"><ele>883.75</ele><time>2026-04-06T14:08:49.707Z</time></trkpt><trkpt lat="45.8938781" lon="11.6220966"><ele>880.0</ele><time>2026-04-06T14:08:51.55Z</time></trkpt><trkpt lat="45.8938009" lon="11.6219939"><ele>880.4</ele><time>2026-04-06T14:08:52.706Z</time></trkpt><trkpt lat="45.8936772" lon="11.6218204"><ele>880.8</ele><time>2026-04-06T14:08:54.548Z</time></trkpt><trkpt lat="45.8936297" lon="11.6217355"><ele>881.2</ele><time>2026-04-06T14:08:55.552Z</time></trkpt><trkpt lat="45.8935921" lon="11.6216525"><ele>881.6</ele><time>2026-04-06T14:08:56.71Z</time></trkpt><trkpt lat="45.8935573" lon="11.6215669"><ele>882.0</ele><time>2026-04-06T14:08:57.71Z</time></trkpt><trkpt lat="45.8935027" lon="11.621399"><ele>882.0</ele><time>2026-04-06T14:08:59.555Z</time></trkpt><trkpt lat="45.8934879" lon="11.6213061"><ele>882.0</ele><time>2026-04-06T14:09:00.55Z</time></trkpt><trkpt lat="45.8934762" lon="11.6212136"><ele>882.0</ele><time>2026-04-06T14:09:01.576Z</time></trkpt><trkpt lat="45.8934537" lon="11.6211175"><ele>882.0</ele><time>2026-04-06T14:09:02.553Z</time></trkpt><trkpt lat="45.8934222" lon="11.6210338"><ele>882.0</ele><time>2026-04-06T14:09:03.552Z</time></trkpt><trkpt lat="45.893395" lon="11.6209508"><ele>882.0</ele><time>2026-04-06T14:09:04.556Z</time></trkpt><trkpt lat="45.8933702" lon="11.6208577"><ele>882.0</ele><time>2026-04-06T14:09:05.551Z</time></trkpt><trkpt lat="45.8933512" lon="11.6207651"><ele>880.8</ele><time>2026-04-06T14:09:06.575Z</time></trkpt><trkpt lat="45.8933421" lon="11.620575"><ele>879.6</ele><time>2026-04-06T14:09:08.557Z</time></trkpt><trkpt lat="45.8933585" lon="11.6204739"><ele>878.3999999999999</ele><time>2026-04-06T14:09:09.553Z</time></trkpt><trkpt lat="45.8933779" lon="11.6203875"><ele>877.1999999999999</ele><time>2026-04-06T14:09:10.582Z</time></trkpt><trkpt lat="45.8933786" lon="11.6202471"><ele>876.0</ele><time>2026-04-06T14:09:12.554Z</time></trkpt><trkpt lat="45.8933399" lon="11.6201382"><ele>876.0</ele><time>2026-04-06T14:09:14.551Z</time></trkpt><trkpt lat="45.8933195" lon="11.6200387"><ele>876.0</ele><time>2026-04-06T14:09:16.548Z</time></trkpt><trkpt lat="45.8934121" lon="11.619946"><ele>876.0</ele><time>2026-04-06T14:09:19.549Z</time></trkpt><trkpt lat="45.8934769" lon="11.619931"><ele>876.0</ele><time>2026-04-06T14:09:29.565Z</time></trkpt><trkpt lat="45.8935527" lon="11.6199083"><ele>876.0</ele><time>2026-04-06T14:09:49.562Z</time></trkpt><trkpt lat="45.8935114" lon="11.6200472"><ele>876.0</ele><time>2026-04-06T14:12:17.565Z</time></trkpt><trkpt lat="45.893406" lon="11.6201037"><ele>876.0</ele><time>2026-04-06T14:12:19.552Z</time></trkpt><trkpt lat="45.893326" lon="11.6201413"><ele>875.9999999999999</ele><time>2026-04-06T14:12:20.55Z</time></trkpt><trkpt lat="45.893233" lon="11.6201581"><ele>875.9999999999999</ele><time>2026-04-06T14:12:21.558Z</time></trkpt><trkpt lat="45.8931286" lon="11.6201682"><ele>876.0</ele><time>2026-04-06T14:12:22.581Z</time></trkpt><trkpt lat="45.8930222" lon="11.6201686"><ele>876.0</ele><time>2026-04-06T14:12:23.559Z</time></trkpt><trkpt lat="45.8929245" lon="11.6202012"><ele>876.0</ele><time>2026-04-06T14:12:24.556Z</time></trkpt><trkpt lat="45.8928397" lon="11.6202334"><ele>876.0</ele><time>2026-04-06T14:12:25.56Z</time></trkpt><trkpt lat="45.8927613" lon="11.6202567"><ele>876.0</ele><time>2026-04-06T14:12:26.562Z</time></trkpt><trkpt lat="45.8926872" lon="11.620277"><ele>876.0</ele><time>2026-04-06T14:12:27.558Z</time></trkpt><trkpt lat="45.8926084" lon="11.6202829"><ele>876.0</ele><time>2026-04-06T14:12:28.559Z</time></trkpt><trkpt lat="45.8925184" lon="11.6202836"><ele>876.0</ele><time>2026-04-06T14:12:29.568Z</time></trkpt><trkpt lat="45.8924365" lon="11.6202958"><ele>872.5999999999999</ele><time>2026-04-06T14:12:30.558Z</time></trkpt><trkpt lat="45.8923557" lon="11.620327"><ele>869.1999999999999</ele><time>2026-04-06T14:12:31.555Z</time></trkpt><trkpt lat="45.8922685" lon="11.6203751"><ele>865.8000000000001</ele><time>2026-04-06T14:12:32.563Z</time></trkpt><trkpt lat="45.8921791" lon="11.6204444"><ele>862.4000000000001</ele><time>2026-04-06T14:12:33.562Z</time></trkpt><trkpt lat="45.8921002" lon="11.6205508"><ele>859.0</ele><time>2026-04-06T14:12:34.563Z</time></trkpt><trkpt lat="45.8920196" lon="11.6206663"><ele>859.0</ele><time>2026-04-06T14:12:35.562Z</time></trkpt><trkpt lat="45.8919328" lon="11.620764"><ele>859.0</ele><time>2026-04-06T14:12:36.555Z</time></trkpt><trkpt lat="45.8918322" lon="11.620837"><ele>859.0</ele><time>2026-04-06T14:12:37.56Z</time></trkpt><trkpt lat="45.8917104" lon="11.6208899"><ele>859.0</ele><time>2026-04-06T14:12:38.565Z</time></trkpt><trkpt lat="45.891593" lon="11.6209302"><ele>859.25</ele><time>2026-04-06T14:12:39.559Z</time></trkpt><trkpt lat="45.8914827" lon="11.6209822"><ele>859.5</ele><time>2026-04-06T14:12:40.555Z</time></trkpt><trkpt lat="45.8913614" lon="11.6210533"><ele>859.75</ele><time>2026-04-06T14:12:41.58Z</time></trkpt><trkpt lat="45.8912267" lon="11.6211208"><ele>860.0</ele><time>2026-04-06T14:12:42.583Z</time></trkpt><trkpt lat="45.8910913" lon="11.6211895"><ele>857.5</ele><time>2026-04-06T14:12:43.565Z</time></trkpt><trkpt lat="45.8909772" lon="11.6212505"><ele>855.0</ele><time>2026-04-06T14:12:44.558Z</time></trkpt><trkpt lat="45.8908726" lon="11.6213069"><ele>852.5</ele><time>2026-04-06T14:12:45.554Z</time></trkpt><trkpt lat="45.8907605" lon="11.6213736"><ele>850.0</ele><time>2026-04-06T14:12:46.557Z</time></trkpt><trkpt lat="45.8906451" lon="11.6214573"><ele>849.25</ele><time>2026-04-06T14:12:47.555Z</time></trkpt><trkpt lat="45.8905375" lon="11.6215617"><ele>848.5</ele><time>2026-04-06T14:12:48.556Z</time></trkpt><trkpt lat="45.8904281" lon="11.6216757"><ele>847.75</ele><time>2026-04-06T14:12:49.561Z</time></trkpt><trkpt lat="45.8903233" lon="11.6217762"><ele>847.0</ele><time>2026-04-06T14:12:50.563Z</time></trkpt><trkpt lat="45.89023" lon="11.6218758"><ele>847.0</ele><time>2026-04-06T14:12:51.554Z</time></trkpt><trkpt lat="45.8901433" lon="11.6219714"><ele>847.0</ele><time>2026-04-06T14:12:52.561Z</time></trkpt><trkpt lat="45.8900518" lon="11.6220646"><ele>847.0</ele><time>2026-04-06T14:12:53.566Z</time></trkpt><trkpt lat="45.8899626" lon="11.6221425"><ele>847.0</ele><time>2026-04-06T14:12:54.558Z</time></trkpt><trkpt lat="45.8898747" lon="11.622232"><ele>847.0</ele><time>2026-04-06T14:12:55.554Z</time></trkpt><trkpt lat="45.889805" lon="11.6223202"><ele>845.9999999999999</ele><time>2026-04-06T14:12:56.566Z</time></trkpt><trkpt lat="45.8897538" lon="11.6223937"><ele>845.0</ele><time>2026-04-06T14:12:57.561Z</time></trkpt><trkpt lat="45.8896997" lon="11.6224547"><ele>844.0</ele><time>2026-04-06T14:12:58.56Z</time></trkpt><trkpt lat="45.8896442" lon="11.6225076"><ele>843.0</ele><time>2026-04-06T14:12:59.557Z</time></trkpt><trkpt lat="45.8896055" lon="11.6226029"><ele>841.9999999999999</ele><time>2026-04-06T14:13:01.558Z</time></trkpt><trkpt lat="45.8896131" lon="11.6227137"><ele>841.0</ele><time>2026-04-06T14:13:03.567Z</time></trkpt><trkpt lat="45.8896553" lon="11.6228292"><ele>840.9999999999999</ele><time>2026-04-06T14:13:05.558Z</time></trkpt><trkpt lat="45.8897085" lon="11.6228922"><ele>841.0</ele><time>2026-04-06T14:13:07.57Z</time></trkpt><trkpt lat="45.8898022" lon="11.6228902"><ele>841.0</ele><time>2026-04-06T14:13:09.567Z</time></trkpt><trkpt lat="45.8898739" lon="11.6229009"><ele>841.0</ele><time>2026-04-06T14:13:10.567Z</time></trkpt><trkpt lat="45.8900024" lon="11.6228616"><ele>840.9999999999999</ele><time>2026-04-06T14:13:12.567Z</time></trkpt><trkpt lat="45.8900663" lon="11.6228403"><ele>841.0</ele><time>2026-04-06T14:13:13.563Z</time></trkpt><trkpt lat="45.8901301" lon="11.6228081"><ele>841.1666666666666</ele><time>2026-04-06T14:13:14.561Z</time></trkpt><trkpt lat="45.8902034" lon="11.6227846"><ele>841.3333333333333</ele><time>2026-04-06T14:13:15.558Z</time></trkpt><trkpt lat="45.8902743" lon="11.6227507"><ele>841.5</ele><time>2026-04-06T14:13:16.553Z</time></trkpt><trkpt lat="45.8903644" lon="11.6226637"><ele>841.6666666666667</ele><time>2026-04-06T14:13:18.554Z</time></trkpt><trkpt lat="45.8904055" lon="11.6225439"><ele>841.8333333333334</ele><time>2026-04-06T14:13:20.564Z</time></trkpt><trkpt lat="45.8903754" lon="11.6224303"><ele>842.0</ele><time>2026-04-06T14:13:29.574Z</time></trkpt><trkpt lat="45.8903873" lon="11.622325"><ele>842.0000000000001</ele><time>2026-04-06T14:13:31.569Z</time></trkpt><trkpt lat="45.8904631" lon="11.6221873"><ele>842.0</ele><time>2026-04-06T14:13:33.566Z</time></trkpt><trkpt lat="45.8905058" lon="11.6221078"><ele>842.0</ele><time>2026-04-06T14:13:34.591Z</time></trkpt><trkpt lat="45.890548" lon="11.62203"><ele>842.0</ele><time>2026-04-06T14:13:35.566Z</time></trkpt><trkpt lat="45.8905877" lon="11.6219535"><ele>842.0000000000001</ele><time>2026-04-06T14:13:36.57Z</time></trkpt><trkpt lat="45.8906206" lon="11.6218627"><ele>842.0</ele><time>2026-04-06T14:13:37.583Z</time></trkpt><trkpt lat="45.8906504" lon="11.6217708"><ele>843.0</ele><time>2026-04-06T14:13:38.569Z</time></trkpt><trkpt lat="45.8906848" lon="11.6216795"><ele>844.0</ele><time>2026-04-06T14:13:39.559Z</time></trkpt><trkpt lat="45.890736" lon="11.6215809"><ele>845.0</ele><time>2026-04-06T14:13:40.564Z</time></trkpt><trkpt lat="45.8908032" lon="11.6214825"><ele>846.0</ele><time>2026-04-06T14:13:41.554Z</time></trkpt><trkpt lat="45.8908825" lon="11.6213827"><ele>847.0</ele><time>2026-04-06T14:13:42.558Z</time></trkpt><trkpt lat="45.8909676" lon="11.6212843"><ele>847.6</ele><time>2026-04-06T14:13:43.56Z</time></trkpt><trkpt lat="45.8910456" lon="11.6211897"><ele>848.2</ele><time>2026-04-06T14:13:44.583Z</time></trkpt><trkpt lat="45.8911144" lon="11.6211074"><ele>848.8</ele><time>2026-04-06T14:13:45.554Z</time></trkpt><trkpt lat="45.891185" lon="11.621029"><ele>849.4</ele><time>2026-04-06T14:13:46.55Z</time></trkpt><trkpt lat="45.8912643" lon="11.6209225"><ele>850.0</ele><time>2026-04-06T14:13:47.556Z</time></trkpt><trkpt lat="45.8913428" lon="11.6208148"><ele>851.4999999999999</ele><time>2026-04-06T14:13:48.55Z</time></trkpt><trkpt lat="45.8914227" lon="11.6207291"><ele>853.0</ele><time>2026-04-06T14:13:49.548Z</time></trkpt><trkpt lat="45.8914942" lon="11.6206675"><ele>854.5</ele><time>2026-04-06T14:13:50.578Z</time></trkpt><trkpt lat="45.8915745" lon="11.6206311"><ele>856.0</ele><time>2026-04-06T14:13:51.547Z</time></trkpt><trkpt lat="45.8916564" lon="11.62061"><ele>857.4999999999999</ele><time>2026-04-06T14:13:52.555Z</time></trkpt><trkpt lat="45.8917417" lon="11.6206137"><ele>859.0</ele><time>2026-04-06T14:13:53.57Z</time></trkpt><trkpt lat="45.8918277" lon="11.6206128"><ele>859.0</ele><time>2026-04-06T14:13:54.578Z</time></trkpt><trkpt lat="45.8919173" lon="11.6206302"><ele>859.0000000000001</ele><time>2026-04-06T14:13:55.571Z</time></trkpt><trkpt lat="45.8920035" lon="11.6206415"><ele>859.0000000000001</ele><time>2026-04-06T14:13:56.552Z</time></trkpt><trkpt lat="45.8921077" lon="11.6206481"><ele>859.0</ele><time>2026-04-06T14:13:57.558Z</time></trkpt><trkpt lat="45.8921992" lon="11.6206377"><ele>859.0</ele><time>2026-04-06T14:13:58.549Z</time></trkpt><trkpt lat="45.8922769" lon="11.620631"><ele>859.0</ele><time>2026-04-06T14:13:59.554Z</time></trkpt><trkpt lat="45.8923718" lon="11.6206544"><ele>859.0000000000001</ele><time>2026-04-06T14:14:01.555Z</time></trkpt><trkpt lat="45.8924646" lon="11.6206744"><ele>859.0000000000001</ele><time>2026-04-06T14:14:03.551Z</time></trkpt><trkpt lat="45.8926223" lon="11.6206826"><ele>859.0</ele><time>2026-04-06T14:14:08.555Z</time></trkpt><trkpt lat="45.892681" lon="11.6206466"><ele>859.0</ele><time>2026-04-06T14:14:09.558Z</time></trkpt><trkpt lat="45.8927443" lon="11.6206053"><ele>860.9999999999999</ele><time>2026-04-06T14:14:10.552Z</time></trkpt><trkpt lat="45.8928092" lon="11.6205719"><ele>863.0</ele><time>2026-04-06T14:14:11.558Z</time></trkpt><trkpt lat="45.8928813" lon="11.6205234"><ele>865.0</ele><time>2026-04-06T14:14:12.562Z</time></trkpt><trkpt lat="45.892947" lon="11.6204858"><ele>867.0</ele><time>2026-04-06T14:14:13.55Z</time></trkpt><trkpt lat="45.8930273" lon="11.6203663"><ele>868.9999999999999</ele><time>2026-04-06T14:14:15.58Z</time></trkpt><trkpt lat="45.8930767" lon="11.6202726"><ele>871.0</ele><time>2026-04-06T14:14:16.556Z</time></trkpt><trkpt lat="45.8931169" lon="11.6201841"><ele>871.8333333333333</ele><time>2026-04-06T14:14:17.579Z</time></trkpt><trkpt lat="45.8931825" lon="11.6200292"><ele>872.6666666666666</ele><time>2026-04-06T14:14:19.574Z</time></trkpt><trkpt lat="45.8932292" lon="11.6199604"><ele>873.5</ele><time>2026-04-06T14:14:20.55Z</time></trkpt><trkpt lat="45.893293" lon="11.6198922"><ele>874.3333333333333</ele><time>2026-04-06T14:14:21.549Z</time></trkpt><trkpt lat="45.8933541" lon="11.6198369"><ele>875.1666666666666</ele><time>2026-04-06T14:14:22.557Z</time></trkpt><trkpt lat="45.893423" lon="11.6198072"><ele>876.0</ele><time>2026-04-06T14:14:23.574Z</time></trkpt><trkpt lat="45.893499" lon="11.6197356"><ele>878.0</ele><time>2026-04-06T14:14:24.556Z</time></trkpt><trkpt lat="45.8935728" lon="11.619661"><ele>880.0</ele><time>2026-04-06T14:14:25.556Z</time></trkpt><trkpt lat="45.8936235" lon="11.6195612"><ele>882.0</ele><time>2026-04-06T14:14:26.554Z</time></trkpt><trkpt lat="45.8936761" lon="11.6194941"><ele>884.0</ele><time>2026-04-06T14:14:27.552Z</time></trkpt><trkpt lat="45.8872916" lon="11.615234"><ele>884.0</ele><time>2026-04-06T14:20:55.547Z</time></trkpt><trkpt lat="45.8872315" lon="11.6150988"><ele>884.0000000000001</ele><time>2026-04-06T14:20:56.549Z</time></trkpt><trkpt lat="45.8871898" lon="11.6149809"><ele>884.0000000000001</ele><time>2026-04-06T14:20:57.548Z</time></trkpt><trkpt lat="45.887131" lon="11.6148447"><ele>884.0</ele><time>2026-04-06T14:20:58.548Z</time></trkpt><trkpt lat="45.8870861" lon="11.6147428"><ele>884.0</ele><time>2026-04-06T14:20:59.544Z</time></trkpt><trkpt lat="45.8870301" lon="11.6146514"><ele>884.0000000000001</ele><time>2026-04-06T14:21:00.552Z</time></trkpt><trkpt lat="45.8869794" lon="11.6145583"><ele>884.0</ele><time>2026-04-06T14:21:01.545Z</time></trkpt><trkpt lat="45.886959" lon="11.6144606"><ele>884.0</ele><time>2026-04-06T14:21:02.55Z</time></trkpt><trkpt lat="45.886921" lon="11.614354"><ele>884.0</ele><time>2026-04-06T14:21:03.55Z</time></trkpt><trkpt lat="45.8868789" lon="11.6142501"><ele>884.0000000000001</ele><time>2026-04-06T14:21:04.55Z</time></trkpt><trkpt lat="45.8868628" lon="11.6141344"><ele>884.0</ele><time>2026-04-06T14:21:05.544Z</time></trkpt><trkpt lat="45.8868446" lon="11.6140122"><ele>886.5</ele><time>2026-04-06T14:21:06.549Z</time></trkpt><trkpt lat="45.8868694" lon="11.6137525"><ele>889.0</ele><time>2026-04-06T14:21:08.545Z</time></trkpt><trkpt lat="45.8868917" lon="11.6136339"><ele>891.5</ele><time>2026-04-06T14:21:09.541Z</time></trkpt><trkpt lat="45.8869193" lon="11.6135191"><ele>894.0</ele><time>2026-04-06T14:21:10.862Z</time></trkpt><trkpt lat="45.8869061" lon="11.6132811"><ele>895.6</ele><time>2026-04-06T14:21:12.545Z</time></trkpt><trkpt lat="45.8869144" lon="11.6131743"><ele>897.2</ele><time>2026-04-06T14:21:13.541Z</time></trkpt><trkpt lat="45.8869058" lon="11.6130616"><ele>898.8000000000001</ele><time>2026-04-06T14:21:14.702Z</time></trkpt><trkpt lat="45.8868887" lon="11.6128601"><ele>900.4000000000001</ele><time>2026-04-06T14:21:16.552Z</time></trkpt><trkpt lat="45.8868625" lon="11.6127463"><ele>902.0</ele><time>2026-04-06T14:21:17.548Z</time></trkpt><trkpt lat="45.8868199" lon="11.6126267"><ele>902.5000000000001</ele><time>2026-04-06T14:21:18.548Z</time></trkpt><trkpt lat="45.8867943" lon="11.6125073"><ele>903.0</ele><time>2026-04-06T14:21:19.543Z</time></trkpt><trkpt lat="45.8867807" lon="11.6123809"><ele>903.5</ele><time>2026-04-06T14:21:20.548Z</time></trkpt><trkpt lat="45.8867761" lon="11.6122601"><ele>904.0</ele><time>2026-04-06T14:21:21.545Z</time></trkpt><trkpt lat="45.8867832" lon="11.6121347"><ele>904.5000000000001</ele><time>2026-04-06T14:21:22.547Z</time></trkpt><trkpt lat="45.8867985" lon="11.612024"><ele>905.0</ele><time>2026-04-06T14:21:23.544Z</time></trkpt><trkpt lat="45.8868055" lon="11.6119168"><ele>902.0</ele><time>2026-04-06T14:21:24.552Z</time></trkpt><trkpt lat="45.8868332" lon="11.6118294"><ele>899.0</ele><time>2026-04-06T14:21:25.702Z</time></trkpt><trkpt lat="45.8869172" lon="11.6116748"><ele>896.0</ele><time>2026-04-06T14:21:27.547Z</time></trkpt><trkpt lat="45.8870501" lon="11.6115541"><ele>893.0</ele><time>2026-04-06T14:21:29.702Z</time></trkpt><trkpt lat="45.8872229" lon="11.6114301"><ele>893.0</ele><time>2026-04-06T14:21:31.708Z</time></trkpt><trkpt lat="45.8873103" lon="11.6113912"><ele>893.0</ele><time>2026-04-06T14:21:32.708Z</time></trkpt><trkpt lat="45.8874997" lon="11.6113278"><ele>893.0</ele><time>2026-04-06T14:21:34.547Z</time></trkpt><trkpt lat="45.8875903" lon="11.6113011"><ele>893.0</ele><time>2026-04-06T14:21:35.544Z</time></trkpt><trkpt lat="45.8876842" lon="11.6112771"><ele>891.0000000000001</ele><time>2026-04-06T14:21:36.703Z</time></trkpt><trkpt lat="45.8877777" lon="11.6112608"><ele>889.0</ele><time>2026-04-06T14:21:37.542Z</time></trkpt><trkpt lat="45.8878547" lon="11.6112353"><ele>887.0</ele><time>2026-04-06T14:21:38.545Z</time></trkpt><trkpt lat="45.8879249" lon="11.611209"><ele>885.0</ele><time>2026-04-06T14:21:39.543Z</time></trkpt><trkpt lat="45.8879882" lon="11.6111784"><ele>883.0000000000001</ele><time>2026-04-06T14:21:40.545Z</time></trkpt><trkpt lat="45.8880675" lon="11.6111529"><ele>881.0</ele><time>2026-04-06T14:21:41.543Z</time></trkpt><trkpt lat="45.8881377" lon="11.6111178"><ele>881.0000000000001</ele><time>2026-04-06T14:21:42.543Z</time></trkpt><trkpt lat="45.8882089" lon="11.6110955"><ele>881.0</ele><time>2026-04-06T14:21:43.539Z</time></trkpt><trkpt lat="45.8882936" lon="11.6111059"><ele>881.0</ele><time>2026-04-06T14:21:44.544Z</time></trkpt><trkpt lat="45.8883851" lon="11.6111143"><ele>881.0</ele><time>2026-04-06T14:21:45.543Z</time></trkpt><trkpt lat="45.8884765" lon="11.611123"><ele>881.0000000000001</ele><time>2026-04-06T14:21:46.539Z</time></trkpt><trkpt lat="45.8885745" lon="11.6111443"><ele>881.0</ele><time>2026-04-06T14:21:47.545Z</time></trkpt><trkpt lat="45.8886628" lon="11.6111513"><ele>885.5</ele><time>2026-04-06T14:21:48.544Z</time></trkpt><trkpt lat="45.8888332" lon="11.6111821"><ele>890.0</ele><time>2026-04-06T14:21:50.545Z</time></trkpt><trkpt lat="45.8889136" lon="11.6111724"><ele>894.5</ele><time>2026-04-06T14:21:51.696Z</time></trkpt><trkpt lat="45.8889951" lon="11.6111737"><ele>899.0</ele><time>2026-04-06T14:21:52.703Z</time></trkpt><trkpt lat="45.8891099" lon="11.6110882"><ele>899.0000000000001</ele><time>2026-04-06T14:21:54.541Z</time></trkpt><trkpt lat="45.8891701" lon="11.6110498"><ele>899.0</ele><time>2026-04-06T14:21:55.528Z</time></trkpt><trkpt lat="45.8892528" lon="11.6109582"><ele>899.0</ele><time>2026-04-06T14:21:57.697Z</time></trkpt><trkpt lat="45.8892361" lon="11.6107917"><ele>899.0</ele><time>2026-04-06T14:21:59.545Z</time></trkpt><trkpt lat="45.8892079" lon="11.6107103"><ele>899.0000000000001</ele><time>2026-04-06T14:22:00.542Z</time></trkpt><trkpt lat="45.8891551" lon="11.6105956"><ele>899.0</ele><time>2026-04-06T14:22:02.706Z</time></trkpt><trkpt lat="45.8891323" lon="11.6105007"><ele>899.0</ele><time>2026-04-06T14:22:12.702Z</time></trkpt><trkpt lat="45.8891322" lon="11.6104024"><ele>899.0000000000001</ele><time>2026-04-06T14:22:45.557Z</time></trkpt><trkpt lat="45.8891482" lon="11.6102067"><ele>899.0000000000001</ele><time>2026-04-06T14:22:50.548Z</time></trkpt><trkpt lat="45.8891952" lon="11.6100937"><ele>899.0</ele><time>2026-04-06T14:22:52.549Z</time></trkpt><trkpt lat="45.8892551" lon="11.6099207"><ele>899.0</ele><time>2026-04-06T14:22:54.535Z</time></trkpt><trkpt lat="45.8893163" lon="11.6098127"><ele>897.2</ele><time>2026-04-06T14:22:55.525Z</time></trkpt><trkpt lat="45.8893766" lon="11.6097136"><ele>895.4000000000001</ele><time>2026-04-06T14:22:56.523Z</time></trkpt><trkpt lat="45.8894292" lon="11.6096018"><ele>893.6</ele><time>2026-04-06T14:22:57.527Z</time></trkpt><trkpt lat="45.8894974" lon="11.6095179"><ele>891.8</ele><time>2026-04-06T14:22:58.514Z</time></trkpt><trkpt lat="45.8895582" lon="11.6094187"><ele>890.0</ele><time>2026-04-06T14:22:59.528Z</time></trkpt><trkpt lat="45.8896279" lon="11.6093474"><ele>890.0000000000001</ele><time>2026-04-06T14:23:00.524Z</time></trkpt><trkpt lat="45.8896965" lon="11.6092785"><ele>890.0</ele><time>2026-04-06T14:23:01.523Z</time></trkpt><trkpt lat="45.8897584" lon="11.6092095"><ele>890.0</ele><time>2026-04-06T14:23:02.527Z</time></trkpt><trkpt lat="45.8898284" lon="11.6091505"><ele>890.0</ele><time>2026-04-06T14:23:03.539Z</time></trkpt><trkpt lat="45.8898988" lon="11.6090867"><ele>890.0000000000001</ele><time>2026-04-06T14:23:04.546Z</time></trkpt><trkpt lat="45.8899669" lon="11.609019"><ele>890.0</ele><time>2026-04-06T14:23:05.559Z</time></trkpt><trkpt lat="45.8900341" lon="11.6089491"><ele>891.6</ele><time>2026-04-06T14:23:06.546Z</time></trkpt><trkpt lat="45.8900988" lon="11.6088897"><ele>893.2</ele><time>2026-04-06T14:23:07.549Z</time></trkpt><trkpt lat="45.8901689" lon="11.6088247"><ele>894.8</ele><time>2026-04-06T14:23:08.546Z</time></trkpt><trkpt lat="45.8903211" lon="11.6086993"><ele>896.4</ele><time>2026-04-06T14:23:10.543Z</time></trkpt><trkpt lat="45.8903961" lon="11.6086383"><ele>898.0</ele><time>2026-04-06T14:23:11.55Z</time></trkpt><trkpt lat="45.8904676" lon="11.6085776"><ele>897.9999999999999</ele><time>2026-04-06T14:23:12.529Z</time></trkpt><trkpt lat="45.8905383" lon="11.608509"><ele>898.0</ele><time>2026-04-06T14:23:13.524Z</time></trkpt><trkpt lat="45.8906097" lon="11.6084482"><ele>898.0</ele><time>2026-04-06T14:23:14.519Z</time></trkpt><trkpt lat="45.8906811" lon="11.6083871"><ele>898.0</ele><time>2026-04-06T14:23:15.518Z</time></trkpt><trkpt lat="45.8907526" lon="11.608326"><ele>897.9999999999999</ele><time>2026-04-06T14:23:16.514Z</time></trkpt><trkpt lat="45.8908055" lon="11.6082362"><ele>898.0</ele><time>2026-04-06T14:23:17.526Z</time></trkpt><trkpt lat="45.8908566" lon="11.6081631"><ele>897.9999999999999</ele><time>2026-04-06T14:23:18.52Z</time></trkpt><trkpt lat="45.89092" lon="11.6080956"><ele>898.0</ele><time>2026-04-06T14:23:19.522Z</time></trkpt><trkpt lat="45.8909733" lon="11.6080231"><ele>898.0</ele><time>2026-04-06T14:23:20.522Z</time></trkpt><trkpt lat="45.8910265" lon="11.6079441"><ele>898.0</ele><time>2026-04-06T14:23:21.541Z</time></trkpt><trkpt lat="45.8910689" lon="11.6078558"><ele>897.9999999999999</ele><time>2026-04-06T14:23:22.548Z</time></trkpt><trkpt lat="45.8910983" lon="11.6077477"><ele>898.0</ele><time>2026-04-06T14:23:23.556Z</time></trkpt><trkpt lat="45.8911319" lon="11.6076378"><ele>898.4</ele><time>2026-04-06T14:23:24.544Z</time></trkpt><trkpt lat="45.8911152" lon="11.607476"><ele>898.8</ele><time>2026-04-06T14:23:25.554Z</time></trkpt><trkpt lat="45.8910917" lon="11.6073103"><ele>899.2</ele><time>2026-04-06T14:23:26.55Z</time></trkpt><trkpt lat="45.8910899" lon="11.6071811"><ele>899.6</ele><time>2026-04-06T14:23:27.544Z</time></trkpt><trkpt lat="45.8910875" lon="11.6070534"><ele>900.0</ele><time>2026-04-06T14:23:28.553Z</time></trkpt><trkpt lat="45.8910892" lon="11.6069407"><ele>898.3333333333334</ele><time>2026-04-06T14:23:29.55Z</time></trkpt><trkpt lat="45.8911047" lon="11.6067415"><ele>896.6666666666667</ele><time>2026-04-06T14:23:31.571Z</time></trkpt><trkpt lat="45.8911352" lon="11.6066527"><ele>895.0</ele><time>2026-04-06T14:23:32.571Z</time></trkpt><trkpt lat="45.8911818" lon="11.6065558"><ele>893.3333333333334</ele><time>2026-04-06T14:23:33.573Z</time></trkpt><trkpt lat="45.8912302" lon="11.606464"><ele>891.6666666666667</ele><time>2026-04-06T14:23:34.545Z</time></trkpt><trkpt lat="45.8912799" lon="11.6063778"><ele>890.0</ele><time>2026-04-06T14:23:35.532Z</time></trkpt><trkpt lat="45.8913529" lon="11.6062958"><ele>890.0000000000001</ele><time>2026-04-06T14:23:36.536Z</time></trkpt><trkpt lat="45.8914336" lon="11.6062328"><ele>890.0</ele><time>2026-04-06T14:23:37.55Z</time></trkpt><trkpt lat="45.891508" lon="11.6061696"><ele>890.0</ele><time>2026-04-06T14:23:38.554Z</time></trkpt><trkpt lat="45.8915728" lon="11.6061047"><ele>890.0</ele><time>2026-04-06T14:23:39.545Z</time></trkpt><trkpt lat="45.8916392" lon="11.6060289"><ele>890.0000000000001</ele><time>2026-04-06T14:23:40.535Z</time></trkpt><trkpt lat="45.8917168" lon="11.6059321"><ele>890.0</ele><time>2026-04-06T14:23:41.543Z</time></trkpt><trkpt lat="45.8917825" lon="11.6058175"><ele>889.5000000000001</ele><time>2026-04-06T14:23:42.564Z</time></trkpt><trkpt lat="45.891821" lon="11.6056954"><ele>889.0</ele><time>2026-04-06T14:23:43.547Z</time></trkpt><trkpt lat="45.8918551" lon="11.6055916"><ele>888.5</ele><time>2026-04-06T14:23:44.544Z</time></trkpt><trkpt lat="45.8918992" lon="11.6054944"><ele>888.0</ele><time>2026-04-06T14:23:45.55Z</time></trkpt><trkpt lat="45.8919507" lon="11.6054106"><ele>887.5000000000001</ele><time>2026-04-06T14:23:46.533Z</time></trkpt><trkpt lat="45.8920009" lon="11.6053281"><ele>887.0</ele><time>2026-04-06T14:23:47.538Z</time></trkpt><trkpt lat="45.8920478" lon="11.6052434"><ele>887.0</ele><time>2026-04-06T14:23:48.546Z</time></trkpt><trkpt lat="45.8921064" lon="11.6051422"><ele>887.0</ele><time>2026-04-06T14:23:49.547Z</time></trkpt><trkpt lat="45.8921604" lon="11.6050667"><ele>887.0</ele><time>2026-04-06T14:23:50.548Z</time></trkpt><trkpt lat="45.8922566" lon="11.604903"><ele>887.0</ele><time>2026-04-06T14:23:52.533Z</time></trkpt><trkpt lat="45.892289" lon="11.604813"><ele>887.0</ele><time>2026-04-06T14:23:53.524Z</time></trkpt><trkpt lat="45.892309" lon="11.6047164"><ele>887.0000000000001</ele><time>2026-04-06T14:23:54.544Z</time></trkpt><trkpt lat="45.8923031" lon="11.604625"><ele>887.0</ele><time>2026-04-06T14:23:55.544Z</time></trkpt><trkpt lat="45.892253" lon="11.6045285"><ele>887.0</ele><time>2026-04-06T14:23:56.551Z</time></trkpt><trkpt lat="45.8921983" lon="11.6044343"><ele>887.0</ele><time>2026-04-06T14:23:57.546Z</time></trkpt><trkpt lat="45.8921265" lon="11.6043585"><ele>887.0000000000001</ele><time>2026-04-06T14:23:58.572Z</time></trkpt><trkpt lat="45.8920512" lon="11.604274"><ele>887.0</ele><time>2026-04-06T14:23:59.549Z</time></trkpt><trkpt lat="45.8919632" lon="11.6041812"><ele>884.5</ele><time>2026-04-06T14:24:00.55Z</time></trkpt><trkpt lat="45.891867" lon="11.6040912"><ele>882.0</ele><time>2026-04-06T14:24:01.546Z</time></trkpt><trkpt lat="45.8917684" lon="11.6040298"><ele>879.5</ele><time>2026-04-06T14:24:02.71Z</time></trkpt><trkpt lat="45.8915522" lon="11.6039328"><ele>877.0</ele><time>2026-04-06T14:24:04.549Z</time></trkpt><trkpt lat="45.8914484" lon="11.6039301"><ele>873.0</ele><time>2026-04-06T14:24:05.846Z</time></trkpt><trkpt lat="45.8912353" lon="11.6039748"><ele>869.0</ele><time>2026-04-06T14:24:07.57Z</time></trkpt><trkpt lat="45.8911181" lon="11.6040128"><ele>865.0</ele><time>2026-04-06T14:24:08.573Z</time></trkpt><trkpt lat="45.8910155" lon="11.6040559"><ele>861.0</ele><time>2026-04-06T14:24:09.548Z</time></trkpt><trkpt lat="45.8909365" lon="11.604109"><ele>861.5999999999999</ele><time>2026-04-06T14:24:10.546Z</time></trkpt><trkpt lat="45.8908567" lon="11.6041371"><ele>862.1999999999999</ele><time>2026-04-06T14:24:11.555Z</time></trkpt><trkpt lat="45.890716" lon="11.6041556"><ele>862.8000000000001</ele><time>2026-04-06T14:24:13.548Z</time></trkpt><trkpt lat="45.8906266" lon="11.6040551"><ele>863.4000000000001</ele><time>2026-04-06T14:24:15.544Z</time></trkpt><trkpt lat="45.8906003" lon="11.6039698"><ele>864.0</ele><time>2026-04-06T14:24:16.718Z</time></trkpt><trkpt lat="45.8905747" lon="11.6037882"><ele>864.0</ele><time>2026-04-06T14:24:18.55Z</time></trkpt><trkpt lat="45.8905427" lon="11.6036738"><ele>864.0</ele><time>2026-04-06T14:24:19.546Z</time></trkpt><trkpt lat="45.8905163" lon="11.6035713"><ele>864.0</ele><time>2026-04-06T14:24:20.576Z</time></trkpt><trkpt lat="45.8905097" lon="11.6033947"><ele>864.0</ele><time>2026-04-06T14:24:22.552Z</time></trkpt><trkpt lat="45.8905267" lon="11.6032954"><ele>864.0</ele><time>2026-04-06T14:24:23.556Z</time></trkpt><trkpt lat="45.8905513" lon="11.6031758"><ele>864.0</ele><time>2026-04-06T14:24:24.554Z</time></trkpt><trkpt lat="45.8905552" lon="11.6030336"><ele>864.6666666666666</ele><time>2026-04-06T14:24:25.549Z</time></trkpt><trkpt lat="45.8905674" lon="11.6028857"><ele>865.3333333333333</ele><time>2026-04-06T14:24:26.58Z</time></trkpt><trkpt lat="45.8905859" lon="11.6027486"><ele>866.0</ele><time>2026-04-06T14:24:27.55Z</time></trkpt><trkpt lat="45.8906015" lon="11.6026116"><ele>866.6666666666666</ele><time>2026-04-06T14:24:28.553Z</time></trkpt><trkpt lat="45.8906189" lon="11.6024942"><ele>867.3333333333333</ele><time>2026-04-06T14:24:29.552Z</time></trkpt><trkpt lat="45.890636" lon="11.6024006"><ele>868.0</ele><time>2026-04-06T14:24:30.547Z</time></trkpt><trkpt lat="45.8906486" lon="11.6022784"><ele>868.0</ele><time>2026-04-06T14:24:32.551Z</time></trkpt><trkpt lat="45.8905341" lon="11.6024317"><ele>868.0</ele><time>2026-04-06T14:24:46.545Z</time></trkpt><trkpt lat="45.8904717" lon="11.6025463"><ele>868.0</ele><time>2026-04-06T14:24:47.547Z</time></trkpt><trkpt lat="45.8903905" lon="11.6027108"><ele>868.0</ele><time>2026-04-06T14:24:48.565Z</time></trkpt><trkpt lat="45.8902797" lon="11.602897"><ele>868.5</ele><time>2026-04-06T14:24:49.553Z</time></trkpt><trkpt lat="45.8900922" lon="11.6030962"><ele>869.0</ele><time>2026-04-06T14:24:50.544Z</time></trkpt><trkpt lat="45.8898787" lon="11.6033474"><ele>863.0</ele><time>2026-04-06T14:24:51.551Z</time></trkpt><trkpt lat="45.8896803" lon="11.6035644"><ele>857.0</ele><time>2026-04-06T14:24:52.556Z</time></trkpt><trkpt lat="45.8894983" lon="11.6037965"><ele>842.0</ele><time>2026-04-06T14:24:53.551Z</time></trkpt><trkpt lat="45.8891561" lon="11.604255"><ele>842.0</ele><time>2026-04-06T14:24:55.551Z</time></trkpt><trkpt lat="45.8889778" lon="11.6044176"><ele>842.0</ele><time>2026-04-06T14:24:56.548Z</time></trkpt><trkpt lat="45.8888201" lon="11.6045888"><ele>842.0</ele><time>2026-04-06T14:24:57.551Z</time></trkpt><trkpt lat="45.8886829" lon="11.604762"><ele>840.25</ele><time>2026-04-06T14:24:58.575Z</time></trkpt><trkpt lat="45.8885583" lon="11.6049259"><ele>838.5</ele><time>2026-04-06T14:24:59.546Z</time></trkpt><trkpt lat="45.8885022" lon="11.6051004"><ele>836.75</ele><time>2026-04-06T14:25:00.575Z</time></trkpt><trkpt lat="45.8883826" lon="11.6051728"><ele>835.0</ele><time>2026-04-06T14:25:01.57Z</time></trkpt><trkpt lat="45.8883166" lon="11.6053404"><ele>844.5</ele><time>2026-04-06T14:25:02.558Z</time></trkpt><trkpt lat="45.8882779" lon="11.6055091"><ele>854.0</ele><time>2026-04-06T14:25:03.536Z</time></trkpt><trkpt lat="45.8882636" lon="11.6056179"><ele>863.5</ele><time>2026-04-06T14:25:04.524Z</time></trkpt><trkpt lat="45.8882452" lon="11.6057878"><ele>873.0</ele><time>2026-04-06T14:25:05.524Z</time></trkpt><trkpt lat="45.8882378" lon="11.6059904"><ele>871.5</ele><time>2026-04-06T14:25:06.532Z</time></trkpt><trkpt lat="45.888242" lon="11.6062064"><ele>870.0</ele><time>2026-04-06T14:25:07.526Z</time></trkpt><trkpt lat="45.8882849" lon="11.6063793"><ele>868.5</ele><time>2026-04-06T14:25:08.521Z</time></trkpt><trkpt lat="45.8883174" lon="11.6065757"><ele>867.0</ele><time>2026-04-06T14:25:09.527Z</time></trkpt><trkpt lat="45.8882912" lon="11.6067332"><ele>867.0</ele><time>2026-04-06T14:25:10.521Z</time></trkpt><trkpt lat="45.8882663" lon="11.6068874"><ele>867.0</ele><time>2026-04-06T14:25:11.524Z</time></trkpt><trkpt lat="45.8881788" lon="11.6070357"><ele>867.0</ele><time>2026-04-06T14:25:12.526Z</time></trkpt><trkpt lat="45.8880357" lon="11.60715"><ele>867.0</ele><time>2026-04-06T14:25:13.514Z</time></trkpt><trkpt lat="45.8878837" lon="11.6072721"><ele>865.0</ele><time>2026-04-06T14:25:14.524Z</time></trkpt><trkpt lat="45.8875005" lon="11.6075554"><ele>863.0</ele><time>2026-04-06T14:25:16.697Z</time></trkpt><trkpt lat="45.8871064" lon="11.607834"><ele>856.0</ele><time>2026-04-06T14:25:18.595Z</time></trkpt><trkpt lat="45.886916" lon="11.6079294"><ele>849.0</ele><time>2026-04-06T14:25:19.546Z</time></trkpt><trkpt lat="45.8867435" lon="11.6079857"><ele>842.0</ele><time>2026-04-06T14:25:20.552Z</time></trkpt><trkpt lat="45.8866033" lon="11.6080119"><ele>842.0</ele><time>2026-04-06T14:25:21.548Z</time></trkpt><trkpt lat="45.8864694" lon="11.6080202"><ele>842.0</ele><time>2026-04-06T14:25:22.558Z</time></trkpt><trkpt lat="45.8863" lon="11.6079083"><ele>842.0</ele><time>2026-04-06T14:25:23.556Z</time></trkpt><trkpt lat="45.8861596" lon="11.6077676"><ele>855.6666666666667</ele><time>2026-04-06T14:25:24.553Z</time></trkpt><trkpt lat="45.886002" lon="11.6076182"><ele>869.3333333333333</ele><time>2026-04-06T14:25:25.545Z</time></trkpt><trkpt lat="45.8858465" lon="11.6074816"><ele>883.0</ele><time>2026-04-06T14:25:26.557Z</time></trkpt><trkpt lat="45.885703" lon="11.6074201"><ele>883.6666666666666</ele><time>2026-04-06T14:25:27.573Z</time></trkpt><trkpt lat="45.8855522" lon="11.6073474"><ele>884.3333333333333</ele><time>2026-04-06T14:25:28.548Z</time></trkpt><trkpt lat="45.8854063" lon="11.6073795"><ele>885.0</ele><time>2026-04-06T14:25:29.553Z</time></trkpt><trkpt lat="45.8852704" lon="11.6074768"><ele>885.6666666666667</ele><time>2026-04-06T14:25:30.548Z</time></trkpt><trkpt lat="45.8850825" lon="11.6075846"><ele>886.3333333333334</ele><time>2026-04-06T14:25:31.548Z</time></trkpt><trkpt lat="45.8848491" lon="11.6076308"><ele>887.0</ele><time>2026-04-06T14:25:32.651Z</time></trkpt><trkpt lat="45.8844598" lon="11.6080355"><ele>887.0</ele><time>2026-04-06T14:25:34.549Z</time></trkpt><trkpt lat="45.8842668" lon="11.6082224"><ele>887.0</ele><time>2026-04-06T14:25:35.549Z</time></trkpt><trkpt lat="45.8839578" lon="11.608587"><ele>888.6666666666667</ele><time>2026-04-06T14:25:37.575Z</time></trkpt><trkpt lat="45.8838052" lon="11.6087375"><ele>890.3333333333333</ele><time>2026-04-06T14:25:38.549Z</time></trkpt><trkpt lat="45.8836751" lon="11.6088674"><ele>892.0</ele><time>2026-04-06T14:25:39.55Z</time></trkpt><trkpt lat="45.8835749" lon="11.6089338"><ele>892.0</ele><time>2026-04-06T14:25:40.568Z</time></trkpt><trkpt lat="45.8834939" lon="11.609023"><ele>892.0</ele><time>2026-04-06T14:25:41.575Z</time></trkpt><trkpt lat="45.8834022" lon="11.6090693"><ele>892.0</ele><time>2026-04-06T14:25:42.546Z</time></trkpt><trkpt lat="45.8832654" lon="11.6090913"><ele>892.0</ele><time>2026-04-06T14:25:43.548Z</time></trkpt><trkpt lat="45.8831851" lon="11.6090398"><ele>892.0</ele><time>2026-04-06T14:25:44.552Z</time></trkpt><trkpt lat="45.8830813" lon="11.6089893"><ele>890.5</ele><time>2026-04-06T14:25:45.552Z</time></trkpt><trkpt lat="45.8829861" lon="11.6089149"><ele>889.0</ele><time>2026-04-06T14:25:46.555Z</time></trkpt><trkpt lat="45.8828808" lon="11.6087673"><ele>887.5</ele><time>2026-04-06T14:25:47.561Z</time></trkpt><trkpt lat="45.8827832" lon="11.6085677"><ele>886.0</ele><time>2026-04-06T14:25:48.553Z</time></trkpt><trkpt lat="45.8826897" lon="11.6083755"><ele>887.5</ele><time>2026-04-06T14:25:49.549Z</time></trkpt><trkpt lat="45.8825569" lon="11.6080674"><ele>889.0</ele><time>2026-04-06T14:25:50.549Z</time></trkpt><trkpt lat="45.8824711" lon="11.60781"><ele>898.5</ele><time>2026-04-06T14:25:51.546Z</time></trkpt><trkpt lat="45.8823223" lon="11.6072971"><ele>908.0</ele><time>2026-04-06T14:25:53.541Z</time></trkpt><trkpt lat="45.8822681" lon="11.6071288"><ele>908.0</ele><time>2026-04-06T14:25:54.576Z</time></trkpt><trkpt lat="45.8821743" lon="11.6070155"><ele>908.0</ele><time>2026-04-06T14:25:55.573Z</time></trkpt><trkpt lat="45.882053" lon="11.6069181"><ele>908.0</ele><time>2026-04-06T14:25:56.574Z</time></trkpt><trkpt lat="45.8819269" lon="11.6068869"><ele>908.0</ele><time>2026-04-06T14:25:57.55Z</time></trkpt><trkpt lat="45.8814933" lon="11.6077638"><ele>907.75</ele><time>2026-04-06T14:29:16.415Z</time></trkpt><trkpt lat="45.8814419" lon="11.6074872"><ele>907.5</ele><time>2026-04-06T14:29:19.416Z</time></trkpt><trkpt lat="45.8813407" lon="11.6074278"><ele>907.25</ele><time>2026-04-06T14:29:21.419Z</time></trkpt><trkpt lat="45.8812107" lon="11.6074606"><ele>907.0</ele><time>2026-04-06T14:29:22.405Z</time></trkpt><trkpt lat="45.881354" lon="11.6075582"><ele>907.0</ele><time>2026-04-06T14:29:23.414Z</time></trkpt><trkpt lat="45.8814438" lon="11.6075957"><ele>907.0</ele><time>2026-04-06T14:29:24.426Z</time></trkpt><trkpt lat="45.8814" lon="11.6077724"><ele>907.0</ele><time>2026-04-06T14:29:58.551Z</time></trkpt><trkpt lat="45.8813746" lon="11.6079632"><ele>907.0</ele><time>2026-04-06T14:29:59.553Z</time></trkpt><trkpt lat="45.8813546" lon="11.6081614"><ele>906.6666666666666</ele><time>2026-04-06T14:30:00.555Z</time></trkpt><trkpt lat="45.8813021" lon="11.6083636"><ele>906.3333333333333</ele><time>2026-04-06T14:30:01.553Z</time></trkpt><trkpt lat="45.8812564" lon="11.6085755"><ele>906.0</ele><time>2026-04-06T14:30:02.552Z</time></trkpt><trkpt lat="45.8811908" lon="11.6088085"><ele>901.5</ele><time>2026-04-06T14:30:03.554Z</time></trkpt><trkpt lat="45.881083" lon="11.6091023"><ele>897.0</ele><time>2026-04-06T14:30:04.549Z</time></trkpt><trkpt lat="45.8809463" lon="11.6093867"><ele>904.6666666666667</ele><time>2026-04-06T14:30:05.553Z</time></trkpt><trkpt lat="45.8808054" lon="11.6096439"><ele>912.3333333333334</ele><time>2026-04-06T14:30:06.552Z</time></trkpt><trkpt lat="45.8806595" lon="11.6098807"><ele>920.0</ele><time>2026-04-06T14:30:07.55Z</time></trkpt><trkpt lat="45.8805297" lon="11.6101035"><ele>911.5</ele><time>2026-04-06T14:30:08.558Z</time></trkpt><trkpt lat="45.8804002" lon="11.6103506"><ele>903.0</ele><time>2026-04-06T14:30:09.561Z</time></trkpt><trkpt lat="45.8802284" lon="11.6106208"><ele>910.3333333333333</ele><time>2026-04-06T14:30:10.551Z</time></trkpt><trkpt lat="45.8800579" lon="11.6108412"><ele>917.6666666666666</ele><time>2026-04-06T14:30:11.549Z</time></trkpt><trkpt lat="45.8798973" lon="11.6110068"><ele>925.0</ele><time>2026-04-06T14:30:12.548Z</time></trkpt><trkpt lat="45.8797429" lon="11.6111199"><ele>922.0</ele><time>2026-04-06T14:30:13.544Z</time></trkpt><trkpt lat="45.879623" lon="11.6112151"><ele>919.0</ele><time>2026-04-06T14:30:14.547Z</time></trkpt><trkpt lat="45.8795073" lon="11.6113397"><ele>916.0</ele><time>2026-04-06T14:30:15.546Z</time></trkpt><trkpt lat="45.8793828" lon="11.6114628"><ele>913.0</ele><time>2026-04-06T14:30:16.548Z</time></trkpt><trkpt lat="45.8792746" lon="11.6116372"><ele>917.75</ele><time>2026-04-06T14:30:17.553Z</time></trkpt><trkpt lat="45.8791894" lon="11.6118294"><ele>922.5</ele><time>2026-04-06T14:30:18.549Z</time></trkpt><trkpt lat="45.8791408" lon="11.6120298"><ele>927.25</ele><time>2026-04-06T14:30:19.547Z</time></trkpt><trkpt lat="45.8790777" lon="11.6122048"><ele>932.0</ele><time>2026-04-06T14:30:20.545Z</time></trkpt><trkpt lat="45.8790709" lon="11.6123303"><ele>932.0000000000001</ele><time>2026-04-06T14:30:21.548Z</time></trkpt><trkpt lat="45.8790724" lon="11.6124495"><ele>932.0</ele><time>2026-04-06T14:30:22.547Z</time></trkpt><trkpt lat="45.8790597" lon="11.6125522"><ele>932.0</ele><time>2026-04-06T14:30:23.545Z</time></trkpt><trkpt lat="45.8790254" lon="11.6126626"><ele>932.0</ele><time>2026-04-06T14:30:25.548Z</time></trkpt><trkpt lat="45.8789823" lon="11.6127438"><ele>932.0000000000001</ele><time>2026-04-06T14:30:27.55Z</time></trkpt><trkpt lat="45.8788946" lon="11.6128178"><ele>932.0</ele><time>2026-04-06T14:30:29.555Z</time></trkpt><trkpt lat="45.8788394" lon="11.6128804"><ele>931.4000000000001</ele><time>2026-04-06T14:30:30.545Z</time></trkpt><trkpt lat="45.8787429" lon="11.6130094"><ele>930.8000000000001</ele><time>2026-04-06T14:30:32.546Z</time></trkpt><trkpt lat="45.8786714" lon="11.6130494"><ele>930.2</ele><time>2026-04-06T14:30:33.554Z</time></trkpt><trkpt lat="45.8785976" lon="11.6130978"><ele>929.6</ele><time>2026-04-06T14:30:34.547Z</time></trkpt><trkpt lat="45.8785001" lon="11.613129"><ele>929.0</ele><time>2026-04-06T14:30:35.644Z</time></trkpt><trkpt lat="45.8784115" lon="11.613183"><ele>929.0</ele><time>2026-04-06T14:30:36.554Z</time></trkpt><trkpt lat="45.8783157" lon="11.6132318"><ele>929.0000000000001</ele><time>2026-04-06T14:30:37.549Z</time></trkpt><trkpt lat="45.8782157" lon="11.6132497"><ele>929.0000000000001</ele><time>2026-04-06T14:30:38.549Z</time></trkpt><trkpt lat="45.8781154" lon="11.613254"><ele>929.0</ele><time>2026-04-06T14:30:39.557Z</time></trkpt><trkpt lat="45.8780154" lon="11.6132791"><ele>929.0</ele><time>2026-04-06T14:30:40.551Z</time></trkpt><trkpt lat="45.8779498" lon="11.6133057"><ele>929.0000000000001</ele><time>2026-04-06T14:30:41.552Z</time></trkpt><trkpt lat="45.8778818" lon="11.6133136"><ele>929.0</ele><time>2026-04-06T14:30:42.552Z</time></trkpt><trkpt lat="45.8777935" lon="11.6133405"><ele>929.0</ele><time>2026-04-06T14:30:43.544Z</time></trkpt><trkpt lat="45.8777196" lon="11.6132915"><ele>929.0</ele><time>2026-04-06T14:30:44.556Z</time></trkpt><trkpt lat="45.8776487" lon="11.6132435"><ele>929.0000000000001</ele><time>2026-04-06T14:30:45.548Z</time></trkpt><trkpt lat="45.8775742" lon="11.6131907"><ele>929.0</ele><time>2026-04-06T14:30:46.553Z</time></trkpt><trkpt lat="45.8774552" lon="11.6130413"><ele>929.5</ele><time>2026-04-06T14:30:47.55Z</time></trkpt><trkpt lat="45.8773368" lon="11.6129197"><ele>930.0</ele><time>2026-04-06T14:30:48.555Z</time></trkpt><trkpt lat="45.8772137" lon="11.6128667"><ele>930.5</ele><time>2026-04-06T14:30:49.55Z</time></trkpt><trkpt lat="45.8770834" lon="11.6128219"><ele>931.0</ele><time>2026-04-06T14:30:50.554Z</time></trkpt><trkpt lat="45.8769563" lon="11.612767"><ele>931.0</ele><time>2026-04-06T14:30:51.554Z</time></trkpt><trkpt lat="45.8768191" lon="11.6127114"><ele>931.0</ele><time>2026-04-06T14:30:52.558Z</time></trkpt><trkpt lat="45.8767018" lon="11.6126364"><ele>931.0</ele><time>2026-04-06T14:30:53.564Z</time></trkpt><trkpt lat="45.8765795" lon="11.6125481"><ele>931.0</ele><time>2026-04-06T14:30:54.558Z</time></trkpt><trkpt lat="45.8764628" lon="11.6124328"><ele>928.25</ele><time>2026-04-06T14:30:55.55Z</time></trkpt><trkpt lat="45.8763457" lon="11.6123225"><ele>925.5</ele><time>2026-04-06T14:30:56.563Z</time></trkpt><trkpt lat="45.8762398" lon="11.612215"><ele>922.75</ele><time>2026-04-06T14:30:57.551Z</time></trkpt><trkpt lat="45.8761326" lon="11.6121114"><ele>920.0</ele><time>2026-04-06T14:30:58.549Z</time></trkpt><trkpt lat="45.876028" lon="11.6120143"><ele>919.0</ele><time>2026-04-06T14:30:59.551Z</time></trkpt><trkpt lat="45.8759351" lon="11.6119037"><ele>918.0</ele><time>2026-04-06T14:31:00.552Z</time></trkpt><trkpt lat="45.8758504" lon="11.6118009"><ele>917.0</ele><time>2026-04-06T14:31:01.554Z</time></trkpt><trkpt lat="45.8757547" lon="11.6116821"><ele>916.0</ele><time>2026-04-06T14:31:02.558Z</time></trkpt><trkpt lat="45.8756713" lon="11.6115432"><ele>916.0</ele><time>2026-04-06T14:31:03.552Z</time></trkpt><trkpt lat="45.8756017" lon="11.6114051"><ele>915.9999999999999</ele><time>2026-04-06T14:31:04.557Z</time></trkpt><trkpt lat="45.8755331" lon="11.6112664"><ele>915.9999999999999</ele><time>2026-04-06T14:31:05.553Z</time></trkpt><trkpt lat="45.8754459" lon="11.6111734"><ele>916.0</ele><time>2026-04-06T14:31:06.553Z</time></trkpt><trkpt lat="45.8753611" lon="11.611098"><ele>916.0</ele><time>2026-04-06T14:31:07.551Z</time></trkpt><trkpt lat="45.8752729" lon="11.6110375"><ele>917.5</ele><time>2026-04-06T14:31:08.553Z</time></trkpt><trkpt lat="45.8751846" lon="11.6109743"><ele>919.0</ele><time>2026-04-06T14:31:09.559Z</time></trkpt><trkpt lat="45.8750497" lon="11.6109957"><ele>920.5</ele><time>2026-04-06T14:31:10.555Z</time></trkpt><trkpt lat="45.8749062" lon="11.611045"><ele>922.0</ele><time>2026-04-06T14:31:11.547Z</time></trkpt><trkpt lat="45.8747647" lon="11.6110854"><ele>922.0</ele><time>2026-04-06T14:31:12.558Z</time></trkpt><trkpt lat="45.8746408" lon="11.6110936"><ele>922.0</ele><time>2026-04-06T14:31:13.553Z</time></trkpt><trkpt lat="45.8745349" lon="11.6111461"><ele>922.0</ele><time>2026-04-06T14:31:14.553Z</time></trkpt><trkpt lat="45.8744097" lon="11.6111786"><ele>922.0</ele><time>2026-04-06T14:31:15.55Z</time></trkpt><trkpt lat="45.8742594" lon="11.611214"><ele>918.5</ele><time>2026-04-06T14:31:16.558Z</time></trkpt><trkpt lat="45.8741219" lon="11.6112229"><ele>915.0</ele><time>2026-04-06T14:31:17.548Z</time></trkpt><trkpt lat="45.8739775" lon="11.6112029"><ele>911.5</ele><time>2026-04-06T14:31:18.559Z</time></trkpt><trkpt lat="45.8738536" lon="11.6112017"><ele>908.0</ele><time>2026-04-06T14:31:19.595Z</time></trkpt><trkpt lat="45.8737579" lon="11.6112247"><ele>908.0</ele><time>2026-04-06T14:31:20.552Z</time></trkpt><trkpt lat="45.8736505" lon="11.6113174"><ele>908.0</ele><time>2026-04-06T14:31:22.558Z</time></trkpt><trkpt lat="45.8735763" lon="11.6114193"><ele>908.0</ele><time>2026-04-06T14:31:24.556Z</time></trkpt><trkpt lat="45.8735958" lon="11.6115069"><ele>908.0</ele><time>2026-04-06T14:31:25.55Z</time></trkpt><trkpt lat="45.8736139" lon="11.6116326"><ele>908.0</ele><time>2026-04-06T14:31:26.557Z</time></trkpt><trkpt lat="45.8736305" lon="11.6117725"><ele>908.0</ele><time>2026-04-06T14:31:27.554Z</time></trkpt><trkpt lat="45.8736991" lon="11.6119529"><ele>908.0</ele><time>2026-04-06T14:31:28.562Z</time></trkpt><trkpt lat="45.8737257" lon="11.6122003"><ele>908.0</ele><time>2026-04-06T14:31:29.631Z</time></trkpt><trkpt lat="45.8737365" lon="11.6123946"><ele>909.5</ele><time>2026-04-06T14:31:30.718Z</time></trkpt><trkpt lat="45.8738715" lon="11.6127859"><ele>911.0</ele><time>2026-04-06T14:31:32.556Z</time></trkpt><trkpt lat="45.873983" lon="11.6129291"><ele>915.0</ele><time>2026-04-06T14:31:33.546Z</time></trkpt><trkpt lat="45.8740817" lon="11.6131224"><ele>919.0</ele><time>2026-04-06T14:31:34.552Z</time></trkpt><trkpt lat="45.8741588" lon="11.6133031"><ele>923.0</ele><time>2026-04-06T14:31:35.548Z</time></trkpt><trkpt lat="45.874256" lon="11.6135155"><ele>920.3333333333334</ele><time>2026-04-06T14:31:36.556Z</time></trkpt><trkpt lat="45.8743476" lon="11.6136755"><ele>917.6666666666667</ele><time>2026-04-06T14:31:37.709Z</time></trkpt><trkpt lat="45.8743904" lon="11.6138796"><ele>915.0</ele><time>2026-04-06T14:31:38.712Z</time></trkpt><trkpt lat="45.874419" lon="11.6141252"><ele>923.0</ele><time>2026-04-06T14:31:39.715Z</time></trkpt><trkpt lat="45.8744703" lon="11.6146932"><ele>931.0</ele><time>2026-04-06T14:31:41.711Z</time></trkpt><trkpt lat="45.8746557" lon="11.6149872"><ele>931.0</ele><time>2026-04-06T14:31:43.529Z</time></trkpt><trkpt lat="45.8747884" lon="11.6150336"><ele>931.0</ele><time>2026-04-06T14:31:44.529Z</time></trkpt><trkpt lat="45.8748866" lon="11.6151652"><ele>931.0</ele><time>2026-04-06T14:31:45.542Z</time></trkpt><trkpt lat="45.8749859" lon="11.6152823"><ele>931.0</ele><time>2026-04-06T14:31:46.554Z</time></trkpt><trkpt lat="45.8751069" lon="11.6154459"><ele>927.6666666666666</ele><time>2026-04-06T14:31:47.556Z</time></trkpt><trkpt lat="45.875151" lon="11.6156311"><ele>924.3333333333333</ele><time>2026-04-06T14:31:48.575Z</time></trkpt><trkpt lat="45.8751727" lon="11.6158575"><ele>921.0</ele><time>2026-04-06T14:31:49.551Z</time></trkpt><trkpt lat="45.8752419" lon="11.6161135"><ele>922.0</ele><time>2026-04-06T14:31:50.536Z</time></trkpt><trkpt lat="45.8753008" lon="11.6163737"><ele>923.0</ele><time>2026-04-06T14:31:51.528Z</time></trkpt><trkpt lat="45.8753856" lon="11.616557"><ele>924.0</ele><time>2026-04-06T14:31:52.54Z</time></trkpt><trkpt lat="45.8754752" lon="11.6166652"><ele>924.0</ele><time>2026-04-06T14:31:53.55Z</time></trkpt><trkpt lat="45.8755216" lon="11.6168357"><ele>924.0</ele><time>2026-04-06T14:31:54.554Z</time></trkpt><trkpt lat="45.8754759" lon="11.6169696"><ele>924.0</ele><time>2026-04-06T14:31:55.547Z</time></trkpt><trkpt lat="45.8754379" lon="11.6171101"><ele>924.0</ele><time>2026-04-06T14:31:56.557Z</time></trkpt><trkpt lat="45.8753387" lon="11.6172838"><ele>928.3333333333333</ele><time>2026-04-06T14:31:57.553Z</time></trkpt><trkpt lat="45.8752237" lon="11.6174174"><ele>932.6666666666666</ele><time>2026-04-06T14:31:58.551Z</time></trkpt><trkpt lat="45.8751027" lon="11.6176194"><ele>937.0</ele><time>2026-04-06T14:31:59.55Z</time></trkpt><trkpt lat="45.8749327" lon="11.6177595"><ele>925.0</ele><time>2026-04-06T14:32:00.548Z</time></trkpt><trkpt lat="45.8747487" lon="11.617858"><ele>913.0</ele><time>2026-04-06T14:32:01.55Z</time></trkpt><trkpt lat="45.8746203" lon="11.6179301"><ele>901.0</ele><time>2026-04-06T14:32:02.543Z</time></trkpt><trkpt lat="45.8744511" lon="11.6180171"><ele>905.0</ele><time>2026-04-06T14:32:03.542Z</time></trkpt><trkpt lat="45.8742613" lon="11.618038"><ele>909.0</ele><time>2026-04-06T14:32:04.554Z</time></trkpt><trkpt lat="45.8741042" lon="11.6179936"><ele>913.0</ele><time>2026-04-06T14:32:05.549Z</time></trkpt><trkpt lat="45.8739753" lon="11.6179597"><ele>913.0</ele><time>2026-04-06T14:32:06.557Z</time></trkpt><trkpt lat="45.8738613" lon="11.617973"><ele>913.0</ele><time>2026-04-06T14:32:07.552Z</time></trkpt><trkpt lat="45.873755" lon="11.6179383"><ele>913.0</ele><time>2026-04-06T14:32:08.551Z</time></trkpt><trkpt lat="45.8736648" lon="11.6179291"><ele>913.0</ele><time>2026-04-06T14:32:09.546Z</time></trkpt><trkpt lat="45.8735725" lon="11.6178726"><ele>913.0</ele><time>2026-04-06T14:32:10.721Z</time></trkpt><trkpt lat="45.8734912" lon="11.6177635"><ele>929.0</ele><time>2026-04-06T14:32:11.713Z</time></trkpt><trkpt lat="45.8734032" lon="11.6176828"><ele>945.0</ele><time>2026-04-06T14:32:12.709Z</time></trkpt><trkpt lat="45.8731731" lon="11.6175542"><ele>961.0</ele><time>2026-04-06T14:32:14.553Z</time></trkpt><trkpt lat="45.8730509" lon="11.6175234"><ele>961.0</ele><time>2026-04-06T14:32:15.547Z</time></trkpt><trkpt lat="45.8729262" lon="11.617527"><ele>961.0</ele><time>2026-04-06T14:32:16.558Z</time></trkpt><trkpt lat="45.8727522" lon="11.617477"><ele>961.0</ele><time>2026-04-06T14:32:17.553Z</time></trkpt><trkpt lat="45.8725709" lon="11.6174254"><ele>967.5</ele><time>2026-04-06T14:32:18.557Z</time></trkpt><trkpt lat="45.872346" lon="11.6174566"><ele>974.0</ele><time>2026-04-06T14:32:19.55Z</time></trkpt><trkpt lat="45.8721032" lon="11.6175789"><ele>974.0</ele><time>2026-04-06T14:32:20.556Z</time></trkpt><trkpt lat="45.8718805" lon="11.6177377"><ele>974.0</ele><time>2026-04-06T14:32:21.553Z</time></trkpt><trkpt lat="45.8716557" lon="11.6179076"><ele>970.3333333333334</ele><time>2026-04-06T14:32:22.549Z</time></trkpt><trkpt lat="45.8714547" lon="11.618109"><ele>966.6666666666667</ele><time>2026-04-06T14:32:23.551Z</time></trkpt><trkpt lat="45.8713088" lon="11.6182968"><ele>963.0</ele><time>2026-04-06T14:32:24.552Z</time></trkpt><trkpt lat="45.8711419" lon="11.6183999"><ele>963.0</ele><time>2026-04-06T14:32:25.553Z</time></trkpt><trkpt lat="45.8709918" lon="11.6184892"><ele>963.0</ele><time>2026-04-06T14:32:26.547Z</time></trkpt><trkpt lat="45.8707617" lon="11.6186634"><ele>963.0</ele><time>2026-04-06T14:32:28.71Z</time></trkpt><trkpt lat="45.8704315" lon="11.6188367"><ele>962.3333333333333</ele><time>2026-04-06T14:32:30.546Z</time></trkpt><trkpt lat="45.8703323" lon="11.6188914"><ele>961.6666666666666</ele><time>2026-04-06T14:32:31.556Z</time></trkpt><trkpt lat="45.8701599" lon="11.6188825"><ele>961.0</ele><time>2026-04-06T14:32:32.549Z</time></trkpt><trkpt lat="45.86999" lon="11.6189189"><ele>961.0</ele><time>2026-04-06T14:32:33.552Z</time></trkpt><trkpt lat="45.8698449" lon="11.618956"><ele>961.0</ele><time>2026-04-06T14:32:34.55Z</time></trkpt><trkpt lat="45.8697297" lon="11.6189763"><ele>961.0</ele><time>2026-04-06T14:32:35.554Z</time></trkpt><trkpt lat="45.8696276" lon="11.6189836"><ele>961.0</ele><time>2026-04-06T14:32:36.548Z</time></trkpt><trkpt lat="45.8695438" lon="11.6190074"><ele>961.0</ele><time>2026-04-06T14:32:37.554Z</time></trkpt><trkpt lat="45.8694593" lon="11.6189746"><ele>961.0</ele><time>2026-04-06T14:32:38.548Z</time></trkpt><trkpt lat="45.8693515" lon="11.6189453"><ele>961.0</ele><time>2026-04-06T14:32:39.551Z</time></trkpt><trkpt lat="45.8692033" lon="11.6188816"><ele>961.0</ele><time>2026-04-06T14:32:40.546Z</time></trkpt><trkpt lat="45.8690646" lon="11.618866"><ele>966.5</ele><time>2026-04-06T14:32:41.717Z</time></trkpt><trkpt lat="45.8687208" lon="11.6187665"><ele>972.0</ele><time>2026-04-06T14:32:43.717Z</time></trkpt><trkpt lat="45.868418" lon="11.6187142"><ele>972.0</ele><time>2026-04-06T14:32:45.554Z</time></trkpt><trkpt lat="45.8683083" lon="11.6187563"><ele>972.0</ele><time>2026-04-06T14:32:46.551Z</time></trkpt><trkpt lat="45.868216" lon="11.6187732"><ele>972.0</ele><time>2026-04-06T14:32:47.551Z</time></trkpt><trkpt lat="45.8681115" lon="11.618772"><ele>972.0</ele><time>2026-04-06T14:32:48.548Z</time></trkpt><trkpt lat="45.8680097" lon="11.6187345"><ele>972.0</ele><time>2026-04-06T14:32:49.713Z</time></trkpt><trkpt lat="45.8677291" lon="11.6186035"><ele>972.5</ele><time>2026-04-06T14:32:51.554Z</time></trkpt><trkpt lat="45.8675587" lon="11.6185641"><ele>973.0</ele><time>2026-04-06T14:32:52.549Z</time></trkpt><trkpt lat="45.8674394" lon="11.6185576"><ele>973.5</ele><time>2026-04-06T14:32:53.55Z</time></trkpt><trkpt lat="45.8673145" lon="11.6185163"><ele>974.0</ele><time>2026-04-06T14:32:54.55Z</time></trkpt><trkpt lat="45.8671886" lon="11.6184609"><ele>974.0</ele><time>2026-04-06T14:32:55.547Z</time></trkpt><trkpt lat="45.8670753" lon="11.6184028"><ele>974.0</ele><time>2026-04-06T14:32:56.535Z</time></trkpt><trkpt lat="45.8669913" lon="11.6183193"><ele>974.0</ele><time>2026-04-06T14:32:57.688Z</time></trkpt><trkpt lat="45.8668813" lon="11.6178948"><ele>974.0</ele><time>2026-04-06T14:32:59.532Z</time></trkpt><trkpt lat="45.8668369" lon="11.617683"><ele>974.0</ele><time>2026-04-06T14:33:00.543Z</time></trkpt><trkpt lat="45.8667768" lon="11.6174721"><ele>974.0</ele><time>2026-04-06T14:33:01.549Z</time></trkpt><trkpt lat="45.8667082" lon="11.6173114"><ele>974.0</ele><time>2026-04-06T14:33:02.711Z</time></trkpt><trkpt lat="45.8665165" lon="11.6170976"><ele>974.0</ele><time>2026-04-06T14:33:04.553Z</time></trkpt><trkpt lat="45.8664174" lon="11.617051"><ele>974.0000000000001</ele><time>2026-04-06T14:33:05.546Z</time></trkpt><trkpt lat="45.8663132" lon="11.617019"><ele>974.0000000000001</ele><time>2026-04-06T14:33:06.547Z</time></trkpt><trkpt lat="45.8662082" lon="11.6169695"><ele>974.0</ele><time>2026-04-06T14:33:07.542Z</time></trkpt><trkpt lat="45.8660922" lon="11.6169286"><ele>974.0</ele><time>2026-04-06T14:33:08.548Z</time></trkpt><trkpt lat="45.8659841" lon="11.6169175"><ele>972.6</ele><time>2026-04-06T14:33:09.545Z</time></trkpt><trkpt lat="45.865887" lon="11.6169134"><ele>971.2</ele><time>2026-04-06T14:33:10.545Z</time></trkpt><trkpt lat="45.8657901" lon="11.6169446"><ele>969.8000000000001</ele><time>2026-04-06T14:33:11.559Z</time></trkpt><trkpt lat="45.8656715" lon="11.6169912"><ele>968.4000000000001</ele><time>2026-04-06T14:33:13.704Z</time></trkpt><trkpt lat="45.8656115" lon="11.6169575"><ele>967.0</ele><time>2026-04-06T14:33:14.711Z</time></trkpt><trkpt lat="45.8655036" lon="11.6169823"><ele>966.2</ele><time>2026-04-06T14:33:16.548Z</time></trkpt><trkpt lat="45.8654203" lon="11.6169564"><ele>965.4000000000001</ele><time>2026-04-06T14:33:17.545Z</time></trkpt><trkpt lat="45.865343" lon="11.6169106"><ele>964.5999999999999</ele><time>2026-04-06T14:33:18.713Z</time></trkpt><trkpt lat="45.8652688" lon="11.6168763"><ele>963.8</ele><time>2026-04-06T14:33:19.706Z</time></trkpt><trkpt lat="45.8652133" lon="11.6168222"><ele>963.0</ele><time>2026-04-06T14:33:20.715Z</time></trkpt><trkpt lat="45.8650739" lon="11.6165267"><ele>963.0</ele><time>2026-04-06T14:33:22.712Z</time></trkpt><trkpt lat="45.8649551" lon="11.616302"><ele>963.0</ele><time>2026-04-06T14:33:24.714Z</time></trkpt><trkpt lat="45.8648735" lon="11.6162193"><ele>963.0</ele><time>2026-04-06T14:33:25.577Z</time></trkpt><trkpt lat="45.8647395" lon="11.6161974"><ele>963.0</ele><time>2026-04-06T14:33:26.545Z</time></trkpt><trkpt lat="45.8646456" lon="11.6162045"><ele>963.0</ele><time>2026-04-06T14:33:27.545Z</time></trkpt><trkpt lat="45.8645226" lon="11.6162933"><ele>963.0</ele><time>2026-04-06T14:33:28.548Z</time></trkpt><trkpt lat="45.8644147" lon="11.6163244"><ele>963.0</ele><time>2026-04-06T14:33:29.55Z</time></trkpt><trkpt lat="45.8642979" lon="11.6164"><ele>963.0</ele><time>2026-04-06T14:33:30.55Z</time></trkpt><trkpt lat="45.8641759" lon="11.6164252"><ele>962.25</ele><time>2026-04-06T14:33:31.547Z</time></trkpt><trkpt lat="45.8640893" lon="11.6164071"><ele>961.5</ele><time>2026-04-06T14:33:32.549Z</time></trkpt><trkpt lat="45.8639902" lon="11.6163247"><ele>960.75</ele><time>2026-04-06T14:33:33.719Z</time></trkpt><trkpt lat="45.863882" lon="11.6160223"><ele>960.0</ele><time>2026-04-06T14:33:35.554Z</time></trkpt><trkpt lat="45.8638578" lon="11.6158415"><ele>960.0</ele><time>2026-04-06T14:33:36.708Z</time></trkpt><trkpt lat="45.8637807" lon="11.6154512"><ele>960.0</ele><time>2026-04-06T14:33:38.554Z</time></trkpt><trkpt lat="45.8637239" lon="11.6152551"><ele>960.0</ele><time>2026-04-06T14:33:39.552Z</time></trkpt><trkpt lat="45.8636483" lon="11.6150715"><ele>959.5</ele><time>2026-04-06T14:33:40.712Z</time></trkpt><trkpt lat="45.8634864" lon="11.6148119"><ele>959.0</ele><time>2026-04-06T14:33:42.714Z</time></trkpt><trkpt lat="45.86341" lon="11.6147241"><ele>958.5</ele><time>2026-04-06T14:33:43.712Z</time></trkpt><trkpt lat="45.8633405" lon="11.6146624"><ele>958.0</ele><time>2026-04-06T14:33:44.717Z</time></trkpt><trkpt lat="45.8632765" lon="11.6146168"><ele>958.0</ele><time>2026-04-06T14:33:45.711Z</time></trkpt><trkpt lat="45.8632007" lon="11.6145818"><ele>958.0</ele><time>2026-04-06T14:33:46.717Z</time></trkpt><trkpt lat="45.8631577" lon="11.61451"><ele>958.0</ele><time>2026-04-06T14:33:47.714Z</time></trkpt><trkpt lat="45.8631009" lon="11.6144343"><ele>958.0</ele><time>2026-04-06T14:33:49.551Z</time></trkpt><trkpt lat="45.8630227" lon="11.6144433"><ele>958.0</ele><time>2026-04-06T14:33:51.557Z</time></trkpt><trkpt lat="45.862959" lon="11.6144525"><ele>958.0</ele><time>2026-04-06T14:33:52.552Z</time></trkpt><trkpt lat="45.8628899" lon="11.6144884"><ele>958.0</ele><time>2026-04-06T14:33:53.555Z</time></trkpt><trkpt lat="45.862811" lon="11.6145364"><ele>958.0</ele><time>2026-04-06T14:33:54.549Z</time></trkpt><trkpt lat="45.862734" lon="11.6146146"><ele>958.0</ele><time>2026-04-06T14:33:55.554Z</time></trkpt><trkpt lat="45.8626204" lon="11.6146885"><ele>958.0</ele><time>2026-04-06T14:33:56.545Z</time></trkpt><trkpt lat="45.8625069" lon="11.6147083"><ele>958.0</ele><time>2026-04-06T14:33:57.551Z</time></trkpt><trkpt lat="45.8624371" lon="11.6147218"><ele>958.0</ele><time>2026-04-06T14:33:58.552Z</time></trkpt><trkpt lat="45.8623352" lon="11.6146848"><ele>957.9999999999999</ele><time>2026-04-06T14:34:00.527Z</time></trkpt><trkpt lat="45.8622841" lon="11.6146124"><ele>958.0</ele><time>2026-04-06T14:34:01.524Z</time></trkpt><trkpt lat="45.8622512" lon="11.6145048"><ele>958.0</ele><time>2026-04-06T14:34:02.529Z</time></trkpt><trkpt lat="45.8622155" lon="11.6144025"><ele>958.0</ele><time>2026-04-06T14:34:03.53Z</time></trkpt><trkpt lat="45.8621958" lon="11.6142737"><ele>957.9999999999999</ele><time>2026-04-06T14:34:04.536Z</time></trkpt><trkpt lat="45.8622047" lon="11.6141334"><ele>958.0</ele><time>2026-04-06T14:34:05.553Z</time></trkpt><trkpt lat="45.862257" lon="11.6139706"><ele>958.0</ele><time>2026-04-06T14:34:06.547Z</time></trkpt><trkpt lat="45.8623406" lon="11.6138164"><ele>958.0</ele><time>2026-04-06T14:34:07.552Z</time></trkpt><trkpt lat="45.8624223" lon="11.6136646"><ele>958.0</ele><time>2026-04-06T14:34:08.548Z</time></trkpt><trkpt lat="45.8625039" lon="11.6135104"><ele>958.0</ele><time>2026-04-06T14:34:09.551Z</time></trkpt><trkpt lat="45.8625777" lon="11.6133663"><ele>959.8</ele><time>2026-04-06T14:34:10.545Z</time></trkpt><trkpt lat="45.862636" lon="11.6132221"><ele>961.5999999999999</ele><time>2026-04-06T14:34:11.558Z</time></trkpt><trkpt lat="45.8626986" lon="11.6131088"><ele>963.4000000000001</ele><time>2026-04-06T14:34:12.547Z</time></trkpt><trkpt lat="45.8627392" lon="11.612979"><ele>965.2</ele><time>2026-04-06T14:34:14.709Z</time></trkpt><trkpt lat="45.8627431" lon="11.6128556"><ele>967.0</ele><time>2026-04-06T14:34:17.555Z</time></trkpt><trkpt lat="45.8627172" lon="11.6127701"><ele>962.25</ele><time>2026-04-06T14:34:18.546Z</time></trkpt><trkpt lat="45.8626031" lon="11.6127097"><ele>957.5</ele><time>2026-04-06T14:34:20.549Z</time></trkpt><trkpt lat="45.8624677" lon="11.6127124"><ele>952.75</ele><time>2026-04-06T14:34:22.689Z</time></trkpt><trkpt lat="45.8623812" lon="11.6126898"><ele>948.0</ele><time>2026-04-06T14:34:23.694Z</time></trkpt><trkpt lat="45.86219" lon="11.6126383"><ele>948.0</ele><time>2026-04-06T14:34:25.528Z</time></trkpt><trkpt lat="45.8620778" lon="11.6125349"><ele>948.0</ele><time>2026-04-06T14:34:26.53Z</time></trkpt><trkpt lat="45.8619773" lon="11.6123666"><ele>948.0</ele><time>2026-04-06T14:34:27.525Z</time></trkpt><trkpt lat="45.8618654" lon="11.6121754"><ele>946.3333333333333</ele><time>2026-04-06T14:34:28.531Z</time></trkpt><trkpt lat="45.8617434" lon="11.6120049"><ele>944.6666666666666</ele><time>2026-04-06T14:34:29.689Z</time></trkpt><trkpt lat="45.8616215" lon="11.6118687"><ele>943.0</ele><time>2026-04-06T14:34:30.7Z</time></trkpt><trkpt lat="45.8614705" lon="11.6116662"><ele>943.0</ele><time>2026-04-06T14:34:31.713Z</time></trkpt><trkpt lat="45.8613294" lon="11.6114809"><ele>943.0</ele><time>2026-04-06T14:34:32.712Z</time></trkpt><trkpt lat="45.8611943" lon="11.6112863"><ele>943.0</ele><time>2026-04-06T14:34:33.71Z</time></trkpt><trkpt lat="45.8610427" lon="11.6110736"><ele>941.5</ele><time>2026-04-06T14:34:34.708Z</time></trkpt><trkpt lat="45.860866" lon="11.6108127"><ele>940.0</ele><time>2026-04-06T14:34:35.711Z</time></trkpt><trkpt lat="45.8606633" lon="11.6105224"><ele>942.0</ele><time>2026-04-06T14:34:36.708Z</time></trkpt><trkpt lat="45.8604926" lon="11.610294"><ele>944.0</ele><time>2026-04-06T14:34:37.716Z</time></trkpt><trkpt lat="45.8600748" lon="11.6098981"><ele>947.5</ele><time>2026-04-06T14:34:39.55Z</time></trkpt><trkpt lat="45.8598436" lon="11.609719"><ele>951.0</ele><time>2026-04-06T14:34:40.552Z</time></trkpt><trkpt lat="45.859638" lon="11.6095882"><ele>954.5</ele><time>2026-04-06T14:34:41.573Z</time></trkpt><trkpt lat="45.8594335" lon="11.6094618"><ele>958.0</ele><time>2026-04-06T14:34:42.543Z</time></trkpt><trkpt lat="45.8591981" lon="11.6094093"><ele>958.0</ele><time>2026-04-06T14:34:43.547Z</time></trkpt><trkpt lat="45.8589852" lon="11.6094203"><ele>958.0</ele><time>2026-04-06T14:34:44.549Z</time></trkpt><trkpt lat="45.8587621" lon="11.6095515"><ele>958.6666666666666</ele><time>2026-04-06T14:34:45.548Z</time></trkpt><trkpt lat="45.858539" lon="11.6096352"><ele>959.3333333333333</ele><time>2026-04-06T14:34:46.541Z</time></trkpt><trkpt lat="45.8583336" lon="11.6096481"><ele>960.0</ele><time>2026-04-06T14:34:47.631Z</time></trkpt><trkpt lat="45.8581384" lon="11.6097064"><ele>960.0</ele><time>2026-04-06T14:34:48.553Z</time></trkpt><trkpt lat="45.8579439" lon="11.6096293"><ele>960.0</ele><time>2026-04-06T14:34:49.546Z</time></trkpt><trkpt lat="45.8577574" lon="11.609513"><ele>960.0</ele><time>2026-04-06T14:34:50.697Z</time></trkpt><trkpt lat="45.8574262" lon="11.6092513"><ele>956.6666666666667</ele><time>2026-04-06T14:34:52.532Z</time></trkpt><trkpt lat="45.8572646" lon="11.6091544"><ele>953.3333333333334</ele><time>2026-04-06T14:34:53.703Z</time></trkpt><trkpt lat="45.8570359" lon="11.6089626"><ele>950.0</ele><time>2026-04-06T14:34:55.556Z</time></trkpt><trkpt lat="45.8569285" lon="11.6088044"><ele>953.0</ele><time>2026-04-06T14:34:56.574Z</time></trkpt><trkpt lat="45.8568328" lon="11.6086349"><ele>956.0</ele><time>2026-04-06T14:34:57.558Z</time></trkpt><trkpt lat="45.8566848" lon="11.6084527"><ele>959.0</ele><time>2026-04-06T14:34:58.7Z</time></trkpt><trkpt lat="45.8565679" lon="11.608105"><ele>968.0</ele><time>2026-04-06T14:34:59.716Z</time></trkpt><trkpt lat="45.8563785" lon="11.6074622"><ele>968.0</ele><time>2026-04-06T14:35:01.547Z</time></trkpt><trkpt lat="45.8562429" lon="11.607076"><ele>968.0</ele><time>2026-04-06T14:35:02.574Z</time></trkpt><trkpt lat="45.8561043" lon="11.606747"><ele>968.3333333333334</ele><time>2026-04-06T14:35:03.546Z</time></trkpt><trkpt lat="45.8559743" lon="11.6064689"><ele>968.6666666666667</ele><time>2026-04-06T14:35:04.545Z</time></trkpt><trkpt lat="45.8558495" lon="11.606243"><ele>969.0</ele><time>2026-04-06T14:35:05.526Z</time></trkpt><trkpt lat="45.8557322" lon="11.606065"><ele>970.6666666666667</ele><time>2026-04-06T14:35:06.541Z</time></trkpt><trkpt lat="45.8555714" lon="11.6059548"><ele>972.3333333333334</ele><time>2026-04-06T14:35:07.569Z</time></trkpt><trkpt lat="45.8554133" lon="11.6058647"><ele>974.0</ele><time>2026-04-06T14:35:08.557Z</time></trkpt><trkpt lat="45.8552726" lon="11.6057725"><ele>974.0</ele><time>2026-04-06T14:35:09.554Z</time></trkpt><trkpt lat="45.8551673" lon="11.6055962"><ele>974.0</ele><time>2026-04-06T14:35:10.539Z</time></trkpt><trkpt lat="45.8550708" lon="11.6053657"><ele>974.0</ele><time>2026-04-06T14:35:11.539Z</time></trkpt><trkpt lat="45.8549878" lon="11.6051293"><ele>975.6666666666667</ele><time>2026-04-06T14:35:12.53Z</time></trkpt><trkpt lat="45.8548854" lon="11.604918"><ele>977.3333333333333</ele><time>2026-04-06T14:35:13.531Z</time></trkpt><trkpt lat="45.8547849" lon="11.6047341"><ele>979.0</ele><time>2026-04-06T14:35:14.542Z</time></trkpt><trkpt lat="45.8546663" lon="11.604534"><ele>978.6666666666666</ele><time>2026-04-06T14:35:15.557Z</time></trkpt><trkpt lat="45.8545386" lon="11.6043475"><ele>978.3333333333333</ele><time>2026-04-06T14:35:16.557Z</time></trkpt><trkpt lat="45.8543954" lon="11.6042124"><ele>978.0</ele><time>2026-04-06T14:35:17.557Z</time></trkpt><trkpt lat="45.8542341" lon="11.6041045"><ele>978.0</ele><time>2026-04-06T14:35:18.554Z</time></trkpt><trkpt lat="45.8540444" lon="11.6039577"><ele>978.0</ele><time>2026-04-06T14:35:19.56Z</time></trkpt><trkpt lat="45.8538793" lon="11.6038173"><ele>978.0</ele><time>2026-04-06T14:35:20.556Z</time></trkpt><trkpt lat="45.8536897" lon="11.6036415"><ele>975.5</ele><time>2026-04-06T14:35:21.554Z</time></trkpt><trkpt lat="45.8534342" lon="11.603551"><ele>973.0</ele><time>2026-04-06T14:35:22.559Z</time></trkpt><trkpt lat="45.8532195" lon="11.6034812"><ele>973.0</ele><time>2026-04-06T14:35:23.553Z</time></trkpt><trkpt lat="45.8530116" lon="11.6034418"><ele>973.0</ele><time>2026-04-06T14:35:24.552Z</time></trkpt><trkpt lat="45.8527811" lon="11.6034682"><ele>973.0</ele><time>2026-04-06T14:35:25.554Z</time></trkpt><trkpt lat="45.8525375" lon="11.6035231"><ele>971.5</ele><time>2026-04-06T14:35:26.547Z</time></trkpt><trkpt lat="45.8522917" lon="11.6035592"><ele>970.0</ele><time>2026-04-06T14:35:27.555Z</time></trkpt><trkpt lat="45.8520554" lon="11.6036123"><ele>974.3333333333333</ele><time>2026-04-06T14:35:28.552Z</time></trkpt><trkpt lat="45.851832" lon="11.603666"><ele>978.6666666666667</ele><time>2026-04-06T14:35:29.544Z</time></trkpt><trkpt lat="45.851641" lon="11.6037118"><ele>983.0</ele><time>2026-04-06T14:35:30.557Z</time></trkpt><trkpt lat="45.8514624" lon="11.6037567"><ele>983.0</ele><time>2026-04-06T14:35:31.556Z</time></trkpt><trkpt lat="45.8512824" lon="11.6038083"><ele>983.0</ele><time>2026-04-06T14:35:32.553Z</time></trkpt><trkpt lat="45.8510997" lon="11.6038578"><ele>983.0</ele><time>2026-04-06T14:35:33.556Z</time></trkpt><trkpt lat="45.8509049" lon="11.6038429"><ele>983.3333333333334</ele><time>2026-04-06T14:35:34.554Z</time></trkpt><trkpt lat="45.8507031" lon="11.6037616"><ele>983.6666666666667</ele><time>2026-04-06T14:35:35.546Z</time></trkpt><trkpt lat="45.8505333" lon="11.6036775"><ele>984.0</ele><time>2026-04-06T14:35:36.554Z</time></trkpt><trkpt lat="45.8503475" lon="11.6035139"><ele>982.6666666666667</ele><time>2026-04-06T14:35:37.537Z</time></trkpt><trkpt lat="45.8501478" lon="11.6033638"><ele>981.3333333333334</ele><time>2026-04-06T14:35:38.527Z</time></trkpt><trkpt lat="45.8499575" lon="11.6032078"><ele>980.0</ele><time>2026-04-06T14:35:39.547Z</time></trkpt><trkpt lat="45.8497634" lon="11.6030764"><ele>980.0</ele><time>2026-04-06T14:35:40.547Z</time></trkpt><trkpt lat="45.8495719" lon="11.6029254"><ele>980.0</ele><time>2026-04-06T14:35:41.722Z</time></trkpt><trkpt lat="45.8492223" lon="11.6025952"><ele>979.3333333333334</ele><time>2026-04-06T14:35:43.544Z</time></trkpt><trkpt lat="45.849041" lon="11.6024485"><ele>978.6666666666667</ele><time>2026-04-06T14:35:44.554Z</time></trkpt><trkpt lat="45.8488909" lon="11.6023018"><ele>978.0</ele><time>2026-04-06T14:35:45.553Z</time></trkpt><trkpt lat="45.8487631" lon="11.6021534"><ele>978.0</ele><time>2026-04-06T14:35:46.548Z</time></trkpt><trkpt lat="45.8486509" lon="11.6020015"><ele>978.0</ele><time>2026-04-06T14:35:47.54Z</time></trkpt><trkpt lat="45.8485358" lon="11.6018484"><ele>978.0</ele><time>2026-04-06T14:35:48.544Z</time></trkpt><trkpt lat="45.8484148" lon="11.6016952"><ele>977.75</ele><time>2026-04-06T14:35:49.548Z</time></trkpt><trkpt lat="45.8482694" lon="11.601606"><ele>977.5</ele><time>2026-04-06T14:35:50.549Z</time></trkpt><trkpt lat="45.8481433" lon="11.6015779"><ele>977.25</ele><time>2026-04-06T14:35:51.549Z</time></trkpt><trkpt lat="45.8480083" lon="11.6015636"><ele>977.0</ele><time>2026-04-06T14:35:52.551Z</time></trkpt><trkpt lat="45.8478578" lon="11.6016584"><ele>977.0</ele><time>2026-04-06T14:35:53.549Z</time></trkpt><trkpt lat="45.84766" lon="11.6017564"><ele>977.0</ele><time>2026-04-06T14:35:54.549Z</time></trkpt><trkpt lat="45.8474633" lon="11.6018435"><ele>977.0</ele><time>2026-04-06T14:35:55.533Z</time></trkpt><trkpt lat="45.8472644" lon="11.6019175"><ele>976.6666666666667</ele><time>2026-04-06T14:35:56.531Z</time></trkpt><trkpt lat="45.8470871" lon="11.6019952"><ele>976.3333333333333</ele><time>2026-04-06T14:35:57.529Z</time></trkpt><trkpt lat="45.8469277" lon="11.6020822"><ele>976.0</ele><time>2026-04-06T14:35:58.546Z</time></trkpt><trkpt lat="45.8467752" lon="11.602134"><ele>977.0</ele><time>2026-04-06T14:35:59.556Z</time></trkpt><trkpt lat="45.8466276" lon="11.6021532"><ele>978.0</ele><time>2026-04-06T14:36:00.551Z</time></trkpt><trkpt lat="45.8464625" lon="11.6021351"><ele>979.0</ele><time>2026-04-06T14:36:01.551Z</time></trkpt><trkpt lat="45.8463023" lon="11.6020902"><ele>979.0</ele><time>2026-04-06T14:36:02.552Z</time></trkpt><trkpt lat="45.8461525" lon="11.6020166"><ele>979.0</ele><time>2026-04-06T14:36:03.554Z</time></trkpt><trkpt lat="45.84603" lon="11.6019273"><ele>979.0</ele><time>2026-04-06T14:36:04.552Z</time></trkpt><trkpt lat="45.8459191" lon="11.6018381"><ele>979.0</ele><time>2026-04-06T14:36:05.553Z</time></trkpt><trkpt lat="45.8458124" lon="11.6017481"><ele>980.0</ele><time>2026-04-06T14:36:06.551Z</time></trkpt><trkpt lat="45.8457109" lon="11.6016256"><ele>981.0</ele><time>2026-04-06T14:36:07.549Z</time></trkpt><trkpt lat="45.8456045" lon="11.6014416"><ele>982.0</ele><time>2026-04-06T14:36:08.598Z</time></trkpt><trkpt lat="45.8454714" lon="11.6012252"><ele>981.6666666666666</ele><time>2026-04-06T14:36:09.552Z</time></trkpt><trkpt lat="45.8453406" lon="11.6010232"><ele>981.3333333333333</ele><time>2026-04-06T14:36:10.536Z</time></trkpt><trkpt lat="45.8452157" lon="11.6008224"><ele>981.0</ele><time>2026-04-06T14:36:11.55Z</time></trkpt><trkpt lat="45.8450759" lon="11.6005682"><ele>979.6666666666667</ele><time>2026-04-06T14:36:12.546Z</time></trkpt><trkpt lat="45.8449329" lon="11.6003163"><ele>978.3333333333334</ele><time>2026-04-06T14:36:13.55Z</time></trkpt><trkpt lat="45.8448021" lon="11.600087"><ele>977.0</ele><time>2026-04-06T14:36:14.548Z</time></trkpt><trkpt lat="45.8446732" lon="11.5998705"><ele>977.0</ele><time>2026-04-06T14:36:15.544Z</time></trkpt><trkpt lat="45.8445464" lon="11.5996711"><ele>977.0</ele><time>2026-04-06T14:36:16.55Z</time></trkpt><trkpt lat="45.8444732" lon="11.5994544"><ele>977.0</ele><time>2026-04-06T14:36:17.549Z</time></trkpt><trkpt lat="45.8444134" lon="11.5992374"><ele>981.6666666666667</ele><time>2026-04-06T14:36:18.551Z</time></trkpt><trkpt lat="45.8443776" lon="11.5989923"><ele>986.3333333333333</ele><time>2026-04-06T14:36:19.554Z</time></trkpt><trkpt lat="45.8443283" lon="11.5986991"><ele>991.0</ele><time>2026-04-06T14:36:20.55Z</time></trkpt><trkpt lat="45.8442707" lon="11.5983738"><ele>990.5</ele><time>2026-04-06T14:36:21.556Z</time></trkpt><trkpt lat="45.8442086" lon="11.5980142"><ele>990.0</ele><time>2026-04-06T14:36:22.548Z</time></trkpt><trkpt lat="45.8441535" lon="11.5976487"><ele>990.0</ele><time>2026-04-06T14:36:23.556Z</time></trkpt><trkpt lat="45.8440889" lon="11.5973016"><ele>990.0</ele><time>2026-04-06T14:36:24.55Z</time></trkpt><trkpt lat="45.8440237" lon="11.5969754"><ele>988.5</ele><time>2026-04-06T14:36:25.552Z</time></trkpt><trkpt lat="45.8439384" lon="11.5966518"><ele>987.0</ele><time>2026-04-06T14:36:26.55Z</time></trkpt><trkpt lat="45.843833" lon="11.5963604"><ele>993.3333333333333</ele><time>2026-04-06T14:36:27.547Z</time></trkpt><trkpt lat="45.8437195" lon="11.5960886"><ele>999.6666666666666</ele><time>2026-04-06T14:36:28.545Z</time></trkpt><trkpt lat="45.8436243" lon="11.5958369"><ele>1006.0</ele><time>2026-04-06T14:36:29.545Z</time></trkpt><trkpt lat="45.8435408" lon="11.5955975"><ele>1006.0</ele><time>2026-04-06T14:36:30.545Z</time></trkpt><trkpt lat="45.8434703" lon="11.5953431"><ele>1006.0</ele><time>2026-04-06T14:36:31.551Z</time></trkpt><trkpt lat="45.8433952" lon="11.5950979"><ele>1006.0</ele><time>2026-04-06T14:36:32.545Z</time></trkpt><trkpt lat="45.843352" lon="11.5948793"><ele>1006.3333333333333</ele><time>2026-04-06T14:36:33.549Z</time></trkpt><trkpt lat="45.8432804" lon="11.5946371"><ele>1006.6666666666667</ele><time>2026-04-06T14:36:34.548Z</time></trkpt><trkpt lat="45.8431708" lon="11.594465"><ele>1007.0</ele><time>2026-04-06T14:36:35.552Z</time></trkpt><trkpt lat="45.8430145" lon="11.5943243"><ele>1009.0</ele><time>2026-04-06T14:36:36.553Z</time></trkpt><trkpt lat="45.8428672" lon="11.594141"><ele>1011.0</ele><time>2026-04-06T14:36:37.553Z</time></trkpt><trkpt lat="45.8427221" lon="11.5939396"><ele>1013.0</ele><time>2026-04-06T14:36:38.549Z</time></trkpt><trkpt lat="45.842553" lon="11.5937457"><ele>1015.5</ele><time>2026-04-06T14:36:39.551Z</time></trkpt><trkpt lat="45.8423704" lon="11.5935577"><ele>1018.0</ele><time>2026-04-06T14:36:40.553Z</time></trkpt><trkpt lat="45.8421843" lon="11.593357"><ele>1018.0</ele><time>2026-04-06T14:36:41.562Z</time></trkpt><trkpt lat="45.8420114" lon="11.5932144"><ele>1018.0</ele><time>2026-04-06T14:36:42.555Z</time></trkpt><trkpt lat="45.8418626" lon="11.5930852"><ele>1018.0</ele><time>2026-04-06T14:36:43.554Z</time></trkpt><trkpt lat="45.8417162" lon="11.5929332"><ele>1016.6666666666666</ele><time>2026-04-06T14:36:44.551Z</time></trkpt><trkpt lat="45.8415827" lon="11.5927544"><ele>1015.3333333333333</ele><time>2026-04-06T14:36:45.551Z</time></trkpt><trkpt lat="45.8414643" lon="11.5926528"><ele>1014.0</ele><time>2026-04-06T14:36:46.557Z</time></trkpt><trkpt lat="45.8413105" lon="11.5925316"><ele>1014.0</ele><time>2026-04-06T14:36:47.55Z</time></trkpt><trkpt lat="45.8411543" lon="11.5924316"><ele>1014.0</ele><time>2026-04-06T14:36:48.56Z</time></trkpt><trkpt lat="45.8409938" lon="11.5923372"><ele>1014.0</ele><time>2026-04-06T14:36:49.556Z</time></trkpt><trkpt lat="45.8408312" lon="11.592254"><ele>1012.5</ele><time>2026-04-06T14:36:50.556Z</time></trkpt><trkpt lat="45.8406937" lon="11.5922004"><ele>1011.0</ele><time>2026-04-06T14:36:51.554Z</time></trkpt><trkpt lat="45.8405492" lon="11.5921602"><ele>1009.5</ele><time>2026-04-06T14:36:52.56Z</time></trkpt><trkpt lat="45.8404112" lon="11.592144"><ele>1008.0</ele><time>2026-04-06T14:36:53.56Z</time></trkpt><trkpt lat="45.840244" lon="11.5921439"><ele>1010.0</ele><time>2026-04-06T14:36:54.559Z</time></trkpt><trkpt lat="45.8400909" lon="11.5921584"><ele>1012.0</ele><time>2026-04-06T14:36:55.559Z</time></trkpt><trkpt lat="45.8399596" lon="11.5922028"><ele>1014.0</ele><time>2026-04-06T14:36:56.56Z</time></trkpt><trkpt lat="45.839806" lon="11.5922056"><ele>1016.0</ele><time>2026-04-06T14:36:57.556Z</time></trkpt><trkpt lat="45.8396535" lon="11.5921912"><ele>1016.0</ele><time>2026-04-06T14:36:58.558Z</time></trkpt><trkpt lat="45.8395122" lon="11.5921476"><ele>1016.0</ele><time>2026-04-06T14:36:59.559Z</time></trkpt><trkpt lat="45.8393569" lon="11.5920002"><ele>1016.0</ele><time>2026-04-06T14:37:00.556Z</time></trkpt><trkpt lat="45.83921" lon="11.5918338"><ele>1017.0</ele><time>2026-04-06T14:37:01.551Z</time></trkpt><trkpt lat="45.8391002" lon="11.5916545"><ele>1018.0</ele><time>2026-04-06T14:37:02.551Z</time></trkpt><trkpt lat="45.8389282" lon="11.5914162"><ele>1019.0</ele><time>2026-04-06T14:37:03.56Z</time></trkpt><trkpt lat="45.8387646" lon="11.5911162"><ele>1019.0</ele><time>2026-04-06T14:37:04.549Z</time></trkpt><trkpt lat="45.8386144" lon="11.5908028"><ele>1019.0</ele><time>2026-04-06T14:37:05.559Z</time></trkpt><trkpt lat="45.8384211" lon="11.590415"><ele>1014.5</ele><time>2026-04-06T14:37:06.552Z</time></trkpt><trkpt lat="45.8382879" lon="11.5900865"><ele>1010.0</ele><time>2026-04-06T14:37:07.553Z</time></trkpt><trkpt lat="45.838149" lon="11.5897071"><ele>1016.0</ele><time>2026-04-06T14:37:08.555Z</time></trkpt><trkpt lat="45.8380067" lon="11.5893606"><ele>1022.0</ele><time>2026-04-06T14:37:09.554Z</time></trkpt><trkpt lat="45.8378594" lon="11.5890436"><ele>1022.0</ele><time>2026-04-06T14:37:10.552Z</time></trkpt><trkpt lat="45.8377033" lon="11.5887217"><ele>1022.0</ele><time>2026-04-06T14:37:11.565Z</time></trkpt><trkpt lat="45.8375591" lon="11.5884293"><ele>1019.6666666666667</ele><time>2026-04-06T14:37:12.555Z</time></trkpt><trkpt lat="45.8374196" lon="11.5881699"><ele>1017.3333333333333</ele><time>2026-04-06T14:37:13.55Z</time></trkpt><trkpt lat="45.8372959" lon="11.5879306"><ele>1015.0</ele><time>2026-04-06T14:37:14.553Z</time></trkpt><trkpt lat="45.8371737" lon="11.5876738"><ele>1015.0</ele><time>2026-04-06T14:37:15.549Z</time></trkpt><trkpt lat="45.8370592" lon="11.5874271"><ele>1015.0</ele><time>2026-04-06T14:37:16.555Z</time></trkpt><trkpt lat="45.8369342" lon="11.5871644"><ele>1015.0</ele><time>2026-04-06T14:37:17.554Z</time></trkpt><trkpt lat="45.8368257" lon="11.5869392"><ele>1016.3333333333333</ele><time>2026-04-06T14:37:18.553Z</time></trkpt><trkpt lat="45.836712" lon="11.5867175"><ele>1017.6666666666667</ele><time>2026-04-06T14:37:19.55Z</time></trkpt><trkpt lat="45.8366077" lon="11.5865463"><ele>1019.0</ele><time>2026-04-06T14:37:20.548Z</time></trkpt><trkpt lat="45.8364929" lon="11.5863981"><ele>1019.0</ele><time>2026-04-06T14:37:21.549Z</time></trkpt><trkpt lat="45.8363577" lon="11.586253"><ele>1019.0</ele><time>2026-04-06T14:37:22.553Z</time></trkpt><trkpt lat="45.8362021" lon="11.5861182"><ele>1019.0</ele><time>2026-04-06T14:37:23.554Z</time></trkpt><trkpt lat="45.8360431" lon="11.586035"><ele>1022.3333333333334</ele><time>2026-04-06T14:37:24.551Z</time></trkpt><trkpt lat="45.8358656" lon="11.5859252"><ele>1025.6666666666667</ele><time>2026-04-06T14:37:25.556Z</time></trkpt><trkpt lat="45.8357045" lon="11.5857988"><ele>1029.0</ele><time>2026-04-06T14:37:26.547Z</time></trkpt><trkpt lat="45.83557" lon="11.5856981"><ele>1029.0</ele><time>2026-04-06T14:37:27.556Z</time></trkpt><trkpt lat="45.83546" lon="11.5855829"><ele>1029.0</ele><time>2026-04-06T14:37:28.551Z</time></trkpt><trkpt lat="45.8353644" lon="11.5854684"><ele>1029.0</ele><time>2026-04-06T14:37:29.564Z</time></trkpt><trkpt lat="45.835275" lon="11.5853826"><ele>1029.0</ele><time>2026-04-06T14:37:30.547Z</time></trkpt><trkpt lat="45.8351964" lon="11.5853079"><ele>1029.6666666666667</ele><time>2026-04-06T14:37:31.556Z</time></trkpt><trkpt lat="45.8351241" lon="11.5852411"><ele>1030.3333333333333</ele><time>2026-04-06T14:37:32.548Z</time></trkpt><trkpt lat="45.8350546" lon="11.5852235"><ele>1031.0</ele><time>2026-04-06T14:37:33.553Z</time></trkpt><trkpt lat="45.8349793" lon="11.5852307"><ele>1031.6666666666665</ele><time>2026-04-06T14:37:35.552Z</time></trkpt><trkpt lat="45.8348957" lon="11.5852382"><ele>1032.3333333333333</ele><time>2026-04-06T14:37:38.547Z</time></trkpt><trkpt lat="45.8348765" lon="11.5853524"><ele>1033.0</ele><time>2026-04-06T14:37:41.566Z</time></trkpt><trkpt lat="45.8348959" lon="11.5854547"><ele>1032.0</ele><time>2026-04-06T14:37:42.555Z</time></trkpt><trkpt lat="45.83496" lon="11.5855883"><ele>1031.0</ele><time>2026-04-06T14:37:43.553Z</time></trkpt><trkpt lat="45.8350282" lon="11.5857194"><ele>1030.0</ele><time>2026-04-06T14:37:44.553Z</time></trkpt><trkpt lat="45.8351435" lon="11.5858355"><ele>1029.0</ele><time>2026-04-06T14:37:45.553Z</time></trkpt><trkpt lat="45.8352618" lon="11.5859681"><ele>1029.0</ele><time>2026-04-06T14:37:46.559Z</time></trkpt><trkpt lat="45.835403" lon="11.5861168"><ele>1029.0</ele><time>2026-04-06T14:37:47.555Z</time></trkpt><trkpt lat="45.835574" lon="11.5862996"><ele>1029.0</ele><time>2026-04-06T14:37:48.553Z</time></trkpt><trkpt lat="45.835767" lon="11.5864534"><ele>1025.6666666666667</ele><time>2026-04-06T14:37:49.551Z</time></trkpt><trkpt lat="45.8359339" lon="11.5866945"><ele>1022.3333333333334</ele><time>2026-04-06T14:37:50.549Z</time></trkpt><trkpt lat="45.8360869" lon="11.5869027"><ele>1019.0</ele><time>2026-04-06T14:37:51.546Z</time></trkpt><trkpt lat="45.8362482" lon="11.587186"><ele>1019.0</ele><time>2026-04-06T14:37:52.549Z</time></trkpt><trkpt lat="45.8363772" lon="11.587474"><ele>1019.0</ele><time>2026-04-06T14:37:53.538Z</time></trkpt><trkpt lat="45.8364819" lon="11.5877544"><ele>1023.6666666666667</ele><time>2026-04-06T14:37:54.528Z</time></trkpt><trkpt lat="45.836582" lon="11.588038"><ele>1028.3333333333333</ele><time>2026-04-06T14:37:55.523Z</time></trkpt><trkpt lat="45.8366461" lon="11.5883145"><ele>1033.0</ele><time>2026-04-06T14:37:56.519Z</time></trkpt><trkpt lat="45.8367122" lon="11.5885779"><ele>1034.3333333333333</ele><time>2026-04-06T14:37:57.538Z</time></trkpt><trkpt lat="45.8367784" lon="11.58885"><ele>1035.6666666666667</ele><time>2026-04-06T14:37:58.532Z</time></trkpt><trkpt lat="45.8367909" lon="11.5891186"><ele>1037.0</ele><time>2026-04-06T14:37:59.525Z</time></trkpt><trkpt lat="45.8367974" lon="11.589389"><ele>1035.3333333333335</ele><time>2026-04-06T14:38:00.544Z</time></trkpt><trkpt lat="45.8367673" lon="11.5896211"><ele>1033.6666666666667</ele><time>2026-04-06T14:38:01.547Z</time></trkpt><trkpt lat="45.8367181" lon="11.5898309"><ele>1032.0</ele><time>2026-04-06T14:38:02.553Z</time></trkpt><trkpt lat="45.836637" lon="11.5900067"><ele>1032.0</ele><time>2026-04-06T14:38:03.547Z</time></trkpt><trkpt lat="45.8365591" lon="11.5902127"><ele>1032.0</ele><time>2026-04-06T14:38:04.551Z</time></trkpt><trkpt lat="45.8364576" lon="11.5904276"><ele>1032.0</ele><time>2026-04-06T14:38:05.545Z</time></trkpt><trkpt lat="45.8363847" lon="11.5906142"><ele>1031.0</ele><time>2026-04-06T14:38:06.565Z</time></trkpt><trkpt lat="45.8363191" lon="11.5907741"><ele>1030.0</ele><time>2026-04-06T14:38:07.549Z</time></trkpt><trkpt lat="45.8362085" lon="11.5909103"><ele>1029.0</ele><time>2026-04-06T14:38:08.552Z</time></trkpt><trkpt lat="45.8361386" lon="11.5910568"><ele>1028.0</ele><time>2026-04-06T14:38:09.548Z</time></trkpt><trkpt lat="45.8360661" lon="11.591186"><ele>1031.0</ele><time>2026-04-06T14:38:10.552Z</time></trkpt><trkpt lat="45.835996" lon="11.5913033"><ele>1034.0</ele><time>2026-04-06T14:38:11.554Z</time></trkpt><trkpt lat="45.8359042" lon="11.5914094"><ele>1037.0</ele><time>2026-04-06T14:38:12.552Z</time></trkpt><trkpt lat="45.8358327" lon="11.5915612"><ele>1040.0</ele><time>2026-04-06T14:38:13.55Z</time></trkpt><trkpt lat="45.8357682" lon="11.5917108"><ele>1041.75</ele><time>2026-04-06T14:38:14.551Z</time></trkpt><trkpt lat="45.8356983" lon="11.5918547"><ele>1043.5</ele><time>2026-04-06T14:38:15.546Z</time></trkpt><trkpt lat="45.8355994" lon="11.5919789"><ele>1045.25</ele><time>2026-04-06T14:38:16.554Z</time></trkpt><trkpt lat="45.8355003" lon="11.5920972"><ele>1047.0</ele><time>2026-04-06T14:38:17.547Z</time></trkpt><trkpt lat="45.8353973" lon="11.5922222"><ele>1049.25</ele><time>2026-04-06T14:38:18.554Z</time></trkpt><trkpt lat="45.835294" lon="11.5923426"><ele>1051.5</ele><time>2026-04-06T14:38:19.545Z</time></trkpt><trkpt lat="45.8351909" lon="11.5924614"><ele>1053.75</ele><time>2026-04-06T14:38:20.554Z</time></trkpt><trkpt lat="45.8350837" lon="11.5925861"><ele>1056.0</ele><time>2026-04-06T14:38:21.547Z</time></trkpt><trkpt lat="45.8349732" lon="11.5927234"><ele>1059.6666666666667</ele><time>2026-04-06T14:38:22.556Z</time></trkpt><trkpt lat="45.8348445" lon="11.5928562"><ele>1063.3333333333335</ele><time>2026-04-06T14:38:23.551Z</time></trkpt><trkpt lat="45.8347056" lon="11.5930139"><ele>1067.0</ele><time>2026-04-06T14:38:24.557Z</time></trkpt><trkpt lat="45.8345493" lon="11.593162"><ele>1067.0</ele><time>2026-04-06T14:38:25.554Z</time></trkpt><trkpt lat="45.8343957" lon="11.5932974"><ele>1067.0</ele><time>2026-04-06T14:38:26.557Z</time></trkpt><trkpt lat="45.834225" lon="11.5934489"><ele>1067.0</ele><time>2026-04-06T14:38:27.557Z</time></trkpt><trkpt lat="45.8340551" lon="11.5936043"><ele>1066.6666666666667</ele><time>2026-04-06T14:38:28.549Z</time></trkpt><trkpt lat="45.83387" lon="11.5937681"><ele>1066.3333333333333</ele><time>2026-04-06T14:38:29.555Z</time></trkpt><trkpt lat="45.8336873" lon="11.5939244"><ele>1066.0</ele><time>2026-04-06T14:38:30.55Z</time></trkpt><trkpt lat="45.8334992" lon="11.5940691"><ele>1066.0</ele><time>2026-04-06T14:38:31.559Z</time></trkpt><trkpt lat="45.8333341" lon="11.5942231"><ele>1066.0</ele><time>2026-04-06T14:38:32.559Z</time></trkpt><trkpt lat="45.8331431" lon="11.5943996"><ele>1066.0</ele><time>2026-04-06T14:38:33.549Z</time></trkpt><trkpt lat="45.8329428" lon="11.5945892"><ele>1066.0</ele><time>2026-04-06T14:38:34.556Z</time></trkpt><trkpt lat="45.8327331" lon="11.5947392"><ele>1066.0</ele><time>2026-04-06T14:38:35.555Z</time></trkpt><trkpt lat="45.8325362" lon="11.5948935"><ele>1063.0</ele><time>2026-04-06T14:38:36.556Z</time></trkpt><trkpt lat="45.8323515" lon="11.595048"><ele>1060.0</ele><time>2026-04-06T14:38:37.554Z</time></trkpt><trkpt lat="45.8321854" lon="11.5951818"><ele>1057.0</ele><time>2026-04-06T14:38:38.555Z</time></trkpt><trkpt lat="45.832023" lon="11.5952859"><ele>1057.0</ele><time>2026-04-06T14:38:39.553Z</time></trkpt><trkpt lat="45.8318485" lon="11.5954608"><ele>1057.0</ele><time>2026-04-06T14:38:40.55Z</time></trkpt><trkpt lat="45.8316831" lon="11.5956187"><ele>1057.0</ele><time>2026-04-06T14:38:41.568Z</time></trkpt><trkpt lat="45.8315379" lon="11.5957481"><ele>1057.0</ele><time>2026-04-06T14:38:42.557Z</time></trkpt><trkpt lat="45.8314014" lon="11.5959075"><ele>1057.0</ele><time>2026-04-06T14:38:43.556Z</time></trkpt><trkpt lat="45.831246" lon="11.596082"><ele>1057.0</ele><time>2026-04-06T14:38:44.555Z</time></trkpt><trkpt lat="45.8310945" lon="11.5962496"><ele>1057.0</ele><time>2026-04-06T14:38:45.556Z</time></trkpt><trkpt lat="45.8309593" lon="11.5964219"><ele>1057.0</ele><time>2026-04-06T14:38:46.553Z</time></trkpt><trkpt lat="45.8308238" lon="11.5965907"><ele>1057.0</ele><time>2026-04-06T14:38:47.558Z</time></trkpt><trkpt lat="45.830695" lon="11.5967439"><ele>1057.0</ele><time>2026-04-06T14:38:48.556Z</time></trkpt><trkpt lat="45.8305627" lon="11.5968718"><ele>1057.0</ele><time>2026-04-06T14:38:49.553Z</time></trkpt><trkpt lat="45.8304394" lon="11.5969946"><ele>1057.0</ele><time>2026-04-06T14:38:50.552Z</time></trkpt><trkpt lat="45.8303213" lon="11.5971004"><ele>1057.0</ele><time>2026-04-06T14:38:51.541Z</time></trkpt><trkpt lat="45.830208" lon="11.5972207"><ele>1058.5</ele><time>2026-04-06T14:38:52.544Z</time></trkpt><trkpt lat="45.830094" lon="11.5973523"><ele>1060.0</ele><time>2026-04-06T14:38:53.557Z</time></trkpt><trkpt lat="45.8299731" lon="11.5974605"><ele>1061.5</ele><time>2026-04-06T14:38:54.556Z</time></trkpt><trkpt lat="45.8298513" lon="11.59756"><ele>1063.0</ele><time>2026-04-06T14:38:55.55Z</time></trkpt><trkpt lat="45.8297263" lon="11.597644"><ele>1063.0</ele><time>2026-04-06T14:38:56.554Z</time></trkpt><trkpt lat="45.8295795" lon="11.5977099"><ele>1063.0</ele><time>2026-04-06T14:38:57.547Z</time></trkpt><trkpt lat="45.8294269" lon="11.59778"><ele>1063.0</ele><time>2026-04-06T14:38:58.554Z</time></trkpt><trkpt lat="45.8292709" lon="11.5978443"><ele>1065.3333333333333</ele><time>2026-04-06T14:38:59.551Z</time></trkpt><trkpt lat="45.8291024" lon="11.5979153"><ele>1067.6666666666667</ele><time>2026-04-06T14:39:00.631Z</time></trkpt><trkpt lat="45.8289265" lon="11.5979626"><ele>1070.0</ele><time>2026-04-06T14:39:01.547Z</time></trkpt><trkpt lat="45.828749" lon="11.5980436"><ele>1070.0</ele><time>2026-04-06T14:39:02.711Z</time></trkpt><trkpt lat="45.8285566" lon="11.5981372"><ele>1070.0</ele><time>2026-04-06T14:39:03.71Z</time></trkpt><trkpt lat="45.8281741" lon="11.598268"><ele>1070.3333333333335</ele><time>2026-04-06T14:39:05.544Z</time></trkpt><trkpt lat="45.8279956" lon="11.5983345"><ele>1070.6666666666667</ele><time>2026-04-06T14:39:06.637Z</time></trkpt><trkpt lat="45.8278056" lon="11.5983734"><ele>1071.0</ele><time>2026-04-06T14:39:07.554Z</time></trkpt><trkpt lat="45.8276375" lon="11.5984097"><ele>1071.0</ele><time>2026-04-06T14:39:08.55Z</time></trkpt><trkpt lat="45.8274829" lon="11.5984532"><ele>1071.0</ele><time>2026-04-06T14:39:09.553Z</time></trkpt><trkpt lat="45.8273481" lon="11.5984884"><ele>1071.0</ele><time>2026-04-06T14:39:10.557Z</time></trkpt><trkpt lat="45.8272128" lon="11.5985403"><ele>1071.0</ele><time>2026-04-06T14:39:11.558Z</time></trkpt><trkpt lat="45.8270906" lon="11.5985946"><ele>1071.0</ele><time>2026-04-06T14:39:12.553Z</time></trkpt><trkpt lat="45.8269805" lon="11.5986646"><ele>1071.0</ele><time>2026-04-06T14:39:13.629Z</time></trkpt><trkpt lat="45.8268716" lon="11.5987694"><ele>1071.0</ele><time>2026-04-06T14:39:14.873Z</time></trkpt><trkpt lat="45.8267724" lon="11.599125"><ele>1069.0</ele><time>2026-04-06T14:39:16.714Z</time></trkpt><trkpt lat="45.8267191" lon="11.5994061"><ele>1067.0</ele><time>2026-04-06T14:39:17.708Z</time></trkpt><trkpt lat="45.8266672" lon="11.5997086"><ele>1065.0</ele><time>2026-04-06T14:39:18.718Z</time></trkpt><trkpt lat="45.8265792" lon="11.6000509"><ele>1063.0</ele><time>2026-04-06T14:39:19.871Z</time></trkpt><trkpt lat="45.8263189" lon="11.6007215"><ele>1063.0</ele><time>2026-04-06T14:39:21.553Z</time></trkpt><trkpt lat="45.8261785" lon="11.6010199"><ele>1063.0</ele><time>2026-04-06T14:39:22.556Z</time></trkpt><trkpt lat="45.8260508" lon="11.6013113"><ele>1061.5</ele><time>2026-04-06T14:39:23.548Z</time></trkpt><trkpt lat="45.8259183" lon="11.6015906"><ele>1060.0</ele><time>2026-04-06T14:39:24.554Z</time></trkpt><trkpt lat="45.8258012" lon="11.6018599"><ele>1060.5</ele><time>2026-04-06T14:39:25.55Z</time></trkpt><trkpt lat="45.825687" lon="11.6021178"><ele>1061.0</ele><time>2026-04-06T14:39:26.875Z</time></trkpt><trkpt lat="45.8254509" lon="11.6026278"><ele>1061.6666666666667</ele><time>2026-04-06T14:39:28.552Z</time></trkpt><trkpt lat="45.8253512" lon="11.6028817"><ele>1062.3333333333333</ele><time>2026-04-06T14:39:29.552Z</time></trkpt><trkpt lat="45.825262" lon="11.6030996"><ele>1063.0</ele><time>2026-04-06T14:39:30.551Z</time></trkpt><trkpt lat="45.8251809" lon="11.6033094"><ele>1061.3333333333333</ele><time>2026-04-06T14:39:31.556Z</time></trkpt><trkpt lat="45.8251071" lon="11.603505"><ele>1059.6666666666667</ele><time>2026-04-06T14:39:32.551Z</time></trkpt><trkpt lat="45.8250364" lon="11.6037135"><ele>1058.0</ele><time>2026-04-06T14:39:33.557Z</time></trkpt><trkpt lat="45.8249647" lon="11.603942"><ele>1057.0</ele><time>2026-04-06T14:39:34.547Z</time></trkpt><trkpt lat="45.8248923" lon="11.6041926"><ele>1056.0</ele><time>2026-04-06T14:39:35.797Z</time></trkpt><trkpt lat="45.8247196" lon="11.6046895"><ele>1056.0</ele><time>2026-04-06T14:39:37.553Z</time></trkpt><trkpt lat="45.824623" lon="11.6049217"><ele>1056.0</ele><time>2026-04-06T14:39:38.633Z</time></trkpt><trkpt lat="45.8245214" lon="11.6051607"><ele>1056.0</ele><time>2026-04-06T14:39:40.025Z</time></trkpt><trkpt lat="45.8244336" lon="11.6053969"><ele>1054.5</ele><time>2026-04-06T14:39:41.03Z</time></trkpt><trkpt lat="45.8242169" lon="11.605829"><ele>1053.0</ele><time>2026-04-06T14:39:42.714Z</time></trkpt><trkpt lat="45.8240643" lon="11.6060179"><ele>1052.6666666666667</ele><time>2026-04-06T14:39:43.709Z</time></trkpt><trkpt lat="45.8239202" lon="11.6061893"><ele>1052.3333333333335</ele><time>2026-04-06T14:39:44.719Z</time></trkpt><trkpt lat="45.8237781" lon="11.6063256"><ele>1052.0</ele><time>2026-04-06T14:39:45.709Z</time></trkpt><trkpt lat="45.8236421" lon="11.6064919"><ele>1053.5</ele><time>2026-04-06T14:39:46.718Z</time></trkpt><trkpt lat="45.8233536" lon="11.6068535"><ele>1055.0</ele><time>2026-04-06T14:39:48.575Z</time></trkpt><trkpt lat="45.8232066" lon="11.6070183"><ele>1055.0</ele><time>2026-04-06T14:39:49.555Z</time></trkpt><trkpt lat="45.8230487" lon="11.6072491"><ele>1055.0</ele><time>2026-04-06T14:39:50.554Z</time></trkpt><trkpt lat="45.8228841" lon="11.6074903"><ele>1055.0</ele><time>2026-04-06T14:39:51.554Z</time></trkpt><trkpt lat="45.8227171" lon="11.6077149"><ele>1055.0</ele><time>2026-04-06T14:39:52.555Z</time></trkpt><trkpt lat="45.8225675" lon="11.6079612"><ele>1055.0</ele><time>2026-04-06T14:39:53.553Z</time></trkpt><trkpt lat="45.8224082" lon="11.6082088"><ele>1055.0</ele><time>2026-04-06T14:39:54.569Z</time></trkpt><trkpt lat="45.8222677" lon="11.6084398"><ele>1055.0</ele><time>2026-04-06T14:39:55.556Z</time></trkpt><trkpt lat="45.8221359" lon="11.608654"><ele>1055.3333333333335</ele><time>2026-04-06T14:39:56.575Z</time></trkpt><trkpt lat="45.8220152" lon="11.6088323"><ele>1055.6666666666667</ele><time>2026-04-06T14:39:57.558Z</time></trkpt><trkpt lat="45.8219139" lon="11.6089866"><ele>1056.0</ele><time>2026-04-06T14:39:58.552Z</time></trkpt><trkpt lat="45.8218045" lon="11.6091075"><ele>1055.5</ele><time>2026-04-06T14:39:59.55Z</time></trkpt><trkpt lat="45.8216783" lon="11.6091846"><ele>1055.0</ele><time>2026-04-06T14:40:00.552Z</time></trkpt><trkpt lat="45.8215467" lon="11.6092468"><ele>1054.5</ele><time>2026-04-06T14:40:01.573Z</time></trkpt><trkpt lat="45.8214159" lon="11.6092982"><ele>1054.0</ele><time>2026-04-06T14:40:02.576Z</time></trkpt><trkpt lat="45.8212845" lon="11.6093442"><ele>1054.0</ele><time>2026-04-06T14:40:03.551Z</time></trkpt><trkpt lat="45.8211402" lon="11.6093582"><ele>1054.0</ele><time>2026-04-06T14:40:04.551Z</time></trkpt><trkpt lat="45.8209836" lon="11.6093704"><ele>1054.0</ele><time>2026-04-06T14:40:05.558Z</time></trkpt><trkpt lat="45.8208067" lon="11.6093754"><ele>1053.6666666666665</ele><time>2026-04-06T14:40:06.552Z</time></trkpt><trkpt lat="45.8206213" lon="11.6093892"><ele>1053.3333333333333</ele><time>2026-04-06T14:40:07.549Z</time></trkpt><trkpt lat="45.8204135" lon="11.6094087"><ele>1053.0</ele><time>2026-04-06T14:40:08.558Z</time></trkpt><trkpt lat="45.8201964" lon="11.6094332"><ele>1052.3333333333333</ele><time>2026-04-06T14:40:09.54Z</time></trkpt><trkpt lat="45.8199794" lon="11.6094809"><ele>1051.6666666666665</ele><time>2026-04-06T14:40:10.546Z</time></trkpt><trkpt lat="45.8197518" lon="11.6095175"><ele>1051.0</ele><time>2026-04-06T14:40:11.564Z</time></trkpt><trkpt lat="45.8195261" lon="11.6095853"><ele>1051.0</ele><time>2026-04-06T14:40:12.554Z</time></trkpt><trkpt lat="45.8193196" lon="11.6096643"><ele>1051.0</ele><time>2026-04-06T14:40:13.553Z</time></trkpt><trkpt lat="45.8191182" lon="11.6097246"><ele>1051.0</ele><time>2026-04-06T14:40:14.556Z</time></trkpt><trkpt lat="45.818932" lon="11.6097649"><ele>1051.0</ele><time>2026-04-06T14:40:15.555Z</time></trkpt><trkpt lat="45.8187472" lon="11.6097946"><ele>1051.0</ele><time>2026-04-06T14:40:16.554Z</time></trkpt><trkpt lat="45.8185545" lon="11.6098106"><ele>1051.0</ele><time>2026-04-06T14:40:17.556Z</time></trkpt><trkpt lat="45.8183558" lon="11.6098021"><ele>1051.0</ele><time>2026-04-06T14:40:18.555Z</time></trkpt><trkpt lat="45.8181598" lon="11.6097961"><ele>1051.0</ele><time>2026-04-06T14:40:19.553Z</time></trkpt><trkpt lat="45.8179607" lon="11.6097909"><ele>1051.0</ele><time>2026-04-06T14:40:20.555Z</time></trkpt><trkpt lat="45.8177786" lon="11.6097768"><ele>1051.0</ele><time>2026-04-06T14:40:21.56Z</time></trkpt><trkpt lat="45.8176143" lon="11.6097719"><ele>1051.0</ele><time>2026-04-06T14:40:22.552Z</time></trkpt><trkpt lat="45.817434" lon="11.6097638"><ele>1051.0</ele><time>2026-04-06T14:40:23.556Z</time></trkpt><trkpt lat="45.8172505" lon="11.6097244"><ele>1051.0</ele><time>2026-04-06T14:40:24.547Z</time></trkpt><trkpt lat="45.8170692" lon="11.6097076"><ele>1051.0</ele><time>2026-04-06T14:40:25.534Z</time></trkpt><trkpt lat="45.8168931" lon="11.6096907"><ele>1051.0</ele><time>2026-04-06T14:40:26.536Z</time></trkpt><trkpt lat="45.8167129" lon="11.6096537"><ele>1052.0</ele><time>2026-04-06T14:40:27.536Z</time></trkpt><trkpt lat="45.8165293" lon="11.6096199"><ele>1053.0</ele><time>2026-04-06T14:40:28.539Z</time></trkpt><trkpt lat="45.8163595" lon="11.6095912"><ele>1054.0</ele><time>2026-04-06T14:40:29.536Z</time></trkpt><trkpt lat="45.8162036" lon="11.6095642"><ele>1054.0</ele><time>2026-04-06T14:40:30.55Z</time></trkpt><trkpt lat="45.8160567" lon="11.6095398"><ele>1054.0</ele><time>2026-04-06T14:40:31.552Z</time></trkpt><trkpt lat="45.8159114" lon="11.6095128"><ele>1054.0</ele><time>2026-04-06T14:40:32.556Z</time></trkpt><trkpt lat="45.8157628" lon="11.609487"><ele>1054.0</ele><time>2026-04-06T14:40:33.559Z</time></trkpt><trkpt lat="45.8156098" lon="11.6094882"><ele>1052.75</ele><time>2026-04-06T14:40:34.548Z</time></trkpt><trkpt lat="45.8154693" lon="11.6094573"><ele>1051.5</ele><time>2026-04-06T14:40:35.558Z</time></trkpt><trkpt lat="45.8153518" lon="11.6095391"><ele>1050.25</ele><time>2026-04-06T14:40:36.54Z</time></trkpt><trkpt lat="45.8152396" lon="11.6096007"><ele>1049.0</ele><time>2026-04-06T14:40:37.543Z</time></trkpt><trkpt lat="45.8151735" lon="11.6098044"><ele>1049.0</ele><time>2026-04-06T14:40:38.555Z</time></trkpt><trkpt lat="45.815174" lon="11.6100835"><ele>1049.0</ele><time>2026-04-06T14:40:39.549Z</time></trkpt><trkpt lat="45.8151924" lon="11.6103437"><ele>1049.0</ele><time>2026-04-06T14:40:40.552Z</time></trkpt><trkpt lat="45.8151749" lon="11.6106111"><ele>1044.5</ele><time>2026-04-06T14:40:41.556Z</time></trkpt><trkpt lat="45.8151538" lon="11.6107924"><ele>1040.0</ele><time>2026-04-06T14:40:42.557Z</time></trkpt><trkpt lat="45.815132" lon="11.6109718"><ele>1035.5</ele><time>2026-04-06T14:40:43.549Z</time></trkpt><trkpt lat="45.8150667" lon="11.6111853"><ele>1031.0</ele><time>2026-04-06T14:40:44.55Z</time></trkpt><trkpt lat="45.8149991" lon="11.6113671"><ele>1031.0</ele><time>2026-04-06T14:40:45.552Z</time></trkpt><trkpt lat="45.8149245" lon="11.6115833"><ele>1031.0</ele><time>2026-04-06T14:40:46.536Z</time></trkpt><trkpt lat="45.8148376" lon="11.6118048"><ele>1031.0</ele><time>2026-04-06T14:40:47.551Z</time></trkpt><trkpt lat="45.8147494" lon="11.6120974"><ele>1032.5</ele><time>2026-04-06T14:40:48.547Z</time></trkpt><trkpt lat="45.8146434" lon="11.612408"><ele>1034.0</ele><time>2026-04-06T14:40:49.573Z</time></trkpt><trkpt lat="45.8145493" lon="11.6127418"><ele>1037.0</ele><time>2026-04-06T14:40:50.549Z</time></trkpt><trkpt lat="45.8144573" lon="11.6130659"><ele>1040.0</ele><time>2026-04-06T14:40:51.551Z</time></trkpt><trkpt lat="45.8143823" lon="11.6133852"><ele>1033.0</ele><time>2026-04-06T14:40:52.547Z</time></trkpt><trkpt lat="45.814303" lon="11.613699"><ele>1026.0</ele><time>2026-04-06T14:40:53.551Z</time></trkpt><trkpt lat="45.8142288" lon="11.6139687"><ele>1019.0</ele><time>2026-04-06T14:40:54.548Z</time></trkpt><trkpt lat="45.8141444" lon="11.6141582"><ele>1019.0</ele><time>2026-04-06T14:40:55.553Z</time></trkpt><trkpt lat="45.8140709" lon="11.6143771"><ele>1019.0</ele><time>2026-04-06T14:40:56.554Z</time></trkpt><trkpt lat="45.8139942" lon="11.6145962"><ele>1019.0</ele><time>2026-04-06T14:40:57.556Z</time></trkpt><trkpt lat="45.8139201" lon="11.6148376"><ele>1020.6666666666667</ele><time>2026-04-06T14:40:58.551Z</time></trkpt><trkpt lat="45.8138503" lon="11.6150626"><ele>1022.3333333333333</ele><time>2026-04-06T14:40:59.554Z</time></trkpt><trkpt lat="45.8137807" lon="11.6152767"><ele>1024.0</ele><time>2026-04-06T14:41:00.548Z</time></trkpt><trkpt lat="45.8137069" lon="11.6154781"><ele>1025.3333333333333</ele><time>2026-04-06T14:41:01.551Z</time></trkpt><trkpt lat="45.8136317" lon="11.615669"><ele>1026.6666666666667</ele><time>2026-04-06T14:41:02.554Z</time></trkpt><trkpt lat="45.8135555" lon="11.6158541"><ele>1028.0</ele><time>2026-04-06T14:41:03.549Z</time></trkpt><trkpt lat="45.8134604" lon="11.6160532"><ele>1022.3333333333334</ele><time>2026-04-06T14:41:04.555Z</time></trkpt><trkpt lat="45.8133655" lon="11.6162916"><ele>1016.6666666666667</ele><time>2026-04-06T14:41:05.561Z</time></trkpt><trkpt lat="45.8132678" lon="11.6165026"><ele>1011.0</ele><time>2026-04-06T14:41:06.553Z</time></trkpt><trkpt lat="45.8131812" lon="11.6167256"><ele>1011.0</ele><time>2026-04-06T14:41:07.551Z</time></trkpt><trkpt lat="45.8131066" lon="11.6169469"><ele>1011.0</ele><time>2026-04-06T14:41:08.548Z</time></trkpt><trkpt lat="45.813041" lon="11.6171794"><ele>1011.0</ele><time>2026-04-06T14:41:09.55Z</time></trkpt><trkpt lat="45.8129815" lon="11.6173949"><ele>1011.75</ele><time>2026-04-06T14:41:10.546Z</time></trkpt><trkpt lat="45.8129257" lon="11.6176005"><ele>1012.5</ele><time>2026-04-06T14:41:11.564Z</time></trkpt><trkpt lat="45.8128718" lon="11.6177776"><ele>1013.25</ele><time>2026-04-06T14:41:12.545Z</time></trkpt><trkpt lat="45.8128173" lon="11.6179352"><ele>1014.0</ele><time>2026-04-06T14:41:13.553Z</time></trkpt><trkpt lat="45.8127584" lon="11.6181001"><ele>1015.0</ele><time>2026-04-06T14:41:14.559Z</time></trkpt><trkpt lat="45.8126994" lon="11.6182783"><ele>1016.0</ele><time>2026-04-06T14:41:15.547Z</time></trkpt><trkpt lat="45.8126339" lon="11.6184601"><ele>1017.0</ele><time>2026-04-06T14:41:16.556Z</time></trkpt><trkpt lat="45.8125741" lon="11.6186337"><ele>1018.0</ele><time>2026-04-06T14:41:17.55Z</time></trkpt><trkpt lat="45.8125037" lon="11.6187884"><ele>1013.0</ele><time>2026-04-06T14:41:18.55Z</time></trkpt><trkpt lat="45.8124003" lon="11.6189231"><ele>1008.0</ele><time>2026-04-06T14:41:19.553Z</time></trkpt><trkpt lat="45.812274" lon="11.6190355"><ele>1003.0</ele><time>2026-04-06T14:41:20.559Z</time></trkpt><trkpt lat="45.8121267" lon="11.6191471"><ele>1003.0</ele><time>2026-04-06T14:41:21.547Z</time></trkpt><trkpt lat="45.8119507" lon="11.6192846"><ele>1003.0</ele><time>2026-04-06T14:41:22.554Z</time></trkpt><trkpt lat="45.8117719" lon="11.6193937"><ele>1003.0</ele><time>2026-04-06T14:41:23.552Z</time></trkpt><trkpt lat="45.8115949" lon="11.6194751"><ele>1005.3333333333333</ele><time>2026-04-06T14:41:24.559Z</time></trkpt><trkpt lat="45.8114315" lon="11.6195402"><ele>1007.6666666666667</ele><time>2026-04-06T14:41:25.557Z</time></trkpt><trkpt lat="45.811278" lon="11.6196033"><ele>1010.0</ele><time>2026-04-06T14:41:26.548Z</time></trkpt><trkpt lat="45.8111289" lon="11.6196733"><ele>1010.0</ele><time>2026-04-06T14:41:27.559Z</time></trkpt><trkpt lat="45.8109928" lon="11.6197346"><ele>1010.0</ele><time>2026-04-06T14:41:28.552Z</time></trkpt><trkpt lat="45.8108391" lon="11.6197612"><ele>1010.0</ele><time>2026-04-06T14:41:29.551Z</time></trkpt><trkpt lat="45.8106882" lon="11.619767"><ele>1010.0</ele><time>2026-04-06T14:41:30.555Z</time></trkpt><trkpt lat="45.8105451" lon="11.6197386"><ele>1008.0</ele><time>2026-04-06T14:41:31.552Z</time></trkpt><trkpt lat="45.8103951" lon="11.6197003"><ele>1006.0</ele><time>2026-04-06T14:41:32.536Z</time></trkpt><trkpt lat="45.8102622" lon="11.6197051"><ele>1004.0</ele><time>2026-04-06T14:41:33.547Z</time></trkpt><trkpt lat="45.8101287" lon="11.6196787"><ele>1002.0</ele><time>2026-04-06T14:41:34.552Z</time></trkpt><trkpt lat="45.8099965" lon="11.6196586"><ele>1000.25</ele><time>2026-04-06T14:41:35.55Z</time></trkpt><trkpt lat="45.8098701" lon="11.6196564"><ele>998.5</ele><time>2026-04-06T14:41:36.555Z</time></trkpt><trkpt lat="45.809757" lon="11.6196422"><ele>996.75</ele><time>2026-04-06T14:41:37.556Z</time></trkpt><trkpt lat="45.8096278" lon="11.6196352"><ele>995.0</ele><time>2026-04-06T14:41:38.551Z</time></trkpt><trkpt lat="45.8095008" lon="11.6196166"><ele>995.0</ele><time>2026-04-06T14:41:39.555Z</time></trkpt><trkpt lat="45.8093895" lon="11.6196148"><ele>995.0</ele><time>2026-04-06T14:41:40.555Z</time></trkpt><trkpt lat="45.8092762" lon="11.619613"><ele>995.0</ele><time>2026-04-06T14:41:41.563Z</time></trkpt><trkpt lat="45.8091554" lon="11.619595"><ele>995.0</ele><time>2026-04-06T14:41:42.555Z</time></trkpt><trkpt lat="45.8090373" lon="11.6196182"><ele>993.4</ele><time>2026-04-06T14:41:43.553Z</time></trkpt><trkpt lat="45.8089292" lon="11.6196593"><ele>991.8</ele><time>2026-04-06T14:41:44.579Z</time></trkpt><trkpt lat="45.8088307" lon="11.6197397"><ele>990.2</ele><time>2026-04-06T14:41:45.558Z</time></trkpt><trkpt lat="45.8087452" lon="11.6198552"><ele>988.6</ele><time>2026-04-06T14:41:46.55Z</time></trkpt><trkpt lat="45.8086647" lon="11.6199555"><ele>987.0</ele><time>2026-04-06T14:41:47.558Z</time></trkpt><trkpt lat="45.8085796" lon="11.6200351"><ele>985.2</ele><time>2026-04-06T14:41:48.553Z</time></trkpt><trkpt lat="45.8084927" lon="11.6201007"><ele>983.4000000000001</ele><time>2026-04-06T14:41:49.547Z</time></trkpt><trkpt lat="45.808404" lon="11.6201642"><ele>981.5999999999999</ele><time>2026-04-06T14:41:50.553Z</time></trkpt><trkpt lat="45.8082882" lon="11.6201775"><ele>979.8</ele><time>2026-04-06T14:41:51.552Z</time></trkpt><trkpt lat="45.8081676" lon="11.6201496"><ele>978.0</ele><time>2026-04-06T14:41:52.551Z</time></trkpt><trkpt lat="45.8080188" lon="11.6200815"><ele>978.0</ele><time>2026-04-06T14:41:53.548Z</time></trkpt><trkpt lat="45.8078496" lon="11.6200071"><ele>978.0</ele><time>2026-04-06T14:41:54.557Z</time></trkpt><trkpt lat="45.8076764" lon="11.6198989"><ele>978.0</ele><time>2026-04-06T14:41:55.551Z</time></trkpt><trkpt lat="45.8075081" lon="11.6197814"><ele>977.0</ele><time>2026-04-06T14:41:56.546Z</time></trkpt><trkpt lat="45.8073053" lon="11.6196888"><ele>976.0</ele><time>2026-04-06T14:41:57.558Z</time></trkpt><trkpt lat="45.807147" lon="11.6195801"><ele>975.0</ele><time>2026-04-06T14:41:58.549Z</time></trkpt><trkpt lat="45.8069982" lon="11.6194654"><ele>970.6666666666667</ele><time>2026-04-06T14:41:59.553Z</time></trkpt><trkpt lat="45.8068428" lon="11.6193917"><ele>966.3333333333334</ele><time>2026-04-06T14:42:00.552Z</time></trkpt><trkpt lat="45.8067032" lon="11.619356"><ele>962.0</ele><time>2026-04-06T14:42:01.545Z</time></trkpt><trkpt lat="45.806559" lon="11.6193503"><ele>962.0</ele><time>2026-04-06T14:42:02.545Z</time></trkpt><trkpt lat="45.8063975" lon="11.6193698"><ele>962.0</ele><time>2026-04-06T14:42:03.551Z</time></trkpt><trkpt lat="45.8062507" lon="11.6193795"><ele>962.0</ele><time>2026-04-06T14:42:04.551Z</time></trkpt><trkpt lat="45.8061355" lon="11.6193987"><ele>962.0</ele><time>2026-04-06T14:42:05.546Z</time></trkpt><trkpt lat="45.8059944" lon="11.619473"><ele>955.75</ele><time>2026-04-06T14:42:06.554Z</time></trkpt><trkpt lat="45.8058388" lon="11.6195247"><ele>949.5</ele><time>2026-04-06T14:42:07.548Z</time></trkpt><trkpt lat="45.8057677" lon="11.6196295"><ele>943.25</ele><time>2026-04-06T14:42:08.54Z</time></trkpt><trkpt lat="45.8057284" lon="11.6198276"><ele>937.0</ele><time>2026-04-06T14:42:09.542Z</time></trkpt><trkpt lat="45.8057548" lon="11.6201023"><ele>939.6666666666666</ele><time>2026-04-06T14:42:10.548Z</time></trkpt><trkpt lat="45.8058709" lon="11.6204007"><ele>942.3333333333333</ele><time>2026-04-06T14:42:11.556Z</time></trkpt><trkpt lat="45.8059219" lon="11.6206878"><ele>945.0</ele><time>2026-04-06T14:42:12.53Z</time></trkpt><trkpt lat="45.8060099" lon="11.6210264"><ele>951.6666666666667</ele><time>2026-04-06T14:42:13.54Z</time></trkpt><trkpt lat="45.8060209" lon="11.6213264"><ele>958.3333333333334</ele><time>2026-04-06T14:42:14.556Z</time></trkpt><trkpt lat="45.8059872" lon="11.6215629"><ele>965.0</ele><time>2026-04-06T14:42:15.548Z</time></trkpt><trkpt lat="45.805991" lon="11.6217771"><ele>965.0</ele><time>2026-04-06T14:42:16.548Z</time></trkpt><trkpt lat="45.8059081" lon="11.6219307"><ele>965.0</ele><time>2026-04-06T14:42:17.549Z</time></trkpt><trkpt lat="45.805843" lon="11.6221272"><ele>965.0</ele><time>2026-04-06T14:42:18.549Z</time></trkpt><trkpt lat="45.8056827" lon="11.622162"><ele>965.0</ele><time>2026-04-06T14:42:19.553Z</time></trkpt><trkpt lat="45.8055012" lon="11.6221535"><ele>964.6666666666667</ele><time>2026-04-06T14:42:20.631Z</time></trkpt><trkpt lat="45.8053322" lon="11.6221762"><ele>964.3333333333333</ele><time>2026-04-06T14:42:21.715Z</time></trkpt><trkpt lat="45.8052106" lon="11.6222137"><ele>964.0</ele><time>2026-04-06T14:42:22.707Z</time></trkpt><trkpt lat="45.8050179" lon="11.622387"><ele>964.0</ele><time>2026-04-06T14:42:24.572Z</time></trkpt><trkpt lat="45.8049304" lon="11.6224677"><ele>964.0000000000001</ele><time>2026-04-06T14:42:25.548Z</time></trkpt><trkpt lat="45.8048318" lon="11.6225656"><ele>964.0000000000001</ele><time>2026-04-06T14:42:26.536Z</time></trkpt><trkpt lat="45.804737" lon="11.6226161"><ele>964.0</ele><time>2026-04-06T14:42:27.543Z</time></trkpt><trkpt lat="45.804623" lon="11.6226525"><ele>964.0</ele><time>2026-04-06T14:42:28.548Z</time></trkpt><trkpt lat="45.804477" lon="11.6226357"><ele>956.0</ele><time>2026-04-06T14:42:29.549Z</time></trkpt><trkpt lat="45.8043193" lon="11.6226674"><ele>948.0</ele><time>2026-04-06T14:42:30.549Z</time></trkpt><trkpt lat="45.8041603" lon="11.6226892"><ele>940.0</ele><time>2026-04-06T14:42:31.547Z</time></trkpt><trkpt lat="45.8040113" lon="11.6227806"><ele>940.3333333333333</ele><time>2026-04-06T14:42:32.537Z</time></trkpt><trkpt lat="45.8038467" lon="11.6228844"><ele>940.6666666666667</ele><time>2026-04-06T14:42:33.538Z</time></trkpt><trkpt lat="45.8037138" lon="11.6229823"><ele>941.0</ele><time>2026-04-06T14:42:34.55Z</time></trkpt><trkpt lat="45.8035794" lon="11.6230968"><ele>938.25</ele><time>2026-04-06T14:42:35.55Z</time></trkpt><trkpt lat="45.8034601" lon="11.6232021"><ele>935.5</ele><time>2026-04-06T14:42:36.546Z</time></trkpt><trkpt lat="45.8033365" lon="11.6232956"><ele>932.75</ele><time>2026-04-06T14:42:37.548Z</time></trkpt><trkpt lat="45.8032127" lon="11.6233709"><ele>930.0</ele><time>2026-04-06T14:42:38.547Z</time></trkpt><trkpt lat="45.8031244" lon="11.6234344"><ele>930.0</ele><time>2026-04-06T14:42:39.547Z</time></trkpt><trkpt lat="45.8030556" lon="11.6235217"><ele>930.0</ele><time>2026-04-06T14:42:40.549Z</time></trkpt><trkpt lat="45.8030047" lon="11.6235902"><ele>930.0</ele><time>2026-04-06T14:42:41.553Z</time></trkpt><trkpt lat="45.802903" lon="11.6235482"><ele>930.0</ele><time>2026-04-06T14:42:43.546Z</time></trkpt><trkpt lat="45.8028175" lon="11.6235059"><ele>930.0</ele><time>2026-04-06T14:42:45.545Z</time></trkpt><trkpt lat="45.8026906" lon="11.6234535"><ele>928.25</ele><time>2026-04-06T14:42:47.542Z</time></trkpt><trkpt lat="45.8025438" lon="11.6234245"><ele>926.5</ele><time>2026-04-06T14:42:49.552Z</time></trkpt><trkpt lat="45.8024772" lon="11.6234734"><ele>924.75</ele><time>2026-04-06T14:42:50.55Z</time></trkpt><trkpt lat="45.802386" lon="11.6235168"><ele>923.0</ele><time>2026-04-06T14:42:51.543Z</time></trkpt><trkpt lat="45.8022649" lon="11.6235939"><ele>921.25</ele><time>2026-04-06T14:42:52.541Z</time></trkpt><trkpt lat="45.8021237" lon="11.6237053"><ele>919.5</ele><time>2026-04-06T14:42:53.559Z</time></trkpt><trkpt lat="45.8020017" lon="11.623832"><ele>917.75</ele><time>2026-04-06T14:42:54.547Z</time></trkpt><trkpt lat="45.8019044" lon="11.6239533"><ele>916.0</ele><time>2026-04-06T14:42:55.551Z</time></trkpt><trkpt lat="45.8018066" lon="11.624071"><ele>916.0</ele><time>2026-04-06T14:42:56.535Z</time></trkpt><trkpt lat="45.8017013" lon="11.6241852"><ele>916.0</ele><time>2026-04-06T14:42:57.569Z</time></trkpt><trkpt lat="45.8015915" lon="11.6243012"><ele>916.0</ele><time>2026-04-06T14:42:58.547Z</time></trkpt><trkpt lat="45.801454" lon="11.6244003"><ele>916.0</ele><time>2026-04-06T14:42:59.548Z</time></trkpt><trkpt lat="45.8013027" lon="11.6244904"><ele>914.3333333333333</ele><time>2026-04-06T14:43:00.548Z</time></trkpt><trkpt lat="45.8011355" lon="11.6245719"><ele>912.6666666666667</ele><time>2026-04-06T14:43:01.578Z</time></trkpt><trkpt lat="45.8009462" lon="11.6246496"><ele>911.0</ele><time>2026-04-06T14:43:02.558Z</time></trkpt><trkpt lat="45.8007636" lon="11.6247172"><ele>911.0</ele><time>2026-04-06T14:43:03.549Z</time></trkpt><trkpt lat="45.8005806" lon="11.6247756"><ele>911.0</ele><time>2026-04-06T14:43:04.556Z</time></trkpt><trkpt lat="45.8003503" lon="11.6247762"><ele>911.0</ele><time>2026-04-06T14:43:05.544Z</time></trkpt><trkpt lat="45.8001393" lon="11.6247924"><ele>909.6666666666667</ele><time>2026-04-06T14:43:06.551Z</time></trkpt><trkpt lat="45.7999534" lon="11.6248489"><ele>908.3333333333333</ele><time>2026-04-06T14:43:07.551Z</time></trkpt><trkpt lat="45.7997942" lon="11.6249768"><ele>907.0</ele><time>2026-04-06T14:43:08.547Z</time></trkpt><trkpt lat="45.7996805" lon="11.6250815"><ele>907.0</ele><time>2026-04-06T14:43:09.555Z</time></trkpt><trkpt lat="45.7995489" lon="11.6252494"><ele>907.0</ele><time>2026-04-06T14:43:10.548Z</time></trkpt><trkpt lat="45.7993768" lon="11.6253528"><ele>907.0</ele><time>2026-04-06T14:43:11.623Z</time></trkpt><trkpt lat="45.7992294" lon="11.6254829"><ele>902.75</ele><time>2026-04-06T14:43:12.702Z</time></trkpt><trkpt lat="45.7990792" lon="11.6255057"><ele>898.5</ele><time>2026-04-06T14:43:13.699Z</time></trkpt><trkpt lat="45.7990049" lon="11.6255728"><ele>894.25</ele><time>2026-04-06T14:43:14.778Z</time></trkpt><trkpt lat="45.798873" lon="11.625537"><ele>890.0</ele><time>2026-04-06T14:43:16.707Z</time></trkpt><trkpt lat="45.7986969" lon="11.625535"><ele>890.0</ele><time>2026-04-06T14:43:18.55Z</time></trkpt><trkpt lat="45.7986035" lon="11.6254857"><ele>890.0</ele><time>2026-04-06T14:43:19.711Z</time></trkpt><trkpt lat="45.7984688" lon="11.6252653"><ele>890.0</ele><time>2026-04-06T14:43:21.553Z</time></trkpt><trkpt lat="45.7983616" lon="11.6251427"><ele>890.0</ele><time>2026-04-06T14:43:22.57Z</time></trkpt><trkpt lat="45.7982619" lon="11.6250259"><ele>889.75</ele><time>2026-04-06T14:43:23.55Z</time></trkpt><trkpt lat="45.7981663" lon="11.6249314"><ele>889.5</ele><time>2026-04-06T14:43:24.552Z</time></trkpt><trkpt lat="45.7980634" lon="11.6248214"><ele>889.25</ele><time>2026-04-06T14:43:25.551Z</time></trkpt><trkpt lat="45.797976" lon="11.6247278"><ele>889.0</ele><time>2026-04-06T14:43:26.574Z</time></trkpt><trkpt lat="45.7979098" lon="11.6246272"><ele>889.0</ele><time>2026-04-06T14:43:27.579Z</time></trkpt><trkpt lat="45.797887" lon="11.6245189"><ele>889.0000000000001</ele><time>2026-04-06T14:43:29.553Z</time></trkpt><trkpt lat="45.7977918" lon="11.6243676"><ele>889.0000000000001</ele><time>2026-04-06T14:43:36.549Z</time></trkpt><trkpt lat="45.7977421" lon="11.624254"><ele>889.0</ele><time>2026-04-06T14:43:38.546Z</time></trkpt><trkpt lat="45.7976599" lon="11.6242071"><ele>889.0</ele><time>2026-04-06T14:43:40.54Z</time></trkpt><trkpt lat="45.7975641" lon="11.6241866"><ele>888.8333333333333</ele><time>2026-04-06T14:43:43.538Z</time></trkpt><trkpt lat="45.7974717" lon="11.6242151"><ele>888.6666666666666</ele><time>2026-04-06T14:43:45.544Z</time></trkpt><trkpt lat="45.7973555" lon="11.6242957"><ele>888.5</ele><time>2026-04-06T14:43:47.547Z</time></trkpt><trkpt lat="45.7972884" lon="11.6243356"><ele>888.3333333333333</ele><time>2026-04-06T14:43:48.541Z</time></trkpt><trkpt lat="45.7972233" lon="11.6243739"><ele>888.1666666666666</ele><time>2026-04-06T14:43:49.565Z</time></trkpt><trkpt lat="45.7971563" lon="11.6244005"><ele>888.0</ele><time>2026-04-06T14:43:50.545Z</time></trkpt><trkpt lat="45.7970792" lon="11.6244338"><ele>888.0</ele><time>2026-04-06T14:43:51.543Z</time></trkpt><trkpt lat="45.7970035" lon="11.6244639"><ele>888.0</ele><time>2026-04-06T14:43:52.549Z</time></trkpt><trkpt lat="45.7969408" lon="11.6245043"><ele>888.0</ele><time>2026-04-06T14:43:53.547Z</time></trkpt><trkpt lat="45.7968739" lon="11.6245367"><ele>888.0</ele><time>2026-04-06T14:43:54.542Z</time></trkpt><trkpt lat="45.7968004" lon="11.6245404"><ele>888.0</ele><time>2026-04-06T14:43:57.543Z</time></trkpt><trkpt lat="45.7968638" lon="11.6245331"><ele>888.0</ele><time>2026-04-06T14:44:29.55Z</time></trkpt><trkpt lat="45.7968547" lon="11.6244239"><ele>888.0</ele><time>2026-04-06T14:44:55.548Z</time></trkpt><trkpt lat="45.7969215" lon="11.6244567"><ele>888.0</ele><time>2026-04-06T14:44:59.553Z</time></trkpt><trkpt lat="45.7970262" lon="11.6244876"><ele>888.0</ele><time>2026-04-06T14:45:02.553Z</time></trkpt><trkpt lat="45.7971455" lon="11.6245007"><ele>888.0</ele><time>2026-04-06T14:45:04.552Z</time></trkpt><trkpt lat="45.7972127" lon="11.624497"><ele>888.0</ele><time>2026-04-06T14:45:05.556Z</time></trkpt><trkpt lat="45.797329" lon="11.6244423"><ele>888.0</ele><time>2026-04-06T14:45:07.552Z</time></trkpt><trkpt lat="45.7974173" lon="11.6243981"><ele>888.0</ele><time>2026-04-06T14:45:09.554Z</time></trkpt><trkpt lat="45.7975282" lon="11.6243503"><ele>888.0</ele><time>2026-04-06T14:45:11.55Z</time></trkpt><trkpt lat="45.7975907" lon="11.6243135"><ele>888.0</ele><time>2026-04-06T14:45:12.549Z</time></trkpt><trkpt lat="45.797649" lon="11.6242721"><ele>888.0</ele><time>2026-04-06T14:45:13.544Z</time></trkpt><trkpt lat="45.7977114" lon="11.6242386"><ele>888.0</ele><time>2026-04-06T14:45:14.548Z</time></trkpt><trkpt lat="45.7978167" lon="11.624183"><ele>888.0</ele><time>2026-04-06T14:45:16.553Z</time></trkpt><trkpt lat="45.7979307" lon="11.6241606"><ele>887.5999999999999</ele><time>2026-04-06T14:45:18.555Z</time></trkpt><trkpt lat="45.7980431" lon="11.624227"><ele>887.1999999999999</ele><time>2026-04-06T14:45:20.555Z</time></trkpt><trkpt lat="45.798129" lon="11.6242967"><ele>886.8</ele><time>2026-04-06T14:45:22.554Z</time></trkpt><trkpt lat="45.7982219" lon="11.6243566"><ele>886.4</ele><time>2026-04-06T14:45:24.55Z</time></trkpt><trkpt lat="45.7982926" lon="11.6243981"><ele>886.0</ele><time>2026-04-06T14:45:25.554Z</time></trkpt><trkpt lat="45.7983801" lon="11.6244748"><ele>886.75</ele><time>2026-04-06T14:45:26.553Z</time></trkpt><trkpt lat="45.7984711" lon="11.6245709"><ele>887.5</ele><time>2026-04-06T14:45:27.543Z</time></trkpt><trkpt lat="45.7985677" lon="11.6246861"><ele>888.25</ele><time>2026-04-06T14:45:28.547Z</time></trkpt><trkpt lat="45.7986818" lon="11.6248212"><ele>889.0</ele><time>2026-04-06T14:45:29.549Z</time></trkpt><trkpt lat="45.7988429" lon="11.6249844"><ele>891.0</ele><time>2026-04-06T14:45:30.556Z</time></trkpt><trkpt lat="45.7989462" lon="11.6250902"><ele>893.0</ele><time>2026-04-06T14:45:31.545Z</time></trkpt><trkpt lat="45.7990396" lon="11.6251443"><ele>895.0</ele><time>2026-04-06T14:45:32.548Z</time></trkpt><trkpt lat="45.7991555" lon="11.6251601"><ele>897.0</ele><time>2026-04-06T14:45:33.552Z</time></trkpt><trkpt lat="45.7992869" lon="11.6251617"><ele>897.8</ele><time>2026-04-06T14:45:34.555Z</time></trkpt><trkpt lat="45.7993943" lon="11.625167"><ele>898.6</ele><time>2026-04-06T14:45:35.548Z</time></trkpt><trkpt lat="45.7995072" lon="11.6252145"><ele>899.3999999999999</ele><time>2026-04-06T14:45:36.578Z</time></trkpt><trkpt lat="45.7995879" lon="11.6252541"><ele>900.1999999999999</ele><time>2026-04-06T14:45:37.547Z</time></trkpt><trkpt lat="45.7996539" lon="11.6252803"><ele>901.0</ele><time>2026-04-06T14:45:38.553Z</time></trkpt><trkpt lat="45.7997229" lon="11.625326"><ele>901.0</ele><time>2026-04-06T14:45:39.56Z</time></trkpt><trkpt lat="45.7998038" lon="11.6254093"><ele>901.0</ele><time>2026-04-06T14:45:40.542Z</time></trkpt><trkpt lat="45.7998877" lon="11.6255078"><ele>901.0</ele><time>2026-04-06T14:45:41.553Z</time></trkpt><trkpt lat="45.8000001" lon="11.6255985"><ele>901.0</ele><time>2026-04-06T14:45:42.551Z</time></trkpt><trkpt lat="45.8001292" lon="11.6256695"><ele>899.0</ele><time>2026-04-06T14:45:43.546Z</time></trkpt><trkpt lat="45.8003016" lon="11.6257031"><ele>897.0</ele><time>2026-04-06T14:45:44.55Z</time></trkpt><trkpt lat="45.8004676" lon="11.6257085"><ele>895.0</ele><time>2026-04-06T14:45:45.546Z</time></trkpt><trkpt lat="45.8006189" lon="11.6256949"><ele>895.0</ele><time>2026-04-06T14:45:46.544Z</time></trkpt><trkpt lat="45.8007478" lon="11.625657"><ele>895.0</ele><time>2026-04-06T14:45:47.55Z</time></trkpt><trkpt lat="45.8009425" lon="11.6256228"><ele>895.0</ele><time>2026-04-06T14:45:48.551Z</time></trkpt><trkpt lat="45.8011013" lon="11.6255619"><ele>890.3333333333333</ele><time>2026-04-06T14:45:49.552Z</time></trkpt><trkpt lat="45.8012633" lon="11.6255277"><ele>885.6666666666667</ele><time>2026-04-06T14:45:50.54Z</time></trkpt><trkpt lat="45.8014186" lon="11.625503"><ele>881.0</ele><time>2026-04-06T14:45:51.548Z</time></trkpt><trkpt lat="45.801581" lon="11.625443"><ele>881.0</ele><time>2026-04-06T14:45:52.543Z</time></trkpt><trkpt lat="45.8017167" lon="11.6253654"><ele>881.0</ele><time>2026-04-06T14:45:53.559Z</time></trkpt><trkpt lat="45.8018432" lon="11.6253014"><ele>881.0</ele><time>2026-04-06T14:45:54.568Z</time></trkpt><trkpt lat="45.80197" lon="11.6252118"><ele>881.0</ele><time>2026-04-06T14:45:55.571Z</time></trkpt><trkpt lat="45.8020954" lon="11.6251084"><ele>884.25</ele><time>2026-04-06T14:45:56.57Z</time></trkpt><trkpt lat="45.8022015" lon="11.6250402"><ele>887.5</ele><time>2026-04-06T14:45:57.569Z</time></trkpt><trkpt lat="45.8023162" lon="11.625005"><ele>890.75</ele><time>2026-04-06T14:45:58.569Z</time></trkpt><trkpt lat="45.8024218" lon="11.6249969"><ele>894.0</ele><time>2026-04-06T14:45:59.573Z</time></trkpt><trkpt lat="45.8025204" lon="11.6250883"><ele>894.0</ele><time>2026-04-06T14:46:00.55Z</time></trkpt><trkpt lat="45.8025977" lon="11.625196"><ele>894.0</ele><time>2026-04-06T14:46:01.543Z</time></trkpt><trkpt lat="45.8026925" lon="11.6253448"><ele>894.0</ele><time>2026-04-06T14:46:02.544Z</time></trkpt><trkpt lat="45.8028174" lon="11.6255031"><ele>894.0</ele><time>2026-04-06T14:46:03.545Z</time></trkpt><trkpt lat="45.8029558" lon="11.6256573"><ele>892.0</ele><time>2026-04-06T14:46:04.535Z</time></trkpt><trkpt lat="45.8030783" lon="11.6257778"><ele>890.0</ele><time>2026-04-06T14:46:05.546Z</time></trkpt><trkpt lat="45.8031998" lon="11.6258364"><ele>888.0</ele><time>2026-04-06T14:46:06.542Z</time></trkpt><trkpt lat="45.8033257" lon="11.625863"><ele>886.0</ele><time>2026-04-06T14:46:07.54Z</time></trkpt><trkpt lat="45.8034335" lon="11.6259209"><ele>887.5</ele><time>2026-04-06T14:46:08.539Z</time></trkpt><trkpt lat="45.8035304" lon="11.6260117"><ele>889.0</ele><time>2026-04-06T14:46:09.544Z</time></trkpt><trkpt lat="45.8036199" lon="11.6261157"><ele>890.5</ele><time>2026-04-06T14:46:10.546Z</time></trkpt><trkpt lat="45.8037116" lon="11.6262299"><ele>892.0</ele><time>2026-04-06T14:46:11.552Z</time></trkpt><trkpt lat="45.8037782" lon="11.6263362"><ele>892.0</ele><time>2026-04-06T14:46:12.568Z</time></trkpt><trkpt lat="45.8038395" lon="11.6264629"><ele>892.0</ele><time>2026-04-06T14:46:13.567Z</time></trkpt><trkpt lat="45.803894" lon="11.6265608"><ele>892.0</ele><time>2026-04-06T14:46:14.567Z</time></trkpt><trkpt lat="45.8039406" lon="11.626678"><ele>892.0</ele><time>2026-04-06T14:46:15.547Z</time></trkpt><trkpt lat="45.8039856" lon="11.6268033"><ele>892.0</ele><time>2026-04-06T14:46:16.543Z</time></trkpt><trkpt lat="45.8040143" lon="11.6269383"><ele>889.6</ele><time>2026-04-06T14:46:17.544Z</time></trkpt><trkpt lat="45.8040227" lon="11.6270769"><ele>887.2</ele><time>2026-04-06T14:46:18.542Z</time></trkpt><trkpt lat="45.8040192" lon="11.62722"><ele>884.8</ele><time>2026-04-06T14:46:19.542Z</time></trkpt><trkpt lat="45.8040351" lon="11.6273488"><ele>882.4</ele><time>2026-04-06T14:46:20.544Z</time></trkpt><trkpt lat="45.8040654" lon="11.6274537"><ele>880.0</ele><time>2026-04-06T14:46:21.539Z</time></trkpt><trkpt lat="45.8041198" lon="11.6275436"><ele>879.9999999999999</ele><time>2026-04-06T14:46:22.543Z</time></trkpt><trkpt lat="45.8041874" lon="11.6276423"><ele>880.0</ele><time>2026-04-06T14:46:23.549Z</time></trkpt><trkpt lat="45.8042155" lon="11.6277475"><ele>880.0</ele><time>2026-04-06T14:46:24.538Z</time></trkpt><trkpt lat="45.8042302" lon="11.6278527"><ele>880.0</ele><time>2026-04-06T14:46:25.545Z</time></trkpt><trkpt lat="45.8042318" lon="11.6279746"><ele>879.9999999999999</ele><time>2026-04-06T14:46:26.542Z</time></trkpt><trkpt lat="45.8042024" lon="11.6280863"><ele>880.0</ele><time>2026-04-06T14:46:27.542Z</time></trkpt><trkpt lat="45.8041542" lon="11.628155"><ele>879.4999999999999</ele><time>2026-04-06T14:46:28.547Z</time></trkpt><trkpt lat="45.8041024" lon="11.6282336"><ele>879.0</ele><time>2026-04-06T14:46:29.538Z</time></trkpt><trkpt lat="45.8040509" lon="11.6283171"><ele>878.5</ele><time>2026-04-06T14:46:30.54Z</time></trkpt><trkpt lat="45.8039933" lon="11.6284109"><ele>878.0</ele><time>2026-04-06T14:46:31.542Z</time></trkpt><trkpt lat="45.8039537" lon="11.6285433"><ele>877.4999999999999</ele><time>2026-04-06T14:46:32.55Z</time></trkpt><trkpt lat="45.8039303" lon="11.6286947"><ele>877.0</ele><time>2026-04-06T14:46:33.541Z</time></trkpt><trkpt lat="45.8039365" lon="11.6288535"><ele>875.6</ele><time>2026-04-06T14:46:34.547Z</time></trkpt><trkpt lat="45.8039481" lon="11.6290026"><ele>874.2</ele><time>2026-04-06T14:46:35.549Z</time></trkpt><trkpt lat="45.803963" lon="11.6291431"><ele>872.8</ele><time>2026-04-06T14:46:36.542Z</time></trkpt><trkpt lat="45.8039695" lon="11.6292829"><ele>871.4</ele><time>2026-04-06T14:46:37.55Z</time></trkpt><trkpt lat="45.8040077" lon="11.6294266"><ele>870.0</ele><time>2026-04-06T14:46:38.549Z</time></trkpt><trkpt lat="45.8040621" lon="11.6295643"><ele>868.6</ele><time>2026-04-06T14:46:39.542Z</time></trkpt><trkpt lat="45.8041338" lon="11.629709"><ele>867.2</ele><time>2026-04-06T14:46:40.545Z</time></trkpt><trkpt lat="45.8041794" lon="11.6298536"><ele>865.8</ele><time>2026-04-06T14:46:41.55Z</time></trkpt><trkpt lat="45.8042073" lon="11.6300009"><ele>864.4</ele><time>2026-04-06T14:46:42.546Z</time></trkpt><trkpt lat="45.8042343" lon="11.6301378"><ele>863.0</ele><time>2026-04-06T14:46:43.547Z</time></trkpt><trkpt lat="45.8042549" lon="11.6302734"><ele>862.3333333333334</ele><time>2026-04-06T14:46:44.546Z</time></trkpt><trkpt lat="45.804274" lon="11.6304054"><ele>861.6666666666667</ele><time>2026-04-06T14:46:45.539Z</time></trkpt><trkpt lat="45.8042871" lon="11.6305187"><ele>861.0</ele><time>2026-04-06T14:46:46.553Z</time></trkpt><trkpt lat="45.8043146" lon="11.6306401"><ele>860.3333333333333</ele><time>2026-04-06T14:46:47.542Z</time></trkpt><trkpt lat="45.8043297" lon="11.63076"><ele>859.6666666666666</ele><time>2026-04-06T14:46:48.54Z</time></trkpt><trkpt lat="45.8043187" lon="11.6308865"><ele>859.0</ele><time>2026-04-06T14:46:49.551Z</time></trkpt><trkpt lat="45.8042713" lon="11.6310016"><ele>859.0</ele><time>2026-04-06T14:46:50.546Z</time></trkpt><trkpt lat="45.8041974" lon="11.6311068"><ele>859.0</ele><time>2026-04-06T14:46:51.545Z</time></trkpt><trkpt lat="45.8041094" lon="11.6312015"><ele>859.0</ele><time>2026-04-06T14:46:52.547Z</time></trkpt><trkpt lat="45.8039837" lon="11.6312843"><ele>859.0</ele><time>2026-04-06T14:46:53.544Z</time></trkpt><trkpt lat="45.8038538" lon="11.6313562"><ele>856.75</ele><time>2026-04-06T14:46:54.542Z</time></trkpt><trkpt lat="45.8037346" lon="11.6314372"><ele>854.5</ele><time>2026-04-06T14:46:55.548Z</time></trkpt><trkpt lat="45.8036306" lon="11.6315104"><ele>852.25</ele><time>2026-04-06T14:46:56.546Z</time></trkpt><trkpt lat="45.8035305" lon="11.631588"><ele>850.0</ele><time>2026-04-06T14:46:57.553Z</time></trkpt><trkpt lat="45.8034366" lon="11.6316606"><ele>850.0</ele><time>2026-04-06T14:46:58.548Z</time></trkpt><trkpt lat="45.8033363" lon="11.6317403"><ele>850.0</ele><time>2026-04-06T14:46:59.55Z</time></trkpt><trkpt lat="45.8032439" lon="11.6318265"><ele>850.0</ele><time>2026-04-06T14:47:00.549Z</time></trkpt><trkpt lat="45.8031484" lon="11.631912"><ele>850.0</ele><time>2026-04-06T14:47:01.551Z</time></trkpt><trkpt lat="45.8030578" lon="11.6319781"><ele>850.0</ele><time>2026-04-06T14:47:02.548Z</time></trkpt><trkpt lat="45.8029565" lon="11.6319741"><ele>850.0</ele><time>2026-04-06T14:47:03.551Z</time></trkpt><trkpt lat="45.8028644" lon="11.6319525"><ele>850.0</ele><time>2026-04-06T14:47:04.554Z</time></trkpt><trkpt lat="45.8027707" lon="11.6319167"><ele>850.0</ele><time>2026-04-06T14:47:05.554Z</time></trkpt><trkpt lat="45.8026688" lon="11.6318698"><ele>850.0</ele><time>2026-04-06T14:47:06.548Z</time></trkpt><trkpt lat="45.8025769" lon="11.6318199"><ele>850.0</ele><time>2026-04-06T14:47:07.553Z</time></trkpt><trkpt lat="45.802483" lon="11.6317788"><ele>849.4999999999999</ele><time>2026-04-06T14:47:08.552Z</time></trkpt><trkpt lat="45.802398" lon="11.6317578"><ele>849.0</ele><time>2026-04-06T14:47:09.551Z</time></trkpt><trkpt lat="45.8023115" lon="11.631746"><ele>848.5</ele><time>2026-04-06T14:47:10.556Z</time></trkpt><trkpt lat="45.8022288" lon="11.6317468"><ele>848.0</ele><time>2026-04-06T14:47:11.553Z</time></trkpt><trkpt lat="45.8021365" lon="11.6317669"><ele>847.4999999999999</ele><time>2026-04-06T14:47:12.559Z</time></trkpt><trkpt lat="45.8020504" lon="11.631803"><ele>847.0</ele><time>2026-04-06T14:47:13.556Z</time></trkpt><trkpt lat="45.8019692" lon="11.6318755"><ele>847.8</ele><time>2026-04-06T14:47:14.553Z</time></trkpt><trkpt lat="45.8018874" lon="11.6319765"><ele>848.6</ele><time>2026-04-06T14:47:15.555Z</time></trkpt><trkpt lat="45.8018164" lon="11.6320926"><ele>849.4</ele><time>2026-04-06T14:47:16.558Z</time></trkpt><trkpt lat="45.8017577" lon="11.6322178"><ele>850.1999999999999</ele><time>2026-04-06T14:47:17.554Z</time></trkpt><trkpt lat="45.8017077" lon="11.6323381"><ele>851.0</ele><time>2026-04-06T14:47:18.554Z</time></trkpt><trkpt lat="45.8016701" lon="11.6324755"><ele>850.6666666666667</ele><time>2026-04-06T14:47:19.561Z</time></trkpt><trkpt lat="45.801651" lon="11.6326083"><ele>850.3333333333334</ele><time>2026-04-06T14:47:20.558Z</time></trkpt><trkpt lat="45.8016594" lon="11.632737"><ele>850.0</ele><time>2026-04-06T14:47:21.56Z</time></trkpt><trkpt lat="45.8016901" lon="11.6328491"><ele>849.6666666666667</ele><time>2026-04-06T14:47:22.553Z</time></trkpt><trkpt lat="45.8017515" lon="11.6329354"><ele>849.3333333333334</ele><time>2026-04-06T14:47:23.555Z</time></trkpt><trkpt lat="45.8018236" lon="11.6329903"><ele>849.0</ele><time>2026-04-06T14:47:24.556Z</time></trkpt><trkpt lat="45.8018868" lon="11.6330584"><ele>849.0</ele><time>2026-04-06T14:47:25.55Z</time></trkpt><trkpt lat="45.8019345" lon="11.633148"><ele>849.0</ele><time>2026-04-06T14:47:26.555Z</time></trkpt><trkpt lat="45.8019587" lon="11.6332565"><ele>849.0</ele><time>2026-04-06T14:47:27.557Z</time></trkpt><trkpt lat="45.80195" lon="11.6333663"><ele>849.0</ele><time>2026-04-06T14:47:28.548Z</time></trkpt><trkpt lat="45.801924" lon="11.6334706"><ele>849.0</ele><time>2026-04-06T14:47:29.559Z</time></trkpt><trkpt lat="45.8018901" lon="11.6335645"><ele>849.0</ele><time>2026-04-06T14:47:30.556Z</time></trkpt><trkpt lat="45.8018492" lon="11.6336413"><ele>848.4000000000001</ele><time>2026-04-06T14:47:31.554Z</time></trkpt><trkpt lat="45.8018214" lon="11.6337355"><ele>847.8</ele><time>2026-04-06T14:47:32.561Z</time></trkpt><trkpt lat="45.8018042" lon="11.6338259"><ele>847.2</ele><time>2026-04-06T14:47:33.557Z</time></trkpt><trkpt lat="45.8018201" lon="11.6340333"><ele>846.5999999999999</ele><time>2026-04-06T14:47:35.559Z</time></trkpt><trkpt lat="45.8018301" lon="11.6341543"><ele>846.0</ele><time>2026-04-06T14:47:36.558Z</time></trkpt><trkpt lat="45.8018357" lon="11.634283"><ele>846.0</ele><time>2026-04-06T14:47:37.555Z</time></trkpt><trkpt lat="45.8018501" lon="11.6344201"><ele>846.0</ele><time>2026-04-06T14:47:38.557Z</time></trkpt><trkpt lat="45.8018599" lon="11.6345393"><ele>846.0</ele><time>2026-04-06T14:47:39.556Z</time></trkpt><trkpt lat="45.8018611" lon="11.6346546"><ele>846.0</ele><time>2026-04-06T14:47:40.56Z</time></trkpt><trkpt lat="45.8018456" lon="11.6347683"><ele>846.0</ele><time>2026-04-06T14:47:41.562Z</time></trkpt><trkpt lat="45.8018166" lon="11.6348662"><ele>846.0</ele><time>2026-04-06T14:47:42.555Z</time></trkpt><trkpt lat="45.8017718" lon="11.6349532"><ele>844.5</ele><time>2026-04-06T14:47:43.572Z</time></trkpt><trkpt lat="45.8017153" lon="11.6350308"><ele>843.0</ele><time>2026-04-06T14:47:44.574Z</time></trkpt><trkpt lat="45.8016608" lon="11.6351189"><ele>841.5</ele><time>2026-04-06T14:47:45.551Z</time></trkpt><trkpt lat="45.8016238" lon="11.6352174"><ele>840.0</ele><time>2026-04-06T14:47:46.552Z</time></trkpt><trkpt lat="45.8015923" lon="11.6353019"><ele>838.5</ele><time>2026-04-06T14:47:47.553Z</time></trkpt><trkpt lat="45.8015686" lon="11.6354116"><ele>837.0</ele><time>2026-04-06T14:47:48.557Z</time></trkpt><trkpt lat="45.8015467" lon="11.6355328"><ele>837.0</ele><time>2026-04-06T14:47:49.555Z</time></trkpt><trkpt lat="45.8015247" lon="11.6356437"><ele>837.0</ele><time>2026-04-06T14:47:50.559Z</time></trkpt><trkpt lat="45.8014989" lon="11.6357419"><ele>837.0</ele><time>2026-04-06T14:47:51.552Z</time></trkpt><trkpt lat="45.8014632" lon="11.6358337"><ele>837.0</ele><time>2026-04-06T14:47:52.553Z</time></trkpt><trkpt lat="45.8014031" lon="11.6359044"><ele>837.0</ele><time>2026-04-06T14:47:53.549Z</time></trkpt><trkpt lat="45.8013398" lon="11.6359508"><ele>837.0</ele><time>2026-04-06T14:47:54.557Z</time></trkpt><trkpt lat="45.801276" lon="11.6359915"><ele>837.0</ele><time>2026-04-06T14:47:55.552Z</time></trkpt><trkpt lat="45.8011829" lon="11.6360289"><ele>837.0</ele><time>2026-04-06T14:47:56.558Z</time></trkpt><trkpt lat="45.8010907" lon="11.6360589"><ele>837.0</ele><time>2026-04-06T14:47:57.551Z</time></trkpt><trkpt lat="45.801003" lon="11.636057"><ele>837.0</ele><time>2026-04-06T14:47:58.558Z</time></trkpt><trkpt lat="45.8009303" lon="11.636005"><ele>837.0</ele><time>2026-04-06T14:47:59.559Z</time></trkpt><trkpt lat="45.800865" lon="11.6359238"><ele>837.0</ele><time>2026-04-06T14:48:00.554Z</time></trkpt><trkpt lat="45.8008084" lon="11.6358366"><ele>837.0</ele><time>2026-04-06T14:48:01.556Z</time></trkpt><trkpt lat="45.8007598" lon="11.6357557"><ele>835.8</ele><time>2026-04-06T14:48:02.552Z</time></trkpt><trkpt lat="45.8007048" lon="11.6356787"><ele>834.6</ele><time>2026-04-06T14:48:03.557Z</time></trkpt><trkpt lat="45.800643" lon="11.635613"><ele>833.4</ele><time>2026-04-06T14:48:04.551Z</time></trkpt><trkpt lat="45.8005539" lon="11.6355372"><ele>832.1999999999999</ele><time>2026-04-06T14:48:05.552Z</time></trkpt><trkpt lat="45.8004525" lon="11.6354804"><ele>831.0</ele><time>2026-04-06T14:48:06.554Z</time></trkpt><trkpt lat="45.8003478" lon="11.6354367"><ele>831.0</ele><time>2026-04-06T14:48:07.553Z</time></trkpt><trkpt lat="45.8002547" lon="11.6354358"><ele>831.0</ele><time>2026-04-06T14:48:08.55Z</time></trkpt><trkpt lat="45.8001598" lon="11.6354734"><ele>831.0</ele><time>2026-04-06T14:48:09.556Z</time></trkpt><trkpt lat="45.8000903" lon="11.6355259"><ele>831.0</ele><time>2026-04-06T14:48:10.55Z</time></trkpt><trkpt lat="45.8000319" lon="11.6355882"><ele>831.0</ele><time>2026-04-06T14:48:11.56Z</time></trkpt><trkpt lat="45.7999706" lon="11.6356267"><ele>831.0</ele><time>2026-04-06T14:48:12.557Z</time></trkpt><trkpt lat="45.7998581" lon="11.6356767"><ele>830.5999999999999</ele><time>2026-04-06T14:48:14.558Z</time></trkpt><trkpt lat="45.7997639" lon="11.6356069"><ele>830.2</ele><time>2026-04-06T14:48:16.55Z</time></trkpt><trkpt lat="45.7997573" lon="11.6355133"><ele>829.8</ele><time>2026-04-06T14:48:17.553Z</time></trkpt><trkpt lat="45.7997788" lon="11.6353707"><ele>829.4000000000001</ele><time>2026-04-06T14:48:18.56Z</time></trkpt><trkpt lat="45.7998152" lon="11.6352424"><ele>829.0</ele><time>2026-04-06T14:48:19.55Z</time></trkpt><trkpt lat="45.7998572" lon="11.6351292"><ele>825.5</ele><time>2026-04-06T14:48:20.564Z</time></trkpt><trkpt lat="45.799894" lon="11.6350172"><ele>822.0</ele><time>2026-04-06T14:48:21.556Z</time></trkpt><trkpt lat="45.7999316" lon="11.634881"><ele>818.5</ele><time>2026-04-06T14:48:22.55Z</time></trkpt><trkpt lat="45.7999725" lon="11.6346935"><ele>815.0</ele><time>2026-04-06T14:48:23.559Z</time></trkpt><trkpt lat="45.8000272" lon="11.6344736"><ele>812.3333333333334</ele><time>2026-04-06T14:48:24.555Z</time></trkpt><trkpt lat="45.8000761" lon="11.6342346"><ele>809.6666666666667</ele><time>2026-04-06T14:48:25.553Z</time></trkpt><trkpt lat="45.8001216" lon="11.6340219"><ele>807.0</ele><time>2026-04-06T14:48:26.561Z</time></trkpt><trkpt lat="45.8001172" lon="11.6338168"><ele>805.5</ele><time>2026-04-06T14:48:27.556Z</time></trkpt><trkpt lat="45.8001042" lon="11.6336155"><ele>804.0</ele><time>2026-04-06T14:48:28.551Z</time></trkpt><trkpt lat="45.8000986" lon="11.6334294"><ele>802.5</ele><time>2026-04-06T14:48:29.557Z</time></trkpt><trkpt lat="45.8001079" lon="11.6332354"><ele>801.0</ele><time>2026-04-06T14:48:30.56Z</time></trkpt><trkpt lat="45.8000777" lon="11.6330185"><ele>801.0</ele><time>2026-04-06T14:48:31.552Z</time></trkpt><trkpt lat="45.7999929" lon="11.6328088"><ele>801.0</ele><time>2026-04-06T14:48:32.558Z</time></trkpt><trkpt lat="45.7999393" lon="11.6325929"><ele>801.0</ele><time>2026-04-06T14:48:33.556Z</time></trkpt><trkpt lat="45.7998989" lon="11.6323938"><ele>799.5</ele><time>2026-04-06T14:48:34.554Z</time></trkpt><trkpt lat="45.7998631" lon="11.632207"><ele>798.0</ele><time>2026-04-06T14:48:35.562Z</time></trkpt><trkpt lat="45.7998333" lon="11.6320222"><ele>796.5</ele><time>2026-04-06T14:48:36.557Z</time></trkpt><trkpt lat="45.7997886" lon="11.6318652"><ele>795.0</ele><time>2026-04-06T14:48:37.571Z</time></trkpt><trkpt lat="45.7997458" lon="11.6317219"><ele>794.6</ele><time>2026-04-06T14:48:38.561Z</time></trkpt><trkpt lat="45.7997174" lon="11.6316212"><ele>794.2</ele><time>2026-04-06T14:48:39.554Z</time></trkpt><trkpt lat="45.7996378" lon="11.6315206"><ele>793.8</ele><time>2026-04-06T14:48:41.558Z</time></trkpt><trkpt lat="45.7995128" lon="11.6315818"><ele>793.4</ele><time>2026-04-06T14:48:43.549Z</time></trkpt><trkpt lat="45.7994688" lon="11.6317013"><ele>793.0</ele><time>2026-04-06T14:48:44.556Z</time></trkpt><trkpt lat="45.7994349" lon="11.6318456"><ele>793.4</ele><time>2026-04-06T14:48:45.553Z</time></trkpt><trkpt lat="45.7994103" lon="11.6319824"><ele>793.8</ele><time>2026-04-06T14:48:46.551Z</time></trkpt><trkpt lat="45.7993782" lon="11.6321081"><ele>794.2</ele><time>2026-04-06T14:48:47.555Z</time></trkpt><trkpt lat="45.7993213" lon="11.6322079"><ele>794.6</ele><time>2026-04-06T14:48:48.562Z</time></trkpt><trkpt lat="45.799257" lon="11.6322834"><ele>795.0</ele><time>2026-04-06T14:48:49.549Z</time></trkpt><trkpt lat="45.7991644" lon="11.6323344"><ele>792.25</ele><time>2026-04-06T14:48:50.555Z</time></trkpt><trkpt lat="45.7990501" lon="11.63237"><ele>789.5</ele><time>2026-04-06T14:48:51.551Z</time></trkpt><trkpt lat="45.7989117" lon="11.6323772"><ele>786.75</ele><time>2026-04-06T14:48:52.554Z</time></trkpt><trkpt lat="45.798758" lon="11.6323231"><ele>784.0</ele><time>2026-04-06T14:48:53.556Z</time></trkpt><trkpt lat="45.798578" lon="11.6322262"><ele>782.5</ele><time>2026-04-06T14:48:54.555Z</time></trkpt><trkpt lat="45.7984319" lon="11.6321229"><ele>781.0</ele><time>2026-04-06T14:48:55.555Z</time></trkpt><trkpt lat="45.7983027" lon="11.6320585"><ele>779.5</ele><time>2026-04-06T14:48:56.558Z</time></trkpt><trkpt lat="45.7981744" lon="11.6320099"><ele>778.0</ele><time>2026-04-06T14:48:57.555Z</time></trkpt><trkpt lat="45.798037" lon="11.631948"><ele>777.0</ele><time>2026-04-06T14:48:58.553Z</time></trkpt><trkpt lat="45.7978861" lon="11.6319098"><ele>776.0</ele><time>2026-04-06T14:48:59.556Z</time></trkpt><trkpt lat="45.7977408" lon="11.6318512"><ele>775.0</ele><time>2026-04-06T14:49:00.558Z</time></trkpt><trkpt lat="45.7975918" lon="11.6317693"><ele>773.5</ele><time>2026-04-06T14:49:01.551Z</time></trkpt><trkpt lat="45.7974688" lon="11.6316931"><ele>772.0</ele><time>2026-04-06T14:49:02.559Z</time></trkpt><trkpt lat="45.7973455" lon="11.6316212"><ele>770.5</ele><time>2026-04-06T14:49:03.553Z</time></trkpt><trkpt lat="45.7971953" lon="11.6315511"><ele>769.0</ele><time>2026-04-06T14:49:04.549Z</time></trkpt><trkpt lat="45.7970609" lon="11.6314862"><ele>769.0</ele><time>2026-04-06T14:49:05.555Z</time></trkpt><trkpt lat="45.7969371" lon="11.6314262"><ele>769.0</ele><time>2026-04-06T14:49:06.555Z</time></trkpt><trkpt lat="45.7968097" lon="11.6313657"><ele>769.0</ele><time>2026-04-06T14:49:07.553Z</time></trkpt><trkpt lat="45.7967126" lon="11.6313151"><ele>769.0</ele><time>2026-04-06T14:49:08.553Z</time></trkpt><trkpt lat="45.7966045" lon="11.6312833"><ele>767.2</ele><time>2026-04-06T14:49:09.554Z</time></trkpt><trkpt lat="45.7964912" lon="11.6312517"><ele>765.4000000000001</ele><time>2026-04-06T14:49:10.554Z</time></trkpt><trkpt lat="45.7963936" lon="11.6312279"><ele>763.6</ele><time>2026-04-06T14:49:11.56Z</time></trkpt><trkpt lat="45.7963109" lon="11.6312553"><ele>761.8</ele><time>2026-04-06T14:49:12.551Z</time></trkpt><trkpt lat="45.7962464" lon="11.6312481"><ele>760.0</ele><time>2026-04-06T14:49:13.573Z</time></trkpt><trkpt lat="45.7961418" lon="11.6311356"><ele>760.0</ele><time>2026-04-06T14:49:15.552Z</time></trkpt><trkpt lat="45.7960863" lon="11.631042"><ele>760.0</ele><time>2026-04-06T14:49:16.547Z</time></trkpt><trkpt lat="45.7960241" lon="11.6309523"><ele>760.0</ele><time>2026-04-06T14:49:17.553Z</time></trkpt><trkpt lat="45.795941" lon="11.6308669"><ele>760.0</ele><time>2026-04-06T14:49:18.554Z</time></trkpt><trkpt lat="45.7958568" lon="11.6307973"><ele>760.0</ele><time>2026-04-06T14:49:19.551Z</time></trkpt><trkpt lat="45.7957865" lon="11.6307532"><ele>758.6666666666667</ele><time>2026-04-06T14:49:20.554Z</time></trkpt><trkpt lat="45.7957241" lon="11.6307237"><ele>757.3333333333334</ele><time>2026-04-06T14:49:21.553Z</time></trkpt><trkpt lat="45.7956144" lon="11.630738"><ele>756.0</ele><time>2026-04-06T14:49:23.56Z</time></trkpt><trkpt lat="45.7955683" lon="11.6308095"><ele>754.6666666666666</ele><time>2026-04-06T14:49:24.557Z</time></trkpt><trkpt lat="45.7955527" lon="11.6309142"><ele>753.3333333333333</ele><time>2026-04-06T14:49:25.553Z</time></trkpt><trkpt lat="45.7955419" lon="11.6310252"><ele>752.0</ele><time>2026-04-06T14:49:26.553Z</time></trkpt><trkpt lat="45.7955167" lon="11.6311364"><ele>752.1666666666666</ele><time>2026-04-06T14:49:27.554Z</time></trkpt><trkpt lat="45.7954872" lon="11.6312475"><ele>752.3333333333333</ele><time>2026-04-06T14:49:28.563Z</time></trkpt><trkpt lat="45.7954506" lon="11.6313425"><ele>752.5</ele><time>2026-04-06T14:49:29.553Z</time></trkpt><trkpt lat="45.795391" lon="11.6314261"><ele>752.6666666666666</ele><time>2026-04-06T14:49:30.547Z</time></trkpt><trkpt lat="45.7953126" lon="11.6315173"><ele>752.8333333333334</ele><time>2026-04-06T14:49:31.559Z</time></trkpt><trkpt lat="45.7952305" lon="11.6315708"><ele>753.0</ele><time>2026-04-06T14:49:32.55Z</time></trkpt><trkpt lat="45.7951251" lon="11.6316043"><ele>752.0</ele><time>2026-04-06T14:49:33.556Z</time></trkpt><trkpt lat="45.7949958" lon="11.6316276"><ele>751.0</ele><time>2026-04-06T14:49:34.558Z</time></trkpt><trkpt lat="45.7948362" lon="11.6315945"><ele>750.0</ele><time>2026-04-06T14:49:35.559Z</time></trkpt><trkpt lat="45.794605" lon="11.6315463"><ele>750.0</ele><time>2026-04-06T14:49:36.556Z</time></trkpt><trkpt lat="45.7943984" lon="11.6315321"><ele>750.0</ele><time>2026-04-06T14:49:37.561Z</time></trkpt><trkpt lat="45.7942099" lon="11.6315211"><ele>750.0</ele><time>2026-04-06T14:49:38.555Z</time></trkpt><trkpt lat="45.7940399" lon="11.6315344"><ele>750.75</ele><time>2026-04-06T14:49:39.554Z</time></trkpt><trkpt lat="45.793897" lon="11.6315591"><ele>751.5</ele><time>2026-04-06T14:49:40.552Z</time></trkpt><trkpt lat="45.7937494" lon="11.6315311"><ele>752.25</ele><time>2026-04-06T14:49:41.56Z</time></trkpt><trkpt lat="45.7936228" lon="11.6314672"><ele>753.0</ele><time>2026-04-06T14:49:42.556Z</time></trkpt><trkpt lat="45.7934724" lon="11.6313419"><ele>755.6666666666666</ele><time>2026-04-06T14:49:43.553Z</time></trkpt><trkpt lat="45.7933014" lon="11.631213"><ele>758.3333333333333</ele><time>2026-04-06T14:49:44.556Z</time></trkpt><trkpt lat="45.7931335" lon="11.6311137"><ele>761.0</ele><time>2026-04-06T14:49:45.553Z</time></trkpt><trkpt lat="45.7930009" lon="11.6310827"><ele>755.0</ele><time>2026-04-06T14:49:46.553Z</time></trkpt><trkpt lat="45.7928339" lon="11.631082"><ele>749.0</ele><time>2026-04-06T14:49:47.556Z</time></trkpt><trkpt lat="45.7926553" lon="11.6310964"><ele>743.0</ele><time>2026-04-06T14:49:48.558Z</time></trkpt><trkpt lat="45.792494" lon="11.6310557"><ele>742.6666666666666</ele><time>2026-04-06T14:49:49.56Z</time></trkpt><trkpt lat="45.7923408" lon="11.6311048"><ele>742.3333333333334</ele><time>2026-04-06T14:49:50.558Z</time></trkpt><trkpt lat="45.7921861" lon="11.6311478"><ele>742.0</ele><time>2026-04-06T14:49:51.549Z</time></trkpt><trkpt lat="45.7920593" lon="11.6312342"><ele>744.75</ele><time>2026-04-06T14:49:52.561Z</time></trkpt><trkpt lat="45.7919626" lon="11.6313256"><ele>747.5</ele><time>2026-04-06T14:49:53.563Z</time></trkpt><trkpt lat="45.7918799" lon="11.6314473"><ele>750.25</ele><time>2026-04-06T14:49:54.579Z</time></trkpt><trkpt lat="45.7917691" lon="11.6314915"><ele>753.0</ele><time>2026-04-06T14:49:55.583Z</time></trkpt><trkpt lat="45.7916582" lon="11.6314647"><ele>753.0</ele><time>2026-04-06T14:49:56.557Z</time></trkpt><trkpt lat="45.7915355" lon="11.6313627"><ele>753.0</ele><time>2026-04-06T14:49:57.578Z</time></trkpt><trkpt lat="45.7914039" lon="11.6312048"><ele>753.0</ele><time>2026-04-06T14:49:58.574Z</time></trkpt><trkpt lat="45.7912735" lon="11.6310543"><ele>753.3333333333334</ele><time>2026-04-06T14:49:59.558Z</time></trkpt><trkpt lat="45.7911113" lon="11.6308807"><ele>753.6666666666667</ele><time>2026-04-06T14:50:00.56Z</time></trkpt><trkpt lat="45.7909252" lon="11.6307146"><ele>754.0</ele><time>2026-04-06T14:50:01.554Z</time></trkpt><trkpt lat="45.790733" lon="11.630568"><ele>754.0</ele><time>2026-04-06T14:50:02.556Z</time></trkpt><trkpt lat="45.7905701" lon="11.6304845"><ele>754.0</ele><time>2026-04-06T14:50:03.549Z</time></trkpt><trkpt lat="45.7904217" lon="11.6304021"><ele>754.0</ele><time>2026-04-06T14:50:04.553Z</time></trkpt><trkpt lat="45.79031" lon="11.6303278"><ele>754.0</ele><time>2026-04-06T14:50:05.563Z</time></trkpt><trkpt lat="45.7902078" lon="11.6302301"><ele>754.0</ele><time>2026-04-06T14:50:06.573Z</time></trkpt><trkpt lat="45.7900946" lon="11.6300346"><ele>754.0</ele><time>2026-04-06T14:50:07.553Z</time></trkpt><trkpt lat="45.7899867" lon="11.6297774"><ele>754.0</ele><time>2026-04-06T14:50:08.58Z</time></trkpt><trkpt lat="45.789885" lon="11.629543"><ele>754.0</ele><time>2026-04-06T14:50:09.596Z</time></trkpt><trkpt lat="45.789766" lon="11.6293707"><ele>754.0</ele><time>2026-04-06T14:50:10.606Z</time></trkpt><trkpt lat="45.7896721" lon="11.6291683"><ele>750.0</ele><time>2026-04-06T14:50:11.558Z</time></trkpt><trkpt lat="45.7895504" lon="11.628989"><ele>746.0</ele><time>2026-04-06T14:50:12.547Z</time></trkpt><trkpt lat="45.7894308" lon="11.6288152"><ele>742.0</ele><time>2026-04-06T14:50:13.56Z</time></trkpt><trkpt lat="45.7892835" lon="11.6286509"><ele>741.6666666666667</ele><time>2026-04-06T14:50:14.561Z</time></trkpt><trkpt lat="45.7891336" lon="11.6285013"><ele>741.3333333333334</ele><time>2026-04-06T14:50:15.576Z</time></trkpt><trkpt lat="45.788982" lon="11.6284068"><ele>741.0</ele><time>2026-04-06T14:50:16.551Z</time></trkpt><trkpt lat="45.7887913" lon="11.628339"><ele>741.0</ele><time>2026-04-06T14:50:17.554Z</time></trkpt><trkpt lat="45.7886126" lon="11.62835"><ele>741.0</ele><time>2026-04-06T14:50:18.556Z</time></trkpt><trkpt lat="45.788445" lon="11.628406"><ele>741.0</ele><time>2026-04-06T14:50:19.578Z</time></trkpt><trkpt lat="45.7882909" lon="11.628458"><ele>740.6666666666666</ele><time>2026-04-06T14:50:20.56Z</time></trkpt><trkpt lat="45.7881138" lon="11.6285935"><ele>740.3333333333333</ele><time>2026-04-06T14:50:21.55Z</time></trkpt><trkpt lat="45.7879405" lon="11.6287153"><ele>740.0</ele><time>2026-04-06T14:50:22.554Z</time></trkpt><trkpt lat="45.7877638" lon="11.628814"><ele>743.0</ele><time>2026-04-06T14:50:23.56Z</time></trkpt><trkpt lat="45.7875687" lon="11.6289271"><ele>746.0</ele><time>2026-04-06T14:50:24.551Z</time></trkpt><trkpt lat="45.7873479" lon="11.6290208"><ele>749.0</ele><time>2026-04-06T14:50:25.551Z</time></trkpt><trkpt lat="45.7871689" lon="11.629089"><ele>749.0</ele><time>2026-04-06T14:50:26.547Z</time></trkpt><trkpt lat="45.7870151" lon="11.6291574"><ele>749.0</ele><time>2026-04-06T14:50:27.553Z</time></trkpt><trkpt lat="45.7868683" lon="11.6292568"><ele>749.0</ele><time>2026-04-06T14:50:28.553Z</time></trkpt><trkpt lat="45.7867312" lon="11.6292892"><ele>748.75</ele><time>2026-04-06T14:50:29.558Z</time></trkpt><trkpt lat="45.7866122" lon="11.6293001"><ele>748.5</ele><time>2026-04-06T14:50:30.557Z</time></trkpt><trkpt lat="45.7864628" lon="11.6293116"><ele>748.25</ele><time>2026-04-06T14:50:31.58Z</time></trkpt><trkpt lat="45.7863242" lon="11.6293324"><ele>748.0</ele><time>2026-04-06T14:50:32.584Z</time></trkpt><trkpt lat="45.7861901" lon="11.6293546"><ele>748.0</ele><time>2026-04-06T14:50:33.55Z</time></trkpt><trkpt lat="45.7860601" lon="11.629368"><ele>748.0</ele><time>2026-04-06T14:50:34.555Z</time></trkpt><trkpt lat="45.7859242" lon="11.6293706"><ele>748.0</ele><time>2026-04-06T14:50:35.557Z</time></trkpt><trkpt lat="45.7857917" lon="11.6293837"><ele>748.0</ele><time>2026-04-06T14:50:36.559Z</time></trkpt><trkpt lat="45.7856541" lon="11.6294005"><ele>748.5</ele><time>2026-04-06T14:50:37.556Z</time></trkpt><trkpt lat="45.7855228" lon="11.629467"><ele>749.0</ele><time>2026-04-06T14:50:38.561Z</time></trkpt><trkpt lat="45.785377" lon="11.6295185"><ele>749.5</ele><time>2026-04-06T14:50:39.56Z</time></trkpt><trkpt lat="45.785233" lon="11.6295738"><ele>750.0</ele><time>2026-04-06T14:50:40.56Z</time></trkpt><trkpt lat="45.7851208" lon="11.6296157"><ele>751.0</ele><time>2026-04-06T14:50:41.563Z</time></trkpt><trkpt lat="45.7850216" lon="11.6296426"><ele>752.0</ele><time>2026-04-06T14:50:42.578Z</time></trkpt><trkpt lat="45.7849198" lon="11.6296756"><ele>753.0</ele><time>2026-04-06T14:50:43.601Z</time></trkpt><trkpt lat="45.7847982" lon="11.6297589"><ele>754.0</ele><time>2026-04-06T14:50:44.586Z</time></trkpt><trkpt lat="45.784701" lon="11.6298186"><ele>755.0</ele><time>2026-04-06T14:50:45.559Z</time></trkpt><trkpt lat="45.7846044" lon="11.6298502"><ele>755.0</ele><time>2026-04-06T14:50:46.552Z</time></trkpt><trkpt lat="45.7845094" lon="11.629871"><ele>755.0</ele><time>2026-04-06T14:50:47.559Z</time></trkpt><trkpt lat="45.7844124" lon="11.629901"><ele>755.0</ele><time>2026-04-06T14:50:48.559Z</time></trkpt><trkpt lat="45.7843135" lon="11.6299463"><ele>755.0</ele><time>2026-04-06T14:50:49.554Z</time></trkpt><trkpt lat="45.7842328" lon="11.6300092"><ele>755.0</ele><time>2026-04-06T14:50:50.562Z</time></trkpt><trkpt lat="45.7841664" lon="11.6300736"><ele>754.8333333333333</ele><time>2026-04-06T14:50:51.563Z</time></trkpt><trkpt lat="45.7841039" lon="11.6301339"><ele>754.6666666666666</ele><time>2026-04-06T14:50:52.555Z</time></trkpt><trkpt lat="45.7840395" lon="11.6301735"><ele>754.5</ele><time>2026-04-06T14:50:53.56Z</time></trkpt><trkpt lat="45.7839535" lon="11.6302017"><ele>754.3333333333334</ele><time>2026-04-06T14:50:54.559Z</time></trkpt><trkpt lat="45.7838739" lon="11.6302444"><ele>754.1666666666667</ele><time>2026-04-06T14:50:55.552Z</time></trkpt><trkpt lat="45.7838051" lon="11.6303083"><ele>754.0</ele><time>2026-04-06T14:50:56.559Z</time></trkpt><trkpt lat="45.78374" lon="11.630377"><ele>754.0</ele><time>2026-04-06T14:50:57.551Z</time></trkpt><trkpt lat="45.7836652" lon="11.6304573"><ele>754.0</ele><time>2026-04-06T14:50:58.559Z</time></trkpt><trkpt lat="45.7835909" lon="11.6305462"><ele>754.0</ele><time>2026-04-06T14:50:59.55Z</time></trkpt><trkpt lat="45.783534" lon="11.6306419"><ele>754.0</ele><time>2026-04-06T14:51:00.583Z</time></trkpt><trkpt lat="45.7834773" lon="11.6307454"><ele>754.0</ele><time>2026-04-06T14:51:01.562Z</time></trkpt><trkpt lat="45.7834236" lon="11.6308559"><ele>751.0</ele><time>2026-04-06T14:51:02.553Z</time></trkpt><trkpt lat="45.7833649" lon="11.6309754"><ele>748.0</ele><time>2026-04-06T14:51:03.566Z</time></trkpt><trkpt lat="45.7833249" lon="11.6311103"><ele>745.0</ele><time>2026-04-06T14:51:04.559Z</time></trkpt><trkpt lat="45.7833079" lon="11.6312541"><ele>742.0</ele><time>2026-04-06T14:51:05.559Z</time></trkpt><trkpt lat="45.783315" lon="11.6314147"><ele>739.0</ele><time>2026-04-06T14:51:06.565Z</time></trkpt><trkpt lat="45.7833309" lon="11.6315723"><ele>738.0</ele><time>2026-04-06T14:51:07.563Z</time></trkpt><trkpt lat="45.7833485" lon="11.6317194"><ele>737.0</ele><time>2026-04-06T14:51:08.559Z</time></trkpt><trkpt lat="45.7833704" lon="11.6318607"><ele>736.0</ele><time>2026-04-06T14:51:09.565Z</time></trkpt><trkpt lat="45.7834104" lon="11.6320186"><ele>735.0</ele><time>2026-04-06T14:51:10.564Z</time></trkpt><trkpt lat="45.7834629" lon="11.6322008"><ele>732.0</ele><time>2026-04-06T14:51:11.565Z</time></trkpt><trkpt lat="45.7835096" lon="11.632401"><ele>729.0</ele><time>2026-04-06T14:51:12.563Z</time></trkpt><trkpt lat="45.783555" lon="11.6326357"><ele>726.0</ele><time>2026-04-06T14:51:13.564Z</time></trkpt><trkpt lat="45.7836063" lon="11.6328975"><ele>734.5</ele><time>2026-04-06T14:51:14.561Z</time></trkpt><trkpt lat="45.7836175" lon="11.6331158"><ele>743.0</ele><time>2026-04-06T14:51:15.564Z</time></trkpt><trkpt lat="45.7836089" lon="11.6332842"><ele>751.5</ele><time>2026-04-06T14:51:16.565Z</time></trkpt><trkpt lat="45.7835919" lon="11.6334479"><ele>760.0</ele><time>2026-04-06T14:51:17.564Z</time></trkpt><trkpt lat="45.7835975" lon="11.6336113"><ele>759.0</ele><time>2026-04-06T14:51:18.586Z</time></trkpt><trkpt lat="45.7836097" lon="11.6337806"><ele>758.0</ele><time>2026-04-06T14:51:19.558Z</time></trkpt><trkpt lat="45.7836071" lon="11.6339439"><ele>757.0</ele><time>2026-04-06T14:51:20.561Z</time></trkpt><trkpt lat="45.7836079" lon="11.6340963"><ele>756.0</ele><time>2026-04-06T14:51:21.564Z</time></trkpt><trkpt lat="45.7836153" lon="11.6342459"><ele>755.0</ele><time>2026-04-06T14:51:22.552Z</time></trkpt><trkpt lat="45.7836235" lon="11.6344074"><ele>753.5</ele><time>2026-04-06T14:51:23.56Z</time></trkpt><trkpt lat="45.7836404" lon="11.6345861"><ele>752.0</ele><time>2026-04-06T14:51:24.588Z</time></trkpt><trkpt lat="45.7836759" lon="11.6347624"><ele>750.5</ele><time>2026-04-06T14:51:25.553Z</time></trkpt><trkpt lat="45.7837125" lon="11.6349229"><ele>749.0</ele><time>2026-04-06T14:51:26.558Z</time></trkpt><trkpt lat="45.7837422" lon="11.635081"><ele>749.0</ele><time>2026-04-06T14:51:27.557Z</time></trkpt><trkpt lat="45.7837765" lon="11.6352261"><ele>749.0</ele><time>2026-04-06T14:51:28.555Z</time></trkpt><trkpt lat="45.7838095" lon="11.6353694"><ele>749.0</ele><time>2026-04-06T14:51:29.559Z</time></trkpt><trkpt lat="45.7838367" lon="11.6355139"><ele>749.0</ele><time>2026-04-06T14:51:30.56Z</time></trkpt><trkpt lat="45.78385" lon="11.6356687"><ele>749.0</ele><time>2026-04-06T14:51:31.557Z</time></trkpt><trkpt lat="45.7838631" lon="11.6358218"><ele>747.4000000000001</ele><time>2026-04-06T14:51:32.557Z</time></trkpt><trkpt lat="45.7838866" lon="11.635965"><ele>745.8</ele><time>2026-04-06T14:51:33.555Z</time></trkpt><trkpt lat="45.7839227" lon="11.6361034"><ele>744.2</ele><time>2026-04-06T14:51:34.563Z</time></trkpt><trkpt lat="45.7839703" lon="11.6362394"><ele>742.5999999999999</ele><time>2026-04-06T14:51:35.561Z</time></trkpt><trkpt lat="45.7840273" lon="11.6363735"><ele>741.0</ele><time>2026-04-06T14:51:36.561Z</time></trkpt><trkpt lat="45.7840961" lon="11.6364972"><ele>743.5</ele><time>2026-04-06T14:51:37.559Z</time></trkpt><trkpt lat="45.7841802" lon="11.6366082"><ele>746.0</ele><time>2026-04-06T14:51:38.561Z</time></trkpt><trkpt lat="45.7842937" lon="11.6367261"><ele>748.5</ele><time>2026-04-06T14:51:39.56Z</time></trkpt><trkpt lat="45.784414" lon="11.6368581"><ele>751.0</ele><time>2026-04-06T14:51:40.554Z</time></trkpt><trkpt lat="45.7845582" lon="11.637034"><ele>742.0</ele><time>2026-04-06T14:51:41.565Z</time></trkpt><trkpt lat="45.7846956" lon="11.6372136"><ele>733.0</ele><time>2026-04-06T14:51:42.555Z</time></trkpt><trkpt lat="45.7848254" lon="11.6373711"><ele>724.0</ele><time>2026-04-06T14:51:43.556Z</time></trkpt><trkpt lat="45.7849597" lon="11.6375414"><ele>724.0</ele><time>2026-04-06T14:51:44.555Z</time></trkpt><trkpt lat="45.7850988" lon="11.637703"><ele>724.0</ele><time>2026-04-06T14:51:45.556Z</time></trkpt><trkpt lat="45.7852303" lon="11.6379089"><ele>724.0</ele><time>2026-04-06T14:51:46.554Z</time></trkpt><trkpt lat="45.7853532" lon="11.6380738"><ele>724.75</ele><time>2026-04-06T14:51:47.557Z</time></trkpt><trkpt lat="45.7854453" lon="11.6382236"><ele>725.5</ele><time>2026-04-06T14:51:48.554Z</time></trkpt><trkpt lat="45.7855328" lon="11.638382"><ele>726.25</ele><time>2026-04-06T14:51:49.555Z</time></trkpt><trkpt lat="45.7856335" lon="11.6385049"><ele>727.0</ele><time>2026-04-06T14:51:50.557Z</time></trkpt><trkpt lat="45.785724" lon="11.6386527"><ele>723.2</ele><time>2026-04-06T14:51:51.554Z</time></trkpt><trkpt lat="45.7858161" lon="11.6387819"><ele>719.4000000000001</ele><time>2026-04-06T14:51:52.556Z</time></trkpt><trkpt lat="45.7858871" lon="11.6389054"><ele>715.5999999999999</ele><time>2026-04-06T14:51:53.557Z</time></trkpt><trkpt lat="45.7859603" lon="11.6389879"><ele>711.8</ele><time>2026-04-06T14:51:54.555Z</time></trkpt><trkpt lat="45.7860337" lon="11.6390717"><ele>708.0</ele><time>2026-04-06T14:51:55.547Z</time></trkpt><trkpt lat="45.7860688" lon="11.639165"><ele>712.3333333333334</ele><time>2026-04-06T14:51:56.552Z</time></trkpt><trkpt lat="45.7861152" lon="11.6393208"><ele>716.6666666666666</ele><time>2026-04-06T14:51:58.555Z</time></trkpt><trkpt lat="45.7861089" lon="11.6394221"><ele>721.0</ele><time>2026-04-06T14:51:59.552Z</time></trkpt><trkpt lat="45.7860981" lon="11.6395404"><ele>725.3333333333333</ele><time>2026-04-06T14:52:00.549Z</time></trkpt><trkpt lat="45.7860819" lon="11.6396449"><ele>729.6666666666666</ele><time>2026-04-06T14:52:01.556Z</time></trkpt><trkpt lat="45.7860842" lon="11.6397609"><ele>734.0</ele><time>2026-04-06T14:52:02.55Z</time></trkpt><trkpt lat="45.7861138" lon="11.6398645"><ele>734.0</ele><time>2026-04-06T14:52:03.555Z</time></trkpt><trkpt lat="45.7861632" lon="11.64"><ele>734.0</ele><time>2026-04-06T14:52:04.552Z</time></trkpt><trkpt lat="45.7862521" lon="11.6401426"><ele>734.0</ele><time>2026-04-06T14:52:05.551Z</time></trkpt><trkpt lat="45.786363" lon="11.6403187"><ele>734.0</ele><time>2026-04-06T14:52:06.559Z</time></trkpt><trkpt lat="45.7865025" lon="11.6405571"><ele>725.6666666666666</ele><time>2026-04-06T14:52:07.548Z</time></trkpt><trkpt lat="45.7866088" lon="11.6407567"><ele>717.3333333333334</ele><time>2026-04-06T14:52:08.553Z</time></trkpt><trkpt lat="45.7866953" lon="11.6409471"><ele>709.0</ele><time>2026-04-06T14:52:09.559Z</time></trkpt><trkpt lat="45.7867628" lon="11.6411457"><ele>702.6666666666667</ele><time>2026-04-06T14:52:10.553Z</time></trkpt><trkpt lat="45.7868291" lon="11.6413278"><ele>696.3333333333334</ele><time>2026-04-06T14:52:11.714Z</time></trkpt><trkpt lat="45.7869479" lon="11.6416777"><ele>690.0</ele><time>2026-04-06T14:52:13.555Z</time></trkpt><trkpt lat="45.7870097" lon="11.6418826"><ele>697.75</ele><time>2026-04-06T14:52:14.574Z</time></trkpt><trkpt lat="45.7870386" lon="11.6420459"><ele>705.5</ele><time>2026-04-06T14:52:15.58Z</time></trkpt><trkpt lat="45.7870727" lon="11.6422212"><ele>713.25</ele><time>2026-04-06T14:52:16.549Z</time></trkpt><trkpt lat="45.7870986" lon="11.6423788"><ele>721.0</ele><time>2026-04-06T14:52:17.562Z</time></trkpt><trkpt lat="45.7871378" lon="11.6425486"><ele>721.0</ele><time>2026-04-06T14:52:18.555Z</time></trkpt><trkpt lat="45.7871631" lon="11.6427401"><ele>721.0</ele><time>2026-04-06T14:52:19.549Z</time></trkpt><trkpt lat="45.7871779" lon="11.6429281"><ele>721.0</ele><time>2026-04-06T14:52:20.578Z</time></trkpt><trkpt lat="45.7871883" lon="11.6430973"><ele>721.0</ele><time>2026-04-06T14:52:21.559Z</time></trkpt><trkpt lat="45.7872019" lon="11.6432444"><ele>719.1999999999999</ele><time>2026-04-06T14:52:22.549Z</time></trkpt><trkpt lat="45.7872138" lon="11.6433923"><ele>717.4</ele><time>2026-04-06T14:52:23.562Z</time></trkpt><trkpt lat="45.7872247" lon="11.6435365"><ele>715.6</ele><time>2026-04-06T14:52:24.578Z</time></trkpt><trkpt lat="45.7872367" lon="11.643682"><ele>713.8</ele><time>2026-04-06T14:52:25.551Z</time></trkpt><trkpt lat="45.7872502" lon="11.643824"><ele>712.0</ele><time>2026-04-06T14:52:26.555Z</time></trkpt><trkpt lat="45.7872688" lon="11.6439677"><ele>710.0</ele><time>2026-04-06T14:52:27.558Z</time></trkpt><trkpt lat="45.7872843" lon="11.6441203"><ele>708.0</ele><time>2026-04-06T14:52:28.552Z</time></trkpt><trkpt lat="45.7873008" lon="11.6442664"><ele>706.0</ele><time>2026-04-06T14:52:29.582Z</time></trkpt><trkpt lat="45.7873241" lon="11.6443984"><ele>704.0</ele><time>2026-04-06T14:52:30.575Z</time></trkpt><trkpt lat="45.787342" lon="11.6445413"><ele>702.0</ele><time>2026-04-06T14:52:31.577Z</time></trkpt><trkpt lat="45.7873675" lon="11.6446751"><ele>704.8</ele><time>2026-04-06T14:52:32.578Z</time></trkpt><trkpt lat="45.787416" lon="11.6447909"><ele>707.6</ele><time>2026-04-06T14:52:33.557Z</time></trkpt><trkpt lat="45.787484" lon="11.6448868"><ele>710.4</ele><time>2026-04-06T14:52:34.551Z</time></trkpt><trkpt lat="45.7875598" lon="11.6449788"><ele>713.1999999999999</ele><time>2026-04-06T14:52:35.554Z</time></trkpt><trkpt lat="45.7876343" lon="11.645079"><ele>716.0</ele><time>2026-04-06T14:52:36.556Z</time></trkpt><trkpt lat="45.7877003" lon="11.6451766"><ele>716.0</ele><time>2026-04-06T14:52:37.548Z</time></trkpt><trkpt lat="45.7877654" lon="11.6452861"><ele>716.0</ele><time>2026-04-06T14:52:38.557Z</time></trkpt><trkpt lat="45.7878453" lon="11.6453896"><ele>716.0</ele><time>2026-04-06T14:52:39.561Z</time></trkpt><trkpt lat="45.7879503" lon="11.6454871"><ele>716.0</ele><time>2026-04-06T14:52:40.55Z</time></trkpt><trkpt lat="45.7880753" lon="11.6455996"><ele>705.0</ele><time>2026-04-06T14:52:41.561Z</time></trkpt><trkpt lat="45.7882157" lon="11.6457463"><ele>694.0</ele><time>2026-04-06T14:52:42.557Z</time></trkpt><trkpt lat="45.7883376" lon="11.6458773"><ele>683.0</ele><time>2026-04-06T14:52:43.549Z</time></trkpt><trkpt lat="45.7884387" lon="11.6459935"><ele>682.0</ele><time>2026-04-06T14:52:44.556Z</time></trkpt><trkpt lat="45.7885297" lon="11.6460792"><ele>681.0</ele><time>2026-04-06T14:52:45.553Z</time></trkpt><trkpt lat="45.7885929" lon="11.6461695"><ele>680.0</ele><time>2026-04-06T14:52:46.558Z</time></trkpt><trkpt lat="45.7886542" lon="11.6462707"><ele>679.0</ele><time>2026-04-06T14:52:47.554Z</time></trkpt><trkpt lat="45.7887267" lon="11.6463425"><ele>678.0</ele><time>2026-04-06T14:52:48.549Z</time></trkpt><trkpt lat="45.7888052" lon="11.6464196"><ele>678.0</ele><time>2026-04-06T14:52:49.55Z</time></trkpt><trkpt lat="45.7888996" lon="11.6465071"><ele>678.0</ele><time>2026-04-06T14:52:50.551Z</time></trkpt><trkpt lat="45.7890185" lon="11.6465981"><ele>678.0</ele><time>2026-04-06T14:52:51.548Z</time></trkpt><trkpt lat="45.7891382" lon="11.6467056"><ele>678.0</ele><time>2026-04-06T14:52:52.549Z</time></trkpt><trkpt lat="45.7892527" lon="11.6468624"><ele>680.3333333333334</ele><time>2026-04-06T14:52:53.537Z</time></trkpt><trkpt lat="45.7893619" lon="11.6470158"><ele>682.6666666666667</ele><time>2026-04-06T14:52:54.542Z</time></trkpt><trkpt lat="45.789492" lon="11.6471971"><ele>685.0</ele><time>2026-04-06T14:52:55.549Z</time></trkpt><trkpt lat="45.7896208" lon="11.6474295"><ele>685.0</ele><time>2026-04-06T14:52:56.551Z</time></trkpt><trkpt lat="45.789737" lon="11.6476703"><ele>685.0</ele><time>2026-04-06T14:52:57.554Z</time></trkpt><trkpt lat="45.7898399" lon="11.6478816"><ele>685.0</ele><time>2026-04-06T14:52:58.549Z</time></trkpt><trkpt lat="45.7899398" lon="11.6480508"><ele>690.3333333333334</ele><time>2026-04-06T14:52:59.563Z</time></trkpt><trkpt lat="45.7900608" lon="11.6482153"><ele>695.6666666666666</ele><time>2026-04-06T14:53:00.554Z</time></trkpt><trkpt lat="45.7901458" lon="11.6483922"><ele>701.0</ele><time>2026-04-06T14:53:01.553Z</time></trkpt><trkpt lat="45.7902204" lon="11.6485712"><ele>697.0</ele><time>2026-04-06T14:53:02.557Z</time></trkpt><trkpt lat="45.7902933" lon="11.6487078"><ele>693.0</ele><time>2026-04-06T14:53:03.555Z</time></trkpt><trkpt lat="45.790357" lon="11.6488227"><ele>689.0</ele><time>2026-04-06T14:53:04.553Z</time></trkpt><trkpt lat="45.7903813" lon="11.6489251"><ele>685.0</ele><time>2026-04-06T14:53:05.552Z</time></trkpt><trkpt lat="45.7903251" lon="11.6490828"><ele>681.0</ele><time>2026-04-06T14:53:07.571Z</time></trkpt><trkpt lat="45.7902232" lon="11.6490292"><ele>681.0</ele><time>2026-04-06T14:53:09.553Z</time></trkpt><trkpt lat="45.790175" lon="11.6489145"><ele>681.0</ele><time>2026-04-06T14:53:10.554Z</time></trkpt><trkpt lat="45.7901003" lon="11.6487528"><ele>681.0</ele><time>2026-04-06T14:53:11.556Z</time></trkpt><trkpt lat="45.7899956" lon="11.6485983"><ele>681.0</ele><time>2026-04-06T14:53:12.555Z</time></trkpt><trkpt lat="45.7898791" lon="11.648423"><ele>674.3333333333334</ele><time>2026-04-06T14:53:13.55Z</time></trkpt><trkpt lat="45.7897435" lon="11.6482783"><ele>667.6666666666667</ele><time>2026-04-06T14:53:14.551Z</time></trkpt><trkpt lat="45.7896278" lon="11.6481383"><ele>661.0</ele><time>2026-04-06T14:53:15.553Z</time></trkpt><trkpt lat="45.7895379" lon="11.64799"><ele>661.0</ele><time>2026-04-06T14:53:16.552Z</time></trkpt><trkpt lat="45.7894837" lon="11.6478886"><ele>661.0</ele><time>2026-04-06T14:53:17.56Z</time></trkpt><trkpt lat="45.7894039" lon="11.6477863"><ele>661.0</ele><time>2026-04-06T14:53:18.555Z</time></trkpt><trkpt lat="45.7893176" lon="11.6477422"><ele>661.0</ele><time>2026-04-06T14:53:19.548Z</time></trkpt><trkpt lat="45.7892528" lon="11.647781"><ele>661.0</ele><time>2026-04-06T14:53:20.551Z</time></trkpt><trkpt lat="45.7892292" lon="11.6478726"><ele>661.0</ele><time>2026-04-06T14:53:21.55Z</time></trkpt><trkpt lat="45.7892818" lon="11.6479539"><ele>661.0</ele><time>2026-04-06T14:53:22.557Z</time></trkpt><trkpt lat="45.7893751" lon="11.6480263"><ele>661.0</ele><time>2026-04-06T14:53:23.554Z</time></trkpt><trkpt lat="45.7894865" lon="11.6481211"><ele>661.0</ele><time>2026-04-06T14:53:24.554Z</time></trkpt><trkpt lat="45.7896138" lon="11.6482653"><ele>661.0</ele><time>2026-04-06T14:53:25.549Z</time></trkpt><trkpt lat="45.7897736" lon="11.6484956"><ele>653.3333333333334</ele><time>2026-04-06T14:53:26.552Z</time></trkpt><trkpt lat="45.7898981" lon="11.6487513"><ele>645.6666666666666</ele><time>2026-04-06T14:53:27.551Z</time></trkpt><trkpt lat="45.7900106" lon="11.6489741"><ele>638.0</ele><time>2026-04-06T14:53:28.551Z</time></trkpt><trkpt lat="45.7900953" lon="11.6491961"><ele>638.0</ele><time>2026-04-06T14:53:29.555Z</time></trkpt><trkpt lat="45.7901395" lon="11.6494014"><ele>638.0</ele><time>2026-04-06T14:53:30.557Z</time></trkpt><trkpt lat="45.7902322" lon="11.6496457"><ele>638.0</ele><time>2026-04-06T14:53:31.552Z</time></trkpt><trkpt lat="45.7903097" lon="11.6498728"><ele>643.0</ele><time>2026-04-06T14:53:32.554Z</time></trkpt><trkpt lat="45.790313" lon="11.6500916"><ele>648.0</ele><time>2026-04-06T14:53:33.567Z</time></trkpt><trkpt lat="45.7903185" lon="11.6503181"><ele>653.0</ele><time>2026-04-06T14:53:34.554Z</time></trkpt><trkpt lat="45.7903412" lon="11.6505117"><ele>658.0</ele><time>2026-04-06T14:53:35.559Z</time></trkpt><trkpt lat="45.7903739" lon="11.6507383"><ele>658.0</ele><time>2026-04-06T14:53:36.564Z</time></trkpt><trkpt lat="45.7903978" lon="11.6509366"><ele>658.0</ele><time>2026-04-06T14:53:37.561Z</time></trkpt><trkpt lat="45.7904199" lon="11.6511464"><ele>658.0</ele><time>2026-04-06T14:53:38.564Z</time></trkpt><trkpt lat="45.7904529" lon="11.651344"><ele>658.0</ele><time>2026-04-06T14:53:39.567Z</time></trkpt><trkpt lat="45.7904864" lon="11.6515303"><ele>655.2</ele><time>2026-04-06T14:53:40.565Z</time></trkpt><trkpt lat="45.7905401" lon="11.6516933"><ele>652.4</ele><time>2026-04-06T14:53:41.569Z</time></trkpt><trkpt lat="45.7905936" lon="11.6518481"><ele>649.6</ele><time>2026-04-06T14:53:42.567Z</time></trkpt><trkpt lat="45.7906214" lon="11.6519888"><ele>646.8000000000001</ele><time>2026-04-06T14:53:43.556Z</time></trkpt><trkpt lat="45.7906675" lon="11.6521049"><ele>644.0</ele><time>2026-04-06T14:53:44.566Z</time></trkpt><trkpt lat="45.7906982" lon="11.652194"><ele>644.0</ele><time>2026-04-06T14:53:45.56Z</time></trkpt><trkpt lat="45.7906381" lon="11.6522608"><ele>644.0</ele><time>2026-04-06T14:53:47.566Z</time></trkpt><trkpt lat="45.7905457" lon="11.6520966"><ele>644.0</ele><time>2026-04-06T14:53:49.569Z</time></trkpt><trkpt lat="45.7905131" lon="11.6519433"><ele>644.0</ele><time>2026-04-06T14:53:50.567Z</time></trkpt><trkpt lat="45.7904655" lon="11.6517451"><ele>644.0</ele><time>2026-04-06T14:53:51.573Z</time></trkpt><trkpt lat="45.790398" lon="11.651539"><ele>644.0</ele><time>2026-04-06T14:53:52.557Z</time></trkpt><trkpt lat="45.7902769" lon="11.6512957"><ele>644.0</ele><time>2026-04-06T14:53:53.563Z</time></trkpt><trkpt lat="45.790181" lon="11.6511113"><ele>637.0</ele><time>2026-04-06T14:53:54.569Z</time></trkpt><trkpt lat="45.7901371" lon="11.6509394"><ele>630.0</ele><time>2026-04-06T14:53:55.567Z</time></trkpt><trkpt lat="45.7901001" lon="11.6507668"><ele>623.0</ele><time>2026-04-06T14:53:56.569Z</time></trkpt><trkpt lat="45.7900861" lon="11.6505874"><ele>616.0</ele><time>2026-04-06T14:53:57.575Z</time></trkpt><trkpt lat="45.7900729" lon="11.6504172"><ele>617.2</ele><time>2026-04-06T14:53:58.567Z</time></trkpt><trkpt lat="45.7900626" lon="11.6502633"><ele>618.4000000000001</ele><time>2026-04-06T14:53:59.568Z</time></trkpt><trkpt lat="45.79004" lon="11.6501347"><ele>619.6</ele><time>2026-04-06T14:54:00.593Z</time></trkpt><trkpt lat="45.7900186" lon="11.6500381"><ele>620.8000000000001</ele><time>2026-04-06T14:54:01.57Z</time></trkpt><trkpt lat="45.7899121" lon="11.6499608"><ele>622.0</ele><time>2026-04-06T14:54:03.565Z</time></trkpt><trkpt lat="45.789849" lon="11.6500139"><ele>622.0</ele><time>2026-04-06T14:54:04.565Z</time></trkpt><trkpt lat="45.7898254" lon="11.6502058"><ele>622.0</ele><time>2026-04-06T14:54:06.574Z</time></trkpt><trkpt lat="45.789854" lon="11.6503903"><ele>622.0</ele><time>2026-04-06T14:54:07.563Z</time></trkpt><trkpt lat="45.7898925" lon="11.6505897"><ele>622.0</ele><time>2026-04-06T14:54:08.569Z</time></trkpt><trkpt lat="45.7899714" lon="11.650894"><ele>617.6666666666667</ele><time>2026-04-06T14:54:09.572Z</time></trkpt><trkpt lat="45.7900457" lon="11.651167"><ele>613.3333333333334</ele><time>2026-04-06T14:54:10.564Z</time></trkpt><trkpt lat="45.7901069" lon="11.6514301"><ele>609.0</ele><time>2026-04-06T14:54:11.578Z</time></trkpt><trkpt lat="45.7901725" lon="11.6517269"><ele>619.5</ele><time>2026-04-06T14:54:12.568Z</time></trkpt><trkpt lat="45.7902408" lon="11.6520469"><ele>630.0</ele><time>2026-04-06T14:54:13.566Z</time></trkpt><trkpt lat="45.790306" lon="11.6523445"><ele>630.0</ele><time>2026-04-06T14:54:14.565Z</time></trkpt><trkpt lat="45.7903691" lon="11.6526621"><ele>630.0</ele><time>2026-04-06T14:54:15.569Z</time></trkpt><trkpt lat="45.7904214" lon="11.6529159"><ele>630.0</ele><time>2026-04-06T14:54:16.57Z</time></trkpt><trkpt lat="45.7904696" lon="11.6531676"><ele>625.6666666666666</ele><time>2026-04-06T14:54:17.575Z</time></trkpt><trkpt lat="45.7905252" lon="11.6534047"><ele>621.3333333333333</ele><time>2026-04-06T14:54:18.596Z</time></trkpt><trkpt lat="45.790572" lon="11.653642"><ele>617.0</ele><time>2026-04-06T14:54:19.552Z</time></trkpt><trkpt lat="45.7906198" lon="11.6538165"><ele>617.25</ele><time>2026-04-06T14:54:20.564Z</time></trkpt><trkpt lat="45.7906634" lon="11.6540127"><ele>617.5</ele><time>2026-04-06T14:54:21.573Z</time></trkpt><trkpt lat="45.790692" lon="11.6541997"><ele>617.75</ele><time>2026-04-06T14:54:22.569Z</time></trkpt><trkpt lat="45.7907182" lon="11.6543369"><ele>618.0</ele><time>2026-04-06T14:54:23.592Z</time></trkpt><trkpt lat="45.7906954" lon="11.6544559"><ele>618.0</ele><time>2026-04-06T14:54:24.567Z</time></trkpt><trkpt lat="45.7906259" lon="11.6545576"><ele>618.0</ele><time>2026-04-06T14:54:25.565Z</time></trkpt><trkpt lat="45.7905168" lon="11.6546048"><ele>618.0</ele><time>2026-04-06T14:54:26.562Z</time></trkpt><trkpt lat="45.7904091" lon="11.6546041"><ele>618.0</ele><time>2026-04-06T14:54:27.566Z</time></trkpt><trkpt lat="45.7903106" lon="11.6545746"><ele>618.0</ele><time>2026-04-06T14:54:28.56Z</time></trkpt><trkpt lat="45.7902114" lon="11.6544913"><ele>611.25</ele><time>2026-04-06T14:54:29.563Z</time></trkpt><trkpt lat="45.79011" lon="11.6543928"><ele>604.5</ele><time>2026-04-06T14:54:30.562Z</time></trkpt><trkpt lat="45.7899987" lon="11.6543037"><ele>597.75</ele><time>2026-04-06T14:54:31.56Z</time></trkpt><trkpt lat="45.7898844" lon="11.6542423"><ele>591.0</ele><time>2026-04-06T14:54:32.566Z</time></trkpt><trkpt lat="45.7897702" lon="11.6542208"><ele>591.0</ele><time>2026-04-06T14:54:33.563Z</time></trkpt><trkpt lat="45.7896549" lon="11.6542493"><ele>591.0</ele><time>2026-04-06T14:54:34.558Z</time></trkpt><trkpt lat="45.7895437" lon="11.6543164"><ele>591.0</ele><time>2026-04-06T14:54:35.57Z</time></trkpt><trkpt lat="45.7894402" lon="11.6544374"><ele>591.0</ele><time>2026-04-06T14:54:36.571Z</time></trkpt><trkpt lat="45.7893456" lon="11.6546069"><ele>587.6666666666666</ele><time>2026-04-06T14:54:37.566Z</time></trkpt><trkpt lat="45.789242" lon="11.6548669"><ele>584.3333333333333</ele><time>2026-04-06T14:54:38.569Z</time></trkpt><trkpt lat="45.7891547" lon="11.6550607"><ele>581.0</ele><time>2026-04-06T14:54:39.564Z</time></trkpt><trkpt lat="45.7890483" lon="11.6552311"><ele>582.0</ele><time>2026-04-06T14:54:40.567Z</time></trkpt><trkpt lat="45.788979" lon="11.6554254"><ele>583.0</ele><time>2026-04-06T14:54:41.561Z</time></trkpt><trkpt lat="45.7889599" lon="11.6556727"><ele>584.0</ele><time>2026-04-06T14:54:42.571Z</time></trkpt><trkpt lat="45.7889424" lon="11.6559309"><ele>587.3333333333333</ele><time>2026-04-06T14:54:43.565Z</time></trkpt><trkpt lat="45.7889341" lon="11.6561661"><ele>590.6666666666666</ele><time>2026-04-06T14:54:44.566Z</time></trkpt><trkpt lat="45.7889585" lon="11.6563777"><ele>594.0</ele><time>2026-04-06T14:54:45.563Z</time></trkpt><trkpt lat="45.7889677" lon="11.6565982"><ele>594.0</ele><time>2026-04-06T14:54:46.571Z</time></trkpt><trkpt lat="45.7889634" lon="11.6568123"><ele>594.0</ele><time>2026-04-06T14:54:47.564Z</time></trkpt><trkpt lat="45.7889016" lon="11.6569858"><ele>594.0</ele><time>2026-04-06T14:54:48.57Z</time></trkpt><trkpt lat="45.7888161" lon="11.6571754"><ele>594.0</ele><time>2026-04-06T14:54:49.567Z</time></trkpt><trkpt lat="45.7887102" lon="11.6573734"><ele>595.25</ele><time>2026-04-06T14:54:50.571Z</time></trkpt><trkpt lat="45.788693" lon="11.6575506"><ele>596.5</ele><time>2026-04-06T14:54:51.572Z</time></trkpt><trkpt lat="45.7887129" lon="11.6577457"><ele>597.75</ele><time>2026-04-06T14:54:52.572Z</time></trkpt><trkpt lat="45.7887038" lon="11.6578755"><ele>599.0</ele><time>2026-04-06T14:54:53.58Z</time></trkpt><trkpt lat="45.7886367" lon="11.6579888"><ele>604.5</ele><time>2026-04-06T14:54:54.587Z</time></trkpt><trkpt lat="45.788525" lon="11.6580707"><ele>610.0</ele><time>2026-04-06T14:54:55.612Z</time></trkpt><trkpt lat="45.7883924" lon="11.658121"><ele>615.5</ele><time>2026-04-06T14:54:56.557Z</time></trkpt><trkpt lat="45.7882758" lon="11.6581424"><ele>621.0</ele><time>2026-04-06T14:54:57.557Z</time></trkpt><trkpt lat="45.7881756" lon="11.6581943"><ele>615.8</ele><time>2026-04-06T14:54:58.583Z</time></trkpt><trkpt lat="45.7880804" lon="11.6582506"><ele>610.6</ele><time>2026-04-06T14:54:59.577Z</time></trkpt><trkpt lat="45.7880165" lon="11.6583543"><ele>605.4</ele><time>2026-04-06T14:55:00.546Z</time></trkpt><trkpt lat="45.7879917" lon="11.6585103"><ele>600.2</ele><time>2026-04-06T14:55:01.55Z</time></trkpt><trkpt lat="45.7879863" lon="11.6586737"><ele>595.0</ele><time>2026-04-06T14:55:02.566Z</time></trkpt><trkpt lat="45.7879844" lon="11.6588156"><ele>595.0</ele><time>2026-04-06T14:55:03.556Z</time></trkpt><trkpt lat="45.7879387" lon="11.6589074"><ele>595.0</ele><time>2026-04-06T14:55:04.578Z</time></trkpt><trkpt lat="45.7878614" lon="11.6589954"><ele>595.0</ele><time>2026-04-06T14:55:05.575Z</time></trkpt><trkpt lat="45.7877535" lon="11.6590788"><ele>595.0</ele><time>2026-04-06T14:55:06.555Z</time></trkpt><trkpt lat="45.7876317" lon="11.6591318"><ele>595.0</ele><time>2026-04-06T14:55:07.555Z</time></trkpt><trkpt lat="45.7875351" lon="11.6591856"><ele>591.25</ele><time>2026-04-06T14:55:08.587Z</time></trkpt><trkpt lat="45.7874537" lon="11.6592675"><ele>587.5</ele><time>2026-04-06T14:55:09.577Z</time></trkpt><trkpt lat="45.7873754" lon="11.6593822"><ele>583.75</ele><time>2026-04-06T14:55:10.555Z</time></trkpt><trkpt lat="45.7873291" lon="11.6595399"><ele>580.0</ele><time>2026-04-06T14:55:11.564Z</time></trkpt><trkpt lat="45.7872902" lon="11.6597088"><ele>580.0</ele><time>2026-04-06T14:55:12.605Z</time></trkpt><trkpt lat="45.7872364" lon="11.6598492"><ele>580.0</ele><time>2026-04-06T14:55:13.556Z</time></trkpt><trkpt lat="45.7871685" lon="11.6599717"><ele>580.0</ele><time>2026-04-06T14:55:14.566Z</time></trkpt><trkpt lat="45.7870669" lon="11.6600838"><ele>580.0</ele><time>2026-04-06T14:55:15.556Z</time></trkpt><trkpt lat="45.786952" lon="11.6601716"><ele>577.6666666666667</ele><time>2026-04-06T14:55:16.55Z</time></trkpt><trkpt lat="45.7868404" lon="11.6602977"><ele>575.3333333333334</ele><time>2026-04-06T14:55:17.563Z</time></trkpt><trkpt lat="45.7867164" lon="11.6604491"><ele>573.0</ele><time>2026-04-06T14:55:18.562Z</time></trkpt><trkpt lat="45.7865578" lon="11.6606407"><ele>573.0</ele><time>2026-04-06T14:55:19.56Z</time></trkpt><trkpt lat="45.7864153" lon="11.6608079"><ele>573.0</ele><time>2026-04-06T14:55:20.556Z</time></trkpt><trkpt lat="45.7862833" lon="11.6609109"><ele>573.0</ele><time>2026-04-06T14:55:21.554Z</time></trkpt><trkpt lat="45.7861446" lon="11.6610186"><ele>570.5</ele><time>2026-04-06T14:55:22.565Z</time></trkpt><trkpt lat="45.7860272" lon="11.6611305"><ele>568.0</ele><time>2026-04-06T14:55:23.567Z</time></trkpt><trkpt lat="45.7858938" lon="11.661236"><ele>565.5</ele><time>2026-04-06T14:55:24.552Z</time></trkpt><trkpt lat="45.7857521" lon="11.6613276"><ele>563.0</ele><time>2026-04-06T14:55:25.559Z</time></trkpt><trkpt lat="45.7856094" lon="11.6614185"><ele>563.0</ele><time>2026-04-06T14:55:26.561Z</time></trkpt><trkpt lat="45.7854964" lon="11.6615183"><ele>563.0</ele><time>2026-04-06T14:55:27.552Z</time></trkpt><trkpt lat="45.7854034" lon="11.6615958"><ele>563.0</ele><time>2026-04-06T14:55:28.563Z</time></trkpt><trkpt lat="45.7853134" lon="11.661648"><ele>563.0</ele><time>2026-04-06T14:55:29.556Z</time></trkpt><trkpt lat="45.7852304" lon="11.6616165"><ele>563.0</ele><time>2026-04-06T14:55:30.578Z</time></trkpt><trkpt lat="45.7851492" lon="11.6615255"><ele>562.75</ele><time>2026-04-06T14:55:31.586Z</time></trkpt><trkpt lat="45.7850803" lon="11.6613684"><ele>562.5</ele><time>2026-04-06T14:55:32.573Z</time></trkpt><trkpt lat="45.78502" lon="11.6611898"><ele>562.25</ele><time>2026-04-06T14:55:33.55Z</time></trkpt><trkpt lat="45.7849628" lon="11.6610264"><ele>562.0</ele><time>2026-04-06T14:55:34.56Z</time></trkpt><trkpt lat="45.7849108" lon="11.6608891"><ele>555.75</ele><time>2026-04-06T14:55:35.551Z</time></trkpt><trkpt lat="45.7848522" lon="11.6607351"><ele>549.5</ele><time>2026-04-06T14:55:36.584Z</time></trkpt><trkpt lat="45.7847856" lon="11.6605699"><ele>543.25</ele><time>2026-04-06T14:55:37.555Z</time></trkpt><trkpt lat="45.7847334" lon="11.6604407"><ele>537.0</ele><time>2026-04-06T14:55:38.56Z</time></trkpt><trkpt lat="45.7846849" lon="11.6603243"><ele>536.6666666666666</ele><time>2026-04-06T14:55:39.56Z</time></trkpt><trkpt lat="45.7846381" lon="11.6602399"><ele>536.3333333333334</ele><time>2026-04-06T14:55:40.556Z</time></trkpt><trkpt lat="45.7845739" lon="11.6601534"><ele>536.0</ele><time>2026-04-06T14:55:41.559Z</time></trkpt><trkpt lat="45.7844926" lon="11.6600784"><ele>535.6666666666667</ele><time>2026-04-06T14:55:42.561Z</time></trkpt><trkpt lat="45.7844195" lon="11.660002"><ele>535.3333333333334</ele><time>2026-04-06T14:55:43.553Z</time></trkpt><trkpt lat="45.7843525" lon="11.6599405"><ele>535.0</ele><time>2026-04-06T14:55:44.561Z</time></trkpt><trkpt lat="45.7842848" lon="11.6598788"><ele>535.0</ele><time>2026-04-06T14:55:45.552Z</time></trkpt><trkpt lat="45.784216" lon="11.6598194"><ele>535.0</ele><time>2026-04-06T14:55:46.571Z</time></trkpt><trkpt lat="45.7841507" lon="11.6597621"><ele>535.0</ele><time>2026-04-06T14:55:47.556Z</time></trkpt><trkpt lat="45.7840445" lon="11.6596798"><ele>535.0</ele><time>2026-04-06T14:55:49.556Z</time></trkpt><trkpt lat="45.7839854" lon="11.6596234"><ele>535.0</ele><time>2026-04-06T14:55:50.556Z</time></trkpt><trkpt lat="45.7839213" lon="11.6595618"><ele>535.0</ele><time>2026-04-06T14:55:51.55Z</time></trkpt><trkpt lat="45.7838455" lon="11.6595131"><ele>535.0</ele><time>2026-04-06T14:55:52.561Z</time></trkpt><trkpt lat="45.7837575" lon="11.6594928"><ele>535.0</ele><time>2026-04-06T14:55:53.554Z</time></trkpt><trkpt lat="45.7836681" lon="11.659507"><ele>535.0</ele><time>2026-04-06T14:55:54.56Z</time></trkpt><trkpt lat="45.7835756" lon="11.6595498"><ele>535.0</ele><time>2026-04-06T14:55:55.559Z</time></trkpt><trkpt lat="45.7834797" lon="11.6596068"><ele>535.0</ele><time>2026-04-06T14:55:56.554Z</time></trkpt><trkpt lat="45.7833853" lon="11.6596956"><ele>531.5</ele><time>2026-04-06T14:55:57.559Z</time></trkpt><trkpt lat="45.7832865" lon="11.6598198"><ele>528.0</ele><time>2026-04-06T14:55:58.554Z</time></trkpt><trkpt lat="45.7831987" lon="11.6599503"><ele>524.5</ele><time>2026-04-06T14:55:59.546Z</time></trkpt><trkpt lat="45.7830994" lon="11.6600739"><ele>521.0</ele><time>2026-04-06T14:56:00.562Z</time></trkpt><trkpt lat="45.7829913" lon="11.6601838"><ele>520.25</ele><time>2026-04-06T14:56:01.561Z</time></trkpt><trkpt lat="45.7828783" lon="11.6602852"><ele>519.5</ele><time>2026-04-06T14:56:02.552Z</time></trkpt><trkpt lat="45.7827747" lon="11.6603828"><ele>518.75</ele><time>2026-04-06T14:56:03.556Z</time></trkpt><trkpt lat="45.782664" lon="11.6604758"><ele>518.0</ele><time>2026-04-06T14:56:04.559Z</time></trkpt><trkpt lat="45.782551" lon="11.6605986"><ele>518.0</ele><time>2026-04-06T14:56:05.556Z</time></trkpt><trkpt lat="45.7824371" lon="11.6607284"><ele>518.0</ele><time>2026-04-06T14:56:06.552Z</time></trkpt><trkpt lat="45.7822924" lon="11.6608725"><ele>518.0</ele><time>2026-04-06T14:56:07.556Z</time></trkpt><trkpt lat="45.782184" lon="11.6610366"><ele>518.0</ele><time>2026-04-06T14:56:08.556Z</time></trkpt><trkpt lat="45.7820757" lon="11.6611029"><ele>518.0</ele><time>2026-04-06T14:56:09.561Z</time></trkpt><trkpt lat="45.7820125" lon="11.6612539"><ele>518.0</ele><time>2026-04-06T14:56:10.565Z</time></trkpt><trkpt lat="45.7819524" lon="11.6613968"><ele>518.0</ele><time>2026-04-06T14:56:11.555Z</time></trkpt><trkpt lat="45.7818673" lon="11.6615574"><ele>518.0</ele><time>2026-04-06T14:56:12.559Z</time></trkpt><trkpt lat="45.7817368" lon="11.6616724"><ele>518.0</ele><time>2026-04-06T14:56:13.552Z</time></trkpt><trkpt lat="45.7816485" lon="11.6618204"><ele>518.0</ele><time>2026-04-06T14:56:14.56Z</time></trkpt><trkpt lat="45.7815358" lon="11.6619034"><ele>518.0</ele><time>2026-04-06T14:56:15.559Z</time></trkpt><trkpt lat="45.781422" lon="11.6620132"><ele>518.0</ele><time>2026-04-06T14:56:16.561Z</time></trkpt><trkpt lat="45.7813671" lon="11.6621597"><ele>518.0</ele><time>2026-04-06T14:56:17.557Z</time></trkpt><trkpt lat="45.7813262" lon="11.6622877"><ele>518.0</ele><time>2026-04-06T14:56:18.556Z</time></trkpt><trkpt lat="45.781312" lon="11.6623881"><ele>518.0</ele><time>2026-04-06T14:56:19.559Z</time></trkpt><trkpt lat="45.7813132" lon="11.6625068"><ele>518.0</ele><time>2026-04-06T14:56:20.556Z</time></trkpt><trkpt lat="45.7812942" lon="11.6626034"><ele>518.0</ele><time>2026-04-06T14:56:21.552Z</time></trkpt><trkpt lat="45.781257" lon="11.6627413"><ele>518.0</ele><time>2026-04-06T14:56:23.559Z</time></trkpt><trkpt lat="45.781238" lon="11.6628543"><ele>518.0</ele><time>2026-04-06T14:56:25.583Z</time></trkpt><trkpt lat="45.7812323" lon="11.6629506"><ele>518.0</ele><time>2026-04-06T14:56:27.559Z</time></trkpt><trkpt lat="45.7811879" lon="11.6630357"><ele>518.0</ele><time>2026-04-06T14:56:29.554Z</time></trkpt><trkpt lat="45.7811018" lon="11.6630333"><ele>518.0</ele><time>2026-04-06T14:56:31.565Z</time></trkpt><trkpt lat="45.7810959" lon="11.6628504"><ele>518.0</ele><time>2026-04-06T14:56:33.563Z</time></trkpt><trkpt lat="45.7811282" lon="11.662679"><ele>518.0</ele><time>2026-04-06T14:56:34.555Z</time></trkpt><trkpt lat="45.7811698" lon="11.6624821"><ele>518.0</ele><time>2026-04-06T14:56:35.562Z</time></trkpt><trkpt lat="45.7812084" lon="11.6622564"><ele>518.0</ele><time>2026-04-06T14:56:36.556Z</time></trkpt><trkpt lat="45.7812337" lon="11.6620001"><ele>514.75</ele><time>2026-04-06T14:56:37.565Z</time></trkpt><trkpt lat="45.7812517" lon="11.6618035"><ele>511.5</ele><time>2026-04-06T14:56:38.562Z</time></trkpt><trkpt lat="45.7812473" lon="11.6616428"><ele>508.25</ele><time>2026-04-06T14:56:39.565Z</time></trkpt><trkpt lat="45.781195" lon="11.6614989"><ele>505.0</ele><time>2026-04-06T14:56:40.562Z</time></trkpt><trkpt lat="45.7811078" lon="11.6613664"><ele>505.0</ele><time>2026-04-06T14:56:41.569Z</time></trkpt><trkpt lat="45.7810478" lon="11.6612269"><ele>505.0</ele><time>2026-04-06T14:56:42.558Z</time></trkpt><trkpt lat="45.7810248" lon="11.6610811"><ele>505.0</ele><time>2026-04-06T14:56:43.55Z</time></trkpt><trkpt lat="45.7810035" lon="11.6609102"><ele>505.0</ele><time>2026-04-06T14:56:44.58Z</time></trkpt><trkpt lat="45.7809904" lon="11.6607355"><ele>500.0</ele><time>2026-04-06T14:56:45.56Z</time></trkpt><trkpt lat="45.7809841" lon="11.6605815"><ele>495.0</ele><time>2026-04-06T14:56:46.562Z</time></trkpt><trkpt lat="45.7809743" lon="11.6604458"><ele>490.0</ele><time>2026-04-06T14:56:47.57Z</time></trkpt><trkpt lat="45.7809606" lon="11.6602909"><ele>485.0</ele><time>2026-04-06T14:56:48.557Z</time></trkpt><trkpt lat="45.7809567" lon="11.6601276"><ele>480.0</ele><time>2026-04-06T14:56:49.56Z</time></trkpt><trkpt lat="45.7809612" lon="11.6599828"><ele>480.0</ele><time>2026-04-06T14:56:50.558Z</time></trkpt><trkpt lat="45.7809635" lon="11.6598659"><ele>480.0</ele><time>2026-04-06T14:56:51.582Z</time></trkpt><trkpt lat="45.7809559" lon="11.6597741"><ele>480.0</ele><time>2026-04-06T14:56:52.559Z</time></trkpt><trkpt lat="45.7808828" lon="11.6596775"><ele>480.0</ele><time>2026-04-06T14:56:54.577Z</time></trkpt><trkpt lat="45.7808088" lon="11.6596917"><ele>480.0</ele><time>2026-04-06T14:56:55.554Z</time></trkpt><trkpt lat="45.780742" lon="11.6598339"><ele>480.0</ele><time>2026-04-06T14:56:57.556Z</time></trkpt><trkpt lat="45.780761" lon="11.6599616"><ele>480.0</ele><time>2026-04-06T14:56:58.557Z</time></trkpt><trkpt lat="45.7808024" lon="11.6601768"><ele>480.0</ele><time>2026-04-06T14:56:59.56Z</time></trkpt><trkpt lat="45.7808078" lon="11.6604825"><ele>480.0</ele><time>2026-04-06T14:57:00.549Z</time></trkpt><trkpt lat="45.7808096" lon="11.6608504"><ele>474.5</ele><time>2026-04-06T14:57:01.563Z</time></trkpt><trkpt lat="45.7808211" lon="11.6612395"><ele>469.0</ele><time>2026-04-06T14:57:02.552Z</time></trkpt><trkpt lat="45.7808247" lon="11.6616003"><ele>469.0</ele><time>2026-04-06T14:57:03.55Z</time></trkpt><trkpt lat="45.7808251" lon="11.661914"><ele>469.0</ele><time>2026-04-06T14:57:04.553Z</time></trkpt><trkpt lat="45.7808077" lon="11.6621989"><ele>469.0</ele><time>2026-04-06T14:57:05.551Z</time></trkpt><trkpt lat="45.7807849" lon="11.6624562"><ele>470.0</ele><time>2026-04-06T14:57:06.551Z</time></trkpt><trkpt lat="45.7807335" lon="11.6627018"><ele>471.0</ele><time>2026-04-06T14:57:07.555Z</time></trkpt><trkpt lat="45.7806782" lon="11.6629231"><ele>472.0</ele><time>2026-04-06T14:57:08.571Z</time></trkpt><trkpt lat="45.780645" lon="11.6631528"><ele>473.6666666666667</ele><time>2026-04-06T14:57:09.573Z</time></trkpt><trkpt lat="45.7806577" lon="11.6633987"><ele>475.33333333333337</ele><time>2026-04-06T14:57:10.562Z</time></trkpt><trkpt lat="45.7806767" lon="11.6636389"><ele>477.0</ele><time>2026-04-06T14:57:11.556Z</time></trkpt><trkpt lat="45.7806897" lon="11.6638711"><ele>477.0</ele><time>2026-04-06T14:57:12.56Z</time></trkpt><trkpt lat="45.7806941" lon="11.6641084"><ele>477.0</ele><time>2026-04-06T14:57:13.554Z</time></trkpt><trkpt lat="45.7807053" lon="11.6643272"><ele>477.0</ele><time>2026-04-06T14:57:14.566Z</time></trkpt><trkpt lat="45.7807644" lon="11.6646071"><ele>471.66666666666663</ele><time>2026-04-06T14:57:15.56Z</time></trkpt><trkpt lat="45.7808213" lon="11.664869"><ele>466.3333333333333</ele><time>2026-04-06T14:57:16.559Z</time></trkpt><trkpt lat="45.7808966" lon="11.6651104"><ele>461.0</ele><time>2026-04-06T14:57:17.586Z</time></trkpt><trkpt lat="45.7809994" lon="11.6653611"><ele>466.66666666666663</ele><time>2026-04-06T14:57:18.58Z</time></trkpt><trkpt lat="45.781123" lon="11.6656047"><ele>472.33333333333337</ele><time>2026-04-06T14:57:19.601Z</time></trkpt><trkpt lat="45.7812336" lon="11.6658389"><ele>478.0</ele><time>2026-04-06T14:57:20.56Z</time></trkpt><trkpt lat="45.7813507" lon="11.6660652"><ele>471.5</ele><time>2026-04-06T14:57:21.58Z</time></trkpt><trkpt lat="45.7814593" lon="11.6662513"><ele>465.0</ele><time>2026-04-06T14:57:22.559Z</time></trkpt><trkpt lat="45.7815562" lon="11.6664044"><ele>458.5</ele><time>2026-04-06T14:57:23.554Z</time></trkpt><trkpt lat="45.7816408" lon="11.6665272"><ele>452.0</ele><time>2026-04-06T14:57:24.558Z</time></trkpt><trkpt lat="45.7817118" lon="11.6666092"><ele>451.99999999999994</ele><time>2026-04-06T14:57:25.574Z</time></trkpt><trkpt lat="45.7817705" lon="11.6666804"><ele>452.0</ele><time>2026-04-06T14:57:26.581Z</time></trkpt><trkpt lat="45.7818205" lon="11.6667366"><ele>452.0</ele><time>2026-04-06T14:57:27.583Z</time></trkpt><trkpt lat="45.7818583" lon="11.666836"><ele>452.0</ele><time>2026-04-06T14:57:29.576Z</time></trkpt><trkpt lat="45.7817913" lon="11.6669238"><ele>451.99999999999994</ele><time>2026-04-06T14:57:31.584Z</time></trkpt><trkpt lat="45.7817187" lon="11.6668504"><ele>452.0</ele><time>2026-04-06T14:57:32.577Z</time></trkpt><trkpt lat="45.7816435" lon="11.6667721"><ele>452.0</ele><time>2026-04-06T14:57:33.575Z</time></trkpt><trkpt lat="45.7815547" lon="11.6666413"><ele>452.0</ele><time>2026-04-06T14:57:34.562Z</time></trkpt><trkpt lat="45.7814511" lon="11.6664993"><ele>452.0</ele><time>2026-04-06T14:57:35.557Z</time></trkpt><trkpt lat="45.781319" lon="11.666353"><ele>452.0</ele><time>2026-04-06T14:57:36.554Z</time></trkpt><trkpt lat="45.781123" lon="11.666176"><ele>448.0</ele><time>2026-04-06T14:57:37.575Z</time></trkpt><trkpt lat="45.7809798" lon="11.666005"><ele>444.0</ele><time>2026-04-06T14:57:38.579Z</time></trkpt><trkpt lat="45.780861" lon="11.6658495"><ele>440.0</ele><time>2026-04-06T14:57:39.554Z</time></trkpt><trkpt lat="45.7807643" lon="11.6657342"><ele>440.0</ele><time>2026-04-06T14:57:40.547Z</time></trkpt><trkpt lat="45.7806556" lon="11.6655918"><ele>440.0</ele><time>2026-04-06T14:57:41.561Z</time></trkpt><trkpt lat="45.7805635" lon="11.6654285"><ele>440.0</ele><time>2026-04-06T14:57:42.553Z</time></trkpt><trkpt lat="45.7804949" lon="11.6652161"><ele>447.0</ele><time>2026-04-06T14:57:43.581Z</time></trkpt><trkpt lat="45.7804236" lon="11.6649822"><ele>454.0</ele><time>2026-04-06T14:57:44.573Z</time></trkpt><trkpt lat="45.780375" lon="11.6647549"><ele>461.0</ele><time>2026-04-06T14:57:45.58Z</time></trkpt><trkpt lat="45.7803347" lon="11.6645508"><ele>465.0</ele><time>2026-04-06T14:57:46.571Z</time></trkpt><trkpt lat="45.7802842" lon="11.6643666"><ele>469.0</ele><time>2026-04-06T14:57:47.552Z</time></trkpt><trkpt lat="45.780259" lon="11.6641645"><ele>473.0</ele><time>2026-04-06T14:57:48.552Z</time></trkpt><trkpt lat="45.7802373" lon="11.6639611"><ele>477.0</ele><time>2026-04-06T14:57:49.552Z</time></trkpt><trkpt lat="45.7802139" lon="11.6637549"><ele>478.66666666666663</ele><time>2026-04-06T14:57:50.552Z</time></trkpt><trkpt lat="45.7801935" lon="11.663532"><ele>480.3333333333333</ele><time>2026-04-06T14:57:51.55Z</time></trkpt><trkpt lat="45.7802249" lon="11.6633359"><ele>482.0</ele><time>2026-04-06T14:57:52.554Z</time></trkpt><trkpt lat="45.7802632" lon="11.6631193"><ele>482.0</ele><time>2026-04-06T14:57:53.788Z</time></trkpt><trkpt lat="45.7802855" lon="11.6629322"><ele>482.0</ele><time>2026-04-06T14:57:54.863Z</time></trkpt><trkpt lat="45.7802907" lon="11.6626669"><ele>482.0</ele><time>2026-04-06T14:57:55.867Z</time></trkpt><trkpt lat="45.7802863" lon="11.6624374"><ele>478.66666666666663</ele><time>2026-04-06T14:57:56.948Z</time></trkpt><trkpt lat="45.7802884" lon="11.6622444"><ele>475.33333333333337</ele><time>2026-04-06T14:57:57.87Z</time></trkpt><trkpt lat="45.7803197" lon="11.662006"><ele>472.0</ele><time>2026-04-06T14:57:58.864Z</time></trkpt><trkpt lat="45.7804547" lon="11.6617642"><ele>471.25</ele><time>2026-04-06T14:58:01.163Z</time></trkpt><trkpt lat="45.7803818" lon="11.6616173"><ele>470.5</ele><time>2026-04-06T14:58:02.187Z</time></trkpt><trkpt lat="45.780246" lon="11.6614935"><ele>469.75</ele><time>2026-04-06T14:58:03.189Z</time></trkpt><trkpt lat="45.7801725" lon="11.6614349"><ele>469.0</ele><time>2026-04-06T14:58:04.193Z</time></trkpt><trkpt lat="45.7801457" lon="11.6617417"><ele>470.0</ele><time>2026-04-06T14:58:06.025Z</time></trkpt><trkpt lat="45.7801552" lon="11.6618973"><ele>471.0</ele><time>2026-04-06T14:58:07.198Z</time></trkpt><trkpt lat="45.780189" lon="11.6623699"><ele>472.0</ele><time>2026-04-06T14:58:09.043Z</time></trkpt><trkpt lat="45.7801455" lon="11.662857"><ele>458.0</ele><time>2026-04-06T14:58:10.566Z</time></trkpt><trkpt lat="45.7800806" lon="11.663082"><ele>444.0</ele><time>2026-04-06T14:58:11.559Z</time></trkpt><trkpt lat="45.7800384" lon="11.6632618"><ele>430.0</ele><time>2026-04-06T14:58:12.576Z</time></trkpt><trkpt lat="45.779995" lon="11.6634517"><ele>416.0</ele><time>2026-04-06T14:58:13.563Z</time></trkpt><trkpt lat="45.7799964" lon="11.6636565"><ele>415.66666666666663</ele><time>2026-04-06T14:58:14.557Z</time></trkpt><trkpt lat="45.78002" lon="11.6638755"><ele>415.33333333333337</ele><time>2026-04-06T14:58:15.562Z</time></trkpt><trkpt lat="45.7800349" lon="11.6641114"><ele>415.0</ele><time>2026-04-06T14:58:16.564Z</time></trkpt><trkpt lat="45.780057" lon="11.6643587"><ele>411.0</ele><time>2026-04-06T14:58:17.563Z</time></trkpt><trkpt lat="45.7801041" lon="11.664609"><ele>407.0</ele><time>2026-04-06T14:58:18.569Z</time></trkpt><trkpt lat="45.7801516" lon="11.6648566"><ele>403.0</ele><time>2026-04-06T14:58:19.574Z</time></trkpt><trkpt lat="45.7802238" lon="11.6651093"><ele>415.33333333333337</ele><time>2026-04-06T14:58:20.567Z</time></trkpt><trkpt lat="45.7803035" lon="11.6653772"><ele>427.66666666666663</ele><time>2026-04-06T14:58:21.57Z</time></trkpt><trkpt lat="45.7803518" lon="11.6656077"><ele>440.0</ele><time>2026-04-06T14:58:22.571Z</time></trkpt><trkpt lat="45.780414" lon="11.6658512"><ele>440.0</ele><time>2026-04-06T14:58:23.566Z</time></trkpt><trkpt lat="45.7804961" lon="11.6660697"><ele>440.0</ele><time>2026-04-06T14:58:24.569Z</time></trkpt><trkpt lat="45.7805758" lon="11.6662639"><ele>440.0</ele><time>2026-04-06T14:58:25.567Z</time></trkpt><trkpt lat="45.7806797" lon="11.6664387"><ele>429.66666666666663</ele><time>2026-04-06T14:58:26.56Z</time></trkpt><trkpt lat="45.7808016" lon="11.6666409"><ele>419.33333333333337</ele><time>2026-04-06T14:58:27.567Z</time></trkpt><trkpt lat="45.7809415" lon="11.6668383"><ele>409.0</ele><time>2026-04-06T14:58:28.564Z</time></trkpt><trkpt lat="45.7810662" lon="11.6670244"><ele>409.0</ele><time>2026-04-06T14:58:29.806Z</time></trkpt><trkpt lat="45.7812742" lon="11.6674042"><ele>409.0</ele><time>2026-04-06T14:58:31.561Z</time></trkpt><trkpt lat="45.7813617" lon="11.6675877"><ele>411.0</ele><time>2026-04-06T14:58:33.039Z</time></trkpt><trkpt lat="45.7815708" lon="11.6678018"><ele>413.0</ele><time>2026-04-06T14:58:34.595Z</time></trkpt><trkpt lat="45.7817159" lon="11.6678964"><ele>415.0</ele><time>2026-04-06T14:58:35.578Z</time></trkpt><trkpt lat="45.7818504" lon="11.6679424"><ele>415.0</ele><time>2026-04-06T14:58:36.584Z</time></trkpt><trkpt lat="45.7819775" lon="11.6680017"><ele>415.0</ele><time>2026-04-06T14:58:37.575Z</time></trkpt><trkpt lat="45.7820793" lon="11.6681022"><ele>415.0</ele><time>2026-04-06T14:58:38.575Z</time></trkpt><trkpt lat="45.7821793" lon="11.6681868"><ele>415.0</ele><time>2026-04-06T14:58:39.588Z</time></trkpt><trkpt lat="45.7822538" lon="11.6683136"><ele>415.0</ele><time>2026-04-06T14:58:40.542Z</time></trkpt><trkpt lat="45.7823083" lon="11.6683831"><ele>415.0</ele><time>2026-04-06T14:58:41.558Z</time></trkpt><trkpt lat="45.7823258" lon="11.6685739"><ele>415.0</ele><time>2026-04-06T14:58:43.558Z</time></trkpt><trkpt lat="45.7822932" lon="11.668661"><ele>415.0</ele><time>2026-04-06T14:58:44.584Z</time></trkpt><trkpt lat="45.782228" lon="11.668742"><ele>415.0</ele><time>2026-04-06T14:58:45.581Z</time></trkpt><trkpt lat="45.782122" lon="11.6688116"><ele>421.0</ele><time>2026-04-06T14:58:46.558Z</time></trkpt><trkpt lat="45.7820005" lon="11.6688654"><ele>427.0</ele><time>2026-04-06T14:58:47.558Z</time></trkpt><trkpt lat="45.7818869" lon="11.668912"><ele>433.0</ele><time>2026-04-06T14:58:48.556Z</time></trkpt><trkpt lat="45.7817832" lon="11.6689603"><ele>439.0</ele><time>2026-04-06T14:58:49.56Z</time></trkpt><trkpt lat="45.7816927" lon="11.6690411"><ele>426.75</ele><time>2026-04-06T14:58:50.574Z</time></trkpt><trkpt lat="45.7816195" lon="11.6691583"><ele>414.5</ele><time>2026-04-06T14:58:51.571Z</time></trkpt><trkpt lat="45.7815741" lon="11.6693132"><ele>402.25</ele><time>2026-04-06T14:58:52.574Z</time></trkpt><trkpt lat="45.7815654" lon="11.6694957"><ele>390.0</ele><time>2026-04-06T14:58:53.574Z</time></trkpt><trkpt lat="45.7815904" lon="11.669737"><ele>390.0</ele><time>2026-04-06T14:58:54.559Z</time></trkpt><trkpt lat="45.7816375" lon="11.6699797"><ele>390.0</ele><time>2026-04-06T14:58:55.564Z</time></trkpt><trkpt lat="45.7816782" lon="11.6702365"><ele>390.0</ele><time>2026-04-06T14:58:56.554Z</time></trkpt><trkpt lat="45.7816653" lon="11.6704623"><ele>391.0</ele><time>2026-04-06T14:58:57.559Z</time></trkpt><trkpt lat="45.7816238" lon="11.6706485"><ele>392.0</ele><time>2026-04-06T14:58:58.55Z</time></trkpt><trkpt lat="45.7815774" lon="11.6708187"><ele>393.0</ele><time>2026-04-06T14:58:59.577Z</time></trkpt><trkpt lat="45.781526" lon="11.6709547"><ele>394.0</ele><time>2026-04-06T14:59:00.559Z</time></trkpt><trkpt lat="45.7814663" lon="11.6710935"><ele>394.25</ele><time>2026-04-06T14:59:01.567Z</time></trkpt><trkpt lat="45.7814016" lon="11.6712506"><ele>394.5</ele><time>2026-04-06T14:59:02.533Z</time></trkpt><trkpt lat="45.7813586" lon="11.6714175"><ele>394.75</ele><time>2026-04-06T14:59:03.543Z</time></trkpt><trkpt lat="45.7813591" lon="11.6716093"><ele>395.0</ele><time>2026-04-06T14:59:04.547Z</time></trkpt><trkpt lat="45.7813796" lon="11.6718082"><ele>394.5</ele><time>2026-04-06T14:59:05.57Z</time></trkpt><trkpt lat="45.7814063" lon="11.6720015"><ele>394.0</ele><time>2026-04-06T14:59:06.584Z</time></trkpt><trkpt lat="45.7814216" lon="11.6721914"><ele>393.5</ele><time>2026-04-06T14:59:07.584Z</time></trkpt><trkpt lat="45.7814346" lon="11.6723706"><ele>393.0</ele><time>2026-04-06T14:59:08.56Z</time></trkpt><trkpt lat="45.7814474" lon="11.6725709"><ele>391.66666666666663</ele><time>2026-04-06T14:59:09.559Z</time></trkpt><trkpt lat="45.7814572" lon="11.6728023"><ele>390.3333333333333</ele><time>2026-04-06T14:59:10.555Z</time></trkpt><trkpt lat="45.7814511" lon="11.6731105"><ele>389.0</ele><time>2026-04-06T14:59:11.563Z</time></trkpt><trkpt lat="45.7814268" lon="11.6734326"><ele>388.3333333333333</ele><time>2026-04-06T14:59:12.576Z</time></trkpt><trkpt lat="45.7813677" lon="11.6736743"><ele>387.66666666666663</ele><time>2026-04-06T14:59:13.562Z</time></trkpt><trkpt lat="45.7813427" lon="11.6738991"><ele>387.0</ele><time>2026-04-06T14:59:14.558Z</time></trkpt><trkpt lat="45.7813424" lon="11.6741473"><ele>387.0</ele><time>2026-04-06T14:59:15.565Z</time></trkpt><trkpt lat="45.7813254" lon="11.6743796"><ele>387.0</ele><time>2026-04-06T14:59:16.554Z</time></trkpt><trkpt lat="45.7813317" lon="11.6746185"><ele>387.0</ele><time>2026-04-06T14:59:17.562Z</time></trkpt><trkpt lat="45.7812898" lon="11.6748172"><ele>384.0</ele><time>2026-04-06T14:59:18.562Z</time></trkpt><trkpt lat="45.781242" lon="11.6750056"><ele>381.0</ele><time>2026-04-06T14:59:19.571Z</time></trkpt><trkpt lat="45.7812145" lon="11.6751763"><ele>378.0</ele><time>2026-04-06T14:59:20.562Z</time></trkpt><trkpt lat="45.7812502" lon="11.6753726"><ele>375.0</ele><time>2026-04-06T14:59:21.572Z</time></trkpt><trkpt lat="45.7813262" lon="11.6755387"><ele>370.0</ele><time>2026-04-06T14:59:22.567Z</time></trkpt><trkpt lat="45.7814337" lon="11.6756835"><ele>365.0</ele><time>2026-04-06T14:59:23.565Z</time></trkpt><trkpt lat="45.7815608" lon="11.6758222"><ele>360.0</ele><time>2026-04-06T14:59:24.563Z</time></trkpt><trkpt lat="45.7816486" lon="11.6760198"><ele>354.3333333333333</ele><time>2026-04-06T14:59:25.57Z</time></trkpt><trkpt lat="45.7817042" lon="11.676237"><ele>348.66666666666663</ele><time>2026-04-06T14:59:26.578Z</time></trkpt><trkpt lat="45.7817564" lon="11.6764536"><ele>343.0</ele><time>2026-04-06T14:59:27.569Z</time></trkpt><trkpt lat="45.7817827" lon="11.6767089"><ele>343.0</ele><time>2026-04-06T14:59:28.566Z</time></trkpt><trkpt lat="45.7817877" lon="11.6769292"><ele>343.0</ele><time>2026-04-06T14:59:29.571Z</time></trkpt><trkpt lat="45.7818022" lon="11.6771345"><ele>343.0</ele><time>2026-04-06T14:59:30.56Z</time></trkpt><trkpt lat="45.7818095" lon="11.6773439"><ele>343.0</ele><time>2026-04-06T14:59:31.571Z</time></trkpt><trkpt lat="45.7818069" lon="11.677541"><ele>342.4</ele><time>2026-04-06T14:59:32.564Z</time></trkpt><trkpt lat="45.7817596" lon="11.6777175"><ele>341.79999999999995</ele><time>2026-04-06T14:59:33.569Z</time></trkpt><trkpt lat="45.7817472" lon="11.6778863"><ele>341.2</ele><time>2026-04-06T14:59:34.56Z</time></trkpt><trkpt lat="45.7817293" lon="11.6780108"><ele>340.6</ele><time>2026-04-06T14:59:35.559Z</time></trkpt><trkpt lat="45.7817535" lon="11.6781367"><ele>340.0</ele><time>2026-04-06T14:59:36.564Z</time></trkpt><trkpt lat="45.7817566" lon="11.6782545"><ele>340.0</ele><time>2026-04-06T14:59:37.567Z</time></trkpt><trkpt lat="45.781748" lon="11.678347"><ele>340.0</ele><time>2026-04-06T14:59:38.563Z</time></trkpt><trkpt lat="45.781687" lon="11.6784076"><ele>340.0</ele><time>2026-04-06T14:59:40.569Z</time></trkpt><trkpt lat="45.781628" lon="11.6782534"><ele>340.0</ele><time>2026-04-06T14:59:42.59Z</time></trkpt><trkpt lat="45.78165" lon="11.6781325"><ele>340.0</ele><time>2026-04-06T14:59:43.559Z</time></trkpt><trkpt lat="45.7816826" lon="11.6779569"><ele>339.25</ele><time>2026-04-06T14:59:44.57Z</time></trkpt><trkpt lat="45.7816987" lon="11.6777543"><ele>338.5</ele><time>2026-04-06T14:59:45.566Z</time></trkpt><trkpt lat="45.7816922" lon="11.6775668"><ele>337.75</ele><time>2026-04-06T14:59:46.567Z</time></trkpt><trkpt lat="45.7816642" lon="11.6773785"><ele>337.0</ele><time>2026-04-06T14:59:47.566Z</time></trkpt><trkpt lat="45.7816261" lon="11.677183"><ele>337.0</ele><time>2026-04-06T14:59:48.573Z</time></trkpt><trkpt lat="45.7815754" lon="11.6769962"><ele>337.0</ele><time>2026-04-06T14:59:49.566Z</time></trkpt><trkpt lat="45.7815238" lon="11.6768137"><ele>337.0</ele><time>2026-04-06T14:59:50.562Z</time></trkpt><trkpt lat="45.7814621" lon="11.6766121"><ele>337.0</ele><time>2026-04-06T14:59:51.559Z</time></trkpt><trkpt lat="45.7813562" lon="11.6764216"><ele>338.5</ele><time>2026-04-06T14:59:52.566Z</time></trkpt><trkpt lat="45.7812497" lon="11.6762848"><ele>340.0</ele><time>2026-04-06T14:59:53.562Z</time></trkpt><trkpt lat="45.7811543" lon="11.6762209"><ele>341.5</ele><time>2026-04-06T14:59:54.571Z</time></trkpt><trkpt lat="45.78104" lon="11.6762153"><ele>343.0</ele><time>2026-04-06T14:59:55.566Z</time></trkpt><trkpt lat="45.7809544" lon="11.676273"><ele>337.16666666666663</ele><time>2026-04-06T14:59:56.564Z</time></trkpt><trkpt lat="45.780882" lon="11.6763591"><ele>331.3333333333333</ele><time>2026-04-06T14:59:57.558Z</time></trkpt><trkpt lat="45.7808191" lon="11.6764363"><ele>325.5</ele><time>2026-04-06T14:59:58.568Z</time></trkpt><trkpt lat="45.7807278" lon="11.6764736"><ele>319.6666666666667</ele><time>2026-04-06T14:59:59.563Z</time></trkpt><trkpt lat="45.7806429" lon="11.6764589"><ele>313.83333333333337</ele><time>2026-04-06T15:00:00.569Z</time></trkpt><trkpt lat="45.7805731" lon="11.6763939"><ele>308.0</ele><time>2026-04-06T15:00:01.59Z</time></trkpt><trkpt lat="45.7805266" lon="11.6762746"><ele>308.0</ele><time>2026-04-06T15:00:02.568Z</time></trkpt><trkpt lat="45.7805003" lon="11.6761237"><ele>308.0</ele><time>2026-04-06T15:00:03.562Z</time></trkpt><trkpt lat="45.7805122" lon="11.6759293"><ele>308.0</ele><time>2026-04-06T15:00:04.581Z</time></trkpt><trkpt lat="45.7805204" lon="11.6757115"><ele>308.0</ele><time>2026-04-06T15:00:05.562Z</time></trkpt><trkpt lat="45.7805025" lon="11.6754506"><ele>314.6666666666667</ele><time>2026-04-06T15:00:06.566Z</time></trkpt><trkpt lat="45.780457" lon="11.6751599"><ele>321.3333333333333</ele><time>2026-04-06T15:00:07.571Z</time></trkpt><trkpt lat="45.7804226" lon="11.6748832"><ele>328.0</ele><time>2026-04-06T15:00:08.562Z</time></trkpt><trkpt lat="45.7803964" lon="11.6745641"><ele>328.0</ele><time>2026-04-06T15:00:09.574Z</time></trkpt><trkpt lat="45.7803893" lon="11.6742511"><ele>328.0</ele><time>2026-04-06T15:00:10.566Z</time></trkpt><trkpt lat="45.7803841" lon="11.6739756"><ele>328.0</ele><time>2026-04-06T15:00:11.576Z</time></trkpt><trkpt lat="45.7803443" lon="11.6737094"><ele>328.66666666666663</ele><time>2026-04-06T15:00:12.568Z</time></trkpt><trkpt lat="45.7802943" lon="11.6734662"><ele>329.3333333333333</ele><time>2026-04-06T15:00:13.573Z</time></trkpt><trkpt lat="45.7802252" lon="11.6732193"><ele>330.0</ele><time>2026-04-06T15:00:14.563Z</time></trkpt><trkpt lat="45.7801537" lon="11.6729903"><ele>315.3333333333333</ele><time>2026-04-06T15:00:15.575Z</time></trkpt><trkpt lat="45.780123" lon="11.6727533"><ele>300.66666666666663</ele><time>2026-04-06T15:00:16.564Z</time></trkpt><trkpt lat="45.7800738" lon="11.6725473"><ele>286.0</ele><time>2026-04-06T15:00:17.577Z</time></trkpt><trkpt lat="45.7800136" lon="11.6723742"><ele>286.0</ele><time>2026-04-06T15:00:18.571Z</time></trkpt><trkpt lat="45.7799588" lon="11.6722247"><ele>286.0</ele><time>2026-04-06T15:00:19.596Z</time></trkpt><trkpt lat="45.7799198" lon="11.6720863"><ele>286.0</ele><time>2026-04-06T15:00:20.588Z</time></trkpt><trkpt lat="45.7799211" lon="11.6719406"><ele>286.0</ele><time>2026-04-06T15:00:21.574Z</time></trkpt><trkpt lat="45.7799551" lon="11.6717692"><ele>286.0</ele><time>2026-04-06T15:00:22.576Z</time></trkpt><trkpt lat="45.7799895" lon="11.6715672"><ele>286.3333333333333</ele><time>2026-04-06T15:00:23.564Z</time></trkpt><trkpt lat="45.779991" lon="11.6713628"><ele>286.6666666666667</ele><time>2026-04-06T15:00:24.569Z</time></trkpt><trkpt lat="45.7799674" lon="11.6711324"><ele>287.0</ele><time>2026-04-06T15:00:25.577Z</time></trkpt><trkpt lat="45.7799282" lon="11.6709207"><ele>287.0</ele><time>2026-04-06T15:00:26.594Z</time></trkpt><trkpt lat="45.7798874" lon="11.6707386"><ele>287.0</ele><time>2026-04-06T15:00:27.579Z</time></trkpt><trkpt lat="45.7798645" lon="11.6705517"><ele>287.0</ele><time>2026-04-06T15:00:28.567Z</time></trkpt><trkpt lat="45.7798661" lon="11.6703978"><ele>287.0</ele><time>2026-04-06T15:00:29.573Z</time></trkpt><trkpt lat="45.7798878" lon="11.6702578"><ele>286.4</ele><time>2026-04-06T15:00:30.559Z</time></trkpt><trkpt lat="45.7799161" lon="11.67011"><ele>285.79999999999995</ele><time>2026-04-06T15:00:31.59Z</time></trkpt><trkpt lat="45.779931" lon="11.6700015"><ele>285.2</ele><time>2026-04-06T15:00:32.562Z</time></trkpt><trkpt lat="45.7799611" lon="11.6698483"><ele>284.59999999999997</ele><time>2026-04-06T15:00:34.588Z</time></trkpt><trkpt lat="45.7798977" lon="11.669714"><ele>284.0</ele><time>2026-04-06T15:00:36.567Z</time></trkpt><trkpt lat="45.77979" lon="11.6697552"><ele>284.0</ele><time>2026-04-06T15:00:38.556Z</time></trkpt><trkpt lat="45.7797493" lon="11.6698925"><ele>284.0</ele><time>2026-04-06T15:00:39.56Z</time></trkpt><trkpt lat="45.7797272" lon="11.6700881"><ele>284.0</ele><time>2026-04-06T15:00:40.557Z</time></trkpt><trkpt lat="45.7797022" lon="11.6703061"><ele>284.0</ele><time>2026-04-06T15:00:41.56Z</time></trkpt><trkpt lat="45.7796617" lon="11.6706178"><ele>285.0</ele><time>2026-04-06T15:00:42.581Z</time></trkpt><trkpt lat="45.7796237" lon="11.6709003"><ele>286.0</ele><time>2026-04-06T15:00:43.561Z</time></trkpt><trkpt lat="45.7795954" lon="11.6711469"><ele>287.0</ele><time>2026-04-06T15:00:44.558Z</time></trkpt><trkpt lat="45.7795411" lon="11.6713285"><ele>288.0</ele><time>2026-04-06T15:00:45.565Z</time></trkpt><trkpt lat="45.7794769" lon="11.6714545"><ele>289.0</ele><time>2026-04-06T15:00:46.558Z</time></trkpt><trkpt lat="45.7793724" lon="11.6715313"><ele>290.0</ele><time>2026-04-06T15:00:47.566Z</time></trkpt><trkpt lat="45.7792454" lon="11.6715853"><ele>291.0</ele><time>2026-04-06T15:00:48.557Z</time></trkpt><trkpt lat="45.7791468" lon="11.6716698"><ele>282.25</ele><time>2026-04-06T15:00:49.564Z</time></trkpt><trkpt lat="45.7791022" lon="11.6718027"><ele>273.5</ele><time>2026-04-06T15:00:50.554Z</time></trkpt><trkpt lat="45.7790942" lon="11.6719798"><ele>264.75</ele><time>2026-04-06T15:00:51.554Z</time></trkpt><trkpt lat="45.7790966" lon="11.6722193"><ele>256.0</ele><time>2026-04-06T15:00:52.576Z</time></trkpt><trkpt lat="45.7791232" lon="11.6724166"><ele>254.66666666666666</ele><time>2026-04-06T15:00:53.564Z</time></trkpt><trkpt lat="45.7791799" lon="11.6726247"><ele>253.33333333333331</ele><time>2026-04-06T15:00:54.561Z</time></trkpt><trkpt lat="45.7792977" lon="11.6728374"><ele>252.0</ele><time>2026-04-06T15:00:55.56Z</time></trkpt><trkpt lat="45.7793312" lon="11.6729841"><ele>251.75</ele><time>2026-04-06T15:00:56.564Z</time></trkpt><trkpt lat="45.7793292" lon="11.6731611"><ele>251.5</ele><time>2026-04-06T15:00:57.557Z</time></trkpt><trkpt lat="45.7792874" lon="11.6733591"><ele>251.25</ele><time>2026-04-06T15:00:58.561Z</time></trkpt><trkpt lat="45.7792536" lon="11.6735797"><ele>251.0</ele><time>2026-04-06T15:00:59.561Z</time></trkpt><trkpt lat="45.7792159" lon="11.6737861"><ele>251.5</ele><time>2026-04-06T15:01:00.558Z</time></trkpt><trkpt lat="45.7791756" lon="11.6739713"><ele>252.0</ele><time>2026-04-06T15:01:01.559Z</time></trkpt><trkpt lat="45.7791597" lon="11.6741485"><ele>252.5</ele><time>2026-04-06T15:01:02.557Z</time></trkpt><trkpt lat="45.7791504" lon="11.674351"><ele>253.0</ele><time>2026-04-06T15:01:03.562Z</time></trkpt><trkpt lat="45.7791192" lon="11.6744992"><ele>253.0</ele><time>2026-04-06T15:01:04.558Z</time></trkpt><trkpt lat="45.7790569" lon="11.6746325"><ele>253.0</ele><time>2026-04-06T15:01:05.558Z</time></trkpt><trkpt lat="45.7789506" lon="11.6747555"><ele>253.0</ele><time>2026-04-06T15:01:06.55Z</time></trkpt><trkpt lat="45.778869" lon="11.6748885"><ele>253.0</ele><time>2026-04-06T15:01:07.55Z</time></trkpt><trkpt lat="45.7787974" lon="11.6750146"><ele>253.0</ele><time>2026-04-06T15:01:08.555Z</time></trkpt><trkpt lat="45.7787414" lon="11.6751513"><ele>253.0</ele><time>2026-04-06T15:01:09.556Z</time></trkpt><trkpt lat="45.7787154" lon="11.6752971"><ele>253.0</ele><time>2026-04-06T15:01:10.557Z</time></trkpt><trkpt lat="45.7787215" lon="11.6754655"><ele>253.0</ele><time>2026-04-06T15:01:11.567Z</time></trkpt><trkpt lat="45.7787681" lon="11.6756403"><ele>252.60000000000002</ele><time>2026-04-06T15:01:12.561Z</time></trkpt><trkpt lat="45.7788038" lon="11.6758012"><ele>252.20000000000002</ele><time>2026-04-06T15:01:13.56Z</time></trkpt><trkpt lat="45.7788094" lon="11.6759484"><ele>251.8</ele><time>2026-04-06T15:01:14.569Z</time></trkpt><trkpt lat="45.7787773" lon="11.6760782"><ele>251.4</ele><time>2026-04-06T15:01:15.559Z</time></trkpt><trkpt lat="45.7787166" lon="11.6761692"><ele>251.0</ele><time>2026-04-06T15:01:16.561Z</time></trkpt><trkpt lat="45.7786247" lon="11.676228"><ele>246.25</ele><time>2026-04-06T15:01:17.555Z</time></trkpt><trkpt lat="45.7785065" lon="11.6762692"><ele>241.5</ele><time>2026-04-06T15:01:18.563Z</time></trkpt><trkpt lat="45.7783812" lon="11.6763079"><ele>236.75</ele><time>2026-04-06T15:01:19.553Z</time></trkpt><trkpt lat="45.7782682" lon="11.6763685"><ele>232.0</ele><time>2026-04-06T15:01:20.562Z</time></trkpt><trkpt lat="45.7781799" lon="11.6765056"><ele>232.0</ele><time>2026-04-06T15:01:21.584Z</time></trkpt><trkpt lat="45.7781183" lon="11.6766952"><ele>232.0</ele><time>2026-04-06T15:01:22.577Z</time></trkpt><trkpt lat="45.778079" lon="11.6769832"><ele>232.0</ele><time>2026-04-06T15:01:23.585Z</time></trkpt><trkpt lat="45.7780757" lon="11.6772246"><ele>232.25</ele><time>2026-04-06T15:01:24.558Z</time></trkpt><trkpt lat="45.7780605" lon="11.6774305"><ele>232.5</ele><time>2026-04-06T15:01:25.56Z</time></trkpt><trkpt lat="45.7780082" lon="11.6776231"><ele>232.75</ele><time>2026-04-06T15:01:26.561Z</time></trkpt><trkpt lat="45.7779436" lon="11.6777869"><ele>233.0</ele><time>2026-04-06T15:01:27.559Z</time></trkpt><trkpt lat="45.7778833" lon="11.6779399"><ele>231.0</ele><time>2026-04-06T15:01:28.564Z</time></trkpt><trkpt lat="45.7778573" lon="11.6780931"><ele>229.0</ele><time>2026-04-06T15:01:29.565Z</time></trkpt><trkpt lat="45.7778956" lon="11.6782505"><ele>227.0</ele><time>2026-04-06T15:01:30.558Z</time></trkpt><trkpt lat="45.7779284" lon="11.6783976"><ele>225.0</ele><time>2026-04-06T15:01:31.564Z</time></trkpt><trkpt lat="45.7779788" lon="11.6785598"><ele>221.75</ele><time>2026-04-06T15:01:32.559Z</time></trkpt><trkpt lat="45.7780382" lon="11.6787295"><ele>218.5</ele><time>2026-04-06T15:01:33.56Z</time></trkpt><trkpt lat="45.7780941" lon="11.6789107"><ele>215.25</ele><time>2026-04-06T15:01:34.56Z</time></trkpt><trkpt lat="45.7781538" lon="11.6790918"><ele>212.0</ele><time>2026-04-06T15:01:35.56Z</time></trkpt><trkpt lat="45.7782495" lon="11.6792593"><ele>212.0</ele><time>2026-04-06T15:01:36.555Z</time></trkpt><trkpt lat="45.7783563" lon="11.6794054"><ele>212.0</ele><time>2026-04-06T15:01:37.559Z</time></trkpt><trkpt lat="45.7784647" lon="11.679556"><ele>212.0</ele><time>2026-04-06T15:01:38.561Z</time></trkpt><trkpt lat="45.7785337" lon="11.6796899"><ele>212.0</ele><time>2026-04-06T15:01:39.553Z</time></trkpt><trkpt lat="45.7785762" lon="11.6798365"><ele>208.75</ele><time>2026-04-06T15:01:40.557Z</time></trkpt><trkpt lat="45.7785674" lon="11.6800048"><ele>205.5</ele><time>2026-04-06T15:01:41.566Z</time></trkpt><trkpt lat="45.7785458" lon="11.6801928"><ele>202.25</ele><time>2026-04-06T15:01:42.557Z</time></trkpt><trkpt lat="45.7785044" lon="11.6803862"><ele>199.0</ele><time>2026-04-06T15:01:43.556Z</time></trkpt><trkpt lat="45.7784285" lon="11.6805965"><ele>199.0</ele><time>2026-04-06T15:01:44.563Z</time></trkpt><trkpt lat="45.7783679" lon="11.6807966"><ele>199.0</ele><time>2026-04-06T15:01:45.564Z</time></trkpt><trkpt lat="45.7783287" lon="11.6809926"><ele>199.0</ele><time>2026-04-06T15:01:46.562Z</time></trkpt><trkpt lat="45.7782842" lon="11.6811649"><ele>199.0</ele><time>2026-04-06T15:01:47.569Z</time></trkpt><trkpt lat="45.7782847" lon="11.6813682"><ele>198.0</ele><time>2026-04-06T15:01:48.558Z</time></trkpt><trkpt lat="45.7783003" lon="11.6815432"><ele>197.0</ele><time>2026-04-06T15:01:49.569Z</time></trkpt><trkpt lat="45.7783497" lon="11.6817216"><ele>196.0</ele><time>2026-04-06T15:01:50.567Z</time></trkpt><trkpt lat="45.7784207" lon="11.6818922"><ele>195.0</ele><time>2026-04-06T15:01:51.557Z</time></trkpt><trkpt lat="45.7784979" lon="11.6820619"><ele>192.5</ele><time>2026-04-06T15:01:52.561Z</time></trkpt><trkpt lat="45.7785759" lon="11.6822337"><ele>190.0</ele><time>2026-04-06T15:01:53.563Z</time></trkpt><trkpt lat="45.7785967" lon="11.6824219"><ele>187.5</ele><time>2026-04-06T15:01:54.563Z</time></trkpt><trkpt lat="45.7785695" lon="11.6826268"><ele>185.0</ele><time>2026-04-06T15:01:55.57Z</time></trkpt><trkpt lat="45.7785078" lon="11.682807"><ele>185.0</ele><time>2026-04-06T15:01:56.57Z</time></trkpt><trkpt lat="45.7784308" lon="11.6829527"><ele>185.0</ele><time>2026-04-06T15:01:57.568Z</time></trkpt><trkpt lat="45.778336" lon="11.6830499"><ele>185.0</ele><time>2026-04-06T15:01:58.574Z</time></trkpt><trkpt lat="45.7782574" lon="11.6831392"><ele>185.0</ele><time>2026-04-06T15:01:59.577Z</time></trkpt><trkpt lat="45.7782131" lon="11.6832449"><ele>185.0</ele><time>2026-04-06T15:02:00.563Z</time></trkpt><trkpt lat="45.7782083" lon="11.6833703"><ele>185.0</ele><time>2026-04-06T15:02:01.573Z</time></trkpt><trkpt lat="45.7782259" lon="11.6835312"><ele>185.0</ele><time>2026-04-06T15:02:02.577Z</time></trkpt><trkpt lat="45.7782354" lon="11.6836687"><ele>185.0</ele><time>2026-04-06T15:02:03.57Z</time></trkpt><trkpt lat="45.7782342" lon="11.6837979"><ele>185.0</ele><time>2026-04-06T15:02:04.572Z</time></trkpt><trkpt lat="45.7782316" lon="11.6839491"><ele>185.0</ele><time>2026-04-06T15:02:05.574Z</time></trkpt><trkpt lat="45.7782476" lon="11.6841089"><ele>184.25</ele><time>2026-04-06T15:02:06.565Z</time></trkpt><trkpt lat="45.7782797" lon="11.6842757"><ele>183.5</ele><time>2026-04-06T15:02:07.571Z</time></trkpt><trkpt lat="45.7783191" lon="11.6844399"><ele>182.75</ele><time>2026-04-06T15:02:08.57Z</time></trkpt><trkpt lat="45.7783563" lon="11.6845977"><ele>182.0</ele><time>2026-04-06T15:02:09.558Z</time></trkpt><trkpt lat="45.7783953" lon="11.684756"><ele>178.66666666666666</ele><time>2026-04-06T15:02:10.569Z</time></trkpt><trkpt lat="45.7784558" lon="11.6849226"><ele>175.33333333333334</ele><time>2026-04-06T15:02:11.576Z</time></trkpt><trkpt lat="45.7785482" lon="11.6850861"><ele>172.0</ele><time>2026-04-06T15:02:12.566Z</time></trkpt><trkpt lat="45.7786801" lon="11.6852495"><ele>176.0</ele><time>2026-04-06T15:02:13.572Z</time></trkpt><trkpt lat="45.7787553" lon="11.6854112"><ele>180.0</ele><time>2026-04-06T15:02:14.569Z</time></trkpt><trkpt lat="45.7788166" lon="11.6855739"><ele>184.0</ele><time>2026-04-06T15:02:15.566Z</time></trkpt><trkpt lat="45.7788708" lon="11.6857335"><ele>188.0</ele><time>2026-04-06T15:02:16.568Z</time></trkpt><trkpt lat="45.7789168" lon="11.6858988"><ele>188.0</ele><time>2026-04-06T15:02:17.575Z</time></trkpt><trkpt lat="45.7789745" lon="11.6860342"><ele>188.0</ele><time>2026-04-06T15:02:18.568Z</time></trkpt><trkpt lat="45.7790202" lon="11.6861809"><ele>188.0</ele><time>2026-04-06T15:02:19.572Z</time></trkpt><trkpt lat="45.7790671" lon="11.6863206"><ele>188.0</ele><time>2026-04-06T15:02:20.569Z</time></trkpt><trkpt lat="45.7791198" lon="11.6864675"><ele>188.0</ele><time>2026-04-06T15:02:21.564Z</time></trkpt><trkpt lat="45.7791765" lon="11.6866327"><ele>183.66666666666666</ele><time>2026-04-06T15:02:22.577Z</time></trkpt><trkpt lat="45.7792235" lon="11.686835"><ele>179.33333333333334</ele><time>2026-04-06T15:02:23.568Z</time></trkpt><trkpt lat="45.7792459" lon="11.6870922"><ele>175.0</ele><time>2026-04-06T15:02:24.561Z</time></trkpt><trkpt lat="45.7792407" lon="11.6873382"><ele>172.0</ele><time>2026-04-06T15:02:25.57Z</time></trkpt><trkpt lat="45.7792107" lon="11.6875559"><ele>169.0</ele><time>2026-04-06T15:02:26.57Z</time></trkpt><trkpt lat="45.7791798" lon="11.6877539"><ele>166.0</ele><time>2026-04-06T15:02:27.554Z</time></trkpt><trkpt lat="45.7791641" lon="11.6879397"><ele>163.0</ele><time>2026-04-06T15:02:28.565Z</time></trkpt><trkpt lat="45.7791541" lon="11.6881251"><ele>162.25</ele><time>2026-04-06T15:02:29.587Z</time></trkpt><trkpt lat="45.7791246" lon="11.6883119"><ele>161.5</ele><time>2026-04-06T15:02:30.563Z</time></trkpt><trkpt lat="45.7791094" lon="11.6884917"><ele>160.75</ele><time>2026-04-06T15:02:31.571Z</time></trkpt><trkpt lat="45.7790992" lon="11.6886909"><ele>160.0</ele><time>2026-04-06T15:02:32.558Z</time></trkpt><trkpt lat="45.7790878" lon="11.6888815"><ele>158.5</ele><time>2026-04-06T15:02:33.567Z</time></trkpt><trkpt lat="45.7790954" lon="11.689035"><ele>157.0</ele><time>2026-04-06T15:02:34.57Z</time></trkpt><trkpt lat="45.7791026" lon="11.6892051"><ele>155.5</ele><time>2026-04-06T15:02:35.566Z</time></trkpt><trkpt lat="45.7791309" lon="11.6893993"><ele>154.0</ele><time>2026-04-06T15:02:36.572Z</time></trkpt><trkpt lat="45.7791775" lon="11.6895975"><ele>154.0</ele><time>2026-04-06T15:02:37.56Z</time></trkpt><trkpt lat="45.7792351" lon="11.6897653"><ele>154.0</ele><time>2026-04-06T15:02:38.561Z</time></trkpt><trkpt lat="45.7792577" lon="11.6899762"><ele>154.0</ele><time>2026-04-06T15:02:39.561Z</time></trkpt><trkpt lat="45.7792727" lon="11.6901976"><ele>154.0</ele><time>2026-04-06T15:02:40.556Z</time></trkpt><trkpt lat="45.7792888" lon="11.6903949"><ele>153.0</ele><time>2026-04-06T15:02:41.56Z</time></trkpt><trkpt lat="45.7792779" lon="11.6905759"><ele>152.0</ele><time>2026-04-06T15:02:42.583Z</time></trkpt><trkpt lat="45.7792157" lon="11.690723"><ele>151.0</ele><time>2026-04-06T15:02:43.595Z</time></trkpt><trkpt lat="45.7791143" lon="11.6908483"><ele>150.0</ele><time>2026-04-06T15:02:44.577Z</time></trkpt><trkpt lat="45.7790272" lon="11.6909591"><ele>150.0</ele><time>2026-04-06T15:02:45.561Z</time></trkpt><trkpt lat="45.778954" lon="11.6910927"><ele>150.0</ele><time>2026-04-06T15:02:46.562Z</time></trkpt><trkpt lat="45.7788958" lon="11.6912165"><ele>150.0</ele><time>2026-04-06T15:02:47.566Z</time></trkpt><trkpt lat="45.7788542" lon="11.6913574"><ele>150.0</ele><time>2026-04-06T15:02:48.567Z</time></trkpt><trkpt lat="45.7787926" lon="11.6914941"><ele>150.0</ele><time>2026-04-06T15:02:49.56Z</time></trkpt><trkpt lat="45.7787342" lon="11.6916191"><ele>150.0</ele><time>2026-04-06T15:02:50.559Z</time></trkpt><trkpt lat="45.7786726" lon="11.6917352"><ele>150.0</ele><time>2026-04-06T15:02:51.561Z</time></trkpt><trkpt lat="45.7786007" lon="11.6918352"><ele>150.0</ele><time>2026-04-06T15:02:52.557Z</time></trkpt><trkpt lat="45.7785066" lon="11.6919032"><ele>150.0</ele><time>2026-04-06T15:02:53.586Z</time></trkpt><trkpt lat="45.778401" lon="11.6919459"><ele>150.0</ele><time>2026-04-06T15:02:54.583Z</time></trkpt><trkpt lat="45.7782797" lon="11.6919485"><ele>149.2</ele><time>2026-04-06T15:02:55.584Z</time></trkpt><trkpt lat="45.7781688" lon="11.6919316"><ele>148.4</ele><time>2026-04-06T15:02:56.567Z</time></trkpt><trkpt lat="45.7780722" lon="11.6919023"><ele>147.6</ele><time>2026-04-06T15:02:57.571Z</time></trkpt><trkpt lat="45.7779638" lon="11.6918805"><ele>146.8</ele><time>2026-04-06T15:02:58.572Z</time></trkpt><trkpt lat="45.7778364" lon="11.6918814"><ele>146.0</ele><time>2026-04-06T15:02:59.57Z</time></trkpt><trkpt lat="45.7777201" lon="11.6918884"><ele>145.25</ele><time>2026-04-06T15:03:00.562Z</time></trkpt><trkpt lat="45.777605" lon="11.6918919"><ele>144.5</ele><time>2026-04-06T15:03:01.57Z</time></trkpt><trkpt lat="45.7774789" lon="11.6918958"><ele>143.75</ele><time>2026-04-06T15:03:02.574Z</time></trkpt><trkpt lat="45.777328" lon="11.6918964"><ele>143.0</ele><time>2026-04-06T15:03:03.566Z</time></trkpt><trkpt lat="45.7771565" lon="11.6918998"><ele>143.0</ele><time>2026-04-06T15:03:04.565Z</time></trkpt><trkpt lat="45.7769664" lon="11.6918924"><ele>143.0</ele><time>2026-04-06T15:03:05.565Z</time></trkpt><trkpt lat="45.7767533" lon="11.6918832"><ele>143.0</ele><time>2026-04-06T15:03:06.574Z</time></trkpt><trkpt lat="45.7765433" lon="11.691875"><ele>142.0</ele><time>2026-04-06T15:03:07.555Z</time></trkpt><trkpt lat="45.7763244" lon="11.6918489"><ele>141.0</ele><time>2026-04-06T15:03:08.567Z</time></trkpt><trkpt lat="45.7761371" lon="11.6918256"><ele>140.0</ele><time>2026-04-06T15:03:09.564Z</time></trkpt><trkpt lat="45.7759354" lon="11.6918212"><ele>139.33333333333331</ele><time>2026-04-06T15:03:10.561Z</time></trkpt><trkpt lat="45.7757588" lon="11.6918228"><ele>138.66666666666666</ele><time>2026-04-06T15:03:11.576Z</time></trkpt><trkpt lat="45.7755888" lon="11.691831"><ele>138.0</ele><time>2026-04-06T15:03:12.572Z</time></trkpt><trkpt lat="45.7754343" lon="11.691831"><ele>138.0</ele><time>2026-04-06T15:03:13.558Z</time></trkpt><trkpt lat="45.7752761" lon="11.6918539"><ele>138.0</ele><time>2026-04-06T15:03:14.572Z</time></trkpt><trkpt lat="45.7751341" lon="11.6918749"><ele>138.0</ele><time>2026-04-06T15:03:15.572Z</time></trkpt><trkpt lat="45.774972" lon="11.6919205"><ele>140.0</ele><time>2026-04-06T15:03:16.592Z</time></trkpt><trkpt lat="45.7748073" lon="11.6920049"><ele>142.0</ele><time>2026-04-06T15:03:17.565Z</time></trkpt><trkpt lat="45.7746144" lon="11.6920976"><ele>144.0</ele><time>2026-04-06T15:03:18.569Z</time></trkpt><trkpt lat="45.7744376" lon="11.6921988"><ele>140.66666666666666</ele><time>2026-04-06T15:03:19.571Z</time></trkpt><trkpt lat="45.7742787" lon="11.6922682"><ele>137.33333333333331</ele><time>2026-04-06T15:03:20.568Z</time></trkpt><trkpt lat="45.7741216" lon="11.6923386"><ele>134.0</ele><time>2026-04-06T15:03:21.587Z</time></trkpt><trkpt lat="45.7739818" lon="11.6924163"><ele>134.0</ele><time>2026-04-06T15:03:22.568Z</time></trkpt><trkpt lat="45.7738514" lon="11.6924969"><ele>134.0</ele><time>2026-04-06T15:03:23.563Z</time></trkpt><trkpt lat="45.7737174" lon="11.6925684"><ele>134.0</ele><time>2026-04-06T15:03:24.57Z</time></trkpt><trkpt lat="45.7735842" lon="11.6926458"><ele>134.0</ele><time>2026-04-06T15:03:25.57Z</time></trkpt><trkpt lat="45.7734485" lon="11.6927259"><ele>133.33333333333331</ele><time>2026-04-06T15:03:26.578Z</time></trkpt><trkpt lat="45.7733036" lon="11.6928125"><ele>132.66666666666666</ele><time>2026-04-06T15:03:27.566Z</time></trkpt><trkpt lat="45.7731724" lon="11.6929426"><ele>132.0</ele><time>2026-04-06T15:03:28.563Z</time></trkpt><trkpt lat="45.7730118" lon="11.6930998"><ele>132.0</ele><time>2026-04-06T15:03:29.562Z</time></trkpt><trkpt lat="45.7728425" lon="11.6932624"><ele>132.0</ele><time>2026-04-06T15:03:30.564Z</time></trkpt><trkpt lat="45.7726779" lon="11.6934563"><ele>132.0</ele><time>2026-04-06T15:03:31.566Z</time></trkpt><trkpt lat="45.7725429" lon="11.6936478"><ele>130.66666666666666</ele><time>2026-04-06T15:03:32.559Z</time></trkpt><trkpt lat="45.7724031" lon="11.6938308"><ele>129.33333333333331</ele><time>2026-04-06T15:03:33.559Z</time></trkpt><trkpt lat="45.7722518" lon="11.6940136"><ele>128.0</ele><time>2026-04-06T15:03:34.573Z</time></trkpt><trkpt lat="45.7720981" lon="11.6942007"><ele>128.0</ele><time>2026-04-06T15:03:35.571Z</time></trkpt><trkpt lat="45.7719403" lon="11.6944159"><ele>128.0</ele><time>2026-04-06T15:03:36.567Z</time></trkpt><trkpt lat="45.7717638" lon="11.6946745"><ele>125.5</ele><time>2026-04-06T15:03:37.564Z</time></trkpt><trkpt lat="45.7715733" lon="11.6948882"><ele>123.0</ele><time>2026-04-06T15:03:38.57Z</time></trkpt><trkpt lat="45.7714009" lon="11.6951026"><ele>122.66666666666666</ele><time>2026-04-06T15:03:39.561Z</time></trkpt><trkpt lat="45.7712392" lon="11.6952808"><ele>122.33333333333333</ele><time>2026-04-06T15:03:40.561Z</time></trkpt><trkpt lat="45.7710689" lon="11.6954752"><ele>122.0</ele><time>2026-04-06T15:03:41.591Z</time></trkpt><trkpt lat="45.7709141" lon="11.6956687"><ele>123.0</ele><time>2026-04-06T15:03:42.564Z</time></trkpt><trkpt lat="45.7707466" lon="11.6958801"><ele>124.0</ele><time>2026-04-06T15:03:43.565Z</time></trkpt><trkpt lat="45.770579" lon="11.6960918"><ele>125.0</ele><time>2026-04-06T15:03:44.572Z</time></trkpt><trkpt lat="45.7704247" lon="11.6962893"><ele>125.0</ele><time>2026-04-06T15:03:45.593Z</time></trkpt><trkpt lat="45.7703138" lon="11.696501"><ele>125.0</ele><time>2026-04-06T15:03:46.566Z</time></trkpt><trkpt lat="45.7702187" lon="11.6967292"><ele>125.0</ele><time>2026-04-06T15:03:47.567Z</time></trkpt><trkpt lat="45.7701202" lon="11.6969837"><ele>125.0</ele><time>2026-04-06T15:03:48.565Z</time></trkpt><trkpt lat="45.7700285" lon="11.6972318"><ele>125.0</ele><time>2026-04-06T15:03:49.569Z</time></trkpt><trkpt lat="45.7699497" lon="11.697462"><ele>125.0</ele><time>2026-04-06T15:03:50.563Z</time></trkpt><trkpt lat="45.7699287" lon="11.6976907"><ele>126.33333333333333</ele><time>2026-04-06T15:03:51.568Z</time></trkpt><trkpt lat="45.7698778" lon="11.6979186"><ele>127.66666666666666</ele><time>2026-04-06T15:03:52.571Z</time></trkpt><trkpt lat="45.7698812" lon="11.6981832"><ele>129.0</ele><time>2026-04-06T15:03:53.566Z</time></trkpt><trkpt lat="45.7698959" lon="11.6984611"><ele>129.66666666666666</ele><time>2026-04-06T15:03:54.563Z</time></trkpt><trkpt lat="45.7699403" lon="11.6987445"><ele>130.33333333333331</ele><time>2026-04-06T15:03:55.564Z</time></trkpt><trkpt lat="45.7700056" lon="11.6990462"><ele>131.0</ele><time>2026-04-06T15:03:56.573Z</time></trkpt><trkpt lat="45.7700783" lon="11.6993608"><ele>129.33333333333331</ele><time>2026-04-06T15:03:57.574Z</time></trkpt><trkpt lat="45.7701404" lon="11.6996541"><ele>127.66666666666666</ele><time>2026-04-06T15:03:58.569Z</time></trkpt><trkpt lat="45.7702057" lon="11.699948"><ele>126.0</ele><time>2026-04-06T15:03:59.575Z</time></trkpt><trkpt lat="45.770256" lon="11.7002424"><ele>133.0</ele><time>2026-04-06T15:04:00.571Z</time></trkpt><trkpt lat="45.7702974" lon="11.7005263"><ele>140.0</ele><time>2026-04-06T15:04:01.57Z</time></trkpt><trkpt lat="45.7703358" lon="11.7007611"><ele>147.0</ele><time>2026-04-06T15:04:02.57Z</time></trkpt><trkpt lat="45.770379" lon="11.7009892"><ele>144.0</ele><time>2026-04-06T15:04:03.567Z</time></trkpt><trkpt lat="45.7704267" lon="11.7011828"><ele>141.0</ele><time>2026-04-06T15:04:04.558Z</time></trkpt><trkpt lat="45.7704786" lon="11.7013623"><ele>138.0</ele><time>2026-04-06T15:04:05.568Z</time></trkpt><trkpt lat="45.7705176" lon="11.7015606"><ele>135.0</ele><time>2026-04-06T15:04:06.567Z</time></trkpt><trkpt lat="45.7705474" lon="11.7017564"><ele>133.5</ele><time>2026-04-06T15:04:07.565Z</time></trkpt><trkpt lat="45.7705781" lon="11.701923"><ele>132.0</ele><time>2026-04-06T15:04:08.575Z</time></trkpt><trkpt lat="45.7705992" lon="11.7020844"><ele>130.5</ele><time>2026-04-06T15:04:09.572Z</time></trkpt><trkpt lat="45.7706252" lon="11.7023011"><ele>129.0</ele><time>2026-04-06T15:04:10.561Z</time></trkpt><trkpt lat="45.7706916" lon="11.7025556"><ele>128.66666666666666</ele><time>2026-04-06T15:04:11.566Z</time></trkpt><trkpt lat="45.7707462" lon="11.7028236"><ele>128.33333333333331</ele><time>2026-04-06T15:04:12.567Z</time></trkpt><trkpt lat="45.7707983" lon="11.7030929"><ele>128.0</ele><time>2026-04-06T15:04:13.565Z</time></trkpt><trkpt lat="45.7708322" lon="11.7033393"><ele>128.0</ele><time>2026-04-06T15:04:14.573Z</time></trkpt><trkpt lat="45.7708687" lon="11.7035723"><ele>128.0</ele><time>2026-04-06T15:04:15.572Z</time></trkpt><trkpt lat="45.7709017" lon="11.7037921"><ele>128.0</ele><time>2026-04-06T15:04:16.564Z</time></trkpt><trkpt lat="45.7709462" lon="11.7040048"><ele>128.0</ele><time>2026-04-06T15:04:17.572Z</time></trkpt><trkpt lat="45.7709774" lon="11.7041726"><ele>128.0</ele><time>2026-04-06T15:04:18.574Z</time></trkpt><trkpt lat="45.7710099" lon="11.7043349"><ele>128.0</ele><time>2026-04-06T15:04:19.57Z</time></trkpt><trkpt lat="45.77104" lon="11.7044885"><ele>128.0</ele><time>2026-04-06T15:04:20.57Z</time></trkpt><trkpt lat="45.7710702" lon="11.7046474"><ele>128.0</ele><time>2026-04-06T15:04:21.571Z</time></trkpt><trkpt lat="45.771094" lon="11.7048035"><ele>128.0</ele><time>2026-04-06T15:04:22.567Z</time></trkpt><trkpt lat="45.7711211" lon="11.7049691"><ele>128.0</ele><time>2026-04-06T15:04:23.597Z</time></trkpt><trkpt lat="45.771133" lon="11.705133"><ele>128.0</ele><time>2026-04-06T15:04:24.573Z</time></trkpt><trkpt lat="45.7711325" lon="11.7052997"><ele>127.25</ele><time>2026-04-06T15:04:25.571Z</time></trkpt><trkpt lat="45.7711253" lon="11.705459"><ele>126.5</ele><time>2026-04-06T15:04:26.573Z</time></trkpt><trkpt lat="45.7711125" lon="11.7056194"><ele>125.75</ele><time>2026-04-06T15:04:27.572Z</time></trkpt><trkpt lat="45.7710915" lon="11.7057841"><ele>125.0</ele><time>2026-04-06T15:04:28.575Z</time></trkpt><trkpt lat="45.7710627" lon="11.7059595"><ele>125.0</ele><time>2026-04-06T15:04:29.6Z</time></trkpt><trkpt lat="45.7710178" lon="11.7061489"><ele>125.0</ele><time>2026-04-06T15:04:30.589Z</time></trkpt><trkpt lat="45.7709345" lon="11.7063998"><ele>125.0</ele><time>2026-04-06T15:04:31.575Z</time></trkpt><trkpt lat="45.7708756" lon="11.7067086"><ele>124.33333333333333</ele><time>2026-04-06T15:04:32.563Z</time></trkpt><trkpt lat="45.7708063" lon="11.7069479"><ele>123.66666666666666</ele><time>2026-04-06T15:04:33.565Z</time></trkpt><trkpt lat="45.7707112" lon="11.7071692"><ele>123.0</ele><time>2026-04-06T15:04:34.569Z</time></trkpt><trkpt lat="45.7706292" lon="11.7073776"><ele>123.0</ele><time>2026-04-06T15:04:35.573Z</time></trkpt><trkpt lat="45.7705853" lon="11.707606"><ele>123.0</ele><time>2026-04-06T15:04:36.567Z</time></trkpt><trkpt lat="45.7705202" lon="11.7078202"><ele>123.0</ele><time>2026-04-06T15:04:37.573Z</time></trkpt><trkpt lat="45.7704608" lon="11.7080277"><ele>123.33333333333334</ele><time>2026-04-06T15:04:38.571Z</time></trkpt><trkpt lat="45.7704125" lon="11.7082395"><ele>123.66666666666667</ele><time>2026-04-06T15:04:39.582Z</time></trkpt><trkpt lat="45.770362" lon="11.7084424"><ele>124.0</ele><time>2026-04-06T15:04:40.574Z</time></trkpt><trkpt lat="45.7703146" lon="11.7086407"><ele>124.25</ele><time>2026-04-06T15:04:41.58Z</time></trkpt><trkpt lat="45.7702659" lon="11.7088332"><ele>124.5</ele><time>2026-04-06T15:04:42.567Z</time></trkpt><trkpt lat="45.7702146" lon="11.7090415"><ele>124.75</ele><time>2026-04-06T15:04:43.576Z</time></trkpt><trkpt lat="45.7701581" lon="11.7092377"><ele>125.0</ele><time>2026-04-06T15:04:44.566Z</time></trkpt><trkpt lat="45.7700987" lon="11.709437"><ele>125.0</ele><time>2026-04-06T15:04:45.565Z</time></trkpt><trkpt lat="45.7700484" lon="11.7096529"><ele>125.0</ele><time>2026-04-06T15:04:46.567Z</time></trkpt><trkpt lat="45.7700077" lon="11.7098713"><ele>125.0</ele><time>2026-04-06T15:04:47.568Z</time></trkpt><trkpt lat="45.7699668" lon="11.7100728"><ele>125.25</ele><time>2026-04-06T15:04:48.566Z</time></trkpt><trkpt lat="45.7699208" lon="11.7102784"><ele>125.5</ele><time>2026-04-06T15:04:49.593Z</time></trkpt><trkpt lat="45.7698796" lon="11.7104581"><ele>125.75</ele><time>2026-04-06T15:04:50.572Z</time></trkpt><trkpt lat="45.7698387" lon="11.7106224"><ele>126.0</ele><time>2026-04-06T15:04:51.568Z</time></trkpt><trkpt lat="45.769805" lon="11.710815"><ele>126.0</ele><time>2026-04-06T15:04:52.577Z</time></trkpt><trkpt lat="45.7697745" lon="11.7110089"><ele>126.0</ele><time>2026-04-06T15:04:53.581Z</time></trkpt><trkpt lat="45.7697582" lon="11.7112071"><ele>126.0</ele><time>2026-04-06T15:04:54.595Z</time></trkpt><trkpt lat="45.7697297" lon="11.7114107"><ele>126.0</ele><time>2026-04-06T15:04:55.604Z</time></trkpt><trkpt lat="45.7697018" lon="11.7116406"><ele>126.33333333333334</ele><time>2026-04-06T15:04:56.577Z</time></trkpt><trkpt lat="45.7696433" lon="11.7119194"><ele>126.66666666666667</ele><time>2026-04-06T15:04:57.606Z</time></trkpt><trkpt lat="45.7695891" lon="11.7121936"><ele>127.0</ele><time>2026-04-06T15:04:58.606Z</time></trkpt><trkpt lat="45.7695456" lon="11.7124861"><ele>127.33333333333334</ele><time>2026-04-06T15:04:59.598Z</time></trkpt><trkpt lat="45.7694897" lon="11.7127917"><ele>127.66666666666666</ele><time>2026-04-06T15:05:00.579Z</time></trkpt><trkpt lat="45.7694383" lon="11.7130834"><ele>128.0</ele><time>2026-04-06T15:05:01.579Z</time></trkpt><trkpt lat="45.7694011" lon="11.713343"><ele>128.33333333333331</ele><time>2026-04-06T15:05:02.568Z</time></trkpt><trkpt lat="45.7693586" lon="11.7135882"><ele>128.66666666666666</ele><time>2026-04-06T15:05:03.575Z</time></trkpt><trkpt lat="45.7693176" lon="11.7138159"><ele>129.0</ele><time>2026-04-06T15:05:04.575Z</time></trkpt><trkpt lat="45.7692765" lon="11.7140339"><ele>129.0</ele><time>2026-04-06T15:05:05.573Z</time></trkpt><trkpt lat="45.7692361" lon="11.7142659"><ele>129.0</ele><time>2026-04-06T15:05:06.566Z</time></trkpt><trkpt lat="45.7692011" lon="11.7144738"><ele>129.0</ele><time>2026-04-06T15:05:07.597Z</time></trkpt><trkpt lat="45.7691721" lon="11.7146685"><ele>128.83333333333334</ele><time>2026-04-06T15:05:08.571Z</time></trkpt><trkpt lat="45.7691367" lon="11.7148244"><ele>128.66666666666666</ele><time>2026-04-06T15:05:09.597Z</time></trkpt><trkpt lat="45.7690873" lon="11.7149599"><ele>128.5</ele><time>2026-04-06T15:05:10.593Z</time></trkpt><trkpt lat="45.7690343" lon="11.7150287"><ele>128.33333333333331</ele><time>2026-04-06T15:05:11.579Z</time></trkpt><trkpt lat="45.7689722" lon="11.7150583"><ele>128.16666666666666</ele><time>2026-04-06T15:05:12.567Z</time></trkpt><trkpt lat="45.7688926" lon="11.7150994"><ele>128.0</ele><time>2026-04-06T15:05:13.573Z</time></trkpt><trkpt lat="45.7688084" lon="11.7151414"><ele>128.0</ele><time>2026-04-06T15:05:14.567Z</time></trkpt><trkpt lat="45.7687104" lon="11.7151309"><ele>128.0</ele><time>2026-04-06T15:05:15.579Z</time></trkpt><trkpt lat="45.7685894" lon="11.715092"><ele>128.0</ele><time>2026-04-06T15:05:16.59Z</time></trkpt><trkpt lat="45.7684598" lon="11.7150109"><ele>128.0</ele><time>2026-04-06T15:05:17.573Z</time></trkpt><trkpt lat="45.7683075" lon="11.7149152"><ele>128.0</ele><time>2026-04-06T15:05:18.572Z</time></trkpt><trkpt lat="45.7681077" lon="11.7147963"><ele>128.0</ele><time>2026-04-06T15:05:19.58Z</time></trkpt><trkpt lat="45.7679105" lon="11.7146792"><ele>128.0</ele><time>2026-04-06T15:05:20.566Z</time></trkpt><trkpt lat="45.7677438" lon="11.7145409"><ele>127.66666666666666</ele><time>2026-04-06T15:05:21.573Z</time></trkpt><trkpt lat="45.7675955" lon="11.7144181"><ele>127.33333333333334</ele><time>2026-04-06T15:05:22.577Z</time></trkpt><trkpt lat="45.7674569" lon="11.7142899"><ele>127.0</ele><time>2026-04-06T15:05:23.571Z</time></trkpt><trkpt lat="45.7673208" lon="11.7141837"><ele>126.33333333333334</ele><time>2026-04-06T15:05:24.575Z</time></trkpt><trkpt lat="45.7671698" lon="11.7140796"><ele>125.66666666666666</ele><time>2026-04-06T15:05:25.582Z</time></trkpt><trkpt lat="45.767031" lon="11.7139853"><ele>125.0</ele><time>2026-04-06T15:05:26.58Z</time></trkpt><trkpt lat="45.7668911" lon="11.7139035"><ele>124.0</ele><time>2026-04-06T15:05:27.579Z</time></trkpt><trkpt lat="45.7667607" lon="11.7137999"><ele>123.0</ele><time>2026-04-06T15:05:28.58Z</time></trkpt><trkpt lat="45.7665954" lon="11.7136821"><ele>122.0</ele><time>2026-04-06T15:05:29.581Z</time></trkpt><trkpt lat="45.7664125" lon="11.7135485"><ele>122.0</ele><time>2026-04-06T15:05:30.586Z</time></trkpt><trkpt lat="45.766239" lon="11.7134168"><ele>122.0</ele><time>2026-04-06T15:05:31.583Z</time></trkpt><trkpt lat="45.7660767" lon="11.7132887"><ele>122.0</ele><time>2026-04-06T15:05:32.582Z</time></trkpt><trkpt lat="45.7659199" lon="11.7131828"><ele>121.25</ele><time>2026-04-06T15:05:33.583Z</time></trkpt><trkpt lat="45.7657676" lon="11.7130799"><ele>120.5</ele><time>2026-04-06T15:05:34.582Z</time></trkpt><trkpt lat="45.7656416" lon="11.7129763"><ele>119.75</ele><time>2026-04-06T15:05:35.583Z</time></trkpt><trkpt lat="45.7655326" lon="11.7128877"><ele>119.0</ele><time>2026-04-06T15:05:36.577Z</time></trkpt><trkpt lat="45.7654205" lon="11.712795"><ele>119.0</ele><time>2026-04-06T15:05:37.574Z</time></trkpt><trkpt lat="45.7653063" lon="11.7127222"><ele>119.0</ele><time>2026-04-06T15:05:38.579Z</time></trkpt><trkpt lat="45.765187" lon="11.7126728"><ele>119.0</ele><time>2026-04-06T15:05:39.574Z</time></trkpt><trkpt lat="45.7650587" lon="11.7126384"><ele>119.0</ele><time>2026-04-06T15:05:40.581Z</time></trkpt><trkpt lat="45.7649431" lon="11.7126388"><ele>119.25</ele><time>2026-04-06T15:05:41.584Z</time></trkpt><trkpt lat="45.7648221" lon="11.7126576"><ele>119.5</ele><time>2026-04-06T15:05:42.573Z</time></trkpt><trkpt lat="45.7646969" lon="11.7127026"><ele>119.75</ele><time>2026-04-06T15:05:43.578Z</time></trkpt><trkpt lat="45.7645609" lon="11.7127665"><ele>120.0</ele><time>2026-04-06T15:05:44.573Z</time></trkpt><trkpt lat="45.7644146" lon="11.7128791"><ele>118.8</ele><time>2026-04-06T15:05:45.575Z</time></trkpt><trkpt lat="45.7642978" lon="11.7130027"><ele>117.6</ele><time>2026-04-06T15:05:46.593Z</time></trkpt><trkpt lat="45.7641917" lon="11.7130888"><ele>116.4</ele><time>2026-04-06T15:05:47.581Z</time></trkpt><trkpt lat="45.7641111" lon="11.7131618"><ele>115.2</ele><time>2026-04-06T15:05:48.58Z</time></trkpt><trkpt lat="45.7640387" lon="11.7132225"><ele>114.0</ele><time>2026-04-06T15:05:49.571Z</time></trkpt><trkpt lat="45.7639655" lon="11.7132566"><ele>114.0</ele><time>2026-04-06T15:05:50.6Z</time></trkpt><trkpt lat="45.7638837" lon="11.7133063"><ele>114.0</ele><time>2026-04-06T15:05:51.598Z</time></trkpt><trkpt lat="45.7637995" lon="11.7133618"><ele>114.0</ele><time>2026-04-06T15:05:52.583Z</time></trkpt><trkpt lat="45.763727" lon="11.7134171"><ele>114.0</ele><time>2026-04-06T15:05:53.572Z</time></trkpt><trkpt lat="45.7636615" lon="11.7134683"><ele>114.0</ele><time>2026-04-06T15:05:54.572Z</time></trkpt><trkpt lat="45.7635956" lon="11.7135249"><ele>114.0</ele><time>2026-04-06T15:05:55.575Z</time></trkpt><trkpt lat="45.7635285" lon="11.7135861"><ele>113.66666666666667</ele><time>2026-04-06T15:05:56.572Z</time></trkpt><trkpt lat="45.7634687" lon="11.7136381"><ele>113.33333333333334</ele><time>2026-04-06T15:05:57.567Z</time></trkpt><trkpt lat="45.7634082" lon="11.7136852"><ele>113.0</ele><time>2026-04-06T15:05:58.582Z</time></trkpt><trkpt lat="45.7633397" lon="11.7137308"><ele>112.66666666666667</ele><time>2026-04-06T15:05:59.581Z</time></trkpt><trkpt lat="45.7632805" lon="11.7137669"><ele>112.33333333333334</ele><time>2026-04-06T15:06:00.594Z</time></trkpt><trkpt lat="45.7631812" lon="11.7138159"><ele>112.0</ele><time>2026-04-06T15:06:02.577Z</time></trkpt><trkpt lat="45.7631119" lon="11.7138331"><ele>112.00000000000001</ele><time>2026-04-06T15:06:04.569Z</time></trkpt><trkpt lat="45.7630464" lon="11.7138455"><ele>112.0</ele><time>2026-04-06T15:06:07.596Z</time></trkpt><trkpt lat="45.7629537" lon="11.7138252"><ele>112.0</ele><time>2026-04-06T15:06:10.579Z</time></trkpt><trkpt lat="45.7628729" lon="11.7138097"><ele>112.0</ele><time>2026-04-06T15:06:11.585Z</time></trkpt><trkpt lat="45.7628061" lon="11.7138327"><ele>112.00000000000001</ele><time>2026-04-06T15:06:12.576Z</time></trkpt><trkpt lat="45.7627728" lon="11.7139151"><ele>112.0</ele><time>2026-04-06T15:06:13.571Z</time></trkpt><trkpt lat="45.7627512" lon="11.7140214"><ele>112.0</ele><time>2026-04-06T15:06:14.574Z</time></trkpt><trkpt lat="45.7627647" lon="11.7141326"><ele>111.99999999999999</ele><time>2026-04-06T15:06:15.578Z</time></trkpt><trkpt lat="45.7628165" lon="11.714217"><ele>111.99999999999999</ele><time>2026-04-06T15:06:16.583Z</time></trkpt><trkpt lat="45.7628909" lon="11.7142739"><ele>112.0</ele><time>2026-04-06T15:06:17.579Z</time></trkpt><trkpt lat="45.7629831" lon="11.7143445"><ele>112.0</ele><time>2026-04-06T15:06:18.599Z</time></trkpt><trkpt lat="45.763071" lon="11.7144585"><ele>112.0</ele><time>2026-04-06T15:06:19.582Z</time></trkpt><trkpt lat="45.763153" lon="11.714609"><ele>112.0</ele><time>2026-04-06T15:06:20.579Z</time></trkpt><trkpt lat="45.7632264" lon="11.7147807"><ele>112.0</ele><time>2026-04-06T15:06:21.6Z</time></trkpt><trkpt lat="45.7633102" lon="11.7149789"><ele>112.0</ele><time>2026-04-06T15:06:22.606Z</time></trkpt><trkpt lat="45.7634445" lon="11.7152534"><ele>111.66666666666667</ele><time>2026-04-06T15:06:23.582Z</time></trkpt><trkpt lat="45.7635603" lon="11.7154896"><ele>111.33333333333334</ele><time>2026-04-06T15:06:24.577Z</time></trkpt><trkpt lat="45.7636375" lon="11.7156935"><ele>111.0</ele><time>2026-04-06T15:06:25.579Z</time></trkpt><trkpt lat="45.7637147" lon="11.715893"><ele>110.66666666666666</ele><time>2026-04-06T15:06:26.577Z</time></trkpt><trkpt lat="45.7637943" lon="11.7160871"><ele>110.33333333333333</ele><time>2026-04-06T15:06:27.579Z</time></trkpt><trkpt lat="45.7638746" lon="11.7162695"><ele>110.0</ele><time>2026-04-06T15:06:28.581Z</time></trkpt><trkpt lat="45.7639562" lon="11.716438"><ele>110.0</ele><time>2026-04-06T15:06:29.577Z</time></trkpt><trkpt lat="45.7640353" lon="11.7165935"><ele>110.0</ele><time>2026-04-06T15:06:30.581Z</time></trkpt><trkpt lat="45.7641083" lon="11.7167516"><ele>110.0</ele><time>2026-04-06T15:06:31.576Z</time></trkpt><trkpt lat="45.7641971" lon="11.7169194"><ele>110.0</ele><time>2026-04-06T15:06:32.58Z</time></trkpt><trkpt lat="45.7642809" lon="11.7170812"><ele>110.25</ele><time>2026-04-06T15:06:33.587Z</time></trkpt><trkpt lat="45.7643636" lon="11.7172469"><ele>110.5</ele><time>2026-04-06T15:06:34.584Z</time></trkpt><trkpt lat="45.7644373" lon="11.7174233"><ele>110.75</ele><time>2026-04-06T15:06:35.585Z</time></trkpt><trkpt lat="45.7645135" lon="11.7176079"><ele>111.0</ele><time>2026-04-06T15:06:36.579Z</time></trkpt><trkpt lat="45.7645826" lon="11.717805"><ele>111.0</ele><time>2026-04-06T15:06:37.576Z</time></trkpt><trkpt lat="45.7646365" lon="11.718028"><ele>111.0</ele><time>2026-04-06T15:06:38.581Z</time></trkpt><trkpt lat="45.7646483" lon="11.718258"><ele>111.0</ele><time>2026-04-06T15:06:39.574Z</time></trkpt><trkpt lat="45.764664" lon="11.7184917"><ele>111.0</ele><time>2026-04-06T15:06:40.578Z</time></trkpt><trkpt lat="45.7647007" lon="11.7187502"><ele>111.0</ele><time>2026-04-06T15:06:41.585Z</time></trkpt><trkpt lat="45.7647267" lon="11.7190208"><ele>111.0</ele><time>2026-04-06T15:06:42.584Z</time></trkpt><trkpt lat="45.7647456" lon="11.7192871"><ele>111.33333333333334</ele><time>2026-04-06T15:06:43.58Z</time></trkpt><trkpt lat="45.7647602" lon="11.7195548"><ele>111.66666666666667</ele><time>2026-04-06T15:06:44.579Z</time></trkpt><trkpt lat="45.7647886" lon="11.7198376"><ele>112.0</ele><time>2026-04-06T15:06:45.583Z</time></trkpt><trkpt lat="45.7648194" lon="11.7201407"><ele>112.0</ele><time>2026-04-06T15:06:46.567Z</time></trkpt><trkpt lat="45.7648705" lon="11.7204592"><ele>112.0</ele><time>2026-04-06T15:06:47.584Z</time></trkpt><trkpt lat="45.764914" lon="11.7207662"><ele>112.0</ele><time>2026-04-06T15:06:48.578Z</time></trkpt><trkpt lat="45.7649507" lon="11.721037"><ele>112.33333333333334</ele><time>2026-04-06T15:06:49.579Z</time></trkpt><trkpt lat="45.7649861" lon="11.721297"><ele>112.66666666666666</ele><time>2026-04-06T15:06:50.58Z</time></trkpt><trkpt lat="45.7650303" lon="11.7215426"><ele>113.0</ele><time>2026-04-06T15:06:51.571Z</time></trkpt><trkpt lat="45.7650668" lon="11.721802"><ele>113.0</ele><time>2026-04-06T15:06:52.585Z</time></trkpt><trkpt lat="45.7651059" lon="11.7220866"><ele>113.0</ele><time>2026-04-06T15:06:53.582Z</time></trkpt><trkpt lat="45.7651351" lon="11.7223781"><ele>113.0</ele><time>2026-04-06T15:06:54.58Z</time></trkpt><trkpt lat="45.7651545" lon="11.7226763"><ele>113.0</ele><time>2026-04-06T15:06:55.575Z</time></trkpt><trkpt lat="45.7651897" lon="11.7229823"><ele>113.0</ele><time>2026-04-06T15:06:56.577Z</time></trkpt><trkpt lat="45.7652299" lon="11.72329"><ele>113.0</ele><time>2026-04-06T15:06:57.571Z</time></trkpt><trkpt lat="45.7652588" lon="11.7235948"><ele>113.0</ele><time>2026-04-06T15:06:58.58Z</time></trkpt><trkpt lat="45.7652792" lon="11.7238851"><ele>113.0</ele><time>2026-04-06T15:06:59.578Z</time></trkpt><trkpt lat="45.7653144" lon="11.7241747"><ele>113.0</ele><time>2026-04-06T15:07:00.563Z</time></trkpt><trkpt lat="45.7653535" lon="11.7244324"><ele>112.66666666666666</ele><time>2026-04-06T15:07:01.575Z</time></trkpt><trkpt lat="45.7653994" lon="11.7247"><ele>112.33333333333334</ele><time>2026-04-06T15:07:02.579Z</time></trkpt><trkpt lat="45.7654349" lon="11.7249572"><ele>112.0</ele><time>2026-04-06T15:07:03.574Z</time></trkpt><trkpt lat="45.7654632" lon="11.7252162"><ele>112.0</ele><time>2026-04-06T15:07:04.582Z</time></trkpt><trkpt lat="45.7654933" lon="11.7254711"><ele>112.0</ele><time>2026-04-06T15:07:05.576Z</time></trkpt><trkpt lat="45.7655236" lon="11.7257161"><ele>112.0</ele><time>2026-04-06T15:07:06.578Z</time></trkpt><trkpt lat="45.7655473" lon="11.7259477"><ele>112.5</ele><time>2026-04-06T15:07:07.571Z</time></trkpt><trkpt lat="45.7655758" lon="11.7261543"><ele>113.0</ele><time>2026-04-06T15:07:08.578Z</time></trkpt><trkpt lat="45.7656081" lon="11.7263504"><ele>113.5</ele><time>2026-04-06T15:07:09.584Z</time></trkpt><trkpt lat="45.7656467" lon="11.7265227"><ele>114.0</ele><time>2026-04-06T15:07:10.578Z</time></trkpt><trkpt lat="45.7656582" lon="11.7266807"><ele>114.0</ele><time>2026-04-06T15:07:11.585Z</time></trkpt><trkpt lat="45.7656624" lon="11.7268144"><ele>114.0</ele><time>2026-04-06T15:07:12.572Z</time></trkpt><trkpt lat="45.7656527" lon="11.7269088"><ele>114.0</ele><time>2026-04-06T15:07:13.573Z</time></trkpt><trkpt lat="45.7656496" lon="11.7270045"><ele>114.0</ele><time>2026-04-06T15:07:14.581Z</time></trkpt><trkpt lat="45.7656547" lon="11.7271442"><ele>114.0</ele><time>2026-04-06T15:07:16.571Z</time></trkpt><trkpt lat="45.7656556" lon="11.7273235"><ele>114.0</ele><time>2026-04-06T15:07:18.579Z</time></trkpt><trkpt lat="45.7656497" lon="11.7274267"><ele>114.0</ele><time>2026-04-06T15:07:19.587Z</time></trkpt><trkpt lat="45.7656223" lon="11.7275317"><ele>114.0</ele><time>2026-04-06T15:07:20.582Z</time></trkpt><trkpt lat="45.7655909" lon="11.7276257"><ele>114.0</ele><time>2026-04-06T15:07:21.573Z</time></trkpt><trkpt lat="45.7655544" lon="11.7277199"><ele>114.0</ele><time>2026-04-06T15:07:22.588Z</time></trkpt><trkpt lat="45.7655157" lon="11.7278284"><ele>114.0</ele><time>2026-04-06T15:07:23.585Z</time></trkpt><trkpt lat="45.7654708" lon="11.7279552"><ele>114.0</ele><time>2026-04-06T15:07:24.583Z</time></trkpt><trkpt lat="45.7654209" lon="11.7280962"><ele>114.0</ele><time>2026-04-06T15:07:25.586Z</time></trkpt><trkpt lat="45.7653627" lon="11.728228"><ele>114.0</ele><time>2026-04-06T15:07:26.579Z</time></trkpt><trkpt lat="45.7653098" lon="11.7283419"><ele>114.0</ele><time>2026-04-06T15:07:27.588Z</time></trkpt><trkpt lat="45.7652653" lon="11.7284303"><ele>114.0</ele><time>2026-04-06T15:07:28.59Z</time></trkpt><trkpt lat="45.7652334" lon="11.7285218"><ele>114.0</ele><time>2026-04-06T15:07:29.584Z</time></trkpt><trkpt lat="45.7651922" lon="11.7286152"><ele>114.0</ele><time>2026-04-06T15:07:30.581Z</time></trkpt><trkpt lat="45.7651556" lon="11.7286952"><ele>113.33333333333333</ele><time>2026-04-06T15:07:31.59Z</time></trkpt><trkpt lat="45.7651169" lon="11.7287707"><ele>112.66666666666666</ele><time>2026-04-06T15:07:32.58Z</time></trkpt><trkpt lat="45.7650705" lon="11.7288604"><ele>112.0</ele><time>2026-04-06T15:07:33.586Z</time></trkpt><trkpt lat="45.7650209" lon="11.7289662"><ele>111.33333333333333</ele><time>2026-04-06T15:07:34.581Z</time></trkpt><trkpt lat="45.7649705" lon="11.7290784"><ele>110.66666666666666</ele><time>2026-04-06T15:07:35.584Z</time></trkpt><trkpt lat="45.7649185" lon="11.7291922"><ele>110.0</ele><time>2026-04-06T15:07:36.583Z</time></trkpt><trkpt lat="45.7648687" lon="11.7293102"><ele>108.8</ele><time>2026-04-06T15:07:37.587Z</time></trkpt><trkpt lat="45.7648197" lon="11.7294391"><ele>107.6</ele><time>2026-04-06T15:07:38.581Z</time></trkpt><trkpt lat="45.7647672" lon="11.7295659"><ele>106.4</ele><time>2026-04-06T15:07:39.586Z</time></trkpt><trkpt lat="45.7647146" lon="11.7296912"><ele>105.2</ele><time>2026-04-06T15:07:40.584Z</time></trkpt><trkpt lat="45.7646615" lon="11.7298135"><ele>104.0</ele><time>2026-04-06T15:07:41.595Z</time></trkpt><trkpt lat="45.76461" lon="11.7299436"><ele>103.99999999999999</ele><time>2026-04-06T15:07:42.586Z</time></trkpt><trkpt lat="45.7645705" lon="11.730062"><ele>104.0</ele><time>2026-04-06T15:07:43.584Z</time></trkpt><trkpt lat="45.7645329" lon="11.7301613"><ele>104.0</ele><time>2026-04-06T15:07:44.59Z</time></trkpt><trkpt lat="45.7645014" lon="11.7302463"><ele>104.0</ele><time>2026-04-06T15:07:45.595Z</time></trkpt><trkpt lat="45.7644503" lon="11.7303895"><ele>103.99999999999999</ele><time>2026-04-06T15:07:47.593Z</time></trkpt><trkpt lat="45.7644157" lon="11.7304889"><ele>104.0</ele><time>2026-04-06T15:07:49.59Z</time></trkpt><trkpt lat="45.7643515" lon="11.7306223"><ele>105.6</ele><time>2026-04-06T15:07:51.578Z</time></trkpt><trkpt lat="45.7643036" lon="11.7307584"><ele>107.2</ele><time>2026-04-06T15:07:53.586Z</time></trkpt><trkpt lat="45.7642488" lon="11.7308623"><ele>108.79999999999998</ele><time>2026-04-06T15:07:55.587Z</time></trkpt><trkpt lat="45.7641946" lon="11.7309763"><ele>110.39999999999999</ele><time>2026-04-06T15:07:56.579Z</time></trkpt><trkpt lat="45.7641181" lon="11.7311142"><ele>112.0</ele><time>2026-04-06T15:07:57.58Z</time></trkpt><trkpt lat="45.7640406" lon="11.7312608"><ele>113.0</ele><time>2026-04-06T15:07:58.583Z</time></trkpt><trkpt lat="45.7639669" lon="11.7314061"><ele>114.0</ele><time>2026-04-06T15:07:59.586Z</time></trkpt><trkpt lat="45.7638943" lon="11.7315365"><ele>115.0</ele><time>2026-04-06T15:08:00.583Z</time></trkpt><trkpt lat="45.7638195" lon="11.7316528"><ele>116.0</ele><time>2026-04-06T15:08:01.583Z</time></trkpt><trkpt lat="45.7637376" lon="11.7317486"><ele>116.0</ele><time>2026-04-06T15:08:02.58Z</time></trkpt><trkpt lat="45.7636498" lon="11.7318131"><ele>116.0</ele><time>2026-04-06T15:08:03.578Z</time></trkpt><trkpt lat="45.7635542" lon="11.7318513"><ele>116.0</ele><time>2026-04-06T15:08:04.578Z</time></trkpt><trkpt lat="45.763429" lon="11.7318851"><ele>116.0</ele><time>2026-04-06T15:08:05.572Z</time></trkpt><trkpt lat="45.7632789" lon="11.7319132"><ele>116.33333333333333</ele><time>2026-04-06T15:08:06.572Z</time></trkpt><trkpt lat="45.7630779" lon="11.7319218"><ele>116.66666666666666</ele><time>2026-04-06T15:08:07.581Z</time></trkpt><trkpt lat="45.7628783" lon="11.7319249"><ele>117.0</ele><time>2026-04-06T15:08:08.573Z</time></trkpt><trkpt lat="45.762654" lon="11.7318976"><ele>115.5</ele><time>2026-04-06T15:08:09.587Z</time></trkpt><trkpt lat="45.7624185" lon="11.7318721"><ele>114.0</ele><time>2026-04-06T15:08:10.579Z</time></trkpt><trkpt lat="45.762191" lon="11.731861"><ele>114.0</ele><time>2026-04-06T15:08:11.588Z</time></trkpt><trkpt lat="45.7619817" lon="11.7318775"><ele>114.0</ele><time>2026-04-06T15:08:12.581Z</time></trkpt><trkpt lat="45.7617883" lon="11.7318835"><ele>114.0</ele><time>2026-04-06T15:08:13.582Z</time></trkpt><trkpt lat="45.7615967" lon="11.7318869"><ele>112.66666666666666</ele><time>2026-04-06T15:08:14.58Z</time></trkpt><trkpt lat="45.7614281" lon="11.7318792"><ele>111.33333333333333</ele><time>2026-04-06T15:08:15.583Z</time></trkpt><trkpt lat="45.7612633" lon="11.7318636"><ele>110.0</ele><time>2026-04-06T15:08:16.577Z</time></trkpt><trkpt lat="45.7611103" lon="11.7318641"><ele>110.0</ele><time>2026-04-06T15:08:17.586Z</time></trkpt><trkpt lat="45.7609791" lon="11.7318475"><ele>110.0</ele><time>2026-04-06T15:08:18.578Z</time></trkpt><trkpt lat="45.7608623" lon="11.7318352"><ele>110.0</ele><time>2026-04-06T15:08:19.584Z</time></trkpt><trkpt lat="45.7607463" lon="11.7318254"><ele>110.0</ele><time>2026-04-06T15:08:20.579Z</time></trkpt><trkpt lat="45.760641" lon="11.7318041"><ele>109.99999999999999</ele><time>2026-04-06T15:08:21.576Z</time></trkpt><trkpt lat="45.7605571" lon="11.7317726"><ele>110.0</ele><time>2026-04-06T15:08:22.586Z</time></trkpt><trkpt lat="45.7604849" lon="11.7317446"><ele>110.0</ele><time>2026-04-06T15:08:23.578Z</time></trkpt><trkpt lat="45.7604129" lon="11.7317365"><ele>110.0</ele><time>2026-04-06T15:08:24.571Z</time></trkpt><trkpt lat="45.7603293" lon="11.7318583"><ele>109.99999999999999</ele><time>2026-04-06T15:08:26.577Z</time></trkpt><trkpt lat="45.7603193" lon="11.7319493"><ele>110.0</ele><time>2026-04-06T15:08:27.577Z</time></trkpt><trkpt lat="45.7603575" lon="11.7320448"><ele>110.4</ele><time>2026-04-06T15:08:28.584Z</time></trkpt><trkpt lat="45.7604395" lon="11.7321246"><ele>110.8</ele><time>2026-04-06T15:08:29.583Z</time></trkpt><trkpt lat="45.760518" lon="11.7322183"><ele>111.19999999999999</ele><time>2026-04-06T15:08:30.583Z</time></trkpt><trkpt lat="45.7605635" lon="11.7323286"><ele>111.6</ele><time>2026-04-06T15:08:31.579Z</time></trkpt><trkpt lat="45.7605717" lon="11.7324708"><ele>112.0</ele><time>2026-04-06T15:08:32.573Z</time></trkpt><trkpt lat="45.7605594" lon="11.7326135"><ele>112.25</ele><time>2026-04-06T15:08:33.576Z</time></trkpt><trkpt lat="45.7605396" lon="11.7327611"><ele>112.5</ele><time>2026-04-06T15:08:34.577Z</time></trkpt><trkpt lat="45.7605103" lon="11.7329476"><ele>112.75</ele><time>2026-04-06T15:08:35.574Z</time></trkpt><trkpt lat="45.7604717" lon="11.7331139"><ele>113.0</ele><time>2026-04-06T15:08:36.575Z</time></trkpt><trkpt lat="45.7604414" lon="11.7332583"><ele>113.0</ele><time>2026-04-06T15:08:37.583Z</time></trkpt><trkpt lat="45.7604085" lon="11.733422"><ele>113.00000000000001</ele><time>2026-04-06T15:08:38.58Z</time></trkpt><trkpt lat="45.7603677" lon="11.7335752"><ele>113.00000000000001</ele><time>2026-04-06T15:08:39.579Z</time></trkpt><trkpt lat="45.7603055" lon="11.7337027"><ele>113.0</ele><time>2026-04-06T15:08:40.584Z</time></trkpt><trkpt lat="45.7602327" lon="11.7338129"><ele>113.0</ele><time>2026-04-06T15:08:41.576Z</time></trkpt><trkpt lat="45.7601658" lon="11.7339123"><ele>113.4</ele><time>2026-04-06T15:08:42.582Z</time></trkpt><trkpt lat="45.7601092" lon="11.734034"><ele>113.80000000000001</ele><time>2026-04-06T15:08:43.575Z</time></trkpt><trkpt lat="45.7600738" lon="11.7341667"><ele>114.2</ele><time>2026-04-06T15:08:44.582Z</time></trkpt><trkpt lat="45.760043" lon="11.7343031"><ele>114.6</ele><time>2026-04-06T15:08:45.577Z</time></trkpt><trkpt lat="45.7600124" lon="11.7344268"><ele>115.0</ele><time>2026-04-06T15:08:46.583Z</time></trkpt><trkpt lat="45.7599968" lon="11.7345472"><ele>115.16666666666667</ele><time>2026-04-06T15:08:47.576Z</time></trkpt><trkpt lat="45.76001" lon="11.7346539"><ele>115.33333333333334</ele><time>2026-04-06T15:08:48.581Z</time></trkpt><trkpt lat="45.760042" lon="11.7347479"><ele>115.5</ele><time>2026-04-06T15:08:49.587Z</time></trkpt><trkpt lat="45.76009" lon="11.7348334"><ele>115.66666666666666</ele><time>2026-04-06T15:08:51.589Z</time></trkpt><trkpt lat="45.7601518" lon="11.7349551"><ele>115.83333333333333</ele><time>2026-04-06T15:08:53.583Z</time></trkpt><trkpt lat="45.7602102" lon="11.7350759"><ele>116.0</ele><time>2026-04-06T15:08:54.589Z</time></trkpt><trkpt lat="45.7602728" lon="11.7351867"><ele>115.5</ele><time>2026-04-06T15:08:55.59Z</time></trkpt><trkpt lat="45.7603411" lon="11.7353215"><ele>115.0</ele><time>2026-04-06T15:08:56.58Z</time></trkpt><trkpt lat="45.7604183" lon="11.7354889"><ele>114.5</ele><time>2026-04-06T15:08:57.584Z</time></trkpt><trkpt lat="45.760498" lon="11.7356783"><ele>114.0</ele><time>2026-04-06T15:08:58.587Z</time></trkpt><trkpt lat="45.7605956" lon="11.7358891"><ele>114.0</ele><time>2026-04-06T15:08:59.586Z</time></trkpt><trkpt lat="45.7607094" lon="11.736145"><ele>114.0</ele><time>2026-04-06T15:09:00.63Z</time></trkpt><trkpt lat="45.7608189" lon="11.7364132"><ele>114.0</ele><time>2026-04-06T15:09:01.604Z</time></trkpt><trkpt lat="45.7609133" lon="11.7366545"><ele>114.0</ele><time>2026-04-06T15:09:02.582Z</time></trkpt><trkpt lat="45.7610229" lon="11.7368425"><ele>114.0</ele><time>2026-04-06T15:09:03.606Z</time></trkpt><trkpt lat="45.7611089" lon="11.7370043"><ele>114.0</ele><time>2026-04-06T15:09:04.599Z</time></trkpt><trkpt lat="45.7611274" lon="11.7371654"><ele>114.0</ele><time>2026-04-06T15:09:05.595Z</time></trkpt><trkpt lat="45.7611119" lon="11.7373326"><ele>114.75</ele><time>2026-04-06T15:09:06.579Z</time></trkpt><trkpt lat="45.7610836" lon="11.7375171"><ele>115.5</ele><time>2026-04-06T15:09:07.603Z</time></trkpt><trkpt lat="45.7610372" lon="11.7376821"><ele>116.25</ele><time>2026-04-06T15:09:08.584Z</time></trkpt><trkpt lat="45.7609478" lon="11.7378369"><ele>117.0</ele><time>2026-04-06T15:09:09.588Z</time></trkpt><trkpt lat="45.7608955" lon="11.7380125"><ele>117.25</ele><time>2026-04-06T15:09:10.577Z</time></trkpt><trkpt lat="45.7608771" lon="11.7382375"><ele>117.5</ele><time>2026-04-06T15:09:11.574Z</time></trkpt><trkpt lat="45.7608642" lon="11.7384643"><ele>117.75</ele><time>2026-04-06T15:09:12.587Z</time></trkpt><trkpt lat="45.7608389" lon="11.7386408"><ele>118.0</ele><time>2026-04-06T15:09:13.574Z</time></trkpt><trkpt lat="45.7608647" lon="11.7388011"><ele>118.80000000000001</ele><time>2026-04-06T15:09:14.58Z</time></trkpt><trkpt lat="45.7608638" lon="11.7389501"><ele>119.60000000000001</ele><time>2026-04-06T15:09:15.577Z</time></trkpt><trkpt lat="45.7608791" lon="11.7390712"><ele>120.39999999999999</ele><time>2026-04-06T15:09:16.568Z</time></trkpt><trkpt lat="45.7608712" lon="11.7392133"><ele>121.19999999999999</ele><time>2026-04-06T15:09:18.598Z</time></trkpt><trkpt lat="45.7608465" lon="11.7393335"><ele>122.0</ele><time>2026-04-06T15:09:39.579Z</time></trkpt><trkpt lat="45.7608452" lon="11.73944"><ele>122.66666666666666</ele><time>2026-04-06T15:09:40.576Z</time></trkpt><trkpt lat="45.7608454" lon="11.7396021"><ele>123.33333333333334</ele><time>2026-04-06T15:09:41.584Z</time></trkpt><trkpt lat="45.7608341" lon="11.7397876"><ele>124.0</ele><time>2026-04-06T15:09:42.58Z</time></trkpt><trkpt lat="45.7607895" lon="11.7400914"><ele>125.0</ele><time>2026-04-06T15:09:43.577Z</time></trkpt><trkpt lat="45.760749" lon="11.7404262"><ele>126.0</ele><time>2026-04-06T15:09:44.573Z</time></trkpt><trkpt lat="45.7607275" lon="11.7407643"><ele>126.0</ele><time>2026-04-06T15:09:45.569Z</time></trkpt><trkpt lat="45.7607439" lon="11.7410001"><ele>126.0</ele><time>2026-04-06T15:09:46.583Z</time></trkpt><trkpt lat="45.7607734" lon="11.7411639"><ele>126.0</ele><time>2026-04-06T15:09:47.583Z</time></trkpt><trkpt lat="45.7608378" lon="11.7412825"><ele>126.0</ele><time>2026-04-06T15:09:48.601Z</time></trkpt><trkpt lat="45.7609258" lon="11.7413351"><ele>126.0</ele><time>2026-04-06T15:09:49.58Z</time></trkpt><trkpt lat="45.7610128" lon="11.7413179"><ele>126.0</ele><time>2026-04-06T15:09:50.576Z</time></trkpt><trkpt lat="45.7611166" lon="11.7412356"><ele>126.0</ele><time>2026-04-06T15:09:51.578Z</time></trkpt><trkpt lat="45.7612572" lon="11.7411212"><ele>126.0</ele><time>2026-04-06T15:09:52.587Z</time></trkpt><trkpt lat="45.7613925" lon="11.7410027"><ele>126.33333333333334</ele><time>2026-04-06T15:09:53.586Z</time></trkpt><trkpt lat="45.7615488" lon="11.740901"><ele>126.66666666666667</ele><time>2026-04-06T15:09:54.575Z</time></trkpt><trkpt lat="45.7617082" lon="11.7408159"><ele>127.0</ele><time>2026-04-06T15:09:55.581Z</time></trkpt><trkpt lat="45.7618771" lon="11.7407145"><ele>127.0</ele><time>2026-04-06T15:09:56.582Z</time></trkpt><trkpt lat="45.7620364" lon="11.7406105"><ele>127.0</ele><time>2026-04-06T15:09:57.577Z</time></trkpt><trkpt lat="45.7621921" lon="11.7405169"><ele>127.0</ele><time>2026-04-06T15:09:58.603Z</time></trkpt><trkpt lat="45.7623411" lon="11.7404312"><ele>127.0</ele><time>2026-04-06T15:09:59.583Z</time></trkpt><trkpt lat="45.7624766" lon="11.7403411"><ele>127.0</ele><time>2026-04-06T15:10:00.582Z</time></trkpt><trkpt lat="45.7626036" lon="11.7402495"><ele>127.0</ele><time>2026-04-06T15:10:01.59Z</time></trkpt><trkpt lat="45.7627236" lon="11.7401614"><ele>127.0</ele><time>2026-04-06T15:10:02.586Z</time></trkpt><trkpt lat="45.7628173" lon="11.7400843"><ele>128.0</ele><time>2026-04-06T15:10:03.584Z</time></trkpt><trkpt lat="45.7628956" lon="11.7400269"><ele>129.0</ele><time>2026-04-06T15:10:04.591Z</time></trkpt><trkpt lat="45.7629921" lon="11.7399588"><ele>130.0</ele><time>2026-04-06T15:10:05.585Z</time></trkpt><trkpt lat="45.7631057" lon="11.7398652"><ele>131.0</ele><time>2026-04-06T15:10:06.579Z</time></trkpt><trkpt lat="45.7632441" lon="11.7397608"><ele>131.0</ele><time>2026-04-06T15:10:07.586Z</time></trkpt><trkpt lat="45.7634297" lon="11.739652"><ele>131.0</ele><time>2026-04-06T15:10:08.579Z</time></trkpt><trkpt lat="45.763607" lon="11.7395519"><ele>131.0</ele><time>2026-04-06T15:10:09.599Z</time></trkpt><trkpt lat="45.7637761" lon="11.7394912"><ele>132.0</ele><time>2026-04-06T15:10:10.574Z</time></trkpt><trkpt lat="45.7639745" lon="11.7393774"><ele>133.0</ele><time>2026-04-06T15:10:11.581Z</time></trkpt><trkpt lat="45.7641698" lon="11.7392591"><ele>134.0</ele><time>2026-04-06T15:10:12.574Z</time></trkpt><trkpt lat="45.764335" lon="11.7391657"><ele>133.33333333333331</ele><time>2026-04-06T15:10:13.582Z</time></trkpt><trkpt lat="45.7644996" lon="11.7390955"><ele>132.66666666666666</ele><time>2026-04-06T15:10:14.577Z</time></trkpt><trkpt lat="45.7646418" lon="11.7390323"><ele>132.0</ele><time>2026-04-06T15:10:15.575Z</time></trkpt><trkpt lat="45.7647762" lon="11.7389568"><ele>132.0</ele><time>2026-04-06T15:10:16.58Z</time></trkpt><trkpt lat="45.7649219" lon="11.7388904"><ele>132.0</ele><time>2026-04-06T15:10:17.578Z</time></trkpt><trkpt lat="45.765049" lon="11.7388602"><ele>132.0</ele><time>2026-04-06T15:10:18.599Z</time></trkpt><trkpt lat="45.7651359" lon="11.7388362"><ele>132.0</ele><time>2026-04-06T15:10:19.581Z</time></trkpt><trkpt lat="45.7652293" lon="11.7388008"><ele>132.2</ele><time>2026-04-06T15:10:20.607Z</time></trkpt><trkpt lat="45.765306" lon="11.7387454"><ele>132.39999999999998</ele><time>2026-04-06T15:10:21.578Z</time></trkpt><trkpt lat="45.7653962" lon="11.7386563"><ele>132.60000000000002</ele><time>2026-04-06T15:10:22.603Z</time></trkpt><trkpt lat="45.7654982" lon="11.7385842"><ele>132.8</ele><time>2026-04-06T15:10:23.585Z</time></trkpt><trkpt lat="45.7656236" lon="11.7385369"><ele>133.0</ele><time>2026-04-06T15:10:24.581Z</time></trkpt><trkpt lat="45.7657574" lon="11.738507"><ele>132.75</ele><time>2026-04-06T15:10:25.585Z</time></trkpt><trkpt lat="45.7659012" lon="11.7385043"><ele>132.5</ele><time>2026-04-06T15:10:26.583Z</time></trkpt><trkpt lat="45.766055" lon="11.738513"><ele>132.25</ele><time>2026-04-06T15:10:27.582Z</time></trkpt><trkpt lat="45.7661711" lon="11.7385266"><ele>132.0</ele><time>2026-04-06T15:10:28.577Z</time></trkpt><trkpt lat="45.7662746" lon="11.7385269"><ele>132.0</ele><time>2026-04-06T15:10:29.586Z</time></trkpt><trkpt lat="45.7663603" lon="11.7385283"><ele>132.0</ele><time>2026-04-06T15:10:30.601Z</time></trkpt><trkpt lat="45.7664487" lon="11.7385226"><ele>132.0</ele><time>2026-04-06T15:10:31.582Z</time></trkpt><trkpt lat="45.7665406" lon="11.7385416"><ele>132.0</ele><time>2026-04-06T15:10:32.585Z</time></trkpt><trkpt lat="45.7666436" lon="11.7385472"><ele>132.0</ele><time>2026-04-06T15:10:33.58Z</time></trkpt><trkpt lat="45.7667647" lon="11.7385392"><ele>132.33333333333334</ele><time>2026-04-06T15:10:34.58Z</time></trkpt><trkpt lat="45.766905" lon="11.7385118"><ele>132.66666666666669</ele><time>2026-04-06T15:10:35.586Z</time></trkpt><trkpt lat="45.7670596" lon="11.738488"><ele>133.0</ele><time>2026-04-06T15:10:36.585Z</time></trkpt><trkpt lat="45.7672552" lon="11.7384648"><ele>133.0</ele><time>2026-04-06T15:10:37.582Z</time></trkpt><trkpt lat="45.7674507" lon="11.7384352"><ele>133.0</ele><time>2026-04-06T15:10:38.582Z</time></trkpt><trkpt lat="45.7676301" lon="11.738419"><ele>133.0</ele><time>2026-04-06T15:10:39.587Z</time></trkpt><trkpt lat="45.7677801" lon="11.7383959"><ele>133.0</ele><time>2026-04-06T15:10:40.578Z</time></trkpt><trkpt lat="45.7679464" lon="11.7383933"><ele>133.0</ele><time>2026-04-06T15:10:41.584Z</time></trkpt><trkpt lat="45.7681136" lon="11.7383992"><ele>133.0</ele><time>2026-04-06T15:10:42.587Z</time></trkpt><trkpt lat="45.76829" lon="11.7384191"><ele>133.0</ele><time>2026-04-06T15:10:43.582Z</time></trkpt><trkpt lat="45.7684704" lon="11.7384382"><ele>133.0</ele><time>2026-04-06T15:10:44.58Z</time></trkpt><trkpt lat="45.7686295" lon="11.7384196"><ele>133.0</ele><time>2026-04-06T15:10:45.581Z</time></trkpt><trkpt lat="45.7687641" lon="11.73841"><ele>133.75</ele><time>2026-04-06T15:10:46.579Z</time></trkpt><trkpt lat="45.7689033" lon="11.7383763"><ele>134.5</ele><time>2026-04-06T15:10:47.59Z</time></trkpt><trkpt lat="45.7690438" lon="11.7383551"><ele>135.25</ele><time>2026-04-06T15:10:48.585Z</time></trkpt><trkpt lat="45.7691682" lon="11.7383936"><ele>136.0</ele><time>2026-04-06T15:10:49.583Z</time></trkpt><trkpt lat="45.769293" lon="11.7384067"><ele>134.5</ele><time>2026-04-06T15:10:50.588Z</time></trkpt><trkpt lat="45.7693907" lon="11.7384026"><ele>133.0</ele><time>2026-04-06T15:10:51.579Z</time></trkpt><trkpt lat="45.7694583" lon="11.7384021"><ele>131.5</ele><time>2026-04-06T15:10:52.588Z</time></trkpt><trkpt lat="45.7695229" lon="11.7384061"><ele>130.0</ele><time>2026-04-06T15:10:53.581Z</time></trkpt><trkpt lat="45.7696457" lon="11.7383917"><ele>128.5</ele><time>2026-04-06T15:10:55.584Z</time></trkpt><trkpt lat="45.7697274" lon="11.7384247"><ele>127.0</ele><time>2026-04-06T15:10:56.602Z</time></trkpt><trkpt lat="45.7698102" lon="11.7384868"><ele>126.6</ele><time>2026-04-06T15:10:57.57Z</time></trkpt><trkpt lat="45.769884" lon="11.7385798"><ele>126.19999999999999</ele><time>2026-04-06T15:10:58.599Z</time></trkpt><trkpt lat="45.7699577" lon="11.7386563"><ele>125.8</ele><time>2026-04-06T15:10:59.57Z</time></trkpt><trkpt lat="45.7700349" lon="11.7387488"><ele>125.4</ele><time>2026-04-06T15:11:00.579Z</time></trkpt><trkpt lat="45.7701268" lon="11.7388549"><ele>125.0</ele><time>2026-04-06T15:11:01.586Z</time></trkpt><trkpt lat="45.770234" lon="11.7389751"><ele>125.0</ele><time>2026-04-06T15:11:02.587Z</time></trkpt><trkpt lat="45.7703481" lon="11.739093"><ele>125.0</ele><time>2026-04-06T15:11:03.589Z</time></trkpt><trkpt lat="45.7704709" lon="11.739216"><ele>125.0</ele><time>2026-04-06T15:11:04.589Z</time></trkpt><trkpt lat="45.7706236" lon="11.7393876"><ele>125.66666666666666</ele><time>2026-04-06T15:11:05.585Z</time></trkpt><trkpt lat="45.7707773" lon="11.7395664"><ele>126.33333333333334</ele><time>2026-04-06T15:11:06.595Z</time></trkpt><trkpt lat="45.770928" lon="11.7397258"><ele>127.0</ele><time>2026-04-06T15:11:07.588Z</time></trkpt><trkpt lat="45.771051" lon="11.739869"><ele>127.0</ele><time>2026-04-06T15:11:08.594Z</time></trkpt><trkpt lat="45.7712182" lon="11.7399913"><ele>127.0</ele><time>2026-04-06T15:11:09.586Z</time></trkpt><trkpt lat="45.771376" lon="11.7400864"><ele>127.0</ele><time>2026-04-06T15:11:10.588Z</time></trkpt><trkpt lat="45.7715682" lon="11.7401321"><ele>127.0</ele><time>2026-04-06T15:11:11.611Z</time></trkpt><trkpt lat="45.7717159" lon="11.7401876"><ele>127.0</ele><time>2026-04-06T15:11:12.585Z</time></trkpt><trkpt lat="45.7718361" lon="11.7402213"><ele>127.0</ele><time>2026-04-06T15:11:13.59Z</time></trkpt><trkpt lat="45.7719533" lon="11.7402861"><ele>127.0</ele><time>2026-04-06T15:11:14.59Z</time></trkpt><trkpt lat="45.7720627" lon="11.7403259"><ele>128.0</ele><time>2026-04-06T15:11:15.592Z</time></trkpt><trkpt lat="45.7721773" lon="11.7403629"><ele>129.0</ele><time>2026-04-06T15:11:16.6Z</time></trkpt><trkpt lat="45.7722822" lon="11.7404044"><ele>130.0</ele><time>2026-04-06T15:11:17.59Z</time></trkpt><trkpt lat="45.7723743" lon="11.7404258"><ele>131.0</ele><time>2026-04-06T15:11:18.594Z</time></trkpt><trkpt lat="45.77249" lon="11.7404546"><ele>132.0</ele><time>2026-04-06T15:11:19.59Z</time></trkpt><trkpt lat="45.7726181" lon="11.7404798"><ele>132.5</ele><time>2026-04-06T15:11:20.592Z</time></trkpt><trkpt lat="45.7727417" lon="11.7404981"><ele>133.0</ele><time>2026-04-06T15:11:21.593Z</time></trkpt><trkpt lat="45.7728741" lon="11.7405159"><ele>133.5</ele><time>2026-04-06T15:11:22.584Z</time></trkpt><trkpt lat="45.7730283" lon="11.7405377"><ele>134.0</ele><time>2026-04-06T15:11:23.613Z</time></trkpt><trkpt lat="45.7732151" lon="11.7405662"><ele>134.0</ele><time>2026-04-06T15:11:24.594Z</time></trkpt><trkpt lat="45.773384" lon="11.7406005"><ele>134.0</ele><time>2026-04-06T15:11:25.597Z</time></trkpt><trkpt lat="45.7735083" lon="11.7406294"><ele>134.0</ele><time>2026-04-06T15:11:26.588Z</time></trkpt><trkpt lat="45.7736435" lon="11.7406559"><ele>134.0</ele><time>2026-04-06T15:11:27.583Z</time></trkpt><trkpt lat="45.7737706" lon="11.740736"><ele>134.0</ele><time>2026-04-06T15:11:28.59Z</time></trkpt><trkpt lat="45.773898" lon="11.7408231"><ele>134.0</ele><time>2026-04-06T15:11:29.585Z</time></trkpt><trkpt lat="45.7740169" lon="11.7409258"><ele>134.0</ele><time>2026-04-06T15:11:30.58Z</time></trkpt><trkpt lat="45.7741517" lon="11.7410181"><ele>134.0</ele><time>2026-04-06T15:11:31.586Z</time></trkpt><trkpt lat="45.7742952" lon="11.7410871"><ele>134.75</ele><time>2026-04-06T15:11:32.583Z</time></trkpt><trkpt lat="45.7744139" lon="11.7411427"><ele>135.5</ele><time>2026-04-06T15:11:33.588Z</time></trkpt><trkpt lat="45.7745164" lon="11.7411512"><ele>136.25</ele><time>2026-04-06T15:11:34.589Z</time></trkpt><trkpt lat="45.7746463" lon="11.7411754"><ele>137.0</ele><time>2026-04-06T15:11:35.593Z</time></trkpt><trkpt lat="45.7747836" lon="11.7411675"><ele>137.0</ele><time>2026-04-06T15:11:36.587Z</time></trkpt><trkpt lat="45.7749002" lon="11.7411654"><ele>137.0</ele><time>2026-04-06T15:11:37.591Z</time></trkpt><trkpt lat="45.7749981" lon="11.7411833"><ele>137.0</ele><time>2026-04-06T15:11:38.595Z</time></trkpt><trkpt lat="45.7751021" lon="11.7412013"><ele>137.0</ele><time>2026-04-06T15:11:39.591Z</time></trkpt><trkpt lat="45.7752073" lon="11.7412209"><ele>137.0</ele><time>2026-04-06T15:11:40.591Z</time></trkpt><trkpt lat="45.7753018" lon="11.7412323"><ele>136.0</ele><time>2026-04-06T15:11:41.592Z</time></trkpt><trkpt lat="45.7754004" lon="11.7412428"><ele>135.0</ele><time>2026-04-06T15:11:42.568Z</time></trkpt><trkpt lat="45.775516" lon="11.7412587"><ele>134.0</ele><time>2026-04-06T15:11:43.58Z</time></trkpt><trkpt lat="45.7756488" lon="11.7413047"><ele>133.0</ele><time>2026-04-06T15:11:44.57Z</time></trkpt><trkpt lat="45.7757814" lon="11.7414223"><ele>133.0</ele><time>2026-04-06T15:11:45.587Z</time></trkpt><trkpt lat="45.775905" lon="11.7415899"><ele>133.0</ele><time>2026-04-06T15:11:46.61Z</time></trkpt><trkpt lat="45.7760179" lon="11.7416935"><ele>133.0</ele><time>2026-04-06T15:11:47.581Z</time></trkpt><trkpt lat="45.7761106" lon="11.7417972"><ele>133.0</ele><time>2026-04-06T15:11:48.582Z</time></trkpt><trkpt lat="45.7762005" lon="11.7418736"><ele>133.20000000000002</ele><time>2026-04-06T15:11:49.588Z</time></trkpt><trkpt lat="45.7762927" lon="11.7419489"><ele>133.4</ele><time>2026-04-06T15:11:50.58Z</time></trkpt><trkpt lat="45.7763808" lon="11.742016"><ele>133.60000000000002</ele><time>2026-04-06T15:11:51.582Z</time></trkpt><trkpt lat="45.7764757" lon="11.742062"><ele>133.8</ele><time>2026-04-06T15:11:52.591Z</time></trkpt><trkpt lat="45.7765744" lon="11.7421031"><ele>134.0</ele><time>2026-04-06T15:11:53.585Z</time></trkpt><trkpt lat="45.7766768" lon="11.7421341"><ele>134.0</ele><time>2026-04-06T15:11:54.584Z</time></trkpt><trkpt lat="45.7767944" lon="11.7421527"><ele>134.0</ele><time>2026-04-06T15:11:55.588Z</time></trkpt><trkpt lat="45.7769287" lon="11.7421572"><ele>134.0</ele><time>2026-04-06T15:11:56.587Z</time></trkpt><trkpt lat="45.7770639" lon="11.7421604"><ele>134.0</ele><time>2026-04-06T15:11:57.589Z</time></trkpt><trkpt lat="45.7771938" lon="11.7421707"><ele>134.0</ele><time>2026-04-06T15:11:58.58Z</time></trkpt><trkpt lat="45.7773122" lon="11.7421782"><ele>134.0</ele><time>2026-04-06T15:11:59.586Z</time></trkpt><trkpt lat="45.777435" lon="11.742193"><ele>134.0</ele><time>2026-04-06T15:12:00.582Z</time></trkpt><trkpt lat="45.7775593" lon="11.7422068"><ele>134.0</ele><time>2026-04-06T15:12:01.624Z</time></trkpt><trkpt lat="45.7776933" lon="11.7422091"><ele>134.33333333333331</ele><time>2026-04-06T15:12:02.595Z</time></trkpt><trkpt lat="45.7778345" lon="11.7421956"><ele>134.66666666666666</ele><time>2026-04-06T15:12:03.583Z</time></trkpt><trkpt lat="45.7779902" lon="11.7421494"><ele>135.0</ele><time>2026-04-06T15:12:04.577Z</time></trkpt><trkpt lat="45.7781703" lon="11.7420714"><ele>135.0</ele><time>2026-04-06T15:12:05.583Z</time></trkpt><trkpt lat="45.778341" lon="11.7419706"><ele>135.0</ele><time>2026-04-06T15:12:06.583Z</time></trkpt><trkpt lat="45.7784964" lon="11.7418807"><ele>135.0</ele><time>2026-04-06T15:12:07.6Z</time></trkpt><trkpt lat="45.7786453" lon="11.7417877"><ele>135.0</ele><time>2026-04-06T15:12:08.587Z</time></trkpt><trkpt lat="45.7787795" lon="11.741678"><ele>135.0</ele><time>2026-04-06T15:12:09.585Z</time></trkpt><trkpt lat="45.7788967" lon="11.7416099"><ele>135.0</ele><time>2026-04-06T15:12:10.578Z</time></trkpt><trkpt lat="45.7790066" lon="11.7415276"><ele>135.0</ele><time>2026-04-06T15:12:11.583Z</time></trkpt><trkpt lat="45.7790853" lon="11.741472"><ele>135.0</ele><time>2026-04-06T15:12:12.589Z</time></trkpt><trkpt lat="45.7791488" lon="11.7414605"><ele>135.0</ele><time>2026-04-06T15:12:13.567Z</time></trkpt><trkpt lat="45.7792239" lon="11.7414517"><ele>135.0</ele><time>2026-04-06T15:12:15.578Z</time></trkpt><trkpt lat="45.7793281" lon="11.7413958"><ele>135.0</ele><time>2026-04-06T15:12:55.601Z</time></trkpt><trkpt lat="45.7794254" lon="11.7413565"><ele>135.0</ele><time>2026-04-06T15:12:56.606Z</time></trkpt><trkpt lat="45.7795557" lon="11.7413187"><ele>136.33333333333334</ele><time>2026-04-06T15:12:57.599Z</time></trkpt><trkpt lat="45.779706" lon="11.7412623"><ele>137.66666666666669</ele><time>2026-04-06T15:12:58.599Z</time></trkpt><trkpt lat="45.7799296" lon="11.7411967"><ele>139.0</ele><time>2026-04-06T15:12:59.599Z</time></trkpt><trkpt lat="45.7801509" lon="11.7410913"><ele>137.66666666666669</ele><time>2026-04-06T15:13:00.603Z</time></trkpt><trkpt lat="45.7803404" lon="11.7409955"><ele>136.33333333333334</ele><time>2026-04-06T15:13:01.596Z</time></trkpt><trkpt lat="45.7805032" lon="11.7409023"><ele>135.0</ele><time>2026-04-06T15:13:02.598Z</time></trkpt><trkpt lat="45.7806491" lon="11.7408388"><ele>135.0</ele><time>2026-04-06T15:13:03.604Z</time></trkpt><trkpt lat="45.7807911" lon="11.7407809"><ele>135.0</ele><time>2026-04-06T15:13:04.616Z</time></trkpt><trkpt lat="45.7809288" lon="11.7407378"><ele>135.0</ele><time>2026-04-06T15:13:05.603Z</time></trkpt><trkpt lat="45.7810673" lon="11.7406985"><ele>135.0</ele><time>2026-04-06T15:13:06.604Z</time></trkpt><trkpt lat="45.7812019" lon="11.7406421"><ele>135.66666666666666</ele><time>2026-04-06T15:13:07.6Z</time></trkpt><trkpt lat="45.7813545" lon="11.7405748"><ele>136.33333333333331</ele><time>2026-04-06T15:13:08.6Z</time></trkpt><trkpt lat="45.7815241" lon="11.7405112"><ele>137.0</ele><time>2026-04-06T15:13:09.597Z</time></trkpt><trkpt lat="45.7817089" lon="11.7404305"><ele>137.66666666666666</ele><time>2026-04-06T15:13:10.594Z</time></trkpt><trkpt lat="45.7818936" lon="11.7403349"><ele>138.33333333333334</ele><time>2026-04-06T15:13:11.6Z</time></trkpt><trkpt lat="45.7820642" lon="11.7402286"><ele>139.0</ele><time>2026-04-06T15:13:12.6Z</time></trkpt><trkpt lat="45.7822347" lon="11.7401213"><ele>139.0</ele><time>2026-04-06T15:13:13.594Z</time></trkpt><trkpt lat="45.7824243" lon="11.7400007"><ele>139.0</ele><time>2026-04-06T15:13:14.62Z</time></trkpt><trkpt lat="45.7826179" lon="11.7398754"><ele>139.0</ele><time>2026-04-06T15:13:15.601Z</time></trkpt><trkpt lat="45.7827868" lon="11.7397434"><ele>139.33333333333334</ele><time>2026-04-06T15:13:16.617Z</time></trkpt><trkpt lat="45.7829388" lon="11.7395973"><ele>139.66666666666666</ele><time>2026-04-06T15:13:17.601Z</time></trkpt><trkpt lat="45.783097" lon="11.739461"><ele>140.0</ele><time>2026-04-06T15:13:18.599Z</time></trkpt><trkpt lat="45.7832442" lon="11.7393275"><ele>140.0</ele><time>2026-04-06T15:13:19.596Z</time></trkpt><trkpt lat="45.7833828" lon="11.7391809"><ele>140.0</ele><time>2026-04-06T15:13:20.599Z</time></trkpt><trkpt lat="45.7835049" lon="11.7390508"><ele>140.0</ele><time>2026-04-06T15:13:21.598Z</time></trkpt><trkpt lat="45.7836264" lon="11.7389095"><ele>140.0</ele><time>2026-04-06T15:13:22.596Z</time></trkpt><trkpt lat="45.7837499" lon="11.7387658"><ele>140.0</ele><time>2026-04-06T15:13:23.603Z</time></trkpt><trkpt lat="45.78387" lon="11.7386211"><ele>140.0</ele><time>2026-04-06T15:13:24.602Z</time></trkpt><trkpt lat="45.7839893" lon="11.738471"><ele>140.33333333333331</ele><time>2026-04-06T15:13:25.594Z</time></trkpt><trkpt lat="45.7841169" lon="11.7383071"><ele>140.66666666666666</ele><time>2026-04-06T15:13:26.6Z</time></trkpt><trkpt lat="45.7842293" lon="11.7381369"><ele>141.0</ele><time>2026-04-06T15:13:27.597Z</time></trkpt><trkpt lat="45.7843452" lon="11.7380038"><ele>141.0</ele><time>2026-04-06T15:13:28.586Z</time></trkpt><trkpt lat="45.7844669" lon="11.7378481"><ele>141.0</ele><time>2026-04-06T15:13:29.6Z</time></trkpt><trkpt lat="45.7845931" lon="11.7376945"><ele>141.0</ele><time>2026-04-06T15:13:30.613Z</time></trkpt><trkpt lat="45.7847122" lon="11.7375837"><ele>141.0</ele><time>2026-04-06T15:13:31.601Z</time></trkpt><trkpt lat="45.7848542" lon="11.7374209"><ele>141.0</ele><time>2026-04-06T15:13:32.6Z</time></trkpt><trkpt lat="45.7850328" lon="11.7372638"><ele>141.0</ele><time>2026-04-06T15:13:33.6Z</time></trkpt><trkpt lat="45.7852075" lon="11.7370705"><ele>141.0</ele><time>2026-04-06T15:13:34.595Z</time></trkpt><trkpt lat="45.7853879" lon="11.7368345"><ele>141.0</ele><time>2026-04-06T15:13:35.599Z</time></trkpt><trkpt lat="45.7855494" lon="11.7366504"><ele>141.0</ele><time>2026-04-06T15:13:36.618Z</time></trkpt><trkpt lat="45.7856989" lon="11.7364405"><ele>141.0</ele><time>2026-04-06T15:13:37.6Z</time></trkpt><trkpt lat="45.7858395" lon="11.7362416"><ele>141.0</ele><time>2026-04-06T15:13:38.62Z</time></trkpt><trkpt lat="45.7859914" lon="11.7360705"><ele>141.33333333333334</ele><time>2026-04-06T15:13:39.619Z</time></trkpt><trkpt lat="45.7861256" lon="11.7358943"><ele>141.66666666666669</ele><time>2026-04-06T15:13:40.62Z</time></trkpt><trkpt lat="45.7862687" lon="11.7357258"><ele>142.0</ele><time>2026-04-06T15:13:41.624Z</time></trkpt><trkpt lat="45.7864283" lon="11.735579"><ele>142.0</ele><time>2026-04-06T15:13:42.592Z</time></trkpt><trkpt lat="45.7865419" lon="11.7354181"><ele>142.0</ele><time>2026-04-06T15:13:43.596Z</time></trkpt><trkpt lat="45.7866402" lon="11.7352806"><ele>142.0</ele><time>2026-04-06T15:13:44.598Z</time></trkpt><trkpt lat="45.7867516" lon="11.7351633"><ele>142.0</ele><time>2026-04-06T15:13:45.595Z</time></trkpt><trkpt lat="45.7868293" lon="11.7350468"><ele>142.0</ele><time>2026-04-06T15:13:46.628Z</time></trkpt><trkpt lat="45.7869009" lon="11.73495"><ele>142.0</ele><time>2026-04-06T15:13:47.618Z</time></trkpt><trkpt lat="45.7869477" lon="11.7348744"><ele>142.0</ele><time>2026-04-06T15:13:48.593Z</time></trkpt><trkpt lat="45.7869742" lon="11.7347512"><ele>142.0</ele><time>2026-04-06T15:13:50.604Z</time></trkpt><trkpt lat="45.7869467" lon="11.7346619"><ele>142.0</ele><time>2026-04-06T15:13:52.6Z</time></trkpt><trkpt lat="45.7868959" lon="11.7345714"><ele>142.0</ele><time>2026-04-06T15:14:10.603Z</time></trkpt><trkpt lat="45.786865" lon="11.7344867"><ele>142.6</ele><time>2026-04-06T15:14:12.602Z</time></trkpt><trkpt lat="45.7868295" lon="11.7343966"><ele>143.2</ele><time>2026-04-06T15:14:14.596Z</time></trkpt><trkpt lat="45.7867863" lon="11.73428"><ele>143.8</ele><time>2026-04-06T15:14:16.6Z</time></trkpt><trkpt lat="45.7867337" lon="11.7341616"><ele>144.4</ele><time>2026-04-06T15:14:18.596Z</time></trkpt><trkpt lat="45.7866622" lon="11.7340642"><ele>145.0</ele><time>2026-04-06T15:14:20.593Z</time></trkpt><trkpt lat="45.7865739" lon="11.7339807"><ele>145.0</ele><time>2026-04-06T15:14:22.625Z</time></trkpt><trkpt lat="45.786473" lon="11.7339125"><ele>145.0</ele><time>2026-04-06T15:14:24.598Z</time></trkpt><trkpt lat="45.7863687" lon="11.7338627"><ele>145.0</ele><time>2026-04-06T15:14:26.601Z</time></trkpt><trkpt lat="45.7862677" lon="11.7338047"><ele>145.0</ele><time>2026-04-06T15:14:28.6Z</time></trkpt><trkpt lat="45.7861661" lon="11.7337494"><ele>145.0</ele><time>2026-04-06T15:14:30.603Z</time></trkpt><trkpt lat="45.7860558" lon="11.7336793"><ele>145.2</ele><time>2026-04-06T15:14:32.601Z</time></trkpt><trkpt lat="45.7859442" lon="11.733601"><ele>145.4</ele><time>2026-04-06T15:14:34.6Z</time></trkpt><trkpt lat="45.785883" lon="11.7335622"><ele>145.6</ele><time>2026-04-06T15:14:35.596Z</time></trkpt><trkpt lat="45.785825" lon="11.7335259"><ele>145.8</ele><time>2026-04-06T15:14:36.589Z</time></trkpt><trkpt lat="45.7857227" lon="11.7334359"><ele>146.0</ele><time>2026-04-06T15:14:38.598Z</time></trkpt><trkpt lat="45.7856477" lon="11.7333334"><ele>143.8</ele><time>2026-04-06T15:14:40.601Z</time></trkpt><trkpt lat="45.7855922" lon="11.7332054"><ele>141.6</ele><time>2026-04-06T15:14:42.6Z</time></trkpt><trkpt lat="45.7855258" lon="11.7330531"><ele>139.4</ele><time>2026-04-06T15:14:44.602Z</time></trkpt><trkpt lat="45.7854931" lon="11.7329712"><ele>137.2</ele><time>2026-04-06T15:14:45.599Z</time></trkpt><trkpt lat="45.7854628" lon="11.7328909"><ele>135.0</ele><time>2026-04-06T15:14:46.594Z</time></trkpt><trkpt lat="45.7854029" lon="11.7327472"><ele>134.4</ele><time>2026-04-06T15:14:48.622Z</time></trkpt><trkpt lat="45.7853336" lon="11.7326526"><ele>133.8</ele><time>2026-04-06T15:14:50.62Z</time></trkpt><trkpt lat="45.7852435" lon="11.7326128"><ele>133.2</ele><time>2026-04-06T15:14:52.615Z</time></trkpt><trkpt lat="45.7851297" lon="11.7326549"><ele>132.6</ele><time>2026-04-06T15:14:54.596Z</time></trkpt><trkpt lat="45.7850226" lon="11.7327308"><ele>132.0</ele><time>2026-04-06T15:14:56.595Z</time></trkpt><trkpt lat="45.7849199" lon="11.7327931"><ele>132.0</ele><time>2026-04-06T15:14:58.601Z</time></trkpt><trkpt lat="45.7848076" lon="11.7328426"><ele>132.0</ele><time>2026-04-06T15:15:00.62Z</time></trkpt><trkpt lat="45.7846856" lon="11.7328796"><ele>132.0</ele><time>2026-04-06T15:15:02.599Z</time></trkpt><trkpt lat="45.7846232" lon="11.7328676"><ele>132.0</ele><time>2026-04-06T15:15:03.613Z</time></trkpt><trkpt lat="45.7845652" lon="11.7328324"><ele>132.0</ele><time>2026-04-06T15:15:04.619Z</time></trkpt><trkpt lat="45.7845151" lon="11.7327752"><ele>132.0</ele><time>2026-04-06T15:15:05.597Z</time></trkpt><trkpt lat="45.7844763" lon="11.7327014"><ele>129.0</ele><time>2026-04-06T15:15:06.599Z</time></trkpt><trkpt lat="45.7844015" lon="11.7325938"><ele>129.0</ele><time>2026-04-06T15:15:08.594Z</time></trkpt><trkpt lat="45.7844311" lon="11.7325085"><ele>129.0</ele><time>2026-04-06T15:17:40.63Z</time></trkpt></trkseg></trk></gpx>